<?xml version="1.0" encoding="UTF-8" standalone="no" ?>
<gpx xmlns="http://www.topografix.com/GPX/1/1" xmlns:xsi="http://www.w3.org/2001/XMLSchema-instance" xsi:schemaLocation="http://www.topografix.com/GPX/1/1 http://www.topografix.com/GPX/1/1/gpx.xsd" version="1.1" creator="VisuGPX - https://www.visugpx.com">
  <metadata>
    <name>Rando Vtt Colombiers 2020</name>
    <desc><![CDATA[Full singles]]></desc>
  </metadata>
  <trk>
    <name><![CDATA[Rando Vtt Colombiers 2020_1]]></name>
    <trkseg>
      <trkpt lat="46.77169" lon="0.42509">
        <ele>100.4</ele>
        <time>2020-10-11T06:32:05Z</time>
      </trkpt>
      <trkpt lat="46.77171" lon="0.42506">
        <ele>100.4</ele>
        <time>2020-10-11T06:32:12Z</time>
      </trkpt>
      <trkpt lat="46.77175" lon="0.42508">
        <ele>100.4</ele>
        <time>2020-10-11T06:32:14Z</time>
      </trkpt>
      <trkpt lat="46.77184" lon="0.42513">
        <ele>99.8</ele>
        <time>2020-10-11T06:32:17Z</time>
      </trkpt>
      <trkpt lat="46.77189" lon="0.42509">
        <ele>99.6</ele>
        <time>2020-10-11T06:32:18Z</time>
      </trkpt>
      <trkpt lat="46.77199" lon="0.42501">
        <ele>99</ele>
        <time>2020-10-11T06:32:20Z</time>
      </trkpt>
      <trkpt lat="46.77206" lon="0.42495">
        <ele>97.8</ele>
        <time>2020-10-11T06:32:22Z</time>
      </trkpt>
      <trkpt lat="46.77212" lon="0.42497">
        <ele>96.6</ele>
        <time>2020-10-11T06:32:24Z</time>
      </trkpt>
      <trkpt lat="46.77216" lon="0.42499">
        <ele>96.2</ele>
        <time>2020-10-11T06:32:25Z</time>
      </trkpt>
      <trkpt lat="46.77223" lon="0.42501">
        <ele>95.4</ele>
        <time>2020-10-11T06:32:27Z</time>
      </trkpt>
      <trkpt lat="46.77227" lon="0.42496">
        <ele>94.8</ele>
        <time>2020-10-11T06:32:29Z</time>
      </trkpt>
      <trkpt lat="46.77227" lon="0.42496">
        <ele>94</ele>
        <time>2020-10-11T06:32:30Z</time>
      </trkpt>
      <trkpt lat="46.77226" lon="0.42476">
        <ele>93.8</ele>
        <time>2020-10-11T06:32:33Z</time>
      </trkpt>
      <trkpt lat="46.77226" lon="0.42471">
        <ele>93.6</ele>
        <time>2020-10-11T06:32:34Z</time>
      </trkpt>
      <trkpt lat="46.77221" lon="0.42438">
        <ele>93</ele>
        <time>2020-10-11T06:32:39Z</time>
      </trkpt>
      <trkpt lat="46.7722" lon="0.42431">
        <ele>92.8</ele>
        <time>2020-10-11T06:32:40Z</time>
      </trkpt>
      <trkpt lat="46.77212" lon="0.42378">
        <ele>92</ele>
        <time>2020-10-11T06:32:47Z</time>
      </trkpt>
      <trkpt lat="46.77211" lon="0.4237">
        <ele>91.8</ele>
        <time>2020-10-11T06:32:48Z</time>
      </trkpt>
      <trkpt lat="46.77204" lon="0.42322">
        <ele>91.4</ele>
        <time>2020-10-11T06:32:55Z</time>
      </trkpt>
      <trkpt lat="46.77196" lon="0.42278">
        <ele>91</ele>
        <time>2020-10-11T06:33:02Z</time>
      </trkpt>
      <trkpt lat="46.7719" lon="0.4225">
        <ele>91</ele>
        <time>2020-10-11T06:33:07Z</time>
      </trkpt>
      <trkpt lat="46.77188" lon="0.42242">
        <ele>91</ele>
        <time>2020-10-11T06:33:09Z</time>
      </trkpt>
      <trkpt lat="46.77187" lon="0.42238">
        <ele>91</ele>
        <time>2020-10-11T06:33:10Z</time>
      </trkpt>
      <trkpt lat="46.77181" lon="0.42227">
        <ele>91</ele>
        <time>2020-10-11T06:33:14Z</time>
      </trkpt>
      <trkpt lat="46.77179" lon="0.42227">
        <ele>91.2</ele>
        <time>2020-10-11T06:33:15Z</time>
      </trkpt>
      <trkpt lat="46.77177" lon="0.42228">
        <ele>91.2</ele>
        <time>2020-10-11T06:33:16Z</time>
      </trkpt>
      <trkpt lat="46.77171" lon="0.42234">
        <ele>91.4</ele>
        <time>2020-10-11T06:33:19Z</time>
      </trkpt>
      <trkpt lat="46.7716" lon="0.42241">
        <ele>92</ele>
        <time>2020-10-11T06:33:23Z</time>
      </trkpt>
      <trkpt lat="46.77146" lon="0.42248">
        <ele>92.4</ele>
        <time>2020-10-11T06:33:28Z</time>
      </trkpt>
      <trkpt lat="46.77138" lon="0.42253">
        <ele>93</ele>
        <time>2020-10-11T06:33:31Z</time>
      </trkpt>
      <trkpt lat="46.7713" lon="0.42257">
        <ele>93.6</ele>
        <time>2020-10-11T06:33:34Z</time>
      </trkpt>
      <trkpt lat="46.77124" lon="0.42261">
        <ele>94.2</ele>
        <time>2020-10-11T06:33:36Z</time>
      </trkpt>
      <trkpt lat="46.77112" lon="0.42268">
        <ele>95.2</ele>
        <time>2020-10-11T06:33:40Z</time>
      </trkpt>
      <trkpt lat="46.77103" lon="0.42274">
        <ele>95.6</ele>
        <time>2020-10-11T06:33:43Z</time>
      </trkpt>
      <trkpt lat="46.77095" lon="0.4228">
        <ele>96.4</ele>
        <time>2020-10-11T06:33:46Z</time>
      </trkpt>
      <trkpt lat="46.77084" lon="0.42288">
        <ele>97.6</ele>
        <time>2020-10-11T06:33:50Z</time>
      </trkpt>
      <trkpt lat="46.77078" lon="0.42291">
        <ele>98</ele>
        <time>2020-10-11T06:33:52Z</time>
      </trkpt>
      <trkpt lat="46.7707" lon="0.42297">
        <ele>98.8</ele>
        <time>2020-10-11T06:33:55Z</time>
      </trkpt>
      <trkpt lat="46.77062" lon="0.42301">
        <ele>100</ele>
        <time>2020-10-11T06:33:59Z</time>
      </trkpt>
      <trkpt lat="46.77055" lon="0.42305">
        <ele>101.2</ele>
        <time>2020-10-11T06:34:03Z</time>
      </trkpt>
      <trkpt lat="46.77051" lon="0.42307">
        <ele>101.8</ele>
        <time>2020-10-11T06:34:05Z</time>
      </trkpt>
      <trkpt lat="46.77046" lon="0.4231">
        <ele>102.6</ele>
        <time>2020-10-11T06:34:08Z</time>
      </trkpt>
      <trkpt lat="46.7704" lon="0.42314">
        <ele>103.8</ele>
        <time>2020-10-11T06:34:12Z</time>
      </trkpt>
      <trkpt lat="46.77039" lon="0.42315">
        <ele>104</ele>
        <time>2020-10-11T06:34:13Z</time>
      </trkpt>
      <trkpt lat="46.77034" lon="0.42319">
        <ele>104.8</ele>
        <time>2020-10-11T06:34:16Z</time>
      </trkpt>
      <trkpt lat="46.77027" lon="0.42327">
        <ele>106</ele>
        <time>2020-10-11T06:34:20Z</time>
      </trkpt>
      <trkpt lat="46.77024" lon="0.42336">
        <ele>107.2</ele>
        <time>2020-10-11T06:34:23Z</time>
      </trkpt>
      <trkpt lat="46.77025" lon="0.42342">
        <ele>108</ele>
        <time>2020-10-11T06:34:25Z</time>
      </trkpt>
      <trkpt lat="46.77025" lon="0.42344">
        <ele>108.6</ele>
        <time>2020-10-11T06:34:26Z</time>
      </trkpt>
      <trkpt lat="46.77025" lon="0.42351">
        <ele>109.6</ele>
        <time>2020-10-11T06:34:29Z</time>
      </trkpt>
      <trkpt lat="46.77026" lon="0.42362">
        <ele>110.8</ele>
        <time>2020-10-11T06:34:33Z</time>
      </trkpt>
      <trkpt lat="46.77025" lon="0.4237">
        <ele>112</ele>
        <time>2020-10-11T06:34:36Z</time>
      </trkpt>
      <trkpt lat="46.77022" lon="0.42378">
        <ele>113</ele>
        <time>2020-10-11T06:34:39Z</time>
      </trkpt>
      <trkpt lat="46.77015" lon="0.42384">
        <ele>114.4</ele>
        <time>2020-10-11T06:34:43Z</time>
      </trkpt>
      <trkpt lat="46.77007" lon="0.4239">
        <ele>115.4</ele>
        <time>2020-10-11T06:34:47Z</time>
      </trkpt>
      <trkpt lat="46.77001" lon="0.42397">
        <ele>116.4</ele>
        <time>2020-10-11T06:34:51Z</time>
      </trkpt>
      <trkpt lat="46.76996" lon="0.424">
        <ele>117.2</ele>
        <time>2020-10-11T06:34:54Z</time>
      </trkpt>
      <trkpt lat="46.76994" lon="0.424">
        <ele>117.4</ele>
        <time>2020-10-11T06:34:55Z</time>
      </trkpt>
      <trkpt lat="46.76993" lon="0.42399">
        <ele>117.6</ele>
        <time>2020-10-11T06:34:56Z</time>
      </trkpt>
      <trkpt lat="46.76991" lon="0.42397">
        <ele>118</ele>
        <time>2020-10-11T06:34:57Z</time>
      </trkpt>
      <trkpt lat="46.7699" lon="0.42394">
        <ele>118.4</ele>
        <time>2020-10-11T06:34:58Z</time>
      </trkpt>
      <trkpt lat="46.76989" lon="0.4239">
        <ele>118.8</ele>
        <time>2020-10-11T06:34:59Z</time>
      </trkpt>
      <trkpt lat="46.76984" lon="0.42374">
        <ele>119.8</ele>
        <time>2020-10-11T06:35:03Z</time>
      </trkpt>
      <trkpt lat="46.76983" lon="0.42369">
        <ele>120</ele>
        <time>2020-10-11T06:35:04Z</time>
      </trkpt>
      <trkpt lat="46.7698" lon="0.42359">
        <ele>120.2</ele>
        <time>2020-10-11T06:35:06Z</time>
      </trkpt>
      <trkpt lat="46.76972" lon="0.42333">
        <ele>120.2</ele>
        <time>2020-10-11T06:35:11Z</time>
      </trkpt>
      <trkpt lat="46.76958" lon="0.42299">
        <ele>119.6</ele>
        <time>2020-10-11T06:35:18Z</time>
      </trkpt>
      <trkpt lat="46.7695" lon="0.42273">
        <ele>119.8</ele>
        <time>2020-10-11T06:35:24Z</time>
      </trkpt>
      <trkpt lat="46.76945" lon="0.4224">
        <ele>120.6</ele>
        <time>2020-10-11T06:35:31Z</time>
      </trkpt>
      <trkpt lat="46.76931" lon="0.42201">
        <ele>120.2</ele>
        <time>2020-10-11T06:35:38Z</time>
      </trkpt>
      <trkpt lat="46.76916" lon="0.42166">
        <ele>119.8</ele>
        <time>2020-10-11T06:35:45Z</time>
      </trkpt>
      <trkpt lat="46.76899" lon="0.42135">
        <ele>119.8</ele>
        <time>2020-10-11T06:35:52Z</time>
      </trkpt>
      <trkpt lat="46.76886" lon="0.42107">
        <ele>119.2</ele>
        <time>2020-10-11T06:35:58Z</time>
      </trkpt>
      <trkpt lat="46.76884" lon="0.42092">
        <ele>118.8</ele>
        <time>2020-10-11T06:36:00Z</time>
      </trkpt>
      <trkpt lat="46.76881" lon="0.42074">
        <ele>118.2</ele>
        <time>2020-10-11T06:36:02Z</time>
      </trkpt>
      <trkpt lat="46.76879" lon="0.42056">
        <ele>117.8</ele>
        <time>2020-10-11T06:36:04Z</time>
      </trkpt>
      <trkpt lat="46.76877" lon="0.42048">
        <ele>117.4</ele>
        <time>2020-10-11T06:36:05Z</time>
      </trkpt>
      <trkpt lat="46.7687" lon="0.42032">
        <ele>116.4</ele>
        <time>2020-10-11T06:36:07Z</time>
      </trkpt>
      <trkpt lat="46.76856" lon="0.4201">
        <ele>115.4</ele>
        <time>2020-10-11T06:36:10Z</time>
      </trkpt>
      <trkpt lat="46.7684" lon="0.41987">
        <ele>114.4</ele>
        <time>2020-10-11T06:36:13Z</time>
      </trkpt>
      <trkpt lat="46.76835" lon="0.41979">
        <ele>114</ele>
        <time>2020-10-11T06:36:14Z</time>
      </trkpt>
      <trkpt lat="46.76825" lon="0.41961">
        <ele>113.4</ele>
        <time>2020-10-11T06:36:17Z</time>
      </trkpt>
      <trkpt lat="46.76822" lon="0.41958">
        <ele>113.4</ele>
        <time>2020-10-11T06:36:18Z</time>
      </trkpt>
      <trkpt lat="46.76816" lon="0.41956">
        <ele>113.6</ele>
        <time>2020-10-11T06:36:20Z</time>
      </trkpt>
      <trkpt lat="46.76803" lon="0.41964">
        <ele>114.6</ele>
        <time>2020-10-11T06:36:24Z</time>
      </trkpt>
      <trkpt lat="46.76794" lon="0.41968">
        <ele>115</ele>
        <time>2020-10-11T06:36:27Z</time>
      </trkpt>
      <trkpt lat="46.76791" lon="0.41966">
        <ele>115.2</ele>
        <time>2020-10-11T06:36:28Z</time>
      </trkpt>
      <trkpt lat="46.76778" lon="0.41945">
        <ele>115.6</ele>
        <time>2020-10-11T06:36:33Z</time>
      </trkpt>
      <trkpt lat="46.76769" lon="0.41929">
        <ele>116.2</ele>
        <time>2020-10-11T06:36:37Z</time>
      </trkpt>
      <trkpt lat="46.76764" lon="0.41921">
        <ele>116.4</ele>
        <time>2020-10-11T06:36:39Z</time>
      </trkpt>
      <trkpt lat="46.76742" lon="0.4189">
        <ele>116</ele>
        <time>2020-10-11T06:36:46Z</time>
      </trkpt>
      <trkpt lat="46.76731" lon="0.41871">
        <ele>115</ele>
        <time>2020-10-11T06:36:49Z</time>
      </trkpt>
      <trkpt lat="46.76722" lon="0.41857">
        <ele>114.2</ele>
        <time>2020-10-11T06:36:51Z</time>
      </trkpt>
      <trkpt lat="46.76718" lon="0.41849">
        <ele>114</ele>
        <time>2020-10-11T06:36:52Z</time>
      </trkpt>
      <trkpt lat="46.76705" lon="0.41824">
        <ele>112.6</ele>
        <time>2020-10-11T06:36:55Z</time>
      </trkpt>
      <trkpt lat="46.76697" lon="0.41806">
        <ele>111.2</ele>
        <time>2020-10-11T06:36:57Z</time>
      </trkpt>
      <trkpt lat="46.76693" lon="0.41796">
        <ele>110.6</ele>
        <time>2020-10-11T06:36:58Z</time>
      </trkpt>
      <trkpt lat="46.76689" lon="0.41784">
        <ele>110</ele>
        <time>2020-10-11T06:36:59Z</time>
      </trkpt>
      <trkpt lat="46.76682" lon="0.41761">
        <ele>108.8</ele>
        <time>2020-10-11T06:37:01Z</time>
      </trkpt>
      <trkpt lat="46.76676" lon="0.41738">
        <ele>107.8</ele>
        <time>2020-10-11T06:37:03Z</time>
      </trkpt>
      <trkpt lat="46.76669" lon="0.41707">
        <ele>106.8</ele>
        <time>2020-10-11T06:37:06Z</time>
      </trkpt>
      <trkpt lat="46.76667" lon="0.41698">
        <ele>106.6</ele>
        <time>2020-10-11T06:37:07Z</time>
      </trkpt>
      <trkpt lat="46.76665" lon="0.41689">
        <ele>106.6</ele>
        <time>2020-10-11T06:37:08Z</time>
      </trkpt>
      <trkpt lat="46.76655" lon="0.4166">
        <ele>106.8</ele>
        <time>2020-10-11T06:37:12Z</time>
      </trkpt>
      <trkpt lat="46.76647" lon="0.41642">
        <ele>107.8</ele>
        <time>2020-10-11T06:37:15Z</time>
      </trkpt>
      <trkpt lat="46.76639" lon="0.41622">
        <ele>108.8</ele>
        <time>2020-10-11T06:37:19Z</time>
      </trkpt>
      <trkpt lat="46.76633" lon="0.41606">
        <ele>109.8</ele>
        <time>2020-10-11T06:37:23Z</time>
      </trkpt>
      <trkpt lat="46.76631" lon="0.41602">
        <ele>110</ele>
        <time>2020-10-11T06:37:24Z</time>
      </trkpt>
      <trkpt lat="46.76624" lon="0.41586">
        <ele>110</ele>
        <time>2020-10-11T06:37:27Z</time>
      </trkpt>
      <trkpt lat="46.76618" lon="0.41569">
        <ele>110.6</ele>
        <time>2020-10-11T06:37:30Z</time>
      </trkpt>
      <trkpt lat="46.76615" lon="0.41559">
        <ele>111</ele>
        <time>2020-10-11T06:37:32Z</time>
      </trkpt>
      <trkpt lat="46.76607" lon="0.41535">
        <ele>111.6</ele>
        <time>2020-10-11T06:37:36Z</time>
      </trkpt>
      <trkpt lat="46.76602" lon="0.41523">
        <ele>111.6</ele>
        <time>2020-10-11T06:37:38Z</time>
      </trkpt>
      <trkpt lat="46.76594" lon="0.41498">
        <ele>111.8</ele>
        <time>2020-10-11T06:37:42Z</time>
      </trkpt>
      <trkpt lat="46.76578" lon="0.41454">
        <ele>112</ele>
        <time>2020-10-11T06:37:49Z</time>
      </trkpt>
      <trkpt lat="46.76576" lon="0.41447">
        <ele>112</ele>
        <time>2020-10-11T06:37:50Z</time>
      </trkpt>
      <trkpt lat="46.76555" lon="0.41385">
        <ele>111.6</ele>
        <time>2020-10-11T06:37:59Z</time>
      </trkpt>
      <trkpt lat="46.76538" lon="0.41323">
        <ele>111.6</ele>
        <time>2020-10-11T06:38:07Z</time>
      </trkpt>
      <trkpt lat="46.76521" lon="0.41259">
        <ele>112</ele>
        <time>2020-10-11T06:38:15Z</time>
      </trkpt>
      <trkpt lat="46.76508" lon="0.41216">
        <ele>111</ele>
        <time>2020-10-11T06:38:20Z</time>
      </trkpt>
      <trkpt lat="46.76498" lon="0.41191">
        <ele>110.6</ele>
        <time>2020-10-11T06:38:23Z</time>
      </trkpt>
      <trkpt lat="46.76488" lon="0.41167">
        <ele>110</ele>
        <time>2020-10-11T06:38:26Z</time>
      </trkpt>
      <trkpt lat="46.76474" lon="0.41137">
        <ele>109.8</ele>
        <time>2020-10-11T06:38:30Z</time>
      </trkpt>
      <trkpt lat="46.76448" lon="0.41083">
        <ele>109.2</ele>
        <time>2020-10-11T06:38:38Z</time>
      </trkpt>
      <trkpt lat="46.76439" lon="0.41062">
        <ele>109</ele>
        <time>2020-10-11T06:38:41Z</time>
      </trkpt>
      <trkpt lat="46.76426" lon="0.41036">
        <ele>109.4</ele>
        <time>2020-10-11T06:38:45Z</time>
      </trkpt>
      <trkpt lat="46.7642" lon="0.41023">
        <ele>109.6</ele>
        <time>2020-10-11T06:38:47Z</time>
      </trkpt>
      <trkpt lat="46.76397" lon="0.40978">
        <ele>108.4</ele>
        <time>2020-10-11T06:38:54Z</time>
      </trkpt>
      <trkpt lat="46.76384" lon="0.40955">
        <ele>108</ele>
        <time>2020-10-11T06:38:59Z</time>
      </trkpt>
      <trkpt lat="46.76382" lon="0.40951">
        <ele>107.8</ele>
        <time>2020-10-11T06:39:00Z</time>
      </trkpt>
      <trkpt lat="46.76388" lon="0.40936">
        <ele>107.6</ele>
        <time>2020-10-11T06:39:03Z</time>
      </trkpt>
      <trkpt lat="46.76398" lon="0.40923">
        <ele>107.2</ele>
        <time>2020-10-11T06:39:05Z</time>
      </trkpt>
      <trkpt lat="46.76404" lon="0.40916">
        <ele>106.8</ele>
        <time>2020-10-11T06:39:06Z</time>
      </trkpt>
      <trkpt lat="46.76411" lon="0.40909">
        <ele>106.4</ele>
        <time>2020-10-11T06:39:07Z</time>
      </trkpt>
      <trkpt lat="46.76417" lon="0.40902">
        <ele>105.6</ele>
        <time>2020-10-11T06:39:08Z</time>
      </trkpt>
      <trkpt lat="46.76431" lon="0.40888">
        <ele>104.2</ele>
        <time>2020-10-11T06:39:10Z</time>
      </trkpt>
      <trkpt lat="46.76452" lon="0.40866">
        <ele>103.2</ele>
        <time>2020-10-11T06:39:13Z</time>
      </trkpt>
      <trkpt lat="46.76458" lon="0.40859">
        <ele>103</ele>
        <time>2020-10-11T06:39:14Z</time>
      </trkpt>
      <trkpt lat="46.76484" lon="0.40831">
        <ele>101.8</ele>
        <time>2020-10-11T06:39:18Z</time>
      </trkpt>
      <trkpt lat="46.76496" lon="0.40817">
        <ele>100.4</ele>
        <time>2020-10-11T06:39:20Z</time>
      </trkpt>
      <trkpt lat="46.76507" lon="0.40805">
        <ele>99.2</ele>
        <time>2020-10-11T06:39:22Z</time>
      </trkpt>
      <trkpt lat="46.76517" lon="0.40794">
        <ele>98.2</ele>
        <time>2020-10-11T06:39:24Z</time>
      </trkpt>
      <trkpt lat="46.76532" lon="0.40779">
        <ele>97</ele>
        <time>2020-10-11T06:39:27Z</time>
      </trkpt>
      <trkpt lat="46.7658" lon="0.40726">
        <ele>96.4</ele>
        <time>2020-10-11T06:39:36Z</time>
      </trkpt>
      <trkpt lat="46.76594" lon="0.40711">
        <ele>95.6</ele>
        <time>2020-10-11T06:39:39Z</time>
      </trkpt>
      <trkpt lat="46.76608" lon="0.40696">
        <ele>94.8</ele>
        <time>2020-10-11T06:39:42Z</time>
      </trkpt>
      <trkpt lat="46.76613" lon="0.4069">
        <ele>94.4</ele>
        <time>2020-10-11T06:39:43Z</time>
      </trkpt>
      <trkpt lat="46.76633" lon="0.40668">
        <ele>93.8</ele>
        <time>2020-10-11T06:39:48Z</time>
      </trkpt>
      <trkpt lat="46.76637" lon="0.4066">
        <ele>93.4</ele>
        <time>2020-10-11T06:39:50Z</time>
      </trkpt>
      <trkpt lat="46.76638" lon="0.40655">
        <ele>93</ele>
        <time>2020-10-11T06:39:51Z</time>
      </trkpt>
      <trkpt lat="46.76638" lon="0.40649">
        <ele>92.8</ele>
        <time>2020-10-11T06:39:52Z</time>
      </trkpt>
      <trkpt lat="46.76631" lon="0.40631">
        <ele>92.2</ele>
        <time>2020-10-11T06:39:55Z</time>
      </trkpt>
      <trkpt lat="46.76628" lon="0.40624">
        <ele>92</ele>
        <time>2020-10-11T06:39:56Z</time>
      </trkpt>
      <trkpt lat="46.7661" lon="0.40577">
        <ele>91.6</ele>
        <time>2020-10-11T06:40:03Z</time>
      </trkpt>
      <trkpt lat="46.766" lon="0.40549">
        <ele>91.2</ele>
        <time>2020-10-11T06:40:08Z</time>
      </trkpt>
      <trkpt lat="46.76593" lon="0.40532">
        <ele>91.6</ele>
        <time>2020-10-11T06:40:11Z</time>
      </trkpt>
      <trkpt lat="46.76582" lon="0.40504">
        <ele>91.4</ele>
        <time>2020-10-11T06:40:16Z</time>
      </trkpt>
      <trkpt lat="46.76565" lon="0.40455">
        <ele>92</ele>
        <time>2020-10-11T06:40:25Z</time>
      </trkpt>
      <trkpt lat="46.76561" lon="0.40445">
        <ele>92.2</ele>
        <time>2020-10-11T06:40:27Z</time>
      </trkpt>
      <trkpt lat="46.76557" lon="0.40435">
        <ele>92.8</ele>
        <time>2020-10-11T06:40:29Z</time>
      </trkpt>
      <trkpt lat="46.76554" lon="0.40425">
        <ele>92.8</ele>
        <time>2020-10-11T06:40:31Z</time>
      </trkpt>
      <trkpt lat="46.76552" lon="0.40417">
        <ele>93.4</ele>
        <time>2020-10-11T06:40:34Z</time>
      </trkpt>
      <trkpt lat="46.76552" lon="0.40416">
        <ele>93.6</ele>
        <time>2020-10-11T06:40:35Z</time>
      </trkpt>
      <trkpt lat="46.76557" lon="0.40401">
        <ele>93.6</ele>
        <time>2020-10-11T06:40:42Z</time>
      </trkpt>
      <trkpt lat="46.76559" lon="0.40396">
        <ele>93.4</ele>
        <time>2020-10-11T06:40:43Z</time>
      </trkpt>
      <trkpt lat="46.7657" lon="0.40385">
        <ele>92.6</ele>
        <time>2020-10-11T06:40:46Z</time>
      </trkpt>
      <trkpt lat="46.76574" lon="0.40382">
        <ele>92.4</ele>
        <time>2020-10-11T06:40:47Z</time>
      </trkpt>
      <trkpt lat="46.76586" lon="0.4037">
        <ele>91.4</ele>
        <time>2020-10-11T06:40:50Z</time>
      </trkpt>
      <trkpt lat="46.76596" lon="0.40362">
        <ele>91.2</ele>
        <time>2020-10-11T06:40:52Z</time>
      </trkpt>
      <trkpt lat="46.7662" lon="0.40342">
        <ele>90.4</ele>
        <time>2020-10-11T06:40:57Z</time>
      </trkpt>
      <trkpt lat="46.76626" lon="0.40338">
        <ele>90</ele>
        <time>2020-10-11T06:40:58Z</time>
      </trkpt>
      <trkpt lat="46.76635" lon="0.40332">
        <ele>89</ele>
        <time>2020-10-11T06:41:00Z</time>
      </trkpt>
      <trkpt lat="46.76637" lon="0.4033">
        <ele>88.4</ele>
        <time>2020-10-11T06:41:01Z</time>
      </trkpt>
      <trkpt lat="46.76644" lon="0.40324">
        <ele>88</ele>
        <time>2020-10-11T06:41:03Z</time>
      </trkpt>
      <trkpt lat="46.76647" lon="0.40321">
        <ele>87.8</ele>
        <time>2020-10-11T06:41:04Z</time>
      </trkpt>
      <trkpt lat="46.76649" lon="0.40318">
        <ele>87.6</ele>
        <time>2020-10-11T06:41:05Z</time>
      </trkpt>
      <trkpt lat="46.76653" lon="0.40304">
        <ele>87.4</ele>
        <time>2020-10-11T06:41:08Z</time>
      </trkpt>
      <trkpt lat="46.76654" lon="0.40299">
        <ele>87.2</ele>
        <time>2020-10-11T06:41:09Z</time>
      </trkpt>
      <trkpt lat="46.76657" lon="0.40284">
        <ele>86.8</ele>
        <time>2020-10-11T06:41:12Z</time>
      </trkpt>
      <trkpt lat="46.76658" lon="0.40282">
        <ele>86.6</ele>
        <time>2020-10-11T06:41:13Z</time>
      </trkpt>
      <trkpt lat="46.76661" lon="0.40278">
        <ele>86.2</ele>
        <time>2020-10-11T06:41:14Z</time>
      </trkpt>
      <trkpt lat="46.76667" lon="0.40267">
        <ele>85.8</ele>
        <time>2020-10-11T06:41:17Z</time>
      </trkpt>
      <trkpt lat="46.76668" lon="0.40264">
        <ele>85.6</ele>
        <time>2020-10-11T06:41:18Z</time>
      </trkpt>
      <trkpt lat="46.76678" lon="0.40248">
        <ele>85</ele>
        <time>2020-10-11T06:41:22Z</time>
      </trkpt>
      <trkpt lat="46.7668" lon="0.40242">
        <ele>84.8</ele>
        <time>2020-10-11T06:41:23Z</time>
      </trkpt>
      <trkpt lat="46.76681" lon="0.40237">
        <ele>84.8</ele>
        <time>2020-10-11T06:41:24Z</time>
      </trkpt>
      <trkpt lat="46.76683" lon="0.40217">
        <ele>84.8</ele>
        <time>2020-10-11T06:41:28Z</time>
      </trkpt>
      <trkpt lat="46.76691" lon="0.40201">
        <ele>83.4</ele>
        <time>2020-10-11T06:41:32Z</time>
      </trkpt>
      <trkpt lat="46.76697" lon="0.40195">
        <ele>82.8</ele>
        <time>2020-10-11T06:41:34Z</time>
      </trkpt>
      <trkpt lat="46.76704" lon="0.40189">
        <ele>82.2</ele>
        <time>2020-10-11T06:41:36Z</time>
      </trkpt>
      <trkpt lat="46.76706" lon="0.40187">
        <ele>82</ele>
        <time>2020-10-11T06:41:37Z</time>
      </trkpt>
      <trkpt lat="46.7671" lon="0.40183">
        <ele>81.6</ele>
        <time>2020-10-11T06:41:40Z</time>
      </trkpt>
      <trkpt lat="46.76711" lon="0.4018">
        <ele>81.4</ele>
        <time>2020-10-11T06:41:41Z</time>
      </trkpt>
      <trkpt lat="46.76715" lon="0.40172">
        <ele>81.4</ele>
        <time>2020-10-11T06:41:43Z</time>
      </trkpt>
      <trkpt lat="46.7672" lon="0.40168">
        <ele>81.2</ele>
        <time>2020-10-11T06:41:45Z</time>
      </trkpt>
      <trkpt lat="46.76727" lon="0.40156">
        <ele>81.2</ele>
        <time>2020-10-11T06:41:48Z</time>
      </trkpt>
      <trkpt lat="46.76729" lon="0.40152">
        <ele>81</ele>
        <time>2020-10-11T06:41:49Z</time>
      </trkpt>
      <trkpt lat="46.7673" lon="0.4015">
        <ele>80.8</ele>
        <time>2020-10-11T06:41:50Z</time>
      </trkpt>
      <trkpt lat="46.76731" lon="0.40147">
        <ele>80.6</ele>
        <time>2020-10-11T06:41:51Z</time>
      </trkpt>
      <trkpt lat="46.76733" lon="0.40129">
        <ele>80.6</ele>
        <time>2020-10-11T06:41:56Z</time>
      </trkpt>
      <trkpt lat="46.76728" lon="0.40113">
        <ele>80.8</ele>
        <time>2020-10-11T06:42:00Z</time>
      </trkpt>
      <trkpt lat="46.7672" lon="0.401">
        <ele>80.8</ele>
        <time>2020-10-11T06:42:04Z</time>
      </trkpt>
      <trkpt lat="46.76713" lon="0.40071">
        <ele>81.2</ele>
        <time>2020-10-11T06:42:08Z</time>
      </trkpt>
      <trkpt lat="46.76709" lon="0.40054">
        <ele>81.4</ele>
        <time>2020-10-11T06:42:10Z</time>
      </trkpt>
      <trkpt lat="46.767" lon="0.40021">
        <ele>82</ele>
        <time>2020-10-11T06:42:14Z</time>
      </trkpt>
      <trkpt lat="46.76698" lon="0.40014">
        <ele>82.2</ele>
        <time>2020-10-11T06:42:15Z</time>
      </trkpt>
      <trkpt lat="46.76692" lon="0.39988">
        <ele>82.4</ele>
        <time>2020-10-11T06:42:20Z</time>
      </trkpt>
      <trkpt lat="46.76693" lon="0.39979">
        <ele>81.6</ele>
        <time>2020-10-11T06:42:22Z</time>
      </trkpt>
      <trkpt lat="46.76696" lon="0.39975">
        <ele>81.4</ele>
        <time>2020-10-11T06:42:23Z</time>
      </trkpt>
      <trkpt lat="46.76707" lon="0.39969">
        <ele>81</ele>
        <time>2020-10-11T06:42:26Z</time>
      </trkpt>
      <trkpt lat="46.76711" lon="0.39967">
        <ele>81</ele>
        <time>2020-10-11T06:42:27Z</time>
      </trkpt>
      <trkpt lat="46.76748" lon="0.39946">
        <ele>80</ele>
        <time>2020-10-11T06:42:36Z</time>
      </trkpt>
      <trkpt lat="46.76767" lon="0.39936">
        <ele>79.8</ele>
        <time>2020-10-11T06:42:40Z</time>
      </trkpt>
      <trkpt lat="46.76783" lon="0.39927">
        <ele>79.2</ele>
        <time>2020-10-11T06:42:43Z</time>
      </trkpt>
      <trkpt lat="46.76793" lon="0.39922">
        <ele>78.8</ele>
        <time>2020-10-11T06:42:45Z</time>
      </trkpt>
      <trkpt lat="46.76816" lon="0.39908">
        <ele>78</ele>
        <time>2020-10-11T06:42:50Z</time>
      </trkpt>
      <trkpt lat="46.76826" lon="0.39902">
        <ele>77.6</ele>
        <time>2020-10-11T06:42:52Z</time>
      </trkpt>
      <trkpt lat="46.76857" lon="0.39884">
        <ele>77.6</ele>
        <time>2020-10-11T06:42:58Z</time>
      </trkpt>
      <trkpt lat="46.76896" lon="0.39862">
        <ele>77</ele>
        <time>2020-10-11T06:43:05Z</time>
      </trkpt>
      <trkpt lat="46.76906" lon="0.39856">
        <ele>76.2</ele>
        <time>2020-10-11T06:43:07Z</time>
      </trkpt>
      <trkpt lat="46.76927" lon="0.39844">
        <ele>75.2</ele>
        <time>2020-10-11T06:43:11Z</time>
      </trkpt>
      <trkpt lat="46.76952" lon="0.3983">
        <ele>75</ele>
        <time>2020-10-11T06:43:16Z</time>
      </trkpt>
      <trkpt lat="46.76972" lon="0.39817">
        <ele>74.8</ele>
        <time>2020-10-11T06:43:21Z</time>
      </trkpt>
      <trkpt lat="46.76975" lon="0.39812">
        <ele>74.8</ele>
        <time>2020-10-11T06:43:22Z</time>
      </trkpt>
      <trkpt lat="46.76977" lon="0.39806">
        <ele>74.6</ele>
        <time>2020-10-11T06:43:23Z</time>
      </trkpt>
      <trkpt lat="46.76975" lon="0.39793">
        <ele>74.4</ele>
        <time>2020-10-11T06:43:25Z</time>
      </trkpt>
      <trkpt lat="46.76969" lon="0.39752">
        <ele>74.6</ele>
        <time>2020-10-11T06:43:30Z</time>
      </trkpt>
      <trkpt lat="46.76957" lon="0.39685">
        <ele>74.2</ele>
        <time>2020-10-11T06:43:38Z</time>
      </trkpt>
      <trkpt lat="46.76956" lon="0.39677">
        <ele>74.2</ele>
        <time>2020-10-11T06:43:39Z</time>
      </trkpt>
      <trkpt lat="46.76954" lon="0.39642">
        <ele>74</ele>
        <time>2020-10-11T06:43:43Z</time>
      </trkpt>
      <trkpt lat="46.76955" lon="0.39624">
        <ele>73.8</ele>
        <time>2020-10-11T06:43:45Z</time>
      </trkpt>
      <trkpt lat="46.76967" lon="0.39574">
        <ele>73.6</ele>
        <time>2020-10-11T06:43:51Z</time>
      </trkpt>
      <trkpt lat="46.76973" lon="0.39559">
        <ele>73.6</ele>
        <time>2020-10-11T06:43:53Z</time>
      </trkpt>
      <trkpt lat="46.76984" lon="0.39531">
        <ele>73.4</ele>
        <time>2020-10-11T06:43:57Z</time>
      </trkpt>
      <trkpt lat="46.76986" lon="0.39524">
        <ele>73.4</ele>
        <time>2020-10-11T06:43:58Z</time>
      </trkpt>
      <trkpt lat="46.76982" lon="0.39511">
        <ele>73.4</ele>
        <time>2020-10-11T06:44:00Z</time>
      </trkpt>
      <trkpt lat="46.76971" lon="0.39503">
        <ele>73.6</ele>
        <time>2020-10-11T06:44:02Z</time>
      </trkpt>
      <trkpt lat="46.76965" lon="0.39502">
        <ele>73.6</ele>
        <time>2020-10-11T06:44:03Z</time>
      </trkpt>
      <trkpt lat="46.76933" lon="0.39509">
        <ele>73.4</ele>
        <time>2020-10-11T06:44:08Z</time>
      </trkpt>
      <trkpt lat="46.76902" lon="0.39518">
        <ele>73.2</ele>
        <time>2020-10-11T06:44:13Z</time>
      </trkpt>
      <trkpt lat="46.76889" lon="0.39518">
        <ele>73.4</ele>
        <time>2020-10-11T06:44:15Z</time>
      </trkpt>
      <trkpt lat="46.7686" lon="0.39504">
        <ele>73.6</ele>
        <time>2020-10-11T06:44:20Z</time>
      </trkpt>
      <trkpt lat="46.76816" lon="0.39476">
        <ele>74.2</ele>
        <time>2020-10-11T06:44:28Z</time>
      </trkpt>
      <trkpt lat="46.76781" lon="0.39464">
        <ele>74.8</ele>
        <time>2020-10-11T06:44:34Z</time>
      </trkpt>
      <trkpt lat="46.76759" lon="0.39463">
        <ele>75.4</ele>
        <time>2020-10-11T06:44:38Z</time>
      </trkpt>
      <trkpt lat="46.76753" lon="0.39461">
        <ele>75.6</ele>
        <time>2020-10-11T06:44:39Z</time>
      </trkpt>
      <trkpt lat="46.76748" lon="0.39459">
        <ele>75.8</ele>
        <time>2020-10-11T06:44:40Z</time>
      </trkpt>
      <trkpt lat="46.76738" lon="0.3945">
        <ele>76.2</ele>
        <time>2020-10-11T06:44:42Z</time>
      </trkpt>
      <trkpt lat="46.76729" lon="0.39438">
        <ele>76.4</ele>
        <time>2020-10-11T06:44:44Z</time>
      </trkpt>
      <trkpt lat="46.76714" lon="0.39423">
        <ele>76.4</ele>
        <time>2020-10-11T06:44:47Z</time>
      </trkpt>
      <trkpt lat="46.76704" lon="0.39417">
        <ele>76.4</ele>
        <time>2020-10-11T06:44:49Z</time>
      </trkpt>
      <trkpt lat="46.76686" lon="0.39412">
        <ele>76.4</ele>
        <time>2020-10-11T06:44:52Z</time>
      </trkpt>
      <trkpt lat="46.7664" lon="0.39417">
        <ele>76.6</ele>
        <time>2020-10-11T06:45:00Z</time>
      </trkpt>
      <trkpt lat="46.76584" lon="0.39425">
        <ele>77.2</ele>
        <time>2020-10-11T06:45:10Z</time>
      </trkpt>
      <trkpt lat="46.76573" lon="0.39426">
        <ele>77.6</ele>
        <time>2020-10-11T06:45:12Z</time>
      </trkpt>
      <trkpt lat="46.76531" lon="0.39432">
        <ele>78</ele>
        <time>2020-10-11T06:45:20Z</time>
      </trkpt>
      <trkpt lat="46.76496" lon="0.39437">
        <ele>78.6</ele>
        <time>2020-10-11T06:45:27Z</time>
      </trkpt>
      <trkpt lat="46.76491" lon="0.39437">
        <ele>78.8</ele>
        <time>2020-10-11T06:45:28Z</time>
      </trkpt>
      <trkpt lat="46.76463" lon="0.39442">
        <ele>79.6</ele>
        <time>2020-10-11T06:45:34Z</time>
      </trkpt>
      <trkpt lat="46.76444" lon="0.39444">
        <ele>80.2</ele>
        <time>2020-10-11T06:45:38Z</time>
      </trkpt>
      <trkpt lat="46.7643" lon="0.39446">
        <ele>80.6</ele>
        <time>2020-10-11T06:45:41Z</time>
      </trkpt>
      <trkpt lat="46.76408" lon="0.39449">
        <ele>81.2</ele>
        <time>2020-10-11T06:45:46Z</time>
      </trkpt>
      <trkpt lat="46.76376" lon="0.39453">
        <ele>81.8</ele>
        <time>2020-10-11T06:45:53Z</time>
      </trkpt>
      <trkpt lat="46.76337" lon="0.39456">
        <ele>82.6</ele>
        <time>2020-10-11T06:46:01Z</time>
      </trkpt>
      <trkpt lat="46.76332" lon="0.39456">
        <ele>82.8</ele>
        <time>2020-10-11T06:46:02Z</time>
      </trkpt>
      <trkpt lat="46.76311" lon="0.39458">
        <ele>83.2</ele>
        <time>2020-10-11T06:46:06Z</time>
      </trkpt>
      <trkpt lat="46.76301" lon="0.39458">
        <ele>83.2</ele>
        <time>2020-10-11T06:46:08Z</time>
      </trkpt>
      <trkpt lat="46.76262" lon="0.39459">
        <ele>84</ele>
        <time>2020-10-11T06:46:16Z</time>
      </trkpt>
      <trkpt lat="46.76257" lon="0.3946">
        <ele>84</ele>
        <time>2020-10-11T06:46:17Z</time>
      </trkpt>
      <trkpt lat="46.76223" lon="0.39462">
        <ele>85</ele>
        <time>2020-10-11T06:46:24Z</time>
      </trkpt>
      <trkpt lat="46.76214" lon="0.39463">
        <ele>85</ele>
        <time>2020-10-11T06:46:26Z</time>
      </trkpt>
      <trkpt lat="46.76177" lon="0.39467">
        <ele>85.8</ele>
        <time>2020-10-11T06:46:34Z</time>
      </trkpt>
      <trkpt lat="46.76172" lon="0.39468">
        <ele>86</ele>
        <time>2020-10-11T06:46:35Z</time>
      </trkpt>
      <trkpt lat="46.76125" lon="0.39473">
        <ele>87</ele>
        <time>2020-10-11T06:46:45Z</time>
      </trkpt>
      <trkpt lat="46.76096" lon="0.39476">
        <ele>88</ele>
        <time>2020-10-11T06:46:51Z</time>
      </trkpt>
      <trkpt lat="46.76076" lon="0.39479">
        <ele>88.6</ele>
        <time>2020-10-11T06:46:55Z</time>
      </trkpt>
      <trkpt lat="46.76032" lon="0.39483">
        <ele>89</ele>
        <time>2020-10-11T06:47:04Z</time>
      </trkpt>
      <trkpt lat="46.75998" lon="0.39486">
        <ele>89.2</ele>
        <time>2020-10-11T06:47:12Z</time>
      </trkpt>
      <trkpt lat="46.7599" lon="0.39479">
        <ele>89.6</ele>
        <time>2020-10-11T06:47:16Z</time>
      </trkpt>
      <trkpt lat="46.75983" lon="0.39464">
        <ele>89</ele>
        <time>2020-10-11T06:47:21Z</time>
      </trkpt>
      <trkpt lat="46.75981" lon="0.39456">
        <ele>88</ele>
        <time>2020-10-11T06:47:24Z</time>
      </trkpt>
      <trkpt lat="46.7598" lon="0.39442">
        <ele>87.6</ele>
        <time>2020-10-11T06:47:29Z</time>
      </trkpt>
      <trkpt lat="46.7598" lon="0.39412">
        <ele>87.2</ele>
        <time>2020-10-11T06:47:34Z</time>
      </trkpt>
      <trkpt lat="46.7598" lon="0.39402">
        <ele>87</ele>
        <time>2020-10-11T06:47:36Z</time>
      </trkpt>
      <trkpt lat="46.75979" lon="0.39399">
        <ele>87</ele>
        <time>2020-10-11T06:47:37Z</time>
      </trkpt>
      <trkpt lat="46.75968" lon="0.39384">
        <ele>87.6</ele>
        <time>2020-10-11T06:47:41Z</time>
      </trkpt>
      <trkpt lat="46.75957" lon="0.39362">
        <ele>88</ele>
        <time>2020-10-11T06:47:46Z</time>
      </trkpt>
      <trkpt lat="46.75955" lon="0.39358">
        <ele>88.2</ele>
        <time>2020-10-11T06:47:47Z</time>
      </trkpt>
      <trkpt lat="46.75956" lon="0.39349">
        <ele>88.6</ele>
        <time>2020-10-11T06:47:49Z</time>
      </trkpt>
      <trkpt lat="46.75958" lon="0.39334">
        <ele>89.4</ele>
        <time>2020-10-11T06:47:52Z</time>
      </trkpt>
      <trkpt lat="46.75957" lon="0.3933">
        <ele>89.4</ele>
        <time>2020-10-11T06:47:53Z</time>
      </trkpt>
      <trkpt lat="46.75949" lon="0.39302">
        <ele>88.6</ele>
        <time>2020-10-11T06:47:59Z</time>
      </trkpt>
      <trkpt lat="46.75948" lon="0.39297">
        <ele>88.2</ele>
        <time>2020-10-11T06:48:00Z</time>
      </trkpt>
      <trkpt lat="46.75937" lon="0.39259">
        <ele>87.8</ele>
        <time>2020-10-11T06:48:07Z</time>
      </trkpt>
      <trkpt lat="46.75931" lon="0.39251">
        <ele>87.8</ele>
        <time>2020-10-11T06:48:09Z</time>
      </trkpt>
      <trkpt lat="46.75923" lon="0.39249">
        <ele>87.8</ele>
        <time>2020-10-11T06:48:11Z</time>
      </trkpt>
      <trkpt lat="46.75897" lon="0.39252">
        <ele>89</ele>
        <time>2020-10-11T06:48:18Z</time>
      </trkpt>
      <trkpt lat="46.7589" lon="0.39257">
        <ele>89.4</ele>
        <time>2020-10-11T06:48:20Z</time>
      </trkpt>
      <trkpt lat="46.75886" lon="0.39265">
        <ele>90</ele>
        <time>2020-10-11T06:48:22Z</time>
      </trkpt>
      <trkpt lat="46.75884" lon="0.3927">
        <ele>90.8</ele>
        <time>2020-10-11T06:48:23Z</time>
      </trkpt>
      <trkpt lat="46.75884" lon="0.39287">
        <ele>91.4</ele>
        <time>2020-10-11T06:48:26Z</time>
      </trkpt>
      <trkpt lat="46.75886" lon="0.393">
        <ele>91.8</ele>
        <time>2020-10-11T06:48:28Z</time>
      </trkpt>
      <trkpt lat="46.75892" lon="0.39343">
        <ele>92.8</ele>
        <time>2020-10-11T06:48:35Z</time>
      </trkpt>
      <trkpt lat="46.75892" lon="0.3935">
        <ele>92.8</ele>
        <time>2020-10-11T06:48:36Z</time>
      </trkpt>
      <trkpt lat="46.75891" lon="0.39362">
        <ele>93</ele>
        <time>2020-10-11T06:48:38Z</time>
      </trkpt>
      <trkpt lat="46.75889" lon="0.39368">
        <ele>93</ele>
        <time>2020-10-11T06:48:39Z</time>
      </trkpt>
      <trkpt lat="46.75886" lon="0.39373">
        <ele>93.2</ele>
        <time>2020-10-11T06:48:40Z</time>
      </trkpt>
      <trkpt lat="46.75879" lon="0.39379">
        <ele>93.8</ele>
        <time>2020-10-11T06:48:42Z</time>
      </trkpt>
      <trkpt lat="46.75875" lon="0.39381">
        <ele>94.2</ele>
        <time>2020-10-11T06:48:43Z</time>
      </trkpt>
      <trkpt lat="46.75868" lon="0.39384">
        <ele>95.4</ele>
        <time>2020-10-11T06:48:45Z</time>
      </trkpt>
      <trkpt lat="46.75857" lon="0.39387">
        <ele>96.6</ele>
        <time>2020-10-11T06:48:48Z</time>
      </trkpt>
      <trkpt lat="46.75844" lon="0.39391">
        <ele>97.8</ele>
        <time>2020-10-11T06:48:52Z</time>
      </trkpt>
      <trkpt lat="46.75837" lon="0.39392">
        <ele>99</ele>
        <time>2020-10-11T06:48:54Z</time>
      </trkpt>
      <trkpt lat="46.7583" lon="0.39393">
        <ele>99.6</ele>
        <time>2020-10-11T06:48:56Z</time>
      </trkpt>
      <trkpt lat="46.75824" lon="0.39392">
        <ele>100</ele>
        <time>2020-10-11T06:48:58Z</time>
      </trkpt>
      <trkpt lat="46.75814" lon="0.39386">
        <ele>101</ele>
        <time>2020-10-11T06:49:01Z</time>
      </trkpt>
      <trkpt lat="46.75806" lon="0.39377">
        <ele>102</ele>
        <time>2020-10-11T06:49:04Z</time>
      </trkpt>
      <trkpt lat="46.75799" lon="0.39367">
        <ele>103</ele>
        <time>2020-10-11T06:49:07Z</time>
      </trkpt>
      <trkpt lat="46.75797" lon="0.39364">
        <ele>103.2</ele>
        <time>2020-10-11T06:49:08Z</time>
      </trkpt>
      <trkpt lat="46.75787" lon="0.39352">
        <ele>104.4</ele>
        <time>2020-10-11T06:49:12Z</time>
      </trkpt>
      <trkpt lat="46.75778" lon="0.39342">
        <ele>105.4</ele>
        <time>2020-10-11T06:49:16Z</time>
      </trkpt>
      <trkpt lat="46.75775" lon="0.3934">
        <ele>105.6</ele>
        <time>2020-10-11T06:49:17Z</time>
      </trkpt>
      <trkpt lat="46.75767" lon="0.39335">
        <ele>106.8</ele>
        <time>2020-10-11T06:49:20Z</time>
      </trkpt>
      <trkpt lat="46.75759" lon="0.39331">
        <ele>107.6</ele>
        <time>2020-10-11T06:49:23Z</time>
      </trkpt>
      <trkpt lat="46.75756" lon="0.39329">
        <ele>107.8</ele>
        <time>2020-10-11T06:49:24Z</time>
      </trkpt>
      <trkpt lat="46.75746" lon="0.39324">
        <ele>109</ele>
        <time>2020-10-11T06:49:28Z</time>
      </trkpt>
      <trkpt lat="46.75741" lon="0.39321">
        <ele>109.2</ele>
        <time>2020-10-11T06:49:30Z</time>
      </trkpt>
      <trkpt lat="46.75731" lon="0.39316">
        <ele>110.2</ele>
        <time>2020-10-11T06:49:34Z</time>
      </trkpt>
      <trkpt lat="46.75724" lon="0.39312">
        <ele>111.4</ele>
        <time>2020-10-11T06:49:37Z</time>
      </trkpt>
      <trkpt lat="46.75716" lon="0.39307">
        <ele>111.6</ele>
        <time>2020-10-11T06:49:40Z</time>
      </trkpt>
      <trkpt lat="46.75711" lon="0.39304">
        <ele>112.4</ele>
        <time>2020-10-11T06:49:42Z</time>
      </trkpt>
      <trkpt lat="46.75699" lon="0.39294">
        <ele>113.4</ele>
        <time>2020-10-11T06:49:47Z</time>
      </trkpt>
      <trkpt lat="46.75687" lon="0.39285">
        <ele>114.6</ele>
        <time>2020-10-11T06:49:52Z</time>
      </trkpt>
      <trkpt lat="46.75677" lon="0.39278">
        <ele>115.8</ele>
        <time>2020-10-11T06:49:56Z</time>
      </trkpt>
      <trkpt lat="46.75675" lon="0.39276">
        <ele>116</ele>
        <time>2020-10-11T06:49:57Z</time>
      </trkpt>
      <trkpt lat="46.75664" lon="0.39266">
        <ele>117</ele>
        <time>2020-10-11T06:50:02Z</time>
      </trkpt>
      <trkpt lat="46.75658" lon="0.3926">
        <ele>117.8</ele>
        <time>2020-10-11T06:50:05Z</time>
      </trkpt>
      <trkpt lat="46.75656" lon="0.39258">
        <ele>118.2</ele>
        <time>2020-10-11T06:50:06Z</time>
      </trkpt>
      <trkpt lat="46.75647" lon="0.39248">
        <ele>119.2</ele>
        <time>2020-10-11T06:50:11Z</time>
      </trkpt>
      <trkpt lat="46.75641" lon="0.39242">
        <ele>119.8</ele>
        <time>2020-10-11T06:50:14Z</time>
      </trkpt>
      <trkpt lat="46.75637" lon="0.39238">
        <ele>120.2</ele>
        <time>2020-10-11T06:50:16Z</time>
      </trkpt>
      <trkpt lat="46.75629" lon="0.39231">
        <ele>121.4</ele>
        <time>2020-10-11T06:50:20Z</time>
      </trkpt>
      <trkpt lat="46.75621" lon="0.39223">
        <ele>122.2</ele>
        <time>2020-10-11T06:50:24Z</time>
      </trkpt>
      <trkpt lat="46.75617" lon="0.3922">
        <ele>122.6</ele>
        <time>2020-10-11T06:50:26Z</time>
      </trkpt>
      <trkpt lat="46.75607" lon="0.39211">
        <ele>123.6</ele>
        <time>2020-10-11T06:50:31Z</time>
      </trkpt>
      <trkpt lat="46.75598" lon="0.39206">
        <ele>124.8</ele>
        <time>2020-10-11T06:50:35Z</time>
      </trkpt>
      <trkpt lat="46.75588" lon="0.39201">
        <ele>125.8</ele>
        <time>2020-10-11T06:50:40Z</time>
      </trkpt>
      <trkpt lat="46.75577" lon="0.39196">
        <ele>127</ele>
        <time>2020-10-11T06:50:45Z</time>
      </trkpt>
      <trkpt lat="46.75567" lon="0.39193">
        <ele>127.8</ele>
        <time>2020-10-11T06:50:49Z</time>
      </trkpt>
      <trkpt lat="46.75565" lon="0.39193">
        <ele>128</ele>
        <time>2020-10-11T06:50:50Z</time>
      </trkpt>
      <trkpt lat="46.75553" lon="0.39191">
        <ele>129.4</ele>
        <time>2020-10-11T06:50:55Z</time>
      </trkpt>
      <trkpt lat="46.75548" lon="0.39191">
        <ele>129.8</ele>
        <time>2020-10-11T06:50:57Z</time>
      </trkpt>
      <trkpt lat="46.75541" lon="0.39191">
        <ele>130.4</ele>
        <time>2020-10-11T06:51:00Z</time>
      </trkpt>
      <trkpt lat="46.7553" lon="0.39193">
        <ele>131.4</ele>
        <time>2020-10-11T06:51:05Z</time>
      </trkpt>
      <trkpt lat="46.75528" lon="0.39193">
        <ele>131.8</ele>
        <time>2020-10-11T06:51:06Z</time>
      </trkpt>
      <trkpt lat="46.75521" lon="0.39195">
        <ele>132.4</ele>
        <time>2020-10-11T06:51:09Z</time>
      </trkpt>
      <trkpt lat="46.7551" lon="0.39198">
        <ele>133.6</ele>
        <time>2020-10-11T06:51:14Z</time>
      </trkpt>
      <trkpt lat="46.75508" lon="0.39199">
        <ele>133.8</ele>
        <time>2020-10-11T06:51:15Z</time>
      </trkpt>
      <trkpt lat="46.755" lon="0.392">
        <ele>134.6</ele>
        <time>2020-10-11T06:51:19Z</time>
      </trkpt>
      <trkpt lat="46.75491" lon="0.39201">
        <ele>135.6</ele>
        <time>2020-10-11T06:51:23Z</time>
      </trkpt>
      <trkpt lat="46.75489" lon="0.39201">
        <ele>136</ele>
        <time>2020-10-11T06:51:24Z</time>
      </trkpt>
      <trkpt lat="46.7548" lon="0.39201">
        <ele>137</ele>
        <time>2020-10-11T06:51:28Z</time>
      </trkpt>
      <trkpt lat="46.7547" lon="0.39203">
        <ele>137.8</ele>
        <time>2020-10-11T06:51:33Z</time>
      </trkpt>
      <trkpt lat="46.75468" lon="0.39203">
        <ele>138</ele>
        <time>2020-10-11T06:51:34Z</time>
      </trkpt>
      <trkpt lat="46.75455" lon="0.39202">
        <ele>138.8</ele>
        <time>2020-10-11T06:51:40Z</time>
      </trkpt>
      <trkpt lat="46.75451" lon="0.392">
        <ele>139.2</ele>
        <time>2020-10-11T06:51:42Z</time>
      </trkpt>
      <trkpt lat="46.75437" lon="0.39194">
        <ele>139.4</ele>
        <time>2020-10-11T06:51:47Z</time>
      </trkpt>
      <trkpt lat="46.75417" lon="0.39182">
        <ele>140</ele>
        <time>2020-10-11T06:51:53Z</time>
      </trkpt>
      <trkpt lat="46.754" lon="0.39173">
        <ele>140.2</ele>
        <time>2020-10-11T06:51:57Z</time>
      </trkpt>
      <trkpt lat="46.75378" lon="0.3916">
        <ele>140.6</ele>
        <time>2020-10-11T06:52:02Z</time>
      </trkpt>
      <trkpt lat="46.75347" lon="0.39143">
        <ele>140.6</ele>
        <time>2020-10-11T06:52:09Z</time>
      </trkpt>
      <trkpt lat="46.75312" lon="0.39123">
        <ele>140.6</ele>
        <time>2020-10-11T06:52:17Z</time>
      </trkpt>
      <trkpt lat="46.75294" lon="0.3911">
        <ele>140.2</ele>
        <time>2020-10-11T06:52:22Z</time>
      </trkpt>
      <trkpt lat="46.75291" lon="0.39112">
        <ele>140</ele>
        <time>2020-10-11T06:52:23Z</time>
      </trkpt>
      <trkpt lat="46.75291" lon="0.39122">
        <ele>140</ele>
        <time>2020-10-11T06:52:25Z</time>
      </trkpt>
      <trkpt lat="46.75308" lon="0.3917">
        <ele>140</ele>
        <time>2020-10-11T06:52:33Z</time>
      </trkpt>
      <trkpt lat="46.75327" lon="0.39222">
        <ele>140.6</ele>
        <time>2020-10-11T06:52:42Z</time>
      </trkpt>
      <trkpt lat="46.75338" lon="0.39264">
        <ele>141</ele>
        <time>2020-10-11T06:52:49Z</time>
      </trkpt>
      <trkpt lat="46.75353" lon="0.39319">
        <ele>141</ele>
        <time>2020-10-11T06:52:58Z</time>
      </trkpt>
      <trkpt lat="46.75358" lon="0.39328">
        <ele>141.2</ele>
        <time>2020-10-11T06:53:00Z</time>
      </trkpt>
      <trkpt lat="46.75366" lon="0.39333">
        <ele>141.8</ele>
        <time>2020-10-11T06:53:02Z</time>
      </trkpt>
      <trkpt lat="46.75392" lon="0.39336">
        <ele>142</ele>
        <time>2020-10-11T06:53:08Z</time>
      </trkpt>
      <trkpt lat="46.75402" lon="0.39336">
        <ele>142</ele>
        <time>2020-10-11T06:53:10Z</time>
      </trkpt>
      <trkpt lat="46.75425" lon="0.39337">
        <ele>141.8</ele>
        <time>2020-10-11T06:53:15Z</time>
      </trkpt>
      <trkpt lat="46.75468" lon="0.39337">
        <ele>141.8</ele>
        <time>2020-10-11T06:53:24Z</time>
      </trkpt>
      <trkpt lat="46.75496" lon="0.39333">
        <ele>141.4</ele>
        <time>2020-10-11T06:53:30Z</time>
      </trkpt>
      <trkpt lat="46.75523" lon="0.39328">
        <ele>140.8</ele>
        <time>2020-10-11T06:53:34Z</time>
      </trkpt>
      <trkpt lat="46.75537" lon="0.39327">
        <ele>140</ele>
        <time>2020-10-11T06:53:36Z</time>
      </trkpt>
      <trkpt lat="46.7555" lon="0.39336">
        <ele>138.6</ele>
        <time>2020-10-11T06:53:38Z</time>
      </trkpt>
      <trkpt lat="46.75563" lon="0.39353">
        <ele>137</ele>
        <time>2020-10-11T06:53:40Z</time>
      </trkpt>
      <trkpt lat="46.75577" lon="0.39374">
        <ele>135.6</ele>
        <time>2020-10-11T06:53:42Z</time>
      </trkpt>
      <trkpt lat="46.75592" lon="0.39396">
        <ele>134.4</ele>
        <time>2020-10-11T06:53:44Z</time>
      </trkpt>
      <trkpt lat="46.75597" lon="0.39409">
        <ele>133.6</ele>
        <time>2020-10-11T06:53:45Z</time>
      </trkpt>
      <trkpt lat="46.75601" lon="0.39424">
        <ele>132.2</ele>
        <time>2020-10-11T06:53:46Z</time>
      </trkpt>
      <trkpt lat="46.75605" lon="0.39438">
        <ele>130.8</ele>
        <time>2020-10-11T06:53:47Z</time>
      </trkpt>
      <trkpt lat="46.75609" lon="0.39452">
        <ele>129.8</ele>
        <time>2020-10-11T06:53:48Z</time>
      </trkpt>
      <trkpt lat="46.75613" lon="0.39476">
        <ele>128</ele>
        <time>2020-10-11T06:53:50Z</time>
      </trkpt>
      <trkpt lat="46.75608" lon="0.39497">
        <ele>127</ele>
        <time>2020-10-11T06:53:52Z</time>
      </trkpt>
      <trkpt lat="46.75603" lon="0.39506">
        <ele>126.8</ele>
        <time>2020-10-11T06:53:53Z</time>
      </trkpt>
      <trkpt lat="46.75589" lon="0.39528">
        <ele>127</ele>
        <time>2020-10-11T06:53:56Z</time>
      </trkpt>
      <trkpt lat="46.7558" lon="0.39543">
        <ele>127.8</ele>
        <time>2020-10-11T06:53:58Z</time>
      </trkpt>
      <trkpt lat="46.75577" lon="0.39561">
        <ele>129</ele>
        <time>2020-10-11T06:54:00Z</time>
      </trkpt>
      <trkpt lat="46.75577" lon="0.39561">
        <ele>130</ele>
        <time>2020-10-11T06:54:01Z</time>
      </trkpt>
      <trkpt lat="46.7559" lon="0.39588">
        <ele>130.2</ele>
        <time>2020-10-11T06:54:04Z</time>
      </trkpt>
      <trkpt lat="46.75598" lon="0.39601">
        <ele>130.6</ele>
        <time>2020-10-11T06:54:06Z</time>
      </trkpt>
      <trkpt lat="46.756" lon="0.39609">
        <ele>130.8</ele>
        <time>2020-10-11T06:54:07Z</time>
      </trkpt>
      <trkpt lat="46.756" lon="0.39616">
        <ele>131</ele>
        <time>2020-10-11T06:54:08Z</time>
      </trkpt>
      <trkpt lat="46.75597" lon="0.39622">
        <ele>131.2</ele>
        <time>2020-10-11T06:54:09Z</time>
      </trkpt>
      <trkpt lat="46.75593" lon="0.39625">
        <ele>131.6</ele>
        <time>2020-10-11T06:54:10Z</time>
      </trkpt>
      <trkpt lat="46.75584" lon="0.39626">
        <ele>132</ele>
        <time>2020-10-11T06:54:12Z</time>
      </trkpt>
      <trkpt lat="46.75575" lon="0.39625">
        <ele>132.2</ele>
        <time>2020-10-11T06:54:14Z</time>
      </trkpt>
      <trkpt lat="46.7557" lon="0.39623">
        <ele>132.6</ele>
        <time>2020-10-11T06:54:15Z</time>
      </trkpt>
      <trkpt lat="46.75563" lon="0.3962">
        <ele>133.4</ele>
        <time>2020-10-11T06:54:17Z</time>
      </trkpt>
      <trkpt lat="46.75559" lon="0.39619">
        <ele>133.8</ele>
        <time>2020-10-11T06:54:18Z</time>
      </trkpt>
      <trkpt lat="46.75546" lon="0.39606">
        <ele>134.8</ele>
        <time>2020-10-11T06:54:22Z</time>
      </trkpt>
      <trkpt lat="46.75543" lon="0.39603">
        <ele>135.2</ele>
        <time>2020-10-11T06:54:23Z</time>
      </trkpt>
      <trkpt lat="46.75535" lon="0.39599">
        <ele>136.2</ele>
        <time>2020-10-11T06:54:25Z</time>
      </trkpt>
      <trkpt lat="46.75528" lon="0.39598">
        <ele>136.8</ele>
        <time>2020-10-11T06:54:27Z</time>
      </trkpt>
      <trkpt lat="46.75524" lon="0.39598">
        <ele>137.2</ele>
        <time>2020-10-11T06:54:28Z</time>
      </trkpt>
      <trkpt lat="46.75513" lon="0.39599">
        <ele>138.6</ele>
        <time>2020-10-11T06:54:31Z</time>
      </trkpt>
      <trkpt lat="46.75501" lon="0.39599">
        <ele>139.6</ele>
        <time>2020-10-11T06:54:35Z</time>
      </trkpt>
      <trkpt lat="46.75492" lon="0.396">
        <ele>140.6</ele>
        <time>2020-10-11T06:54:38Z</time>
      </trkpt>
      <trkpt lat="46.75487" lon="0.396">
        <ele>141.4</ele>
        <time>2020-10-11T06:54:40Z</time>
      </trkpt>
      <trkpt lat="46.75482" lon="0.39601">
        <ele>141.8</ele>
        <time>2020-10-11T06:54:42Z</time>
      </trkpt>
      <trkpt lat="46.75481" lon="0.39602">
        <ele>141.8</ele>
        <time>2020-10-11T06:54:43Z</time>
      </trkpt>
      <trkpt lat="46.7548" lon="0.39606">
        <ele>142.2</ele>
        <time>2020-10-11T06:54:45Z</time>
      </trkpt>
      <trkpt lat="46.75482" lon="0.3962">
        <ele>142.6</ele>
        <time>2020-10-11T06:54:51Z</time>
      </trkpt>
      <trkpt lat="46.75484" lon="0.39625">
        <ele>142.6</ele>
        <time>2020-10-11T06:54:56Z</time>
      </trkpt>
      <trkpt lat="46.75486" lon="0.39622">
        <ele>142.8</ele>
        <time>2020-10-11T06:54:59Z</time>
      </trkpt>
      <trkpt lat="46.75486" lon="0.39623">
        <ele>142.8</ele>
        <time>2020-10-11T06:55:00Z</time>
      </trkpt>
      <trkpt lat="46.7549" lon="0.39624">
        <ele>142.8</ele>
        <time>2020-10-11T06:55:02Z</time>
      </trkpt>
      <trkpt lat="46.75495" lon="0.39629">
        <ele>142.6</ele>
        <time>2020-10-11T06:55:07Z</time>
      </trkpt>
      <trkpt lat="46.75503" lon="0.39639">
        <ele>142</ele>
        <time>2020-10-11T06:55:13Z</time>
      </trkpt>
      <trkpt lat="46.75504" lon="0.39643">
        <ele>141.8</ele>
        <time>2020-10-11T06:55:16Z</time>
      </trkpt>
      <trkpt lat="46.75502" lon="0.39646">
        <ele>141.6</ele>
        <time>2020-10-11T06:55:18Z</time>
      </trkpt>
      <trkpt lat="46.75503" lon="0.39648">
        <ele>141.6</ele>
        <time>2020-10-11T06:55:19Z</time>
      </trkpt>
      <trkpt lat="46.75504" lon="0.39651">
        <ele>141.8</ele>
        <time>2020-10-11T06:55:21Z</time>
      </trkpt>
      <trkpt lat="46.75505" lon="0.39652">
        <ele>142</ele>
        <time>2020-10-11T06:55:22Z</time>
      </trkpt>
      <trkpt lat="46.7551" lon="0.39653">
        <ele>141.8</ele>
        <time>2020-10-11T06:55:25Z</time>
      </trkpt>
      <trkpt lat="46.75511" lon="0.39656">
        <ele>141.4</ele>
        <time>2020-10-11T06:55:27Z</time>
      </trkpt>
      <trkpt lat="46.75512" lon="0.39658">
        <ele>141.4</ele>
        <time>2020-10-11T06:55:28Z</time>
      </trkpt>
      <trkpt lat="46.75513" lon="0.39662">
        <ele>141</ele>
        <time>2020-10-11T06:55:30Z</time>
      </trkpt>
      <trkpt lat="46.75513" lon="0.39668">
        <ele>141</ele>
        <time>2020-10-11T06:55:32Z</time>
      </trkpt>
      <trkpt lat="46.75513" lon="0.39682">
        <ele>141.4</ele>
        <time>2020-10-11T06:55:36Z</time>
      </trkpt>
      <trkpt lat="46.75514" lon="0.39686">
        <ele>141.6</ele>
        <time>2020-10-11T06:55:38Z</time>
      </trkpt>
      <trkpt lat="46.75517" lon="0.3969">
        <ele>141.8</ele>
        <time>2020-10-11T06:55:40Z</time>
      </trkpt>
      <trkpt lat="46.75521" lon="0.3969">
        <ele>141.8</ele>
        <time>2020-10-11T06:55:42Z</time>
      </trkpt>
      <trkpt lat="46.75524" lon="0.39691">
        <ele>141.6</ele>
        <time>2020-10-11T06:55:43Z</time>
      </trkpt>
      <trkpt lat="46.7553" lon="0.39695">
        <ele>141.2</ele>
        <time>2020-10-11T06:55:46Z</time>
      </trkpt>
      <trkpt lat="46.75532" lon="0.39696">
        <ele>140.8</ele>
        <time>2020-10-11T06:55:48Z</time>
      </trkpt>
      <trkpt lat="46.75533" lon="0.39695">
        <ele>140.6</ele>
        <time>2020-10-11T06:55:50Z</time>
      </trkpt>
      <trkpt lat="46.75536" lon="0.39689">
        <ele>140.2</ele>
        <time>2020-10-11T06:55:54Z</time>
      </trkpt>
      <trkpt lat="46.75537" lon="0.39684">
        <ele>140</ele>
        <time>2020-10-11T06:55:56Z</time>
      </trkpt>
      <trkpt lat="46.75541" lon="0.3968">
        <ele>139.4</ele>
        <time>2020-10-11T06:55:59Z</time>
      </trkpt>
      <trkpt lat="46.75546" lon="0.3968">
        <ele>138.2</ele>
        <time>2020-10-11T06:56:02Z</time>
      </trkpt>
      <trkpt lat="46.75547" lon="0.39678">
        <ele>137.2</ele>
        <time>2020-10-11T06:56:04Z</time>
      </trkpt>
      <trkpt lat="46.7555" lon="0.39673">
        <ele>136</ele>
        <time>2020-10-11T06:56:07Z</time>
      </trkpt>
      <trkpt lat="46.75554" lon="0.39665">
        <ele>136</ele>
        <time>2020-10-11T06:56:10Z</time>
      </trkpt>
      <trkpt lat="46.75557" lon="0.39658">
        <ele>135.8</ele>
        <time>2020-10-11T06:56:13Z</time>
      </trkpt>
      <trkpt lat="46.75558" lon="0.39659">
        <ele>135.6</ele>
        <time>2020-10-11T06:56:14Z</time>
      </trkpt>
      <trkpt lat="46.75559" lon="0.39659">
        <ele>135.4</ele>
        <time>2020-10-11T06:56:15Z</time>
      </trkpt>
      <trkpt lat="46.75561" lon="0.39659">
        <ele>134.8</ele>
        <time>2020-10-11T06:56:17Z</time>
      </trkpt>
      <trkpt lat="46.75565" lon="0.39658">
        <ele>133.2</ele>
        <time>2020-10-11T06:56:19Z</time>
      </trkpt>
      <trkpt lat="46.75566" lon="0.39657">
        <ele>133.2</ele>
        <time>2020-10-11T06:56:20Z</time>
      </trkpt>
      <trkpt lat="46.75573" lon="0.39661">
        <ele>132</ele>
        <time>2020-10-11T06:56:23Z</time>
      </trkpt>
      <trkpt lat="46.75577" lon="0.39663">
        <ele>131.6</ele>
        <time>2020-10-11T06:56:24Z</time>
      </trkpt>
      <trkpt lat="46.75583" lon="0.39664">
        <ele>130.6</ele>
        <time>2020-10-11T06:56:26Z</time>
      </trkpt>
      <trkpt lat="46.75585" lon="0.39662">
        <ele>129.8</ele>
        <time>2020-10-11T06:56:27Z</time>
      </trkpt>
      <trkpt lat="46.75586" lon="0.3966">
        <ele>129</ele>
        <time>2020-10-11T06:56:28Z</time>
      </trkpt>
      <trkpt lat="46.75591" lon="0.3965">
        <ele>127.8</ele>
        <time>2020-10-11T06:56:31Z</time>
      </trkpt>
      <trkpt lat="46.75595" lon="0.39646">
        <ele>127.4</ele>
        <time>2020-10-11T06:56:33Z</time>
      </trkpt>
      <trkpt lat="46.75598" lon="0.39643">
        <ele>127.2</ele>
        <time>2020-10-11T06:56:34Z</time>
      </trkpt>
      <trkpt lat="46.75603" lon="0.39645">
        <ele>126.6</ele>
        <time>2020-10-11T06:56:37Z</time>
      </trkpt>
      <trkpt lat="46.75606" lon="0.39648">
        <ele>125.4</ele>
        <time>2020-10-11T06:56:40Z</time>
      </trkpt>
      <trkpt lat="46.75608" lon="0.39647">
        <ele>124.6</ele>
        <time>2020-10-11T06:56:42Z</time>
      </trkpt>
      <trkpt lat="46.75608" lon="0.39647">
        <ele>124.2</ele>
        <time>2020-10-11T06:56:43Z</time>
      </trkpt>
      <trkpt lat="46.75618" lon="0.39642">
        <ele>123.6</ele>
        <time>2020-10-11T06:56:58Z</time>
      </trkpt>
      <trkpt lat="46.75622" lon="0.39648">
        <ele>123</ele>
        <time>2020-10-11T06:57:08Z</time>
      </trkpt>
      <trkpt lat="46.75622" lon="0.39651">
        <ele>122.6</ele>
        <time>2020-10-11T06:57:09Z</time>
      </trkpt>
      <trkpt lat="46.75621" lon="0.39662">
        <ele>123</ele>
        <time>2020-10-11T06:57:15Z</time>
      </trkpt>
      <trkpt lat="46.75623" lon="0.39674">
        <ele>124</ele>
        <time>2020-10-11T06:57:25Z</time>
      </trkpt>
      <trkpt lat="46.75624" lon="0.39677">
        <ele>124</ele>
        <time>2020-10-11T06:57:27Z</time>
      </trkpt>
      <trkpt lat="46.75625" lon="0.3968">
        <ele>124</ele>
        <time>2020-10-11T06:57:29Z</time>
      </trkpt>
      <trkpt lat="46.75628" lon="0.39683">
        <ele>123.6</ele>
        <time>2020-10-11T06:57:32Z</time>
      </trkpt>
      <trkpt lat="46.75629" lon="0.39685">
        <ele>123.6</ele>
        <time>2020-10-11T06:57:35Z</time>
      </trkpt>
      <trkpt lat="46.7563" lon="0.39688">
        <ele>124.2</ele>
        <time>2020-10-11T06:57:41Z</time>
      </trkpt>
      <trkpt lat="46.7563" lon="0.39692">
        <ele>124.8</ele>
        <time>2020-10-11T06:57:45Z</time>
      </trkpt>
      <trkpt lat="46.7563" lon="0.39693">
        <ele>125.2</ele>
        <time>2020-10-11T06:57:47Z</time>
      </trkpt>
      <trkpt lat="46.75632" lon="0.39699">
        <ele>125.4</ele>
        <time>2020-10-11T06:58:00Z</time>
      </trkpt>
      <trkpt lat="46.75633" lon="0.39703">
        <ele>125.6</ele>
        <time>2020-10-11T06:58:05Z</time>
      </trkpt>
      <trkpt lat="46.75632" lon="0.39706">
        <ele>125.8</ele>
        <time>2020-10-11T06:58:08Z</time>
      </trkpt>
      <trkpt lat="46.75632" lon="0.39707">
        <ele>126</ele>
        <time>2020-10-11T06:58:09Z</time>
      </trkpt>
      <trkpt lat="46.75632" lon="0.39708">
        <ele>126.2</ele>
        <time>2020-10-11T06:58:10Z</time>
      </trkpt>
      <trkpt lat="46.75633" lon="0.39714">
        <ele>127.2</ele>
        <time>2020-10-11T06:58:14Z</time>
      </trkpt>
      <trkpt lat="46.75633" lon="0.39715">
        <ele>127.4</ele>
        <time>2020-10-11T06:58:15Z</time>
      </trkpt>
      <trkpt lat="46.75633" lon="0.39718">
        <ele>128.6</ele>
        <time>2020-10-11T06:58:20Z</time>
      </trkpt>
      <trkpt lat="46.75631" lon="0.39724">
        <ele>129.4</ele>
        <time>2020-10-11T06:58:30Z</time>
      </trkpt>
      <trkpt lat="46.75631" lon="0.39725">
        <ele>129.6</ele>
        <time>2020-10-11T06:58:31Z</time>
      </trkpt>
      <trkpt lat="46.75631" lon="0.39726">
        <ele>129.8</ele>
        <time>2020-10-11T06:58:32Z</time>
      </trkpt>
      <trkpt lat="46.75631" lon="0.39732">
        <ele>130.6</ele>
        <time>2020-10-11T06:58:39Z</time>
      </trkpt>
      <trkpt lat="46.7563" lon="0.39734">
        <ele>130.8</ele>
        <time>2020-10-11T06:58:40Z</time>
      </trkpt>
      <trkpt lat="46.7563" lon="0.39736">
        <ele>131.2</ele>
        <time>2020-10-11T06:58:42Z</time>
      </trkpt>
      <trkpt lat="46.7563" lon="0.39739">
        <ele>131.8</ele>
        <time>2020-10-11T06:58:45Z</time>
      </trkpt>
      <trkpt lat="46.75631" lon="0.3974">
        <ele>132</ele>
        <time>2020-10-11T06:58:48Z</time>
      </trkpt>
      <trkpt lat="46.75629" lon="0.39744">
        <ele>132.6</ele>
        <time>2020-10-11T06:58:58Z</time>
      </trkpt>
      <trkpt lat="46.75628" lon="0.39745">
        <ele>132.8</ele>
        <time>2020-10-11T06:59:00Z</time>
      </trkpt>
      <trkpt lat="46.75625" lon="0.39749">
        <ele>133.8</ele>
        <time>2020-10-11T06:59:07Z</time>
      </trkpt>
      <trkpt lat="46.75625" lon="0.39751">
        <ele>134.2</ele>
        <time>2020-10-11T06:59:09Z</time>
      </trkpt>
      <trkpt lat="46.75625" lon="0.39755">
        <ele>135</ele>
        <time>2020-10-11T06:59:13Z</time>
      </trkpt>
      <trkpt lat="46.75625" lon="0.39759">
        <ele>135.6</ele>
        <time>2020-10-11T06:59:17Z</time>
      </trkpt>
      <trkpt lat="46.75623" lon="0.39764">
        <ele>136</ele>
        <time>2020-10-11T06:59:26Z</time>
      </trkpt>
      <trkpt lat="46.75622" lon="0.39765">
        <ele>136</ele>
        <time>2020-10-11T06:59:30Z</time>
      </trkpt>
      <trkpt lat="46.75622" lon="0.39766">
        <ele>136.2</ele>
        <time>2020-10-11T06:59:35Z</time>
      </trkpt>
      <trkpt lat="46.75619" lon="0.39769">
        <ele>136.4</ele>
        <time>2020-10-11T06:59:42Z</time>
      </trkpt>
      <trkpt lat="46.75617" lon="0.39771">
        <ele>136.8</ele>
        <time>2020-10-11T06:59:48Z</time>
      </trkpt>
      <trkpt lat="46.75617" lon="0.39772">
        <ele>137</ele>
        <time>2020-10-11T06:59:49Z</time>
      </trkpt>
      <trkpt lat="46.75616" lon="0.39771">
        <ele>137.6</ele>
        <time>2020-10-11T06:59:55Z</time>
      </trkpt>
      <trkpt lat="46.7561" lon="0.39773">
        <ele>138.2</ele>
        <time>2020-10-11T07:00:00Z</time>
      </trkpt>
      <trkpt lat="46.75609" lon="0.39773">
        <ele>138.4</ele>
        <time>2020-10-11T07:00:01Z</time>
      </trkpt>
      <trkpt lat="46.75607" lon="0.39775">
        <ele>138.6</ele>
        <time>2020-10-11T07:00:02Z</time>
      </trkpt>
      <trkpt lat="46.75605" lon="0.39779">
        <ele>139.2</ele>
        <time>2020-10-11T07:00:05Z</time>
      </trkpt>
      <trkpt lat="46.75604" lon="0.3978">
        <ele>139.4</ele>
        <time>2020-10-11T07:00:06Z</time>
      </trkpt>
      <trkpt lat="46.756" lon="0.39783">
        <ele>140</ele>
        <time>2020-10-11T07:00:10Z</time>
      </trkpt>
      <trkpt lat="46.75599" lon="0.39784">
        <ele>140.4</ele>
        <time>2020-10-11T07:00:11Z</time>
      </trkpt>
      <trkpt lat="46.75598" lon="0.39786">
        <ele>140.4</ele>
        <time>2020-10-11T07:00:12Z</time>
      </trkpt>
      <trkpt lat="46.75594" lon="0.39791">
        <ele>140.6</ele>
        <time>2020-10-11T07:00:15Z</time>
      </trkpt>
      <trkpt lat="46.7559" lon="0.39796">
        <ele>141.2</ele>
        <time>2020-10-11T07:00:17Z</time>
      </trkpt>
      <trkpt lat="46.75587" lon="0.398">
        <ele>141.6</ele>
        <time>2020-10-11T07:00:19Z</time>
      </trkpt>
      <trkpt lat="46.75585" lon="0.398">
        <ele>142</ele>
        <time>2020-10-11T07:00:21Z</time>
      </trkpt>
      <trkpt lat="46.75584" lon="0.398">
        <ele>142</ele>
        <time>2020-10-11T07:00:22Z</time>
      </trkpt>
      <trkpt lat="46.75584" lon="0.39798">
        <ele>142</ele>
        <time>2020-10-11T07:00:24Z</time>
      </trkpt>
      <trkpt lat="46.75583" lon="0.39796">
        <ele>142</ele>
        <time>2020-10-11T07:00:26Z</time>
      </trkpt>
      <trkpt lat="46.75583" lon="0.39796">
        <ele>142</ele>
        <time>2020-10-11T07:00:27Z</time>
      </trkpt>
      <trkpt lat="46.75574" lon="0.39794">
        <ele>142.2</ele>
        <time>2020-10-11T07:00:33Z</time>
      </trkpt>
      <trkpt lat="46.75569" lon="0.3979">
        <ele>142.6</ele>
        <time>2020-10-11T07:00:36Z</time>
      </trkpt>
      <trkpt lat="46.75565" lon="0.39788">
        <ele>142.8</ele>
        <time>2020-10-11T07:00:38Z</time>
      </trkpt>
      <trkpt lat="46.75561" lon="0.39787">
        <ele>143</ele>
        <time>2020-10-11T07:00:40Z</time>
      </trkpt>
      <trkpt lat="46.75557" lon="0.39786">
        <ele>143.2</ele>
        <time>2020-10-11T07:00:42Z</time>
      </trkpt>
      <trkpt lat="46.75555" lon="0.39784">
        <ele>143.2</ele>
        <time>2020-10-11T07:00:43Z</time>
      </trkpt>
      <trkpt lat="46.75554" lon="0.39783">
        <ele>143.2</ele>
        <time>2020-10-11T07:00:44Z</time>
      </trkpt>
      <trkpt lat="46.75551" lon="0.39782">
        <ele>143.4</ele>
        <time>2020-10-11T07:00:46Z</time>
      </trkpt>
      <trkpt lat="46.75547" lon="0.39781">
        <ele>143.4</ele>
        <time>2020-10-11T07:00:48Z</time>
      </trkpt>
      <trkpt lat="46.75538" lon="0.39782">
        <ele>143.6</ele>
        <time>2020-10-11T07:00:52Z</time>
      </trkpt>
      <trkpt lat="46.75536" lon="0.39782">
        <ele>143.8</ele>
        <time>2020-10-11T07:00:53Z</time>
      </trkpt>
      <trkpt lat="46.75534" lon="0.39784">
        <ele>144</ele>
        <time>2020-10-11T07:00:54Z</time>
      </trkpt>
      <trkpt lat="46.75531" lon="0.39787">
        <ele>144.4</ele>
        <time>2020-10-11T07:00:56Z</time>
      </trkpt>
      <trkpt lat="46.75528" lon="0.39789">
        <ele>144.6</ele>
        <time>2020-10-11T07:00:58Z</time>
      </trkpt>
      <trkpt lat="46.75527" lon="0.39791">
        <ele>144.8</ele>
        <time>2020-10-11T07:00:59Z</time>
      </trkpt>
      <trkpt lat="46.75525" lon="0.39805">
        <ele>145.2</ele>
        <time>2020-10-11T07:01:04Z</time>
      </trkpt>
      <trkpt lat="46.75525" lon="0.39826">
        <ele>145.6</ele>
        <time>2020-10-11T07:01:09Z</time>
      </trkpt>
      <trkpt lat="46.75529" lon="0.39844">
        <ele>145.8</ele>
        <time>2020-10-11T07:01:12Z</time>
      </trkpt>
      <trkpt lat="46.75531" lon="0.39862">
        <ele>146</ele>
        <time>2020-10-11T07:01:15Z</time>
      </trkpt>
      <trkpt lat="46.75535" lon="0.39879">
        <ele>146.4</ele>
        <time>2020-10-11T07:01:18Z</time>
      </trkpt>
      <trkpt lat="46.75542" lon="0.39896">
        <ele>146.8</ele>
        <time>2020-10-11T07:01:21Z</time>
      </trkpt>
      <trkpt lat="46.75544" lon="0.39902">
        <ele>146.8</ele>
        <time>2020-10-11T07:01:22Z</time>
      </trkpt>
      <trkpt lat="46.75555" lon="0.39928">
        <ele>147</ele>
        <time>2020-10-11T07:01:26Z</time>
      </trkpt>
      <trkpt lat="46.75581" lon="0.39984">
        <ele>147.6</ele>
        <time>2020-10-11T07:01:34Z</time>
      </trkpt>
      <trkpt lat="46.75588" lon="0.39998">
        <ele>147.8</ele>
        <time>2020-10-11T07:01:36Z</time>
      </trkpt>
      <trkpt lat="46.75592" lon="0.40005">
        <ele>147.8</ele>
        <time>2020-10-11T07:01:37Z</time>
      </trkpt>
      <trkpt lat="46.75601" lon="0.40017">
        <ele>148</ele>
        <time>2020-10-11T07:01:39Z</time>
      </trkpt>
      <trkpt lat="46.75625" lon="0.40059">
        <ele>148.4</ele>
        <time>2020-10-11T07:01:45Z</time>
      </trkpt>
      <trkpt lat="46.7563" lon="0.40074">
        <ele>148.4</ele>
        <time>2020-10-11T07:01:47Z</time>
      </trkpt>
      <trkpt lat="46.75641" lon="0.40104">
        <ele>148.6</ele>
        <time>2020-10-11T07:01:51Z</time>
      </trkpt>
      <trkpt lat="46.75659" lon="0.40152">
        <ele>148.4</ele>
        <time>2020-10-11T07:01:57Z</time>
      </trkpt>
      <trkpt lat="46.75677" lon="0.4021">
        <ele>148.8</ele>
        <time>2020-10-11T07:02:04Z</time>
      </trkpt>
      <trkpt lat="46.75694" lon="0.40259">
        <ele>149</ele>
        <time>2020-10-11T07:02:11Z</time>
      </trkpt>
      <trkpt lat="46.75702" lon="0.40261">
        <ele>148.8</ele>
        <time>2020-10-11T07:02:13Z</time>
      </trkpt>
      <trkpt lat="46.75706" lon="0.40259">
        <ele>148.8</ele>
        <time>2020-10-11T07:02:14Z</time>
      </trkpt>
      <trkpt lat="46.75709" lon="0.40255">
        <ele>148.6</ele>
        <time>2020-10-11T07:02:15Z</time>
      </trkpt>
      <trkpt lat="46.75725" lon="0.40243">
        <ele>148</ele>
        <time>2020-10-11T07:02:19Z</time>
      </trkpt>
      <trkpt lat="46.75731" lon="0.4024">
        <ele>147.8</ele>
        <time>2020-10-11T07:02:20Z</time>
      </trkpt>
      <trkpt lat="46.75742" lon="0.40235">
        <ele>147.4</ele>
        <time>2020-10-11T07:02:22Z</time>
      </trkpt>
      <trkpt lat="46.75752" lon="0.40228">
        <ele>146.6</ele>
        <time>2020-10-11T07:02:24Z</time>
      </trkpt>
      <trkpt lat="46.75766" lon="0.40216">
        <ele>145.6</ele>
        <time>2020-10-11T07:02:27Z</time>
      </trkpt>
      <trkpt lat="46.75779" lon="0.40205">
        <ele>145</ele>
        <time>2020-10-11T07:02:30Z</time>
      </trkpt>
      <trkpt lat="46.75783" lon="0.40202">
        <ele>144.6</ele>
        <time>2020-10-11T07:02:31Z</time>
      </trkpt>
      <trkpt lat="46.75786" lon="0.402">
        <ele>144.2</ele>
        <time>2020-10-11T07:02:32Z</time>
      </trkpt>
      <trkpt lat="46.75791" lon="0.402">
        <ele>143.6</ele>
        <time>2020-10-11T07:02:34Z</time>
      </trkpt>
      <trkpt lat="46.75793" lon="0.40203">
        <ele>143.4</ele>
        <time>2020-10-11T07:02:35Z</time>
      </trkpt>
      <trkpt lat="46.75795" lon="0.40208">
        <ele>143.2</ele>
        <time>2020-10-11T07:02:36Z</time>
      </trkpt>
      <trkpt lat="46.75797" lon="0.40213">
        <ele>143</ele>
        <time>2020-10-11T07:02:37Z</time>
      </trkpt>
      <trkpt lat="46.75801" lon="0.40224">
        <ele>142.8</ele>
        <time>2020-10-11T07:02:39Z</time>
      </trkpt>
      <trkpt lat="46.75805" lon="0.40237">
        <ele>142.8</ele>
        <time>2020-10-11T07:02:41Z</time>
      </trkpt>
      <trkpt lat="46.75812" lon="0.40249">
        <ele>142.8</ele>
        <time>2020-10-11T07:02:43Z</time>
      </trkpt>
      <trkpt lat="46.75839" lon="0.40298">
        <ele>143</ele>
        <time>2020-10-11T07:02:50Z</time>
      </trkpt>
      <trkpt lat="46.75847" lon="0.40315">
        <ele>142.8</ele>
        <time>2020-10-11T07:02:52Z</time>
      </trkpt>
      <trkpt lat="46.75855" lon="0.40342">
        <ele>142.8</ele>
        <time>2020-10-11T07:02:55Z</time>
      </trkpt>
      <trkpt lat="46.75857" lon="0.40349">
        <ele>142.6</ele>
        <time>2020-10-11T07:02:56Z</time>
      </trkpt>
      <trkpt lat="46.75862" lon="0.40353">
        <ele>142.4</ele>
        <time>2020-10-11T07:02:58Z</time>
      </trkpt>
      <trkpt lat="46.75867" lon="0.40351">
        <ele>142.2</ele>
        <time>2020-10-11T07:03:00Z</time>
      </trkpt>
      <trkpt lat="46.75871" lon="0.40349">
        <ele>141.2</ele>
        <time>2020-10-11T07:03:02Z</time>
      </trkpt>
      <trkpt lat="46.75875" lon="0.40347">
        <ele>140.6</ele>
        <time>2020-10-11T07:03:04Z</time>
      </trkpt>
      <trkpt lat="46.75881" lon="0.40344">
        <ele>140</ele>
        <time>2020-10-11T07:03:06Z</time>
      </trkpt>
      <trkpt lat="46.75887" lon="0.40343">
        <ele>139.6</ele>
        <time>2020-10-11T07:03:08Z</time>
      </trkpt>
      <trkpt lat="46.75889" lon="0.40345">
        <ele>139.4</ele>
        <time>2020-10-11T07:03:09Z</time>
      </trkpt>
      <trkpt lat="46.75891" lon="0.40347">
        <ele>139</ele>
        <time>2020-10-11T07:03:10Z</time>
      </trkpt>
      <trkpt lat="46.75894" lon="0.40353">
        <ele>138.2</ele>
        <time>2020-10-11T07:03:12Z</time>
      </trkpt>
      <trkpt lat="46.75895" lon="0.40357">
        <ele>137.8</ele>
        <time>2020-10-11T07:03:13Z</time>
      </trkpt>
      <trkpt lat="46.75901" lon="0.40374">
        <ele>137.6</ele>
        <time>2020-10-11T07:03:18Z</time>
      </trkpt>
      <trkpt lat="46.75902" lon="0.40377">
        <ele>137.4</ele>
        <time>2020-10-11T07:03:19Z</time>
      </trkpt>
      <trkpt lat="46.75909" lon="0.40381">
        <ele>136.8</ele>
        <time>2020-10-11T07:03:22Z</time>
      </trkpt>
      <trkpt lat="46.75911" lon="0.40382">
        <ele>136.6</ele>
        <time>2020-10-11T07:03:23Z</time>
      </trkpt>
      <trkpt lat="46.75916" lon="0.4039">
        <ele>136</ele>
        <time>2020-10-11T07:03:26Z</time>
      </trkpt>
      <trkpt lat="46.75916" lon="0.40392">
        <ele>135.8</ele>
        <time>2020-10-11T07:03:27Z</time>
      </trkpt>
      <trkpt lat="46.75916" lon="0.40392">
        <ele>135.8</ele>
        <time>2020-10-11T07:03:28Z</time>
      </trkpt>
      <trkpt lat="46.7592" lon="0.40408">
        <ele>135.8</ele>
        <time>2020-10-11T07:03:32Z</time>
      </trkpt>
      <trkpt lat="46.75923" lon="0.40427">
        <ele>136.4</ele>
        <time>2020-10-11T07:03:37Z</time>
      </trkpt>
      <trkpt lat="46.75922" lon="0.40434">
        <ele>137</ele>
        <time>2020-10-11T07:03:39Z</time>
      </trkpt>
      <trkpt lat="46.7592" lon="0.4044">
        <ele>137.4</ele>
        <time>2020-10-11T07:03:41Z</time>
      </trkpt>
      <trkpt lat="46.75919" lon="0.40445">
        <ele>137.6</ele>
        <time>2020-10-11T07:03:43Z</time>
      </trkpt>
      <trkpt lat="46.75918" lon="0.40451">
        <ele>138</ele>
        <time>2020-10-11T07:03:46Z</time>
      </trkpt>
      <trkpt lat="46.75917" lon="0.40469">
        <ele>138.6</ele>
        <time>2020-10-11T07:03:51Z</time>
      </trkpt>
      <trkpt lat="46.75916" lon="0.40477">
        <ele>139.2</ele>
        <time>2020-10-11T07:03:53Z</time>
      </trkpt>
      <trkpt lat="46.75916" lon="0.40486">
        <ele>139.4</ele>
        <time>2020-10-11T07:03:55Z</time>
      </trkpt>
      <trkpt lat="46.75917" lon="0.40498">
        <ele>139.6</ele>
        <time>2020-10-11T07:03:58Z</time>
      </trkpt>
      <trkpt lat="46.75919" lon="0.40501">
        <ele>139.8</ele>
        <time>2020-10-11T07:04:00Z</time>
      </trkpt>
      <trkpt lat="46.7592" lon="0.40503">
        <ele>139.8</ele>
        <time>2020-10-11T07:04:01Z</time>
      </trkpt>
      <trkpt lat="46.75921" lon="0.4051">
        <ele>139.6</ele>
        <time>2020-10-11T07:04:04Z</time>
      </trkpt>
      <trkpt lat="46.75922" lon="0.40514">
        <ele>139.6</ele>
        <time>2020-10-11T07:04:05Z</time>
      </trkpt>
      <trkpt lat="46.75924" lon="0.40533">
        <ele>139.8</ele>
        <time>2020-10-11T07:04:11Z</time>
      </trkpt>
      <trkpt lat="46.75923" lon="0.40547">
        <ele>140.2</ele>
        <time>2020-10-11T07:04:14Z</time>
      </trkpt>
      <trkpt lat="46.75922" lon="0.40556">
        <ele>140.4</ele>
        <time>2020-10-11T07:04:16Z</time>
      </trkpt>
      <trkpt lat="46.75921" lon="0.40568">
        <ele>141</ele>
        <time>2020-10-11T07:04:20Z</time>
      </trkpt>
      <trkpt lat="46.75922" lon="0.40569">
        <ele>141.2</ele>
        <time>2020-10-11T07:04:21Z</time>
      </trkpt>
      <trkpt lat="46.75924" lon="0.40573">
        <ele>141</ele>
        <time>2020-10-11T07:04:23Z</time>
      </trkpt>
      <trkpt lat="46.75924" lon="0.40576">
        <ele>140.6</ele>
        <time>2020-10-11T07:04:24Z</time>
      </trkpt>
      <trkpt lat="46.75926" lon="0.40584">
        <ele>140.4</ele>
        <time>2020-10-11T07:04:26Z</time>
      </trkpt>
      <trkpt lat="46.75928" lon="0.40588">
        <ele>140.4</ele>
        <time>2020-10-11T07:04:28Z</time>
      </trkpt>
      <trkpt lat="46.75939" lon="0.40584">
        <ele>140.4</ele>
        <time>2020-10-11T07:04:33Z</time>
      </trkpt>
      <trkpt lat="46.75944" lon="0.40573">
        <ele>139.8</ele>
        <time>2020-10-11T07:04:37Z</time>
      </trkpt>
      <trkpt lat="46.75945" lon="0.40569">
        <ele>139.8</ele>
        <time>2020-10-11T07:04:38Z</time>
      </trkpt>
      <trkpt lat="46.75948" lon="0.40562">
        <ele>139.4</ele>
        <time>2020-10-11T07:04:40Z</time>
      </trkpt>
      <trkpt lat="46.7595" lon="0.40559">
        <ele>139.2</ele>
        <time>2020-10-11T07:04:41Z</time>
      </trkpt>
      <trkpt lat="46.75952" lon="0.40557">
        <ele>138.8</ele>
        <time>2020-10-11T07:04:42Z</time>
      </trkpt>
      <trkpt lat="46.75954" lon="0.40556">
        <ele>138.2</ele>
        <time>2020-10-11T07:04:43Z</time>
      </trkpt>
      <trkpt lat="46.75955" lon="0.40558">
        <ele>137.6</ele>
        <time>2020-10-11T07:04:44Z</time>
      </trkpt>
      <trkpt lat="46.75961" lon="0.4056">
        <ele>137</ele>
        <time>2020-10-11T07:04:46Z</time>
      </trkpt>
      <trkpt lat="46.75966" lon="0.40564">
        <ele>136.6</ele>
        <time>2020-10-11T07:04:48Z</time>
      </trkpt>
      <trkpt lat="46.7597" lon="0.40575">
        <ele>136.2</ele>
        <time>2020-10-11T07:04:51Z</time>
      </trkpt>
      <trkpt lat="46.75974" lon="0.40583">
        <ele>136.2</ele>
        <time>2020-10-11T07:04:53Z</time>
      </trkpt>
      <trkpt lat="46.75975" lon="0.40591">
        <ele>136</ele>
        <time>2020-10-11T07:04:55Z</time>
      </trkpt>
      <trkpt lat="46.75975" lon="0.40595">
        <ele>136</ele>
        <time>2020-10-11T07:04:56Z</time>
      </trkpt>
      <trkpt lat="46.75975" lon="0.40598">
        <ele>136</ele>
        <time>2020-10-11T07:04:57Z</time>
      </trkpt>
      <trkpt lat="46.75977" lon="0.40611">
        <ele>136</ele>
        <time>2020-10-11T07:05:00Z</time>
      </trkpt>
      <trkpt lat="46.75984" lon="0.40634">
        <ele>136.8</ele>
        <time>2020-10-11T07:05:06Z</time>
      </trkpt>
      <trkpt lat="46.75985" lon="0.40638">
        <ele>137</ele>
        <time>2020-10-11T07:05:07Z</time>
      </trkpt>
      <trkpt lat="46.75992" lon="0.40657">
        <ele>137.4</ele>
        <time>2020-10-11T07:05:11Z</time>
      </trkpt>
      <trkpt lat="46.75998" lon="0.40677">
        <ele>137.8</ele>
        <time>2020-10-11T07:05:15Z</time>
      </trkpt>
      <trkpt lat="46.76001" lon="0.40686">
        <ele>138</ele>
        <time>2020-10-11T07:05:17Z</time>
      </trkpt>
      <trkpt lat="46.76" lon="0.40696">
        <ele>138</ele>
        <time>2020-10-11T07:05:20Z</time>
      </trkpt>
      <trkpt lat="46.75999" lon="0.407">
        <ele>138</ele>
        <time>2020-10-11T07:05:21Z</time>
      </trkpt>
      <trkpt lat="46.75999" lon="0.40724">
        <ele>138.2</ele>
        <time>2020-10-11T07:05:26Z</time>
      </trkpt>
      <trkpt lat="46.75997" lon="0.40733">
        <ele>138.6</ele>
        <time>2020-10-11T07:05:28Z</time>
      </trkpt>
      <trkpt lat="46.75996" lon="0.40743">
        <ele>139</ele>
        <time>2020-10-11T07:05:30Z</time>
      </trkpt>
      <trkpt lat="46.75996" lon="0.4075">
        <ele>139.2</ele>
        <time>2020-10-11T07:05:31Z</time>
      </trkpt>
      <trkpt lat="46.75994" lon="0.40764">
        <ele>140.2</ele>
        <time>2020-10-11T07:05:34Z</time>
      </trkpt>
      <trkpt lat="46.75992" lon="0.40771">
        <ele>140.6</ele>
        <time>2020-10-11T07:05:36Z</time>
      </trkpt>
      <trkpt lat="46.75988" lon="0.40776">
        <ele>140.6</ele>
        <time>2020-10-11T07:05:38Z</time>
      </trkpt>
      <trkpt lat="46.75986" lon="0.40781">
        <ele>141</ele>
        <time>2020-10-11T07:05:40Z</time>
      </trkpt>
      <trkpt lat="46.7599" lon="0.40798">
        <ele>141</ele>
        <time>2020-10-11T07:05:45Z</time>
      </trkpt>
      <trkpt lat="46.75991" lon="0.40807">
        <ele>140.8</ele>
        <time>2020-10-11T07:05:47Z</time>
      </trkpt>
      <trkpt lat="46.75991" lon="0.40818">
        <ele>140.6</ele>
        <time>2020-10-11T07:05:49Z</time>
      </trkpt>
      <trkpt lat="46.75991" lon="0.40825">
        <ele>140.6</ele>
        <time>2020-10-11T07:05:50Z</time>
      </trkpt>
      <trkpt lat="46.7599" lon="0.40831">
        <ele>140.4</ele>
        <time>2020-10-11T07:05:51Z</time>
      </trkpt>
      <trkpt lat="46.7599" lon="0.40848">
        <ele>140</ele>
        <time>2020-10-11T07:05:54Z</time>
      </trkpt>
      <trkpt lat="46.75991" lon="0.40859">
        <ele>139.6</ele>
        <time>2020-10-11T07:05:57Z</time>
      </trkpt>
      <trkpt lat="46.75996" lon="0.40867">
        <ele>139.6</ele>
        <time>2020-10-11T07:05:59Z</time>
      </trkpt>
      <trkpt lat="46.76001" lon="0.40873">
        <ele>139.4</ele>
        <time>2020-10-11T07:06:01Z</time>
      </trkpt>
      <trkpt lat="46.76007" lon="0.40876">
        <ele>139</ele>
        <time>2020-10-11T07:06:03Z</time>
      </trkpt>
      <trkpt lat="46.76016" lon="0.40875">
        <ele>138.4</ele>
        <time>2020-10-11T07:06:05Z</time>
      </trkpt>
      <trkpt lat="46.76026" lon="0.40874">
        <ele>138</ele>
        <time>2020-10-11T07:06:07Z</time>
      </trkpt>
      <trkpt lat="46.76034" lon="0.40873">
        <ele>137.6</ele>
        <time>2020-10-11T07:06:09Z</time>
      </trkpt>
      <trkpt lat="46.76037" lon="0.40873">
        <ele>137.4</ele>
        <time>2020-10-11T07:06:10Z</time>
      </trkpt>
      <trkpt lat="46.76042" lon="0.40874">
        <ele>136.2</ele>
        <time>2020-10-11T07:06:12Z</time>
      </trkpt>
      <trkpt lat="46.76047" lon="0.40874">
        <ele>134.6</ele>
        <time>2020-10-11T07:06:14Z</time>
      </trkpt>
      <trkpt lat="46.76053" lon="0.40873">
        <ele>133.6</ele>
        <time>2020-10-11T07:06:16Z</time>
      </trkpt>
      <trkpt lat="46.76061" lon="0.40874">
        <ele>133</ele>
        <time>2020-10-11T07:06:18Z</time>
      </trkpt>
      <trkpt lat="46.76067" lon="0.40874">
        <ele>132.4</ele>
        <time>2020-10-11T07:06:20Z</time>
      </trkpt>
      <trkpt lat="46.76072" lon="0.40875">
        <ele>131.6</ele>
        <time>2020-10-11T07:06:22Z</time>
      </trkpt>
      <trkpt lat="46.76075" lon="0.40876">
        <ele>131.4</ele>
        <time>2020-10-11T07:06:23Z</time>
      </trkpt>
      <trkpt lat="46.76081" lon="0.40881">
        <ele>130.4</ele>
        <time>2020-10-11T07:06:26Z</time>
      </trkpt>
      <trkpt lat="46.76083" lon="0.40882">
        <ele>129.6</ele>
        <time>2020-10-11T07:06:27Z</time>
      </trkpt>
      <trkpt lat="46.76085" lon="0.40882">
        <ele>129</ele>
        <time>2020-10-11T07:06:28Z</time>
      </trkpt>
      <trkpt lat="46.76087" lon="0.40884">
        <ele>128.4</ele>
        <time>2020-10-11T07:06:29Z</time>
      </trkpt>
      <trkpt lat="46.7609" lon="0.40889">
        <ele>127</ele>
        <time>2020-10-11T07:06:31Z</time>
      </trkpt>
      <trkpt lat="46.76097" lon="0.40894">
        <ele>125.8</ele>
        <time>2020-10-11T07:06:33Z</time>
      </trkpt>
      <trkpt lat="46.761" lon="0.40896">
        <ele>125.2</ele>
        <time>2020-10-11T07:06:34Z</time>
      </trkpt>
      <trkpt lat="46.76102" lon="0.40898">
        <ele>124.6</ele>
        <time>2020-10-11T07:06:35Z</time>
      </trkpt>
      <trkpt lat="46.76103" lon="0.40902">
        <ele>124</ele>
        <time>2020-10-11T07:06:36Z</time>
      </trkpt>
      <trkpt lat="46.76105" lon="0.40904">
        <ele>123.4</ele>
        <time>2020-10-11T07:06:37Z</time>
      </trkpt>
      <trkpt lat="46.76118" lon="0.4092">
        <ele>123</ele>
        <time>2020-10-11T07:06:42Z</time>
      </trkpt>
      <trkpt lat="46.76128" lon="0.40926">
        <ele>123.2</ele>
        <time>2020-10-11T07:06:45Z</time>
      </trkpt>
      <trkpt lat="46.76129" lon="0.40928">
        <ele>123.2</ele>
        <time>2020-10-11T07:06:46Z</time>
      </trkpt>
      <trkpt lat="46.76132" lon="0.40938">
        <ele>123.6</ele>
        <time>2020-10-11T07:06:49Z</time>
      </trkpt>
      <trkpt lat="46.76133" lon="0.40946">
        <ele>123.8</ele>
        <time>2020-10-11T07:06:51Z</time>
      </trkpt>
      <trkpt lat="46.76134" lon="0.40952">
        <ele>124.4</ele>
        <time>2020-10-11T07:06:53Z</time>
      </trkpt>
      <trkpt lat="46.76137" lon="0.40961">
        <ele>125.2</ele>
        <time>2020-10-11T07:06:56Z</time>
      </trkpt>
      <trkpt lat="46.76137" lon="0.40966">
        <ele>125.4</ele>
        <time>2020-10-11T07:06:58Z</time>
      </trkpt>
      <trkpt lat="46.76137" lon="0.40975">
        <ele>126</ele>
        <time>2020-10-11T07:07:01Z</time>
      </trkpt>
      <trkpt lat="46.76136" lon="0.40985">
        <ele>126.6</ele>
        <time>2020-10-11T07:07:04Z</time>
      </trkpt>
      <trkpt lat="46.76135" lon="0.40995">
        <ele>127.8</ele>
        <time>2020-10-11T07:07:07Z</time>
      </trkpt>
      <trkpt lat="46.76135" lon="0.40999">
        <ele>128</ele>
        <time>2020-10-11T07:07:08Z</time>
      </trkpt>
      <trkpt lat="46.76132" lon="0.41015">
        <ele>128.4</ele>
        <time>2020-10-11T07:07:13Z</time>
      </trkpt>
      <trkpt lat="46.76132" lon="0.41019">
        <ele>128.4</ele>
        <time>2020-10-11T07:07:14Z</time>
      </trkpt>
      <trkpt lat="46.76132" lon="0.41027">
        <ele>129</ele>
        <time>2020-10-11T07:07:16Z</time>
      </trkpt>
      <trkpt lat="46.76132" lon="0.41032">
        <ele>129</ele>
        <time>2020-10-11T07:07:17Z</time>
      </trkpt>
      <trkpt lat="46.76133" lon="0.41037">
        <ele>129.2</ele>
        <time>2020-10-11T07:07:18Z</time>
      </trkpt>
      <trkpt lat="46.76134" lon="0.41043">
        <ele>129.4</ele>
        <time>2020-10-11T07:07:20Z</time>
      </trkpt>
      <trkpt lat="46.76135" lon="0.4105">
        <ele>130</ele>
        <time>2020-10-11T07:07:22Z</time>
      </trkpt>
      <trkpt lat="46.76135" lon="0.41053">
        <ele>130.4</ele>
        <time>2020-10-11T07:07:23Z</time>
      </trkpt>
      <trkpt lat="46.76137" lon="0.41065">
        <ele>131.4</ele>
        <time>2020-10-11T07:07:26Z</time>
      </trkpt>
      <trkpt lat="46.76137" lon="0.41071">
        <ele>131.8</ele>
        <time>2020-10-11T07:07:27Z</time>
      </trkpt>
      <trkpt lat="46.76135" lon="0.41078">
        <ele>132.6</ele>
        <time>2020-10-11T07:07:29Z</time>
      </trkpt>
      <trkpt lat="46.76129" lon="0.41081">
        <ele>132.8</ele>
        <time>2020-10-11T07:07:32Z</time>
      </trkpt>
      <trkpt lat="46.76127" lon="0.41083">
        <ele>133</ele>
        <time>2020-10-11T07:07:33Z</time>
      </trkpt>
      <trkpt lat="46.76123" lon="0.41091">
        <ele>133.4</ele>
        <time>2020-10-11T07:07:36Z</time>
      </trkpt>
      <trkpt lat="46.76121" lon="0.41097">
        <ele>133.8</ele>
        <time>2020-10-11T07:07:38Z</time>
      </trkpt>
      <trkpt lat="46.76118" lon="0.41108">
        <ele>135</ele>
        <time>2020-10-11T07:07:42Z</time>
      </trkpt>
      <trkpt lat="46.76115" lon="0.41115">
        <ele>136</ele>
        <time>2020-10-11T07:07:45Z</time>
      </trkpt>
      <trkpt lat="46.76113" lon="0.41122">
        <ele>136.8</ele>
        <time>2020-10-11T07:07:47Z</time>
      </trkpt>
      <trkpt lat="46.76112" lon="0.41126">
        <ele>137.2</ele>
        <time>2020-10-11T07:07:48Z</time>
      </trkpt>
      <trkpt lat="46.76106" lon="0.41137">
        <ele>138.4</ele>
        <time>2020-10-11T07:07:53Z</time>
      </trkpt>
      <trkpt lat="46.76105" lon="0.41139">
        <ele>138.6</ele>
        <time>2020-10-11T07:07:54Z</time>
      </trkpt>
      <trkpt lat="46.76103" lon="0.4115">
        <ele>139.2</ele>
        <time>2020-10-11T07:07:58Z</time>
      </trkpt>
      <trkpt lat="46.76104" lon="0.41155">
        <ele>139.4</ele>
        <time>2020-10-11T07:08:00Z</time>
      </trkpt>
      <trkpt lat="46.76104" lon="0.41158">
        <ele>139.6</ele>
        <time>2020-10-11T07:08:01Z</time>
      </trkpt>
      <trkpt lat="46.76107" lon="0.41165">
        <ele>140</ele>
        <time>2020-10-11T07:08:04Z</time>
      </trkpt>
      <trkpt lat="46.76109" lon="0.41166">
        <ele>140.2</ele>
        <time>2020-10-11T07:08:05Z</time>
      </trkpt>
      <trkpt lat="46.76112" lon="0.41167">
        <ele>140.6</ele>
        <time>2020-10-11T07:08:07Z</time>
      </trkpt>
      <trkpt lat="46.76115" lon="0.41166">
        <ele>140.8</ele>
        <time>2020-10-11T07:08:09Z</time>
      </trkpt>
      <trkpt lat="46.76121" lon="0.41164">
        <ele>140.4</ele>
        <time>2020-10-11T07:08:12Z</time>
      </trkpt>
      <trkpt lat="46.76125" lon="0.41164">
        <ele>140</ele>
        <time>2020-10-11T07:08:14Z</time>
      </trkpt>
      <trkpt lat="46.76129" lon="0.41161">
        <ele>139.6</ele>
        <time>2020-10-11T07:08:16Z</time>
      </trkpt>
      <trkpt lat="46.76137" lon="0.41154">
        <ele>139</ele>
        <time>2020-10-11T07:08:19Z</time>
      </trkpt>
      <trkpt lat="46.76144" lon="0.41149">
        <ele>138.6</ele>
        <time>2020-10-11T07:08:21Z</time>
      </trkpt>
      <trkpt lat="46.76147" lon="0.41146">
        <ele>138.6</ele>
        <time>2020-10-11T07:08:22Z</time>
      </trkpt>
      <trkpt lat="46.76153" lon="0.4114">
        <ele>137.6</ele>
        <time>2020-10-11T07:08:24Z</time>
      </trkpt>
      <trkpt lat="46.76156" lon="0.41138">
        <ele>137.2</ele>
        <time>2020-10-11T07:08:25Z</time>
      </trkpt>
      <trkpt lat="46.76162" lon="0.41134">
        <ele>136.4</ele>
        <time>2020-10-11T07:08:28Z</time>
      </trkpt>
      <trkpt lat="46.76165" lon="0.41133">
        <ele>136</ele>
        <time>2020-10-11T07:08:29Z</time>
      </trkpt>
      <trkpt lat="46.7617" lon="0.41131">
        <ele>135.2</ele>
        <time>2020-10-11T07:08:31Z</time>
      </trkpt>
      <trkpt lat="46.76171" lon="0.41133">
        <ele>135</ele>
        <time>2020-10-11T07:08:32Z</time>
      </trkpt>
      <trkpt lat="46.76172" lon="0.41135">
        <ele>135</ele>
        <time>2020-10-11T07:08:33Z</time>
      </trkpt>
      <trkpt lat="46.76177" lon="0.41141">
        <ele>135</ele>
        <time>2020-10-11T07:08:36Z</time>
      </trkpt>
      <trkpt lat="46.76181" lon="0.41141">
        <ele>135.2</ele>
        <time>2020-10-11T07:08:37Z</time>
      </trkpt>
      <trkpt lat="46.76186" lon="0.41142">
        <ele>135.4</ele>
        <time>2020-10-11T07:08:39Z</time>
      </trkpt>
      <trkpt lat="46.7619" lon="0.41148">
        <ele>135.6</ele>
        <time>2020-10-11T07:08:42Z</time>
      </trkpt>
      <trkpt lat="46.7619" lon="0.41151">
        <ele>135.6</ele>
        <time>2020-10-11T07:08:44Z</time>
      </trkpt>
      <trkpt lat="46.76194" lon="0.41156">
        <ele>136</ele>
        <time>2020-10-11T07:08:46Z</time>
      </trkpt>
      <trkpt lat="46.76203" lon="0.41165">
        <ele>137</ele>
        <time>2020-10-11T07:08:51Z</time>
      </trkpt>
      <trkpt lat="46.76205" lon="0.41167">
        <ele>137.2</ele>
        <time>2020-10-11T07:08:52Z</time>
      </trkpt>
      <trkpt lat="46.76211" lon="0.41174">
        <ele>137.6</ele>
        <time>2020-10-11T07:08:55Z</time>
      </trkpt>
      <trkpt lat="46.76213" lon="0.41176">
        <ele>137.6</ele>
        <time>2020-10-11T07:08:56Z</time>
      </trkpt>
      <trkpt lat="46.76218" lon="0.41186">
        <ele>137.8</ele>
        <time>2020-10-11T07:09:01Z</time>
      </trkpt>
      <trkpt lat="46.76219" lon="0.41187">
        <ele>137.8</ele>
        <time>2020-10-11T07:09:02Z</time>
      </trkpt>
      <trkpt lat="46.76221" lon="0.41191">
        <ele>137.8</ele>
        <time>2020-10-11T07:09:03Z</time>
      </trkpt>
      <trkpt lat="46.76225" lon="0.412">
        <ele>138.2</ele>
        <time>2020-10-11T07:09:06Z</time>
      </trkpt>
      <trkpt lat="46.76227" lon="0.41212">
        <ele>138.8</ele>
        <time>2020-10-11T07:09:09Z</time>
      </trkpt>
      <trkpt lat="46.76226" lon="0.41221">
        <ele>139.2</ele>
        <time>2020-10-11T07:09:12Z</time>
      </trkpt>
      <trkpt lat="46.76227" lon="0.41224">
        <ele>139.4</ele>
        <time>2020-10-11T07:09:13Z</time>
      </trkpt>
      <trkpt lat="46.76228" lon="0.41227">
        <ele>139.8</ele>
        <time>2020-10-11T07:09:14Z</time>
      </trkpt>
      <trkpt lat="46.76235" lon="0.41235">
        <ele>140.2</ele>
        <time>2020-10-11T07:09:18Z</time>
      </trkpt>
      <trkpt lat="46.76236" lon="0.41238">
        <ele>140.4</ele>
        <time>2020-10-11T07:09:19Z</time>
      </trkpt>
      <trkpt lat="46.76242" lon="0.41251">
        <ele>140.2</ele>
        <time>2020-10-11T07:09:23Z</time>
      </trkpt>
      <trkpt lat="46.7625" lon="0.41267">
        <ele>140.2</ele>
        <time>2020-10-11T07:09:28Z</time>
      </trkpt>
      <trkpt lat="46.76256" lon="0.41281">
        <ele>140.4</ele>
        <time>2020-10-11T07:09:32Z</time>
      </trkpt>
      <trkpt lat="46.76258" lon="0.41283">
        <ele>140.4</ele>
        <time>2020-10-11T07:09:33Z</time>
      </trkpt>
      <trkpt lat="46.76271" lon="0.41283">
        <ele>140</ele>
        <time>2020-10-11T07:09:37Z</time>
      </trkpt>
      <trkpt lat="46.7628" lon="0.4128">
        <ele>139.4</ele>
        <time>2020-10-11T07:09:40Z</time>
      </trkpt>
      <trkpt lat="46.76286" lon="0.4128">
        <ele>138.8</ele>
        <time>2020-10-11T07:09:42Z</time>
      </trkpt>
      <trkpt lat="46.76293" lon="0.4128">
        <ele>138</ele>
        <time>2020-10-11T07:09:44Z</time>
      </trkpt>
      <trkpt lat="46.76299" lon="0.41284">
        <ele>137</ele>
        <time>2020-10-11T07:09:47Z</time>
      </trkpt>
      <trkpt lat="46.76311" lon="0.41293">
        <ele>136.2</ele>
        <time>2020-10-11T07:09:52Z</time>
      </trkpt>
      <trkpt lat="46.76316" lon="0.41308">
        <ele>136.6</ele>
        <time>2020-10-11T07:09:57Z</time>
      </trkpt>
      <trkpt lat="46.76318" lon="0.41327">
        <ele>137.2</ele>
        <time>2020-10-11T07:10:02Z</time>
      </trkpt>
      <trkpt lat="46.76321" lon="0.41349">
        <ele>137.8</ele>
        <time>2020-10-11T07:10:07Z</time>
      </trkpt>
      <trkpt lat="46.76321" lon="0.41356">
        <ele>138.2</ele>
        <time>2020-10-11T07:10:09Z</time>
      </trkpt>
      <trkpt lat="46.76324" lon="0.41365">
        <ele>138.6</ele>
        <time>2020-10-11T07:10:12Z</time>
      </trkpt>
      <trkpt lat="46.76331" lon="0.41379">
        <ele>139.2</ele>
        <time>2020-10-11T07:10:15Z</time>
      </trkpt>
      <trkpt lat="46.76335" lon="0.41387">
        <ele>139.4</ele>
        <time>2020-10-11T07:10:17Z</time>
      </trkpt>
      <trkpt lat="46.76339" lon="0.41398">
        <ele>139.6</ele>
        <time>2020-10-11T07:10:20Z</time>
      </trkpt>
      <trkpt lat="46.7634" lon="0.41407">
        <ele>139.6</ele>
        <time>2020-10-11T07:10:22Z</time>
      </trkpt>
      <trkpt lat="46.76345" lon="0.41428">
        <ele>140</ele>
        <time>2020-10-11T07:10:27Z</time>
      </trkpt>
      <trkpt lat="46.76351" lon="0.41447">
        <ele>140</ele>
        <time>2020-10-11T07:10:32Z</time>
      </trkpt>
      <trkpt lat="46.76356" lon="0.41466">
        <ele>139.8</ele>
        <time>2020-10-11T07:10:36Z</time>
      </trkpt>
      <trkpt lat="46.76358" lon="0.4147">
        <ele>139.8</ele>
        <time>2020-10-11T07:10:37Z</time>
      </trkpt>
      <trkpt lat="46.7636" lon="0.41474">
        <ele>139.8</ele>
        <time>2020-10-11T07:10:38Z</time>
      </trkpt>
      <trkpt lat="46.76367" lon="0.41498">
        <ele>139.8</ele>
        <time>2020-10-11T07:10:42Z</time>
      </trkpt>
      <trkpt lat="46.76368" lon="0.41506">
        <ele>139.8</ele>
        <time>2020-10-11T07:10:43Z</time>
      </trkpt>
      <trkpt lat="46.76373" lon="0.41521">
        <ele>139.6</ele>
        <time>2020-10-11T07:10:45Z</time>
      </trkpt>
      <trkpt lat="46.76379" lon="0.41527">
        <ele>139.4</ele>
        <time>2020-10-11T07:10:46Z</time>
      </trkpt>
      <trkpt lat="46.76382" lon="0.41533">
        <ele>139.2</ele>
        <time>2020-10-11T07:10:47Z</time>
      </trkpt>
      <trkpt lat="46.76389" lon="0.41558">
        <ele>138</ele>
        <time>2020-10-11T07:10:51Z</time>
      </trkpt>
      <trkpt lat="46.7639" lon="0.41562">
        <ele>137.8</ele>
        <time>2020-10-11T07:10:52Z</time>
      </trkpt>
      <trkpt lat="46.76394" lon="0.41571">
        <ele>137.4</ele>
        <time>2020-10-11T07:10:54Z</time>
      </trkpt>
      <trkpt lat="46.76396" lon="0.41584">
        <ele>137</ele>
        <time>2020-10-11T07:10:56Z</time>
      </trkpt>
      <trkpt lat="46.76397" lon="0.41591">
        <ele>136.6</ele>
        <time>2020-10-11T07:10:58Z</time>
      </trkpt>
      <trkpt lat="46.76403" lon="0.41605">
        <ele>136.4</ele>
        <time>2020-10-11T07:11:01Z</time>
      </trkpt>
      <trkpt lat="46.76406" lon="0.41616">
        <ele>136</ele>
        <time>2020-10-11T07:11:03Z</time>
      </trkpt>
      <trkpt lat="46.76407" lon="0.41626">
        <ele>135.4</ele>
        <time>2020-10-11T07:11:05Z</time>
      </trkpt>
      <trkpt lat="46.76408" lon="0.4163">
        <ele>135</ele>
        <time>2020-10-11T07:11:06Z</time>
      </trkpt>
      <trkpt lat="46.76409" lon="0.41635">
        <ele>134.6</ele>
        <time>2020-10-11T07:11:07Z</time>
      </trkpt>
      <trkpt lat="46.76412" lon="0.41639">
        <ele>134.2</ele>
        <time>2020-10-11T07:11:08Z</time>
      </trkpt>
      <trkpt lat="46.76416" lon="0.41648">
        <ele>133.4</ele>
        <time>2020-10-11T07:11:10Z</time>
      </trkpt>
      <trkpt lat="46.76421" lon="0.41652">
        <ele>132.6</ele>
        <time>2020-10-11T07:11:13Z</time>
      </trkpt>
      <trkpt lat="46.76423" lon="0.4165">
        <ele>132.4</ele>
        <time>2020-10-11T07:11:14Z</time>
      </trkpt>
      <trkpt lat="46.76427" lon="0.41648">
        <ele>132</ele>
        <time>2020-10-11T07:11:16Z</time>
      </trkpt>
      <trkpt lat="46.76433" lon="0.41645">
        <ele>131.4</ele>
        <time>2020-10-11T07:11:18Z</time>
      </trkpt>
      <trkpt lat="46.76436" lon="0.41644">
        <ele>131</ele>
        <time>2020-10-11T07:11:19Z</time>
      </trkpt>
      <trkpt lat="46.76441" lon="0.41638">
        <ele>129.8</ele>
        <time>2020-10-11T07:11:22Z</time>
      </trkpt>
      <trkpt lat="46.76445" lon="0.41636">
        <ele>129.2</ele>
        <time>2020-10-11T07:11:25Z</time>
      </trkpt>
      <trkpt lat="46.76447" lon="0.41637">
        <ele>128.8</ele>
        <time>2020-10-11T07:11:26Z</time>
      </trkpt>
      <trkpt lat="46.76449" lon="0.41638">
        <ele>127.8</ele>
        <time>2020-10-11T07:11:27Z</time>
      </trkpt>
      <trkpt lat="46.7645" lon="0.41639">
        <ele>127</ele>
        <time>2020-10-11T07:11:28Z</time>
      </trkpt>
      <trkpt lat="46.76454" lon="0.41643">
        <ele>126</ele>
        <time>2020-10-11T07:11:30Z</time>
      </trkpt>
      <trkpt lat="46.76456" lon="0.41645">
        <ele>125.2</ele>
        <time>2020-10-11T07:11:31Z</time>
      </trkpt>
      <trkpt lat="46.76458" lon="0.41647">
        <ele>124.4</ele>
        <time>2020-10-11T07:11:32Z</time>
      </trkpt>
      <trkpt lat="46.76461" lon="0.4165">
        <ele>122.8</ele>
        <time>2020-10-11T07:11:34Z</time>
      </trkpt>
      <trkpt lat="46.76464" lon="0.41655">
        <ele>121.8</ele>
        <time>2020-10-11T07:11:36Z</time>
      </trkpt>
      <trkpt lat="46.76465" lon="0.41658">
        <ele>121.6</ele>
        <time>2020-10-11T07:11:37Z</time>
      </trkpt>
      <trkpt lat="46.76469" lon="0.41665">
        <ele>120.8</ele>
        <time>2020-10-11T07:11:40Z</time>
      </trkpt>
      <trkpt lat="46.7647" lon="0.41667">
        <ele>120.6</ele>
        <time>2020-10-11T07:11:41Z</time>
      </trkpt>
      <trkpt lat="46.76473" lon="0.41676">
        <ele>120.2</ele>
        <time>2020-10-11T07:11:45Z</time>
      </trkpt>
      <trkpt lat="46.76475" lon="0.41679">
        <ele>120</ele>
        <time>2020-10-11T07:11:46Z</time>
      </trkpt>
      <trkpt lat="46.7648" lon="0.41687">
        <ele>119.6</ele>
        <time>2020-10-11T07:11:48Z</time>
      </trkpt>
      <trkpt lat="46.76481" lon="0.41692">
        <ele>119.2</ele>
        <time>2020-10-11T07:11:49Z</time>
      </trkpt>
      <trkpt lat="46.76481" lon="0.41697">
        <ele>119</ele>
        <time>2020-10-11T07:11:50Z</time>
      </trkpt>
      <trkpt lat="46.7648" lon="0.41716">
        <ele>120</ele>
        <time>2020-10-11T07:11:57Z</time>
      </trkpt>
      <trkpt lat="46.76482" lon="0.41722">
        <ele>120.4</ele>
        <time>2020-10-11T07:11:59Z</time>
      </trkpt>
      <trkpt lat="46.76483" lon="0.41724">
        <ele>120.6</ele>
        <time>2020-10-11T07:12:00Z</time>
      </trkpt>
      <trkpt lat="46.76483" lon="0.41726">
        <ele>120.6</ele>
        <time>2020-10-11T07:12:01Z</time>
      </trkpt>
      <trkpt lat="46.76485" lon="0.41732">
        <ele>120.6</ele>
        <time>2020-10-11T07:12:04Z</time>
      </trkpt>
      <trkpt lat="46.76484" lon="0.4174">
        <ele>120.6</ele>
        <time>2020-10-11T07:12:07Z</time>
      </trkpt>
      <trkpt lat="46.7648" lon="0.41752">
        <ele>120.8</ele>
        <time>2020-10-11T07:12:13Z</time>
      </trkpt>
      <trkpt lat="46.76477" lon="0.41762">
        <ele>121.6</ele>
        <time>2020-10-11T07:12:17Z</time>
      </trkpt>
      <trkpt lat="46.76475" lon="0.41769">
        <ele>122</ele>
        <time>2020-10-11T07:12:20Z</time>
      </trkpt>
      <trkpt lat="46.76462" lon="0.41785">
        <ele>122.8</ele>
        <time>2020-10-11T07:12:28Z</time>
      </trkpt>
      <trkpt lat="46.76455" lon="0.41789">
        <ele>123.6</ele>
        <time>2020-10-11T07:12:32Z</time>
      </trkpt>
      <trkpt lat="46.76452" lon="0.4179">
        <ele>123.8</ele>
        <time>2020-10-11T07:12:34Z</time>
      </trkpt>
      <trkpt lat="46.7645" lon="0.41792">
        <ele>124</ele>
        <time>2020-10-11T07:12:36Z</time>
      </trkpt>
      <trkpt lat="46.76445" lon="0.41798">
        <ele>124.4</ele>
        <time>2020-10-11T07:12:40Z</time>
      </trkpt>
      <trkpt lat="46.76444" lon="0.418">
        <ele>124.4</ele>
        <time>2020-10-11T07:12:41Z</time>
      </trkpt>
      <trkpt lat="46.7644" lon="0.4181">
        <ele>124.6</ele>
        <time>2020-10-11T07:12:46Z</time>
      </trkpt>
      <trkpt lat="46.76438" lon="0.41815">
        <ele>125</ele>
        <time>2020-10-11T07:12:48Z</time>
      </trkpt>
      <trkpt lat="46.76435" lon="0.41821">
        <ele>125.6</ele>
        <time>2020-10-11T07:12:51Z</time>
      </trkpt>
      <trkpt lat="46.76433" lon="0.41823">
        <ele>126.2</ele>
        <time>2020-10-11T07:12:53Z</time>
      </trkpt>
      <trkpt lat="46.76431" lon="0.41827">
        <ele>127.6</ele>
        <time>2020-10-11T07:12:56Z</time>
      </trkpt>
      <trkpt lat="46.76429" lon="0.41831">
        <ele>128.4</ele>
        <time>2020-10-11T07:12:59Z</time>
      </trkpt>
      <trkpt lat="46.76429" lon="0.41831">
        <ele>128.6</ele>
        <time>2020-10-11T07:13:00Z</time>
      </trkpt>
      <trkpt lat="46.76427" lon="0.41837">
        <ele>128.6</ele>
        <time>2020-10-11T07:13:03Z</time>
      </trkpt>
      <trkpt lat="46.76426" lon="0.41841">
        <ele>128.8</ele>
        <time>2020-10-11T07:13:05Z</time>
      </trkpt>
      <trkpt lat="46.76425" lon="0.41847">
        <ele>130</ele>
        <time>2020-10-11T07:13:09Z</time>
      </trkpt>
      <trkpt lat="46.76426" lon="0.4185">
        <ele>130.4</ele>
        <time>2020-10-11T07:13:12Z</time>
      </trkpt>
      <trkpt lat="46.76428" lon="0.41851">
        <ele>130.4</ele>
        <time>2020-10-11T07:13:14Z</time>
      </trkpt>
      <trkpt lat="46.76429" lon="0.41852">
        <ele>130.2</ele>
        <time>2020-10-11T07:13:15Z</time>
      </trkpt>
      <trkpt lat="46.76431" lon="0.41855">
        <ele>129.8</ele>
        <time>2020-10-11T07:13:18Z</time>
      </trkpt>
      <trkpt lat="46.76432" lon="0.41856">
        <ele>129.6</ele>
        <time>2020-10-11T07:13:20Z</time>
      </trkpt>
      <trkpt lat="46.76436" lon="0.41859">
        <ele>129.4</ele>
        <time>2020-10-11T07:13:24Z</time>
      </trkpt>
      <trkpt lat="46.76439" lon="0.41867">
        <ele>129</ele>
        <time>2020-10-11T07:13:28Z</time>
      </trkpt>
      <trkpt lat="46.76441" lon="0.41874">
        <ele>130</ele>
        <time>2020-10-11T07:13:32Z</time>
      </trkpt>
      <trkpt lat="46.76441" lon="0.41876">
        <ele>130</ele>
        <time>2020-10-11T07:13:33Z</time>
      </trkpt>
      <trkpt lat="46.76439" lon="0.41879">
        <ele>130.6</ele>
        <time>2020-10-11T07:13:35Z</time>
      </trkpt>
      <trkpt lat="46.76438" lon="0.4188">
        <ele>131.2</ele>
        <time>2020-10-11T07:13:37Z</time>
      </trkpt>
      <trkpt lat="46.76436" lon="0.41882">
        <ele>131.6</ele>
        <time>2020-10-11T07:13:39Z</time>
      </trkpt>
      <trkpt lat="46.76434" lon="0.41883">
        <ele>131.8</ele>
        <time>2020-10-11T07:13:40Z</time>
      </trkpt>
      <trkpt lat="46.76433" lon="0.41884">
        <ele>132.2</ele>
        <time>2020-10-11T07:13:41Z</time>
      </trkpt>
      <trkpt lat="46.76429" lon="0.41885">
        <ele>133.2</ele>
        <time>2020-10-11T07:13:46Z</time>
      </trkpt>
      <trkpt lat="46.76428" lon="0.41886">
        <ele>133.4</ele>
        <time>2020-10-11T07:13:48Z</time>
      </trkpt>
      <trkpt lat="46.76427" lon="0.41887">
        <ele>133.4</ele>
        <time>2020-10-11T07:13:49Z</time>
      </trkpt>
      <trkpt lat="46.76424" lon="0.41892">
        <ele>134</ele>
        <time>2020-10-11T07:13:59Z</time>
      </trkpt>
      <trkpt lat="46.76423" lon="0.41893">
        <ele>133.8</ele>
        <time>2020-10-11T07:14:11Z</time>
      </trkpt>
      <trkpt lat="46.76421" lon="0.41896">
        <ele>134.2</ele>
        <time>2020-10-11T07:14:16Z</time>
      </trkpt>
      <trkpt lat="46.76416" lon="0.41898">
        <ele>134.2</ele>
        <time>2020-10-11T07:14:20Z</time>
      </trkpt>
      <trkpt lat="46.76411" lon="0.41901">
        <ele>134.2</ele>
        <time>2020-10-11T07:14:23Z</time>
      </trkpt>
      <trkpt lat="46.7641" lon="0.41903">
        <ele>134.4</ele>
        <time>2020-10-11T07:14:24Z</time>
      </trkpt>
      <trkpt lat="46.76408" lon="0.41906">
        <ele>134.6</ele>
        <time>2020-10-11T07:14:26Z</time>
      </trkpt>
      <trkpt lat="46.76408" lon="0.41908">
        <ele>134.6</ele>
        <time>2020-10-11T07:14:27Z</time>
      </trkpt>
      <trkpt lat="46.7641" lon="0.41913">
        <ele>135.4</ele>
        <time>2020-10-11T07:14:30Z</time>
      </trkpt>
      <trkpt lat="46.76411" lon="0.41914">
        <ele>135.6</ele>
        <time>2020-10-11T07:14:31Z</time>
      </trkpt>
      <trkpt lat="46.76422" lon="0.41926">
        <ele>136.2</ele>
        <time>2020-10-11T07:14:37Z</time>
      </trkpt>
      <trkpt lat="46.76426" lon="0.41931">
        <ele>136.6</ele>
        <time>2020-10-11T07:14:39Z</time>
      </trkpt>
      <trkpt lat="46.76438" lon="0.41945">
        <ele>137</ele>
        <time>2020-10-11T07:14:44Z</time>
      </trkpt>
      <trkpt lat="46.76444" lon="0.41953">
        <ele>137.6</ele>
        <time>2020-10-11T07:14:48Z</time>
      </trkpt>
      <trkpt lat="46.76452" lon="0.41959">
        <ele>137.8</ele>
        <time>2020-10-11T07:14:51Z</time>
      </trkpt>
      <trkpt lat="46.76477" lon="0.41976">
        <ele>137.8</ele>
        <time>2020-10-11T07:14:58Z</time>
      </trkpt>
      <trkpt lat="46.76506" lon="0.41991">
        <ele>137.8</ele>
        <time>2020-10-11T07:15:05Z</time>
      </trkpt>
      <trkpt lat="46.76516" lon="0.41997">
        <ele>138</ele>
        <time>2020-10-11T07:15:08Z</time>
      </trkpt>
      <trkpt lat="46.76523" lon="0.42002">
        <ele>138.2</ele>
        <time>2020-10-11T07:15:10Z</time>
      </trkpt>
      <trkpt lat="46.76551" lon="0.42016">
        <ele>138.4</ele>
        <time>2020-10-11T07:15:17Z</time>
      </trkpt>
      <trkpt lat="46.76564" lon="0.42025">
        <ele>138.4</ele>
        <time>2020-10-11T07:15:20Z</time>
      </trkpt>
      <trkpt lat="46.76574" lon="0.42033">
        <ele>138.4</ele>
        <time>2020-10-11T07:15:22Z</time>
      </trkpt>
      <trkpt lat="46.76582" lon="0.42042">
        <ele>138.6</ele>
        <time>2020-10-11T07:15:24Z</time>
      </trkpt>
      <trkpt lat="46.76589" lon="0.42054">
        <ele>138.8</ele>
        <time>2020-10-11T07:15:26Z</time>
      </trkpt>
      <trkpt lat="46.76593" lon="0.42062">
        <ele>139</ele>
        <time>2020-10-11T07:15:27Z</time>
      </trkpt>
      <trkpt lat="46.76596" lon="0.4207">
        <ele>139.2</ele>
        <time>2020-10-11T07:15:28Z</time>
      </trkpt>
      <trkpt lat="46.76609" lon="0.42095">
        <ele>139.6</ele>
        <time>2020-10-11T07:15:32Z</time>
      </trkpt>
      <trkpt lat="46.7662" lon="0.4211">
        <ele>139.8</ele>
        <time>2020-10-11T07:15:35Z</time>
      </trkpt>
      <trkpt lat="46.76625" lon="0.42117">
        <ele>140.2</ele>
        <time>2020-10-11T07:15:37Z</time>
      </trkpt>
      <trkpt lat="46.7664" lon="0.42138">
        <ele>140.8</ele>
        <time>2020-10-11T07:15:43Z</time>
      </trkpt>
      <trkpt lat="46.76655" lon="0.42149">
        <ele>141</ele>
        <time>2020-10-11T07:15:48Z</time>
      </trkpt>
      <trkpt lat="46.76666" lon="0.42168">
        <ele>141</ele>
        <time>2020-10-11T07:15:53Z</time>
      </trkpt>
      <trkpt lat="46.76671" lon="0.42169">
        <ele>141</ele>
        <time>2020-10-11T07:15:55Z</time>
      </trkpt>
      <trkpt lat="46.76675" lon="0.42167">
        <ele>141</ele>
        <time>2020-10-11T07:15:57Z</time>
      </trkpt>
      <trkpt lat="46.76685" lon="0.42161">
        <ele>141</ele>
        <time>2020-10-11T07:16:00Z</time>
      </trkpt>
      <trkpt lat="46.76687" lon="0.42158">
        <ele>140.8</ele>
        <time>2020-10-11T07:16:01Z</time>
      </trkpt>
      <trkpt lat="46.7669" lon="0.42155">
        <ele>140.6</ele>
        <time>2020-10-11T07:16:02Z</time>
      </trkpt>
      <trkpt lat="46.76693" lon="0.4215">
        <ele>140.2</ele>
        <time>2020-10-11T07:16:04Z</time>
      </trkpt>
      <trkpt lat="46.76696" lon="0.42151">
        <ele>140</ele>
        <time>2020-10-11T07:16:05Z</time>
      </trkpt>
      <trkpt lat="46.76699" lon="0.42152">
        <ele>140</ele>
        <time>2020-10-11T07:16:06Z</time>
      </trkpt>
      <trkpt lat="46.76703" lon="0.42157">
        <ele>139.8</ele>
        <time>2020-10-11T07:16:08Z</time>
      </trkpt>
      <trkpt lat="46.7671" lon="0.42165">
        <ele>139.6</ele>
        <time>2020-10-11T07:16:11Z</time>
      </trkpt>
      <trkpt lat="46.76714" lon="0.42167">
        <ele>139.6</ele>
        <time>2020-10-11T07:16:13Z</time>
      </trkpt>
      <trkpt lat="46.76719" lon="0.42167">
        <ele>139.6</ele>
        <time>2020-10-11T07:16:15Z</time>
      </trkpt>
      <trkpt lat="46.76723" lon="0.4217">
        <ele>139.6</ele>
        <time>2020-10-11T07:16:17Z</time>
      </trkpt>
      <trkpt lat="46.7673" lon="0.4217">
        <ele>139.6</ele>
        <time>2020-10-11T07:16:19Z</time>
      </trkpt>
      <trkpt lat="46.76733" lon="0.42173">
        <ele>139.4</ele>
        <time>2020-10-11T07:16:20Z</time>
      </trkpt>
      <trkpt lat="46.76736" lon="0.42176">
        <ele>139.2</ele>
        <time>2020-10-11T07:16:21Z</time>
      </trkpt>
      <trkpt lat="46.76742" lon="0.42185">
        <ele>139.2</ele>
        <time>2020-10-11T07:16:23Z</time>
      </trkpt>
      <trkpt lat="46.76746" lon="0.42191">
        <ele>139.4</ele>
        <time>2020-10-11T07:16:24Z</time>
      </trkpt>
      <trkpt lat="46.7675" lon="0.42197">
        <ele>139.4</ele>
        <time>2020-10-11T07:16:25Z</time>
      </trkpt>
      <trkpt lat="46.76758" lon="0.42223">
        <ele>139.8</ele>
        <time>2020-10-11T07:16:29Z</time>
      </trkpt>
      <trkpt lat="46.76761" lon="0.4223">
        <ele>140</ele>
        <time>2020-10-11T07:16:31Z</time>
      </trkpt>
      <trkpt lat="46.76763" lon="0.42231">
        <ele>140</ele>
        <time>2020-10-11T07:16:32Z</time>
      </trkpt>
      <trkpt lat="46.76775" lon="0.42234">
        <ele>139.4</ele>
        <time>2020-10-11T07:16:37Z</time>
      </trkpt>
      <trkpt lat="46.76777" lon="0.42235">
        <ele>139.4</ele>
        <time>2020-10-11T07:16:38Z</time>
      </trkpt>
      <trkpt lat="46.76781" lon="0.42233">
        <ele>139</ele>
        <time>2020-10-11T07:16:40Z</time>
      </trkpt>
      <trkpt lat="46.76784" lon="0.42232">
        <ele>139</ele>
        <time>2020-10-11T07:16:41Z</time>
      </trkpt>
      <trkpt lat="46.76785" lon="0.4223">
        <ele>138.8</ele>
        <time>2020-10-11T07:16:42Z</time>
      </trkpt>
      <trkpt lat="46.76789" lon="0.42227">
        <ele>138.6</ele>
        <time>2020-10-11T07:16:44Z</time>
      </trkpt>
      <trkpt lat="46.7679" lon="0.42227">
        <ele>138.4</ele>
        <time>2020-10-11T07:16:45Z</time>
      </trkpt>
      <trkpt lat="46.76797" lon="0.42226">
        <ele>138</ele>
        <time>2020-10-11T07:16:49Z</time>
      </trkpt>
      <trkpt lat="46.768" lon="0.42224">
        <ele>137.8</ele>
        <time>2020-10-11T07:16:51Z</time>
      </trkpt>
      <trkpt lat="46.76802" lon="0.42224">
        <ele>137.8</ele>
        <time>2020-10-11T07:16:52Z</time>
      </trkpt>
      <trkpt lat="46.76806" lon="0.42225">
        <ele>137.4</ele>
        <time>2020-10-11T07:16:56Z</time>
      </trkpt>
      <trkpt lat="46.76807" lon="0.42226">
        <ele>137.4</ele>
        <time>2020-10-11T07:16:57Z</time>
      </trkpt>
      <trkpt lat="46.76809" lon="0.42227">
        <ele>137.4</ele>
        <time>2020-10-11T07:16:58Z</time>
      </trkpt>
      <trkpt lat="46.76816" lon="0.42233">
        <ele>137.4</ele>
        <time>2020-10-11T07:17:02Z</time>
      </trkpt>
      <trkpt lat="46.76818" lon="0.42236">
        <ele>137.4</ele>
        <time>2020-10-11T07:17:04Z</time>
      </trkpt>
      <trkpt lat="46.76823" lon="0.42238">
        <ele>137.2</ele>
        <time>2020-10-11T07:17:06Z</time>
      </trkpt>
      <trkpt lat="46.76826" lon="0.4224">
        <ele>137</ele>
        <time>2020-10-11T07:17:08Z</time>
      </trkpt>
      <trkpt lat="46.76828" lon="0.42244">
        <ele>136.8</ele>
        <time>2020-10-11T07:17:10Z</time>
      </trkpt>
      <trkpt lat="46.76829" lon="0.42248">
        <ele>136.6</ele>
        <time>2020-10-11T07:17:11Z</time>
      </trkpt>
      <trkpt lat="46.76829" lon="0.4226">
        <ele>136.4</ele>
        <time>2020-10-11T07:17:14Z</time>
      </trkpt>
      <trkpt lat="46.76827" lon="0.42284">
        <ele>136.8</ele>
        <time>2020-10-11T07:17:20Z</time>
      </trkpt>
      <trkpt lat="46.76822" lon="0.42306">
        <ele>137.8</ele>
        <time>2020-10-11T07:17:25Z</time>
      </trkpt>
      <trkpt lat="46.76816" lon="0.42328">
        <ele>138.8</ele>
        <time>2020-10-11T07:17:30Z</time>
      </trkpt>
      <trkpt lat="46.76814" lon="0.42332">
        <ele>138.8</ele>
        <time>2020-10-11T07:17:31Z</time>
      </trkpt>
      <trkpt lat="46.76805" lon="0.42344">
        <ele>139.4</ele>
        <time>2020-10-11T07:17:35Z</time>
      </trkpt>
      <trkpt lat="46.76796" lon="0.4235">
        <ele>140.2</ele>
        <time>2020-10-11T07:17:38Z</time>
      </trkpt>
      <trkpt lat="46.76791" lon="0.42354">
        <ele>140.8</ele>
        <time>2020-10-11T07:17:40Z</time>
      </trkpt>
      <trkpt lat="46.76784" lon="0.42359">
        <ele>141.2</ele>
        <time>2020-10-11T07:17:43Z</time>
      </trkpt>
      <trkpt lat="46.76782" lon="0.42358">
        <ele>141.2</ele>
        <time>2020-10-11T07:17:44Z</time>
      </trkpt>
      <trkpt lat="46.76778" lon="0.42357">
        <ele>141.6</ele>
        <time>2020-10-11T07:17:46Z</time>
      </trkpt>
      <trkpt lat="46.76778" lon="0.42355">
        <ele>141.6</ele>
        <time>2020-10-11T07:17:47Z</time>
      </trkpt>
      <trkpt lat="46.76775" lon="0.4235">
        <ele>141.6</ele>
        <time>2020-10-11T07:17:50Z</time>
      </trkpt>
      <trkpt lat="46.76774" lon="0.42349">
        <ele>141.6</ele>
        <time>2020-10-11T07:17:51Z</time>
      </trkpt>
      <trkpt lat="46.76764" lon="0.4235">
        <ele>141.6</ele>
        <time>2020-10-11T07:17:55Z</time>
      </trkpt>
      <trkpt lat="46.76753" lon="0.42341">
        <ele>141.8</ele>
        <time>2020-10-11T07:18:00Z</time>
      </trkpt>
      <trkpt lat="46.76751" lon="0.42338">
        <ele>141.8</ele>
        <time>2020-10-11T07:18:01Z</time>
      </trkpt>
      <trkpt lat="46.7675" lon="0.42335">
        <ele>141.8</ele>
        <time>2020-10-11T07:18:02Z</time>
      </trkpt>
      <trkpt lat="46.76746" lon="0.42324">
        <ele>141.6</ele>
        <time>2020-10-11T07:18:05Z</time>
      </trkpt>
      <trkpt lat="46.76742" lon="0.42313">
        <ele>141.6</ele>
        <time>2020-10-11T07:18:08Z</time>
      </trkpt>
      <trkpt lat="46.76741" lon="0.42307">
        <ele>141.6</ele>
        <time>2020-10-11T07:18:10Z</time>
      </trkpt>
      <trkpt lat="46.76741" lon="0.42303">
        <ele>141.6</ele>
        <time>2020-10-11T07:18:11Z</time>
      </trkpt>
      <trkpt lat="46.76741" lon="0.42294">
        <ele>141.6</ele>
        <time>2020-10-11T07:18:14Z</time>
      </trkpt>
      <trkpt lat="46.76742" lon="0.42288">
        <ele>141.6</ele>
        <time>2020-10-11T07:18:16Z</time>
      </trkpt>
      <trkpt lat="46.76741" lon="0.42279">
        <ele>141.4</ele>
        <time>2020-10-11T07:18:18Z</time>
      </trkpt>
      <trkpt lat="46.76737" lon="0.42266">
        <ele>141.4</ele>
        <time>2020-10-11T07:18:22Z</time>
      </trkpt>
      <trkpt lat="46.76729" lon="0.42262">
        <ele>141.4</ele>
        <time>2020-10-11T07:18:25Z</time>
      </trkpt>
      <trkpt lat="46.76726" lon="0.42257">
        <ele>141.6</ele>
        <time>2020-10-11T07:18:26Z</time>
      </trkpt>
      <trkpt lat="46.76722" lon="0.42252">
        <ele>141.6</ele>
        <time>2020-10-11T07:18:27Z</time>
      </trkpt>
      <trkpt lat="46.7671" lon="0.42251">
        <ele>141.8</ele>
        <time>2020-10-11T07:18:30Z</time>
      </trkpt>
      <trkpt lat="46.76703" lon="0.42253">
        <ele>141.8</ele>
        <time>2020-10-11T07:18:32Z</time>
      </trkpt>
      <trkpt lat="46.76698" lon="0.42258">
        <ele>142</ele>
        <time>2020-10-11T07:18:34Z</time>
      </trkpt>
      <trkpt lat="46.76694" lon="0.42258">
        <ele>142.2</ele>
        <time>2020-10-11T07:18:36Z</time>
      </trkpt>
      <trkpt lat="46.76692" lon="0.42255">
        <ele>142</ele>
        <time>2020-10-11T07:18:37Z</time>
      </trkpt>
      <trkpt lat="46.7669" lon="0.42246">
        <ele>142</ele>
        <time>2020-10-11T07:18:39Z</time>
      </trkpt>
      <trkpt lat="46.76685" lon="0.42236">
        <ele>142.2</ele>
        <time>2020-10-11T07:18:41Z</time>
      </trkpt>
      <trkpt lat="46.7668" lon="0.42233">
        <ele>141.8</ele>
        <time>2020-10-11T07:18:43Z</time>
      </trkpt>
      <trkpt lat="46.76675" lon="0.42232">
        <ele>141.8</ele>
        <time>2020-10-11T07:18:45Z</time>
      </trkpt>
      <trkpt lat="46.76672" lon="0.42233">
        <ele>141.6</ele>
        <time>2020-10-11T07:18:46Z</time>
      </trkpt>
      <trkpt lat="46.76668" lon="0.42238">
        <ele>141.4</ele>
        <time>2020-10-11T07:18:49Z</time>
      </trkpt>
      <trkpt lat="46.76665" lon="0.4224">
        <ele>141.4</ele>
        <time>2020-10-11T07:18:51Z</time>
      </trkpt>
      <trkpt lat="46.7666" lon="0.42242">
        <ele>141.6</ele>
        <time>2020-10-11T07:18:53Z</time>
      </trkpt>
      <trkpt lat="46.76658" lon="0.42243">
        <ele>141.8</ele>
        <time>2020-10-11T07:18:54Z</time>
      </trkpt>
      <trkpt lat="46.76646" lon="0.42249">
        <ele>141.8</ele>
        <time>2020-10-11T07:18:58Z</time>
      </trkpt>
      <trkpt lat="46.7664" lon="0.42253">
        <ele>142</ele>
        <time>2020-10-11T07:19:00Z</time>
      </trkpt>
      <trkpt lat="46.76634" lon="0.4226">
        <ele>142</ele>
        <time>2020-10-11T07:19:02Z</time>
      </trkpt>
      <trkpt lat="46.76628" lon="0.42266">
        <ele>142</ele>
        <time>2020-10-11T07:19:04Z</time>
      </trkpt>
      <trkpt lat="46.76623" lon="0.42272">
        <ele>142</ele>
        <time>2020-10-11T07:19:06Z</time>
      </trkpt>
      <trkpt lat="46.76621" lon="0.42275">
        <ele>142</ele>
        <time>2020-10-11T07:19:07Z</time>
      </trkpt>
      <trkpt lat="46.76619" lon="0.42284">
        <ele>142</ele>
        <time>2020-10-11T07:19:10Z</time>
      </trkpt>
      <trkpt lat="46.76619" lon="0.42289">
        <ele>142</ele>
        <time>2020-10-11T07:19:12Z</time>
      </trkpt>
      <trkpt lat="46.76616" lon="0.42298">
        <ele>142.4</ele>
        <time>2020-10-11T07:19:15Z</time>
      </trkpt>
      <trkpt lat="46.76615" lon="0.42303">
        <ele>142.4</ele>
        <time>2020-10-11T07:19:16Z</time>
      </trkpt>
      <trkpt lat="46.76612" lon="0.42306">
        <ele>142.4</ele>
        <time>2020-10-11T07:19:17Z</time>
      </trkpt>
      <trkpt lat="46.76605" lon="0.42313">
        <ele>142.6</ele>
        <time>2020-10-11T07:19:19Z</time>
      </trkpt>
      <trkpt lat="46.76602" lon="0.42317">
        <ele>142.4</ele>
        <time>2020-10-11T07:19:20Z</time>
      </trkpt>
      <trkpt lat="46.76597" lon="0.42325">
        <ele>142.4</ele>
        <time>2020-10-11T07:19:22Z</time>
      </trkpt>
      <trkpt lat="46.76594" lon="0.42328">
        <ele>142.4</ele>
        <time>2020-10-11T07:19:23Z</time>
      </trkpt>
      <trkpt lat="46.76583" lon="0.42342">
        <ele>142.2</ele>
        <time>2020-10-11T07:19:28Z</time>
      </trkpt>
      <trkpt lat="46.76578" lon="0.42348">
        <ele>142.2</ele>
        <time>2020-10-11T07:19:30Z</time>
      </trkpt>
      <trkpt lat="46.76575" lon="0.42346">
        <ele>142.2</ele>
        <time>2020-10-11T07:19:32Z</time>
      </trkpt>
      <trkpt lat="46.7657" lon="0.42343">
        <ele>142.2</ele>
        <time>2020-10-11T07:19:35Z</time>
      </trkpt>
      <trkpt lat="46.76564" lon="0.42343">
        <ele>142</ele>
        <time>2020-10-11T07:19:38Z</time>
      </trkpt>
      <trkpt lat="46.76563" lon="0.42342">
        <ele>141.8</ele>
        <time>2020-10-11T07:19:39Z</time>
      </trkpt>
      <trkpt lat="46.76563" lon="0.42334">
        <ele>142</ele>
        <time>2020-10-11T07:19:42Z</time>
      </trkpt>
      <trkpt lat="46.7656" lon="0.42318">
        <ele>142.2</ele>
        <time>2020-10-11T07:19:46Z</time>
      </trkpt>
      <trkpt lat="46.76558" lon="0.42315">
        <ele>142.2</ele>
        <time>2020-10-11T07:19:48Z</time>
      </trkpt>
      <trkpt lat="46.76554" lon="0.42313">
        <ele>142.2</ele>
        <time>2020-10-11T07:19:50Z</time>
      </trkpt>
      <trkpt lat="46.76552" lon="0.42313">
        <ele>142.2</ele>
        <time>2020-10-11T07:19:51Z</time>
      </trkpt>
      <trkpt lat="46.76548" lon="0.4231">
        <ele>142</ele>
        <time>2020-10-11T07:19:53Z</time>
      </trkpt>
      <trkpt lat="46.76546" lon="0.4231">
        <ele>142</ele>
        <time>2020-10-11T07:19:54Z</time>
      </trkpt>
      <trkpt lat="46.76528" lon="0.42309">
        <ele>142</ele>
        <time>2020-10-11T07:20:00Z</time>
      </trkpt>
      <trkpt lat="46.76524" lon="0.42305">
        <ele>142.4</ele>
        <time>2020-10-11T07:20:02Z</time>
      </trkpt>
      <trkpt lat="46.76522" lon="0.42298">
        <ele>142.4</ele>
        <time>2020-10-11T07:20:04Z</time>
      </trkpt>
      <trkpt lat="46.76517" lon="0.42272">
        <ele>142.4</ele>
        <time>2020-10-11T07:20:10Z</time>
      </trkpt>
      <trkpt lat="46.76513" lon="0.4226">
        <ele>142.2</ele>
        <time>2020-10-11T07:20:14Z</time>
      </trkpt>
      <trkpt lat="46.76512" lon="0.42259">
        <ele>142.2</ele>
        <time>2020-10-11T07:20:15Z</time>
      </trkpt>
      <trkpt lat="46.76503" lon="0.42241">
        <ele>142</ele>
        <time>2020-10-11T07:20:20Z</time>
      </trkpt>
      <trkpt lat="46.76493" lon="0.42217">
        <ele>142</ele>
        <time>2020-10-11T07:20:26Z</time>
      </trkpt>
      <trkpt lat="46.76488" lon="0.42203">
        <ele>142</ele>
        <time>2020-10-11T07:20:30Z</time>
      </trkpt>
      <trkpt lat="46.76483" lon="0.42203">
        <ele>142</ele>
        <time>2020-10-11T07:20:32Z</time>
      </trkpt>
      <trkpt lat="46.76477" lon="0.42206">
        <ele>142.2</ele>
        <time>2020-10-11T07:20:34Z</time>
      </trkpt>
      <trkpt lat="46.76472" lon="0.4221">
        <ele>142.2</ele>
        <time>2020-10-11T07:20:36Z</time>
      </trkpt>
      <trkpt lat="46.76467" lon="0.42213">
        <ele>142.4</ele>
        <time>2020-10-11T07:20:38Z</time>
      </trkpt>
      <trkpt lat="46.76465" lon="0.42217">
        <ele>142.4</ele>
        <time>2020-10-11T07:20:39Z</time>
      </trkpt>
      <trkpt lat="46.76463" lon="0.42221">
        <ele>142.6</ele>
        <time>2020-10-11T07:20:40Z</time>
      </trkpt>
      <trkpt lat="46.76453" lon="0.42232">
        <ele>142.6</ele>
        <time>2020-10-11T07:20:43Z</time>
      </trkpt>
      <trkpt lat="46.76446" lon="0.4224">
        <ele>142.6</ele>
        <time>2020-10-11T07:20:45Z</time>
      </trkpt>
      <trkpt lat="46.76433" lon="0.42249">
        <ele>142.6</ele>
        <time>2020-10-11T07:20:48Z</time>
      </trkpt>
      <trkpt lat="46.76421" lon="0.42257">
        <ele>142.4</ele>
        <time>2020-10-11T07:20:51Z</time>
      </trkpt>
      <trkpt lat="46.76417" lon="0.42264">
        <ele>142.2</ele>
        <time>2020-10-11T07:20:53Z</time>
      </trkpt>
      <trkpt lat="46.76412" lon="0.42273">
        <ele>142.2</ele>
        <time>2020-10-11T07:20:56Z</time>
      </trkpt>
      <trkpt lat="46.7641" lon="0.42278">
        <ele>142.2</ele>
        <time>2020-10-11T07:20:58Z</time>
      </trkpt>
      <trkpt lat="46.76409" lon="0.42291">
        <ele>142.2</ele>
        <time>2020-10-11T07:21:01Z</time>
      </trkpt>
      <trkpt lat="46.76408" lon="0.42297">
        <ele>142.4</ele>
        <time>2020-10-11T07:21:02Z</time>
      </trkpt>
      <trkpt lat="46.76407" lon="0.42302">
        <ele>142.4</ele>
        <time>2020-10-11T07:21:03Z</time>
      </trkpt>
      <trkpt lat="46.76407" lon="0.42314">
        <ele>142.6</ele>
        <time>2020-10-11T07:21:05Z</time>
      </trkpt>
      <trkpt lat="46.76407" lon="0.42328">
        <ele>142.6</ele>
        <time>2020-10-11T07:21:07Z</time>
      </trkpt>
      <trkpt lat="46.76408" lon="0.42342">
        <ele>142.6</ele>
        <time>2020-10-11T07:21:09Z</time>
      </trkpt>
      <trkpt lat="46.76409" lon="0.42364">
        <ele>142.6</ele>
        <time>2020-10-11T07:21:12Z</time>
      </trkpt>
      <trkpt lat="46.76412" lon="0.42385">
        <ele>142.4</ele>
        <time>2020-10-11T07:21:15Z</time>
      </trkpt>
      <trkpt lat="46.76413" lon="0.42399">
        <ele>142.4</ele>
        <time>2020-10-11T07:21:17Z</time>
      </trkpt>
      <trkpt lat="46.76413" lon="0.42406">
        <ele>142.4</ele>
        <time>2020-10-11T07:21:18Z</time>
      </trkpt>
      <trkpt lat="46.76413" lon="0.42435">
        <ele>142.2</ele>
        <time>2020-10-11T07:21:22Z</time>
      </trkpt>
      <trkpt lat="46.76415" lon="0.42452">
        <ele>142</ele>
        <time>2020-10-11T07:21:24Z</time>
      </trkpt>
      <trkpt lat="46.7642" lon="0.42506">
        <ele>141.8</ele>
        <time>2020-10-11T07:21:30Z</time>
      </trkpt>
      <trkpt lat="46.76426" lon="0.42581">
        <ele>141.8</ele>
        <time>2020-10-11T07:21:38Z</time>
      </trkpt>
      <trkpt lat="46.76428" lon="0.42596">
        <ele>141.8</ele>
        <time>2020-10-11T07:21:40Z</time>
      </trkpt>
      <trkpt lat="46.76431" lon="0.42618">
        <ele>141.8</ele>
        <time>2020-10-11T07:21:43Z</time>
      </trkpt>
      <trkpt lat="46.76444" lon="0.42672">
        <ele>141.8</ele>
        <time>2020-10-11T07:21:50Z</time>
      </trkpt>
      <trkpt lat="46.76464" lon="0.42718">
        <ele>142</ele>
        <time>2020-10-11T07:21:56Z</time>
      </trkpt>
      <trkpt lat="46.76476" lon="0.42742">
        <ele>142.2</ele>
        <time>2020-10-11T07:22:00Z</time>
      </trkpt>
      <trkpt lat="46.76477" lon="0.42747">
        <ele>142.2</ele>
        <time>2020-10-11T07:22:01Z</time>
      </trkpt>
      <trkpt lat="46.76476" lon="0.42752">
        <ele>142.2</ele>
        <time>2020-10-11T07:22:02Z</time>
      </trkpt>
      <trkpt lat="46.76472" lon="0.4276">
        <ele>142.2</ele>
        <time>2020-10-11T07:22:04Z</time>
      </trkpt>
      <trkpt lat="46.76465" lon="0.42772">
        <ele>141.8</ele>
        <time>2020-10-11T07:22:07Z</time>
      </trkpt>
      <trkpt lat="46.76462" lon="0.42777">
        <ele>141.8</ele>
        <time>2020-10-11T07:22:08Z</time>
      </trkpt>
      <trkpt lat="46.76456" lon="0.42788">
        <ele>141.8</ele>
        <time>2020-10-11T07:22:10Z</time>
      </trkpt>
      <trkpt lat="46.76447" lon="0.42798">
        <ele>141.8</ele>
        <time>2020-10-11T07:22:12Z</time>
      </trkpt>
      <trkpt lat="46.76444" lon="0.42803">
        <ele>141.8</ele>
        <time>2020-10-11T07:22:13Z</time>
      </trkpt>
      <trkpt lat="46.76437" lon="0.42814">
        <ele>141.6</ele>
        <time>2020-10-11T07:22:15Z</time>
      </trkpt>
      <trkpt lat="46.76431" lon="0.42819">
        <ele>141.6</ele>
        <time>2020-10-11T07:22:17Z</time>
      </trkpt>
      <trkpt lat="46.76413" lon="0.42821">
        <ele>141.6</ele>
        <time>2020-10-11T07:22:21Z</time>
      </trkpt>
      <trkpt lat="46.76409" lon="0.42823">
        <ele>141.6</ele>
        <time>2020-10-11T07:22:22Z</time>
      </trkpt>
      <trkpt lat="46.76399" lon="0.42826">
        <ele>141.2</ele>
        <time>2020-10-11T07:22:24Z</time>
      </trkpt>
      <trkpt lat="46.76387" lon="0.42826">
        <ele>140.8</ele>
        <time>2020-10-11T07:22:27Z</time>
      </trkpt>
      <trkpt lat="46.76382" lon="0.42826">
        <ele>140.4</ele>
        <time>2020-10-11T07:22:28Z</time>
      </trkpt>
      <trkpt lat="46.76378" lon="0.42827">
        <ele>140.2</ele>
        <time>2020-10-11T07:22:29Z</time>
      </trkpt>
      <trkpt lat="46.76376" lon="0.42829">
        <ele>139.8</ele>
        <time>2020-10-11T07:22:30Z</time>
      </trkpt>
      <trkpt lat="46.76373" lon="0.42833">
        <ele>139.6</ele>
        <time>2020-10-11T07:22:31Z</time>
      </trkpt>
      <trkpt lat="46.76367" lon="0.42837">
        <ele>139.2</ele>
        <time>2020-10-11T07:22:33Z</time>
      </trkpt>
      <trkpt lat="46.76361" lon="0.42841">
        <ele>138.8</ele>
        <time>2020-10-11T07:22:35Z</time>
      </trkpt>
      <trkpt lat="46.76347" lon="0.42848">
        <ele>138.4</ele>
        <time>2020-10-11T07:22:40Z</time>
      </trkpt>
      <trkpt lat="46.76346" lon="0.42846">
        <ele>138</ele>
        <time>2020-10-11T07:22:41Z</time>
      </trkpt>
      <trkpt lat="46.76341" lon="0.42841">
        <ele>137.2</ele>
        <time>2020-10-11T07:22:43Z</time>
      </trkpt>
      <trkpt lat="46.76336" lon="0.42837">
        <ele>136.8</ele>
        <time>2020-10-11T07:22:45Z</time>
      </trkpt>
      <trkpt lat="46.76331" lon="0.42831">
        <ele>136.4</ele>
        <time>2020-10-11T07:22:47Z</time>
      </trkpt>
      <trkpt lat="46.76322" lon="0.42827">
        <ele>136.2</ele>
        <time>2020-10-11T07:22:51Z</time>
      </trkpt>
      <trkpt lat="46.7631" lon="0.42832">
        <ele>136</ele>
        <time>2020-10-11T07:22:55Z</time>
      </trkpt>
      <trkpt lat="46.76306" lon="0.42835">
        <ele>135.8</ele>
        <time>2020-10-11T07:22:56Z</time>
      </trkpt>
      <trkpt lat="46.76297" lon="0.42842">
        <ele>135.2</ele>
        <time>2020-10-11T07:22:58Z</time>
      </trkpt>
      <trkpt lat="46.76293" lon="0.42846">
        <ele>135</ele>
        <time>2020-10-11T07:22:59Z</time>
      </trkpt>
      <trkpt lat="46.76284" lon="0.42856">
        <ele>134.6</ele>
        <time>2020-10-11T07:23:01Z</time>
      </trkpt>
      <trkpt lat="46.76276" lon="0.42876">
        <ele>134.4</ele>
        <time>2020-10-11T07:23:04Z</time>
      </trkpt>
      <trkpt lat="46.76266" lon="0.42899">
        <ele>134.2</ele>
        <time>2020-10-11T07:23:07Z</time>
      </trkpt>
      <trkpt lat="46.76258" lon="0.42915">
        <ele>133.4</ele>
        <time>2020-10-11T07:23:09Z</time>
      </trkpt>
      <trkpt lat="46.76244" lon="0.42935">
        <ele>132.4</ele>
        <time>2020-10-11T07:23:12Z</time>
      </trkpt>
      <trkpt lat="46.76234" lon="0.42948">
        <ele>131.4</ele>
        <time>2020-10-11T07:23:14Z</time>
      </trkpt>
      <trkpt lat="46.76229" lon="0.42954">
        <ele>131.2</ele>
        <time>2020-10-11T07:23:15Z</time>
      </trkpt>
      <trkpt lat="46.76214" lon="0.42972">
        <ele>130.2</ele>
        <time>2020-10-11T07:23:18Z</time>
      </trkpt>
      <trkpt lat="46.76214" lon="0.42972">
        <ele>128.8</ele>
        <time>2020-10-11T07:23:19Z</time>
      </trkpt>
      <trkpt lat="46.76202" lon="0.42987">
        <ele>128.4</ele>
        <time>2020-10-11T07:23:21Z</time>
      </trkpt>
      <trkpt lat="46.76196" lon="0.42998">
        <ele>127.4</ele>
        <time>2020-10-11T07:23:23Z</time>
      </trkpt>
      <trkpt lat="46.7619" lon="0.43008">
        <ele>125.8</ele>
        <time>2020-10-11T07:23:25Z</time>
      </trkpt>
      <trkpt lat="46.76183" lon="0.43017">
        <ele>124.6</ele>
        <time>2020-10-11T07:23:27Z</time>
      </trkpt>
      <trkpt lat="46.76173" lon="0.43031">
        <ele>124</ele>
        <time>2020-10-11T07:23:30Z</time>
      </trkpt>
      <trkpt lat="46.76168" lon="0.43038">
        <ele>123.2</ele>
        <time>2020-10-11T07:23:32Z</time>
      </trkpt>
      <trkpt lat="46.76157" lon="0.43052">
        <ele>122.2</ele>
        <time>2020-10-11T07:23:37Z</time>
      </trkpt>
      <trkpt lat="46.76155" lon="0.43055">
        <ele>122</ele>
        <time>2020-10-11T07:23:38Z</time>
      </trkpt>
      <trkpt lat="46.76146" lon="0.43071">
        <ele>122</ele>
        <time>2020-10-11T07:23:45Z</time>
      </trkpt>
      <trkpt lat="46.76143" lon="0.4308">
        <ele>121.6</ele>
        <time>2020-10-11T07:23:57Z</time>
      </trkpt>
      <trkpt lat="46.76143" lon="0.4308">
        <ele>121.6</ele>
        <time>2020-10-11T07:24:06Z</time>
      </trkpt>
      <trkpt lat="46.76143" lon="0.4308">
        <ele>121.8</ele>
        <time>2020-10-11T07:24:17Z</time>
      </trkpt>
      <trkpt lat="46.76144" lon="0.43081">
        <ele>121.6</ele>
        <time>2020-10-11T07:24:32Z</time>
      </trkpt>
      <trkpt lat="46.76145" lon="0.43081">
        <ele>121.8</ele>
        <time>2020-10-11T07:24:50Z</time>
      </trkpt>
      <trkpt lat="46.76145" lon="0.43081">
        <ele>121.8</ele>
        <time>2020-10-11T07:25:08Z</time>
      </trkpt>
      <trkpt lat="46.76145" lon="0.43082">
        <ele>121.8</ele>
        <time>2020-10-11T07:25:20Z</time>
      </trkpt>
      <trkpt lat="46.76145" lon="0.43082">
        <ele>121.8</ele>
        <time>2020-10-11T07:25:35Z</time>
      </trkpt>
      <trkpt lat="46.76145" lon="0.43083">
        <ele>121.8</ele>
        <time>2020-10-11T07:25:46Z</time>
      </trkpt>
      <trkpt lat="46.76145" lon="0.43084">
        <ele>121.8</ele>
        <time>2020-10-11T07:26:00Z</time>
      </trkpt>
      <trkpt lat="46.76144" lon="0.43084">
        <ele>121.8</ele>
        <time>2020-10-11T07:26:14Z</time>
      </trkpt>
      <trkpt lat="46.76144" lon="0.43084">
        <ele>121.8</ele>
        <time>2020-10-11T07:26:27Z</time>
      </trkpt>
      <trkpt lat="46.76143" lon="0.43084">
        <ele>121.8</ele>
        <time>2020-10-11T07:26:47Z</time>
      </trkpt>
      <trkpt lat="46.76144" lon="0.43084">
        <ele>121.8</ele>
        <time>2020-10-11T07:27:02Z</time>
      </trkpt>
      <trkpt lat="46.76143" lon="0.43084">
        <ele>121.8</ele>
        <time>2020-10-11T07:27:12Z</time>
      </trkpt>
      <trkpt lat="46.76141" lon="0.43087">
        <ele>121.8</ele>
        <time>2020-10-11T07:27:26Z</time>
      </trkpt>
      <trkpt lat="46.76141" lon="0.43088">
        <ele>121.8</ele>
        <time>2020-10-11T07:27:38Z</time>
      </trkpt>
      <trkpt lat="46.76142" lon="0.43087">
        <ele>121.8</ele>
        <time>2020-10-11T07:27:53Z</time>
      </trkpt>
      <trkpt lat="46.76141" lon="0.43087">
        <ele>121.8</ele>
        <time>2020-10-11T07:28:04Z</time>
      </trkpt>
      <trkpt lat="46.76141" lon="0.43089">
        <ele>121.8</ele>
        <time>2020-10-11T07:28:18Z</time>
      </trkpt>
      <trkpt lat="46.76141" lon="0.43089">
        <ele>121.8</ele>
        <time>2020-10-11T07:28:33Z</time>
      </trkpt>
      <trkpt lat="46.76141" lon="0.43089">
        <ele>121.8</ele>
        <time>2020-10-11T07:28:47Z</time>
      </trkpt>
      <trkpt lat="46.76142" lon="0.43089">
        <ele>121.8</ele>
        <time>2020-10-11T07:28:59Z</time>
      </trkpt>
      <trkpt lat="46.76142" lon="0.43089">
        <ele>121.8</ele>
        <time>2020-10-11T07:29:15Z</time>
      </trkpt>
      <trkpt lat="46.76141" lon="0.43089">
        <ele>121.8</ele>
        <time>2020-10-11T07:29:33Z</time>
      </trkpt>
      <trkpt lat="46.7614" lon="0.43088">
        <ele>121.8</ele>
        <time>2020-10-11T07:29:44Z</time>
      </trkpt>
      <trkpt lat="46.7614" lon="0.43088">
        <ele>121.8</ele>
        <time>2020-10-11T07:29:48Z</time>
      </trkpt>
      <trkpt lat="46.7614" lon="0.43088">
        <ele>121.8</ele>
        <time>2020-10-11T07:29:55Z</time>
      </trkpt>
      <trkpt lat="46.76137" lon="0.43085">
        <ele>121.8</ele>
        <time>2020-10-11T07:30:04Z</time>
      </trkpt>
      <trkpt lat="46.76131" lon="0.43077">
        <ele>121.8</ele>
        <time>2020-10-11T07:30:09Z</time>
      </trkpt>
      <trkpt lat="46.7613" lon="0.43074">
        <ele>121.8</ele>
        <time>2020-10-11T07:30:10Z</time>
      </trkpt>
      <trkpt lat="46.76127" lon="0.43048">
        <ele>121.6</ele>
        <time>2020-10-11T07:30:16Z</time>
      </trkpt>
      <trkpt lat="46.76127" lon="0.43023">
        <ele>121.8</ele>
        <time>2020-10-11T07:30:23Z</time>
      </trkpt>
      <trkpt lat="46.76127" lon="0.43002">
        <ele>122</ele>
        <time>2020-10-11T07:30:29Z</time>
      </trkpt>
      <trkpt lat="46.76123" lon="0.42976">
        <ele>122.4</ele>
        <time>2020-10-11T07:30:35Z</time>
      </trkpt>
      <trkpt lat="46.7612" lon="0.42959">
        <ele>122.6</ele>
        <time>2020-10-11T07:30:39Z</time>
      </trkpt>
      <trkpt lat="46.76114" lon="0.42948">
        <ele>122.8</ele>
        <time>2020-10-11T07:30:41Z</time>
      </trkpt>
      <trkpt lat="46.76112" lon="0.42942">
        <ele>122.8</ele>
        <time>2020-10-11T07:30:42Z</time>
      </trkpt>
      <trkpt lat="46.76103" lon="0.42919">
        <ele>122.8</ele>
        <time>2020-10-11T07:30:47Z</time>
      </trkpt>
      <trkpt lat="46.76086" lon="0.42893">
        <ele>123.2</ele>
        <time>2020-10-11T07:30:54Z</time>
      </trkpt>
      <trkpt lat="46.76083" lon="0.42889">
        <ele>123.4</ele>
        <time>2020-10-11T07:30:55Z</time>
      </trkpt>
      <trkpt lat="46.7607" lon="0.42873">
        <ele>123.6</ele>
        <time>2020-10-11T07:31:00Z</time>
      </trkpt>
      <trkpt lat="46.76068" lon="0.42865">
        <ele>123.6</ele>
        <time>2020-10-11T07:31:03Z</time>
      </trkpt>
      <trkpt lat="46.76071" lon="0.42863">
        <ele>123.6</ele>
        <time>2020-10-11T07:31:04Z</time>
      </trkpt>
      <trkpt lat="46.76085" lon="0.42864">
        <ele>124.2</ele>
        <time>2020-10-11T07:31:10Z</time>
      </trkpt>
      <trkpt lat="46.76089" lon="0.42864">
        <ele>124.4</ele>
        <time>2020-10-11T07:31:12Z</time>
      </trkpt>
      <trkpt lat="46.76092" lon="0.42862">
        <ele>124.8</ele>
        <time>2020-10-11T07:31:14Z</time>
      </trkpt>
      <trkpt lat="46.76092" lon="0.42862">
        <ele>125.8</ele>
        <time>2020-10-11T07:31:18Z</time>
      </trkpt>
      <trkpt lat="46.76096" lon="0.42856">
        <ele>126</ele>
        <time>2020-10-11T07:31:21Z</time>
      </trkpt>
      <trkpt lat="46.76103" lon="0.42851">
        <ele>126.8</ele>
        <time>2020-10-11T07:31:28Z</time>
      </trkpt>
      <trkpt lat="46.76109" lon="0.42841">
        <ele>128</ele>
        <time>2020-10-11T07:31:32Z</time>
      </trkpt>
      <trkpt lat="46.76111" lon="0.42839">
        <ele>128.4</ele>
        <time>2020-10-11T07:31:33Z</time>
      </trkpt>
      <trkpt lat="46.76117" lon="0.42838">
        <ele>129</ele>
        <time>2020-10-11T07:31:36Z</time>
      </trkpt>
      <trkpt lat="46.76119" lon="0.42838">
        <ele>129.4</ele>
        <time>2020-10-11T07:31:37Z</time>
      </trkpt>
      <trkpt lat="46.76126" lon="0.42837">
        <ele>130.2</ele>
        <time>2020-10-11T07:31:40Z</time>
      </trkpt>
      <trkpt lat="46.76131" lon="0.42833">
        <ele>130.6</ele>
        <time>2020-10-11T07:31:43Z</time>
      </trkpt>
      <trkpt lat="46.76135" lon="0.42821">
        <ele>131.2</ele>
        <time>2020-10-11T07:31:48Z</time>
      </trkpt>
      <trkpt lat="46.76139" lon="0.42811">
        <ele>131.4</ele>
        <time>2020-10-11T07:31:52Z</time>
      </trkpt>
      <trkpt lat="46.76141" lon="0.42807">
        <ele>131.6</ele>
        <time>2020-10-11T07:31:54Z</time>
      </trkpt>
      <trkpt lat="46.76149" lon="0.42795">
        <ele>132.2</ele>
        <time>2020-10-11T07:31:58Z</time>
      </trkpt>
      <trkpt lat="46.76153" lon="0.42788">
        <ele>132.6</ele>
        <time>2020-10-11T07:32:00Z</time>
      </trkpt>
      <trkpt lat="46.76159" lon="0.42773">
        <ele>133.6</ele>
        <time>2020-10-11T07:32:04Z</time>
      </trkpt>
      <trkpt lat="46.76161" lon="0.4277">
        <ele>133.6</ele>
        <time>2020-10-11T07:32:05Z</time>
      </trkpt>
      <trkpt lat="46.76172" lon="0.42744">
        <ele>134.2</ele>
        <time>2020-10-11T07:32:11Z</time>
      </trkpt>
      <trkpt lat="46.76179" lon="0.4273">
        <ele>134.8</ele>
        <time>2020-10-11T07:32:15Z</time>
      </trkpt>
      <trkpt lat="46.76182" lon="0.42727">
        <ele>135</ele>
        <time>2020-10-11T07:32:16Z</time>
      </trkpt>
      <trkpt lat="46.76195" lon="0.42719">
        <ele>135.6</ele>
        <time>2020-10-11T07:32:20Z</time>
      </trkpt>
      <trkpt lat="46.762" lon="0.42721">
        <ele>136</ele>
        <time>2020-10-11T07:32:22Z</time>
      </trkpt>
      <trkpt lat="46.76205" lon="0.42724">
        <ele>136.2</ele>
        <time>2020-10-11T07:32:24Z</time>
      </trkpt>
      <trkpt lat="46.7622" lon="0.42734">
        <ele>136.6</ele>
        <time>2020-10-11T07:32:30Z</time>
      </trkpt>
      <trkpt lat="46.76232" lon="0.42741">
        <ele>136.8</ele>
        <time>2020-10-11T07:32:34Z</time>
      </trkpt>
      <trkpt lat="46.76236" lon="0.42742">
        <ele>136.8</ele>
        <time>2020-10-11T07:32:35Z</time>
      </trkpt>
      <trkpt lat="46.76239" lon="0.42742">
        <ele>137</ele>
        <time>2020-10-11T07:32:36Z</time>
      </trkpt>
      <trkpt lat="46.76245" lon="0.42738">
        <ele>137.2</ele>
        <time>2020-10-11T07:32:38Z</time>
      </trkpt>
      <trkpt lat="46.76247" lon="0.42735">
        <ele>137.2</ele>
        <time>2020-10-11T07:32:39Z</time>
      </trkpt>
      <trkpt lat="46.76264" lon="0.42718">
        <ele>137.8</ele>
        <time>2020-10-11T07:32:44Z</time>
      </trkpt>
      <trkpt lat="46.76268" lon="0.42713">
        <ele>138</ele>
        <time>2020-10-11T07:32:45Z</time>
      </trkpt>
      <trkpt lat="46.76285" lon="0.42688">
        <ele>138.8</ele>
        <time>2020-10-11T07:32:51Z</time>
      </trkpt>
      <trkpt lat="46.76289" lon="0.42683">
        <ele>139</ele>
        <time>2020-10-11T07:32:52Z</time>
      </trkpt>
      <trkpt lat="46.76293" lon="0.42678">
        <ele>139.2</ele>
        <time>2020-10-11T07:32:53Z</time>
      </trkpt>
      <trkpt lat="46.76302" lon="0.42665">
        <ele>139.4</ele>
        <time>2020-10-11T07:32:56Z</time>
      </trkpt>
      <trkpt lat="46.76313" lon="0.42636">
        <ele>140</ele>
        <time>2020-10-11T07:33:02Z</time>
      </trkpt>
      <trkpt lat="46.76308" lon="0.42623">
        <ele>140.2</ele>
        <time>2020-10-11T07:33:05Z</time>
      </trkpt>
      <trkpt lat="46.76305" lon="0.42619">
        <ele>140.4</ele>
        <time>2020-10-11T07:33:06Z</time>
      </trkpt>
      <trkpt lat="46.76289" lon="0.42595">
        <ele>140.2</ele>
        <time>2020-10-11T07:33:12Z</time>
      </trkpt>
      <trkpt lat="46.76272" lon="0.42569">
        <ele>140.6</ele>
        <time>2020-10-11T07:33:18Z</time>
      </trkpt>
      <trkpt lat="46.76252" lon="0.4254">
        <ele>140.8</ele>
        <time>2020-10-11T07:33:24Z</time>
      </trkpt>
      <trkpt lat="46.7623" lon="0.42499">
        <ele>140.8</ele>
        <time>2020-10-11T07:33:31Z</time>
      </trkpt>
      <trkpt lat="46.76206" lon="0.42462">
        <ele>140.8</ele>
        <time>2020-10-11T07:33:37Z</time>
      </trkpt>
      <trkpt lat="46.76178" lon="0.42429">
        <ele>141.4</ele>
        <time>2020-10-11T07:33:43Z</time>
      </trkpt>
      <trkpt lat="46.76169" lon="0.42419">
        <ele>141.6</ele>
        <time>2020-10-11T07:33:45Z</time>
      </trkpt>
      <trkpt lat="46.76142" lon="0.42379">
        <ele>141</ele>
        <time>2020-10-11T07:33:52Z</time>
      </trkpt>
      <trkpt lat="46.76139" lon="0.42374">
        <ele>140.8</ele>
        <time>2020-10-11T07:33:53Z</time>
      </trkpt>
      <trkpt lat="46.76121" lon="0.42357">
        <ele>140.8</ele>
        <time>2020-10-11T07:33:57Z</time>
      </trkpt>
      <trkpt lat="46.7611" lon="0.42344">
        <ele>141.2</ele>
        <time>2020-10-11T07:34:00Z</time>
      </trkpt>
      <trkpt lat="46.76109" lon="0.42341">
        <ele>141</ele>
        <time>2020-10-11T07:34:01Z</time>
      </trkpt>
      <trkpt lat="46.76108" lon="0.42338">
        <ele>140.6</ele>
        <time>2020-10-11T07:34:02Z</time>
      </trkpt>
      <trkpt lat="46.76107" lon="0.42333">
        <ele>140.4</ele>
        <time>2020-10-11T07:34:04Z</time>
      </trkpt>
      <trkpt lat="46.76107" lon="0.42328">
        <ele>140.2</ele>
        <time>2020-10-11T07:34:06Z</time>
      </trkpt>
      <trkpt lat="46.76107" lon="0.42325">
        <ele>140.2</ele>
        <time>2020-10-11T07:34:07Z</time>
      </trkpt>
      <trkpt lat="46.76104" lon="0.42321">
        <ele>140.2</ele>
        <time>2020-10-11T07:34:09Z</time>
      </trkpt>
      <trkpt lat="46.76101" lon="0.42319">
        <ele>140.2</ele>
        <time>2020-10-11T07:34:11Z</time>
      </trkpt>
      <trkpt lat="46.76099" lon="0.42314">
        <ele>140.2</ele>
        <time>2020-10-11T07:34:13Z</time>
      </trkpt>
      <trkpt lat="46.76095" lon="0.42308">
        <ele>140.2</ele>
        <time>2020-10-11T07:34:16Z</time>
      </trkpt>
      <trkpt lat="46.76094" lon="0.42305">
        <ele>140</ele>
        <time>2020-10-11T07:34:17Z</time>
      </trkpt>
      <trkpt lat="46.76089" lon="0.42284">
        <ele>140</ele>
        <time>2020-10-11T07:34:22Z</time>
      </trkpt>
      <trkpt lat="46.76084" lon="0.42272">
        <ele>140</ele>
        <time>2020-10-11T07:34:24Z</time>
      </trkpt>
      <trkpt lat="46.76085" lon="0.42262">
        <ele>140.2</ele>
        <time>2020-10-11T07:34:26Z</time>
      </trkpt>
      <trkpt lat="46.76088" lon="0.42251">
        <ele>140.4</ele>
        <time>2020-10-11T07:34:29Z</time>
      </trkpt>
      <trkpt lat="46.76093" lon="0.42246">
        <ele>140.4</ele>
        <time>2020-10-11T07:34:31Z</time>
      </trkpt>
      <trkpt lat="46.76101" lon="0.4224">
        <ele>140.6</ele>
        <time>2020-10-11T07:34:34Z</time>
      </trkpt>
      <trkpt lat="46.76104" lon="0.42234">
        <ele>140.4</ele>
        <time>2020-10-11T07:34:36Z</time>
      </trkpt>
      <trkpt lat="46.76116" lon="0.42223">
        <ele>141</ele>
        <time>2020-10-11T07:34:41Z</time>
      </trkpt>
      <trkpt lat="46.76121" lon="0.42213">
        <ele>141.4</ele>
        <time>2020-10-11T07:34:44Z</time>
      </trkpt>
      <trkpt lat="46.76123" lon="0.4221">
        <ele>141.4</ele>
        <time>2020-10-11T07:34:45Z</time>
      </trkpt>
      <trkpt lat="46.76125" lon="0.42207">
        <ele>141.4</ele>
        <time>2020-10-11T07:34:46Z</time>
      </trkpt>
      <trkpt lat="46.7613" lon="0.42189">
        <ele>142</ele>
        <time>2020-10-11T07:34:50Z</time>
      </trkpt>
      <trkpt lat="46.76131" lon="0.42186">
        <ele>142</ele>
        <time>2020-10-11T07:34:51Z</time>
      </trkpt>
      <trkpt lat="46.76132" lon="0.42179">
        <ele>142</ele>
        <time>2020-10-11T07:34:53Z</time>
      </trkpt>
      <trkpt lat="46.76133" lon="0.42177">
        <ele>142</ele>
        <time>2020-10-11T07:34:54Z</time>
      </trkpt>
      <trkpt lat="46.76134" lon="0.42175">
        <ele>142</ele>
        <time>2020-10-11T07:34:55Z</time>
      </trkpt>
      <trkpt lat="46.76142" lon="0.42167">
        <ele>142</ele>
        <time>2020-10-11T07:34:58Z</time>
      </trkpt>
      <trkpt lat="46.76145" lon="0.42163">
        <ele>142</ele>
        <time>2020-10-11T07:34:59Z</time>
      </trkpt>
      <trkpt lat="46.76152" lon="0.42156">
        <ele>142.4</ele>
        <time>2020-10-11T07:35:01Z</time>
      </trkpt>
      <trkpt lat="46.76158" lon="0.42151">
        <ele>142.4</ele>
        <time>2020-10-11T07:35:03Z</time>
      </trkpt>
      <trkpt lat="46.76164" lon="0.42145">
        <ele>142.4</ele>
        <time>2020-10-11T07:35:05Z</time>
      </trkpt>
      <trkpt lat="46.76168" lon="0.42139">
        <ele>142.4</ele>
        <time>2020-10-11T07:35:07Z</time>
      </trkpt>
      <trkpt lat="46.7618" lon="0.42126">
        <ele>142.4</ele>
        <time>2020-10-11T07:35:12Z</time>
      </trkpt>
      <trkpt lat="46.76182" lon="0.42122">
        <ele>142.6</ele>
        <time>2020-10-11T07:35:13Z</time>
      </trkpt>
      <trkpt lat="46.76185" lon="0.42117">
        <ele>142.6</ele>
        <time>2020-10-11T07:35:14Z</time>
      </trkpt>
      <trkpt lat="46.7619" lon="0.42105">
        <ele>142.6</ele>
        <time>2020-10-11T07:35:17Z</time>
      </trkpt>
      <trkpt lat="46.7619" lon="0.42103">
        <ele>142.6</ele>
        <time>2020-10-11T07:35:18Z</time>
      </trkpt>
      <trkpt lat="46.76191" lon="0.42092">
        <ele>142.4</ele>
        <time>2020-10-11T07:35:21Z</time>
      </trkpt>
      <trkpt lat="46.76195" lon="0.42071">
        <ele>142.8</ele>
        <time>2020-10-11T07:35:25Z</time>
      </trkpt>
      <trkpt lat="46.76195" lon="0.42066">
        <ele>142.8</ele>
        <time>2020-10-11T07:35:26Z</time>
      </trkpt>
      <trkpt lat="46.76195" lon="0.42061">
        <ele>143</ele>
        <time>2020-10-11T07:35:27Z</time>
      </trkpt>
      <trkpt lat="46.76192" lon="0.42043">
        <ele>143</ele>
        <time>2020-10-11T07:35:31Z</time>
      </trkpt>
      <trkpt lat="46.76186" lon="0.4203">
        <ele>143</ele>
        <time>2020-10-11T07:35:35Z</time>
      </trkpt>
      <trkpt lat="46.76186" lon="0.42027">
        <ele>143</ele>
        <time>2020-10-11T07:35:36Z</time>
      </trkpt>
      <trkpt lat="46.76185" lon="0.42025">
        <ele>143</ele>
        <time>2020-10-11T07:35:37Z</time>
      </trkpt>
      <trkpt lat="46.76184" lon="0.42019">
        <ele>143</ele>
        <time>2020-10-11T07:35:39Z</time>
      </trkpt>
      <trkpt lat="46.76184" lon="0.42015">
        <ele>143</ele>
        <time>2020-10-11T07:35:40Z</time>
      </trkpt>
      <trkpt lat="46.76186" lon="0.41998">
        <ele>142.8</ele>
        <time>2020-10-11T07:35:44Z</time>
      </trkpt>
      <trkpt lat="46.76194" lon="0.41988">
        <ele>143</ele>
        <time>2020-10-11T07:35:48Z</time>
      </trkpt>
      <trkpt lat="46.76202" lon="0.4198">
        <ele>143</ele>
        <time>2020-10-11T07:35:51Z</time>
      </trkpt>
      <trkpt lat="46.76209" lon="0.41976">
        <ele>143</ele>
        <time>2020-10-11T07:35:53Z</time>
      </trkpt>
      <trkpt lat="46.76213" lon="0.41971">
        <ele>143</ele>
        <time>2020-10-11T07:35:55Z</time>
      </trkpt>
      <trkpt lat="46.76219" lon="0.41962">
        <ele>142.8</ele>
        <time>2020-10-11T07:35:57Z</time>
      </trkpt>
      <trkpt lat="46.76223" lon="0.41955">
        <ele>142.6</ele>
        <time>2020-10-11T07:35:59Z</time>
      </trkpt>
      <trkpt lat="46.76229" lon="0.4195">
        <ele>142.4</ele>
        <time>2020-10-11T07:36:01Z</time>
      </trkpt>
      <trkpt lat="46.76236" lon="0.41948">
        <ele>142.4</ele>
        <time>2020-10-11T07:36:03Z</time>
      </trkpt>
      <trkpt lat="46.76241" lon="0.41944">
        <ele>142.2</ele>
        <time>2020-10-11T07:36:05Z</time>
      </trkpt>
      <trkpt lat="46.76244" lon="0.41944">
        <ele>142.2</ele>
        <time>2020-10-11T07:36:06Z</time>
      </trkpt>
      <trkpt lat="46.7625" lon="0.41952">
        <ele>142.2</ele>
        <time>2020-10-11T07:36:10Z</time>
      </trkpt>
      <trkpt lat="46.7625" lon="0.41961">
        <ele>142.2</ele>
        <time>2020-10-11T07:36:13Z</time>
      </trkpt>
      <trkpt lat="46.7625" lon="0.41967">
        <ele>142.2</ele>
        <time>2020-10-11T07:36:15Z</time>
      </trkpt>
      <trkpt lat="46.76255" lon="0.41972">
        <ele>142.4</ele>
        <time>2020-10-11T07:36:17Z</time>
      </trkpt>
      <trkpt lat="46.76258" lon="0.41974">
        <ele>142.4</ele>
        <time>2020-10-11T07:36:18Z</time>
      </trkpt>
      <trkpt lat="46.76266" lon="0.41977">
        <ele>142.4</ele>
        <time>2020-10-11T07:36:20Z</time>
      </trkpt>
      <trkpt lat="46.7627" lon="0.41982">
        <ele>142.4</ele>
        <time>2020-10-11T07:36:22Z</time>
      </trkpt>
      <trkpt lat="46.76271" lon="0.4199">
        <ele>142.4</ele>
        <time>2020-10-11T07:36:24Z</time>
      </trkpt>
      <trkpt lat="46.76276" lon="0.41999">
        <ele>142.4</ele>
        <time>2020-10-11T07:36:26Z</time>
      </trkpt>
      <trkpt lat="46.76279" lon="0.42006">
        <ele>142.4</ele>
        <time>2020-10-11T07:36:27Z</time>
      </trkpt>
      <trkpt lat="46.76282" lon="0.42019">
        <ele>142.4</ele>
        <time>2020-10-11T07:36:29Z</time>
      </trkpt>
      <trkpt lat="46.76282" lon="0.42025">
        <ele>142.4</ele>
        <time>2020-10-11T07:36:30Z</time>
      </trkpt>
      <trkpt lat="46.7628" lon="0.42041">
        <ele>142.6</ele>
        <time>2020-10-11T07:36:33Z</time>
      </trkpt>
      <trkpt lat="46.7628" lon="0.4205">
        <ele>142.4</ele>
        <time>2020-10-11T07:36:35Z</time>
      </trkpt>
      <trkpt lat="46.76283" lon="0.42055">
        <ele>142.2</ele>
        <time>2020-10-11T07:36:37Z</time>
      </trkpt>
      <trkpt lat="46.76289" lon="0.42058">
        <ele>142.6</ele>
        <time>2020-10-11T07:36:41Z</time>
      </trkpt>
      <trkpt lat="46.76294" lon="0.42071">
        <ele>142.6</ele>
        <time>2020-10-11T07:36:45Z</time>
      </trkpt>
      <trkpt lat="46.76298" lon="0.42087">
        <ele>142.6</ele>
        <time>2020-10-11T07:36:50Z</time>
      </trkpt>
      <trkpt lat="46.76301" lon="0.42096">
        <ele>142.6</ele>
        <time>2020-10-11T07:36:53Z</time>
      </trkpt>
      <trkpt lat="46.76303" lon="0.421">
        <ele>142.6</ele>
        <time>2020-10-11T07:36:54Z</time>
      </trkpt>
      <trkpt lat="46.76309" lon="0.42125">
        <ele>142.6</ele>
        <time>2020-10-11T07:36:59Z</time>
      </trkpt>
      <trkpt lat="46.76311" lon="0.42131">
        <ele>142.6</ele>
        <time>2020-10-11T07:37:00Z</time>
      </trkpt>
      <trkpt lat="46.76321" lon="0.42159">
        <ele>142.6</ele>
        <time>2020-10-11T07:37:06Z</time>
      </trkpt>
      <trkpt lat="46.76325" lon="0.42164">
        <ele>142.4</ele>
        <time>2020-10-11T07:37:08Z</time>
      </trkpt>
      <trkpt lat="46.76326" lon="0.4217">
        <ele>142.2</ele>
        <time>2020-10-11T07:37:10Z</time>
      </trkpt>
      <trkpt lat="46.76336" lon="0.42194">
        <ele>142.2</ele>
        <time>2020-10-11T07:37:16Z</time>
      </trkpt>
      <trkpt lat="46.76341" lon="0.42198">
        <ele>142.4</ele>
        <time>2020-10-11T07:37:18Z</time>
      </trkpt>
      <trkpt lat="46.76348" lon="0.42208">
        <ele>142.4</ele>
        <time>2020-10-11T07:37:21Z</time>
      </trkpt>
      <trkpt lat="46.76352" lon="0.42214">
        <ele>142.4</ele>
        <time>2020-10-11T07:37:23Z</time>
      </trkpt>
      <trkpt lat="46.76358" lon="0.42218">
        <ele>142.4</ele>
        <time>2020-10-11T07:37:25Z</time>
      </trkpt>
      <trkpt lat="46.7636" lon="0.42219">
        <ele>142.4</ele>
        <time>2020-10-11T07:37:26Z</time>
      </trkpt>
      <trkpt lat="46.76366" lon="0.42227">
        <ele>142.4</ele>
        <time>2020-10-11T07:37:29Z</time>
      </trkpt>
      <trkpt lat="46.76374" lon="0.42246">
        <ele>142.4</ele>
        <time>2020-10-11T07:37:34Z</time>
      </trkpt>
      <trkpt lat="46.76378" lon="0.42249">
        <ele>142.4</ele>
        <time>2020-10-11T07:37:36Z</time>
      </trkpt>
      <trkpt lat="46.7638" lon="0.42249">
        <ele>142.4</ele>
        <time>2020-10-11T07:37:37Z</time>
      </trkpt>
      <trkpt lat="46.76383" lon="0.42241">
        <ele>142.6</ele>
        <time>2020-10-11T07:37:40Z</time>
      </trkpt>
      <trkpt lat="46.76382" lon="0.42226">
        <ele>142.4</ele>
        <time>2020-10-11T07:37:43Z</time>
      </trkpt>
      <trkpt lat="46.76381" lon="0.42216">
        <ele>142.4</ele>
        <time>2020-10-11T07:37:45Z</time>
      </trkpt>
      <trkpt lat="46.76377" lon="0.42192">
        <ele>142.8</ele>
        <time>2020-10-11T07:37:49Z</time>
      </trkpt>
      <trkpt lat="46.76374" lon="0.4218">
        <ele>143</ele>
        <time>2020-10-11T07:37:51Z</time>
      </trkpt>
      <trkpt lat="46.76363" lon="0.42136">
        <ele>143.6</ele>
        <time>2020-10-11T07:37:58Z</time>
      </trkpt>
      <trkpt lat="46.76353" lon="0.42101">
        <ele>143</ele>
        <time>2020-10-11T07:38:03Z</time>
      </trkpt>
      <trkpt lat="46.76343" lon="0.42054">
        <ele>142.8</ele>
        <time>2020-10-11T07:38:09Z</time>
      </trkpt>
      <trkpt lat="46.76331" lon="0.42">
        <ele>142.6</ele>
        <time>2020-10-11T07:38:15Z</time>
      </trkpt>
      <trkpt lat="46.76329" lon="0.4199">
        <ele>142.4</ele>
        <time>2020-10-11T07:38:16Z</time>
      </trkpt>
      <trkpt lat="46.76318" lon="0.41933">
        <ele>142.2</ele>
        <time>2020-10-11T07:38:22Z</time>
      </trkpt>
      <trkpt lat="46.76311" lon="0.41898">
        <ele>141.2</ele>
        <time>2020-10-11T07:38:26Z</time>
      </trkpt>
      <trkpt lat="46.7631" lon="0.41893">
        <ele>140.8</ele>
        <time>2020-10-11T07:38:27Z</time>
      </trkpt>
      <trkpt lat="46.76314" lon="0.4188">
        <ele>140.2</ele>
        <time>2020-10-11T07:38:30Z</time>
      </trkpt>
      <trkpt lat="46.76316" lon="0.41875">
        <ele>140</ele>
        <time>2020-10-11T07:38:32Z</time>
      </trkpt>
      <trkpt lat="46.76317" lon="0.41874">
        <ele>139.8</ele>
        <time>2020-10-11T07:38:33Z</time>
      </trkpt>
      <trkpt lat="46.76327" lon="0.41875">
        <ele>139.6</ele>
        <time>2020-10-11T07:38:36Z</time>
      </trkpt>
      <trkpt lat="46.76331" lon="0.41875">
        <ele>139.4</ele>
        <time>2020-10-11T07:38:37Z</time>
      </trkpt>
      <trkpt lat="46.76335" lon="0.41874">
        <ele>139.2</ele>
        <time>2020-10-11T07:38:38Z</time>
      </trkpt>
      <trkpt lat="46.76338" lon="0.41872">
        <ele>139</ele>
        <time>2020-10-11T07:38:39Z</time>
      </trkpt>
      <trkpt lat="46.76341" lon="0.41869">
        <ele>139</ele>
        <time>2020-10-11T07:38:40Z</time>
      </trkpt>
      <trkpt lat="46.76344" lon="0.41866">
        <ele>138.8</ele>
        <time>2020-10-11T07:38:41Z</time>
      </trkpt>
      <trkpt lat="46.76348" lon="0.4186">
        <ele>138.6</ele>
        <time>2020-10-11T07:38:43Z</time>
      </trkpt>
      <trkpt lat="46.7635" lon="0.41856">
        <ele>137.8</ele>
        <time>2020-10-11T07:38:45Z</time>
      </trkpt>
      <trkpt lat="46.76352" lon="0.41839">
        <ele>137</ele>
        <time>2020-10-11T07:38:50Z</time>
      </trkpt>
      <trkpt lat="46.76351" lon="0.41834">
        <ele>137</ele>
        <time>2020-10-11T07:38:51Z</time>
      </trkpt>
      <trkpt lat="46.76348" lon="0.41824">
        <ele>137</ele>
        <time>2020-10-11T07:38:53Z</time>
      </trkpt>
      <trkpt lat="46.76346" lon="0.4182">
        <ele>137</ele>
        <time>2020-10-11T07:38:54Z</time>
      </trkpt>
      <trkpt lat="46.76342" lon="0.41811">
        <ele>137.2</ele>
        <time>2020-10-11T07:38:56Z</time>
      </trkpt>
      <trkpt lat="46.76335" lon="0.41808">
        <ele>137.4</ele>
        <time>2020-10-11T07:38:58Z</time>
      </trkpt>
      <trkpt lat="46.76319" lon="0.41807">
        <ele>138.4</ele>
        <time>2020-10-11T07:39:02Z</time>
      </trkpt>
      <trkpt lat="46.76315" lon="0.41807">
        <ele>138.6</ele>
        <time>2020-10-11T07:39:03Z</time>
      </trkpt>
      <trkpt lat="46.76312" lon="0.41805">
        <ele>138.8</ele>
        <time>2020-10-11T07:39:04Z</time>
      </trkpt>
      <trkpt lat="46.76309" lon="0.41805">
        <ele>139</ele>
        <time>2020-10-11T07:39:05Z</time>
      </trkpt>
      <trkpt lat="46.76296" lon="0.418">
        <ele>139.8</ele>
        <time>2020-10-11T07:39:09Z</time>
      </trkpt>
      <trkpt lat="46.76293" lon="0.41795">
        <ele>139.8</ele>
        <time>2020-10-11T07:39:10Z</time>
      </trkpt>
      <trkpt lat="46.76288" lon="0.4178">
        <ele>140.2</ele>
        <time>2020-10-11T07:39:13Z</time>
      </trkpt>
      <trkpt lat="46.76287" lon="0.41774">
        <ele>140.2</ele>
        <time>2020-10-11T07:39:14Z</time>
      </trkpt>
      <trkpt lat="46.76283" lon="0.4175">
        <ele>141</ele>
        <time>2020-10-11T07:39:19Z</time>
      </trkpt>
      <trkpt lat="46.76282" lon="0.41738">
        <ele>141.4</ele>
        <time>2020-10-11T07:39:21Z</time>
      </trkpt>
      <trkpt lat="46.76279" lon="0.41703">
        <ele>142.2</ele>
        <time>2020-10-11T07:39:26Z</time>
      </trkpt>
      <trkpt lat="46.76276" lon="0.41651">
        <ele>142.4</ele>
        <time>2020-10-11T07:39:33Z</time>
      </trkpt>
      <trkpt lat="46.76277" lon="0.41636">
        <ele>142.8</ele>
        <time>2020-10-11T07:39:35Z</time>
      </trkpt>
      <trkpt lat="46.76279" lon="0.41613">
        <ele>143</ele>
        <time>2020-10-11T07:39:38Z</time>
      </trkpt>
      <trkpt lat="46.7628" lon="0.41569">
        <ele>142.6</ele>
        <time>2020-10-11T07:39:44Z</time>
      </trkpt>
      <trkpt lat="46.76284" lon="0.4152">
        <ele>142.8</ele>
        <time>2020-10-11T07:39:50Z</time>
      </trkpt>
      <trkpt lat="46.76278" lon="0.41477">
        <ele>143</ele>
        <time>2020-10-11T07:39:55Z</time>
      </trkpt>
      <trkpt lat="46.76276" lon="0.41469">
        <ele>143</ele>
        <time>2020-10-11T07:39:56Z</time>
      </trkpt>
      <trkpt lat="46.76274" lon="0.41461">
        <ele>143.2</ele>
        <time>2020-10-11T07:39:57Z</time>
      </trkpt>
      <trkpt lat="46.76269" lon="0.41447">
        <ele>143.4</ele>
        <time>2020-10-11T07:39:59Z</time>
      </trkpt>
      <trkpt lat="46.76263" lon="0.41433">
        <ele>143.4</ele>
        <time>2020-10-11T07:40:01Z</time>
      </trkpt>
      <trkpt lat="46.76244" lon="0.41389">
        <ele>143</ele>
        <time>2020-10-11T07:40:07Z</time>
      </trkpt>
      <trkpt lat="46.76217" lon="0.41342">
        <ele>143</ele>
        <time>2020-10-11T07:40:14Z</time>
      </trkpt>
      <trkpt lat="46.76189" lon="0.41294">
        <ele>142.8</ele>
        <time>2020-10-11T07:40:21Z</time>
      </trkpt>
      <trkpt lat="46.7616" lon="0.41251">
        <ele>143</ele>
        <time>2020-10-11T07:40:28Z</time>
      </trkpt>
      <trkpt lat="46.76134" lon="0.4122">
        <ele>142</ele>
        <time>2020-10-11T07:40:34Z</time>
      </trkpt>
      <trkpt lat="46.7613" lon="0.41215">
        <ele>141.8</ele>
        <time>2020-10-11T07:40:35Z</time>
      </trkpt>
      <trkpt lat="46.76125" lon="0.41211">
        <ele>141.8</ele>
        <time>2020-10-11T07:40:36Z</time>
      </trkpt>
      <trkpt lat="46.76101" lon="0.41195">
        <ele>141.4</ele>
        <time>2020-10-11T07:40:41Z</time>
      </trkpt>
      <trkpt lat="46.76067" lon="0.41171">
        <ele>141.8</ele>
        <time>2020-10-11T07:40:49Z</time>
      </trkpt>
      <trkpt lat="46.7606" lon="0.41149">
        <ele>141.4</ele>
        <time>2020-10-11T07:40:53Z</time>
      </trkpt>
      <trkpt lat="46.7605" lon="0.4111">
        <ele>141.2</ele>
        <time>2020-10-11T07:40:59Z</time>
      </trkpt>
      <trkpt lat="46.76043" lon="0.41082">
        <ele>141</ele>
        <time>2020-10-11T07:41:03Z</time>
      </trkpt>
      <trkpt lat="46.7604" lon="0.41063">
        <ele>139.6</ele>
        <time>2020-10-11T07:41:06Z</time>
      </trkpt>
      <trkpt lat="46.76039" lon="0.41057">
        <ele>139.4</ele>
        <time>2020-10-11T07:41:07Z</time>
      </trkpt>
      <trkpt lat="46.76037" lon="0.41044">
        <ele>139.2</ele>
        <time>2020-10-11T07:41:09Z</time>
      </trkpt>
      <trkpt lat="46.76032" lon="0.41024">
        <ele>139</ele>
        <time>2020-10-11T07:41:12Z</time>
      </trkpt>
      <trkpt lat="46.76025" lon="0.41003">
        <ele>138.8</ele>
        <time>2020-10-11T07:41:15Z</time>
      </trkpt>
      <trkpt lat="46.76017" lon="0.40982">
        <ele>138.4</ele>
        <time>2020-10-11T07:41:18Z</time>
      </trkpt>
      <trkpt lat="46.76011" lon="0.40953">
        <ele>137.8</ele>
        <time>2020-10-11T07:41:23Z</time>
      </trkpt>
      <trkpt lat="46.76004" lon="0.4092">
        <ele>138.2</ele>
        <time>2020-10-11T07:41:29Z</time>
      </trkpt>
      <trkpt lat="46.76001" lon="0.40916">
        <ele>138.4</ele>
        <time>2020-10-11T07:41:30Z</time>
      </trkpt>
      <trkpt lat="46.75996" lon="0.40904">
        <ele>139.2</ele>
        <time>2020-10-11T07:41:33Z</time>
      </trkpt>
      <trkpt lat="46.75995" lon="0.40896">
        <ele>139.6</ele>
        <time>2020-10-11T07:41:35Z</time>
      </trkpt>
      <trkpt lat="46.75991" lon="0.40887">
        <ele>140</ele>
        <time>2020-10-11T07:41:38Z</time>
      </trkpt>
      <trkpt lat="46.75985" lon="0.40877">
        <ele>140.6</ele>
        <time>2020-10-11T07:41:41Z</time>
      </trkpt>
      <trkpt lat="46.75983" lon="0.40874">
        <ele>140.6</ele>
        <time>2020-10-11T07:41:42Z</time>
      </trkpt>
      <trkpt lat="46.75978" lon="0.40869">
        <ele>141</ele>
        <time>2020-10-11T07:41:44Z</time>
      </trkpt>
      <trkpt lat="46.75977" lon="0.4087">
        <ele>141.2</ele>
        <time>2020-10-11T07:41:45Z</time>
      </trkpt>
      <trkpt lat="46.75976" lon="0.4087">
        <ele>141.4</ele>
        <time>2020-10-11T07:41:47Z</time>
      </trkpt>
      <trkpt lat="46.75975" lon="0.40873">
        <ele>141.4</ele>
        <time>2020-10-11T07:41:49Z</time>
      </trkpt>
      <trkpt lat="46.75974" lon="0.4088">
        <ele>141.2</ele>
        <time>2020-10-11T07:41:52Z</time>
      </trkpt>
      <trkpt lat="46.75972" lon="0.40885">
        <ele>141.2</ele>
        <time>2020-10-11T07:41:54Z</time>
      </trkpt>
      <trkpt lat="46.75966" lon="0.4089">
        <ele>141</ele>
        <time>2020-10-11T07:41:56Z</time>
      </trkpt>
      <trkpt lat="46.75958" lon="0.40893">
        <ele>141</ele>
        <time>2020-10-11T07:41:58Z</time>
      </trkpt>
      <trkpt lat="46.75955" lon="0.40893">
        <ele>141.2</ele>
        <time>2020-10-11T07:41:59Z</time>
      </trkpt>
      <trkpt lat="46.75945" lon="0.40897">
        <ele>141.8</ele>
        <time>2020-10-11T07:42:02Z</time>
      </trkpt>
      <trkpt lat="46.75942" lon="0.40899">
        <ele>142</ele>
        <time>2020-10-11T07:42:03Z</time>
      </trkpt>
      <trkpt lat="46.75931" lon="0.40903">
        <ele>143</ele>
        <time>2020-10-11T07:42:07Z</time>
      </trkpt>
      <trkpt lat="46.75928" lon="0.40904">
        <ele>143.2</ele>
        <time>2020-10-11T07:42:08Z</time>
      </trkpt>
      <trkpt lat="46.75914" lon="0.40912">
        <ele>143.8</ele>
        <time>2020-10-11T07:42:13Z</time>
      </trkpt>
      <trkpt lat="46.75911" lon="0.40916">
        <ele>144</ele>
        <time>2020-10-11T07:42:14Z</time>
      </trkpt>
      <trkpt lat="46.75904" lon="0.40922">
        <ele>144.2</ele>
        <time>2020-10-11T07:42:17Z</time>
      </trkpt>
      <trkpt lat="46.75899" lon="0.40927">
        <ele>144.4</ele>
        <time>2020-10-11T07:42:19Z</time>
      </trkpt>
      <trkpt lat="46.75893" lon="0.40932">
        <ele>144.6</ele>
        <time>2020-10-11T07:42:21Z</time>
      </trkpt>
      <trkpt lat="46.7589" lon="0.40933">
        <ele>144.6</ele>
        <time>2020-10-11T07:42:22Z</time>
      </trkpt>
      <trkpt lat="46.75887" lon="0.40936">
        <ele>144.8</ele>
        <time>2020-10-11T07:42:23Z</time>
      </trkpt>
      <trkpt lat="46.75881" lon="0.4094">
        <ele>145.2</ele>
        <time>2020-10-11T07:42:25Z</time>
      </trkpt>
      <trkpt lat="46.75877" lon="0.40942">
        <ele>145.4</ele>
        <time>2020-10-11T07:42:26Z</time>
      </trkpt>
      <trkpt lat="46.75874" lon="0.4094">
        <ele>145.6</ele>
        <time>2020-10-11T07:42:27Z</time>
      </trkpt>
      <trkpt lat="46.75858" lon="0.40918">
        <ele>146</ele>
        <time>2020-10-11T07:42:33Z</time>
      </trkpt>
      <trkpt lat="46.75852" lon="0.40909">
        <ele>146.2</ele>
        <time>2020-10-11T07:42:35Z</time>
      </trkpt>
      <trkpt lat="46.75841" lon="0.40895">
        <ele>146.4</ele>
        <time>2020-10-11T07:42:38Z</time>
      </trkpt>
      <trkpt lat="46.75835" lon="0.40888">
        <ele>146.6</ele>
        <time>2020-10-11T07:42:40Z</time>
      </trkpt>
      <trkpt lat="46.75829" lon="0.40877">
        <ele>146.4</ele>
        <time>2020-10-11T07:42:43Z</time>
      </trkpt>
      <trkpt lat="46.75818" lon="0.4085">
        <ele>146.4</ele>
        <time>2020-10-11T07:42:49Z</time>
      </trkpt>
      <trkpt lat="46.75807" lon="0.40817">
        <ele>147.2</ele>
        <time>2020-10-11T07:42:55Z</time>
      </trkpt>
      <trkpt lat="46.75794" lon="0.40778">
        <ele>147.2</ele>
        <time>2020-10-11T07:43:01Z</time>
      </trkpt>
      <trkpt lat="46.75792" lon="0.40771">
        <ele>147.2</ele>
        <time>2020-10-11T07:43:02Z</time>
      </trkpt>
      <trkpt lat="46.7579" lon="0.40764">
        <ele>147.4</ele>
        <time>2020-10-11T07:43:03Z</time>
      </trkpt>
      <trkpt lat="46.75774" lon="0.40724">
        <ele>147.6</ele>
        <time>2020-10-11T07:43:09Z</time>
      </trkpt>
      <trkpt lat="46.75755" lon="0.40669">
        <ele>148</ele>
        <time>2020-10-11T07:43:17Z</time>
      </trkpt>
      <trkpt lat="46.75744" lon="0.40608">
        <ele>148.2</ele>
        <time>2020-10-11T07:43:24Z</time>
      </trkpt>
      <trkpt lat="46.75736" lon="0.40526">
        <ele>148.4</ele>
        <time>2020-10-11T07:43:33Z</time>
      </trkpt>
      <trkpt lat="46.75735" lon="0.40516">
        <ele>148.4</ele>
        <time>2020-10-11T07:43:34Z</time>
      </trkpt>
      <trkpt lat="46.75734" lon="0.40506">
        <ele>148.6</ele>
        <time>2020-10-11T07:43:35Z</time>
      </trkpt>
      <trkpt lat="46.75729" lon="0.40469">
        <ele>149</ele>
        <time>2020-10-11T07:43:39Z</time>
      </trkpt>
      <trkpt lat="46.75728" lon="0.40451">
        <ele>149.2</ele>
        <time>2020-10-11T07:43:41Z</time>
      </trkpt>
      <trkpt lat="46.75722" lon="0.40381">
        <ele>149</ele>
        <time>2020-10-11T07:43:49Z</time>
      </trkpt>
      <trkpt lat="46.7571" lon="0.40326">
        <ele>148.6</ele>
        <time>2020-10-11T07:43:56Z</time>
      </trkpt>
      <trkpt lat="46.75704" lon="0.40301">
        <ele>148.2</ele>
        <time>2020-10-11T07:44:00Z</time>
      </trkpt>
      <trkpt lat="46.75701" lon="0.40297">
        <ele>148.2</ele>
        <time>2020-10-11T07:44:01Z</time>
      </trkpt>
      <trkpt lat="46.75697" lon="0.40296">
        <ele>148</ele>
        <time>2020-10-11T07:44:02Z</time>
      </trkpt>
      <trkpt lat="46.7569" lon="0.40298">
        <ele>147.6</ele>
        <time>2020-10-11T07:44:04Z</time>
      </trkpt>
      <trkpt lat="46.75686" lon="0.40301">
        <ele>147.4</ele>
        <time>2020-10-11T07:44:05Z</time>
      </trkpt>
      <trkpt lat="46.75677" lon="0.40309">
        <ele>147.8</ele>
        <time>2020-10-11T07:44:09Z</time>
      </trkpt>
      <trkpt lat="46.75662" lon="0.40317">
        <ele>148.2</ele>
        <time>2020-10-11T07:44:14Z</time>
      </trkpt>
      <trkpt lat="46.75648" lon="0.40324">
        <ele>148.4</ele>
        <time>2020-10-11T07:44:17Z</time>
      </trkpt>
      <trkpt lat="46.7563" lon="0.40334">
        <ele>148.6</ele>
        <time>2020-10-11T07:44:21Z</time>
      </trkpt>
      <trkpt lat="46.75597" lon="0.40353">
        <ele>148.6</ele>
        <time>2020-10-11T07:44:28Z</time>
      </trkpt>
      <trkpt lat="46.75554" lon="0.40377">
        <ele>148.8</ele>
        <time>2020-10-11T07:44:38Z</time>
      </trkpt>
      <trkpt lat="46.75511" lon="0.40397">
        <ele>149</ele>
        <time>2020-10-11T07:44:47Z</time>
      </trkpt>
      <trkpt lat="46.75478" lon="0.40412">
        <ele>148.6</ele>
        <time>2020-10-11T07:44:54Z</time>
      </trkpt>
      <trkpt lat="46.75449" lon="0.40425">
        <ele>148.8</ele>
        <time>2020-10-11T07:45:01Z</time>
      </trkpt>
      <trkpt lat="46.75447" lon="0.40425">
        <ele>148.8</ele>
        <time>2020-10-11T07:45:02Z</time>
      </trkpt>
      <trkpt lat="46.75444" lon="0.40421">
        <ele>148.8</ele>
        <time>2020-10-11T07:45:04Z</time>
      </trkpt>
      <trkpt lat="46.75444" lon="0.40405">
        <ele>149.2</ele>
        <time>2020-10-11T07:45:08Z</time>
      </trkpt>
      <trkpt lat="46.75444" lon="0.40395">
        <ele>149.2</ele>
        <time>2020-10-11T07:45:10Z</time>
      </trkpt>
      <trkpt lat="46.75442" lon="0.40378">
        <ele>149.2</ele>
        <time>2020-10-11T07:45:13Z</time>
      </trkpt>
      <trkpt lat="46.75441" lon="0.40373">
        <ele>149.2</ele>
        <time>2020-10-11T07:45:14Z</time>
      </trkpt>
      <trkpt lat="46.75442" lon="0.40355">
        <ele>149.2</ele>
        <time>2020-10-11T07:45:17Z</time>
      </trkpt>
      <trkpt lat="46.75442" lon="0.40345">
        <ele>149.2</ele>
        <time>2020-10-11T07:45:19Z</time>
      </trkpt>
      <trkpt lat="46.75442" lon="0.40332">
        <ele>148.8</ele>
        <time>2020-10-11T07:45:22Z</time>
      </trkpt>
      <trkpt lat="46.75441" lon="0.40321">
        <ele>148.8</ele>
        <time>2020-10-11T07:45:24Z</time>
      </trkpt>
      <trkpt lat="46.75441" lon="0.40301">
        <ele>148.8</ele>
        <time>2020-10-11T07:45:27Z</time>
      </trkpt>
      <trkpt lat="46.75442" lon="0.40278">
        <ele>149</ele>
        <time>2020-10-11T07:45:30Z</time>
      </trkpt>
      <trkpt lat="46.75441" lon="0.40262">
        <ele>148.8</ele>
        <time>2020-10-11T07:45:32Z</time>
      </trkpt>
      <trkpt lat="46.7544" lon="0.40248">
        <ele>148.6</ele>
        <time>2020-10-11T07:45:34Z</time>
      </trkpt>
      <trkpt lat="46.75439" lon="0.40234">
        <ele>148.2</ele>
        <time>2020-10-11T07:45:36Z</time>
      </trkpt>
      <trkpt lat="46.75433" lon="0.40184">
        <ele>148.2</ele>
        <time>2020-10-11T07:45:43Z</time>
      </trkpt>
      <trkpt lat="46.75431" lon="0.40168">
        <ele>148.2</ele>
        <time>2020-10-11T07:45:45Z</time>
      </trkpt>
      <trkpt lat="46.75428" lon="0.40136">
        <ele>147.8</ele>
        <time>2020-10-11T07:45:49Z</time>
      </trkpt>
      <trkpt lat="46.75426" lon="0.40121">
        <ele>147.4</ele>
        <time>2020-10-11T07:45:51Z</time>
      </trkpt>
      <trkpt lat="46.75422" lon="0.40098">
        <ele>147.2</ele>
        <time>2020-10-11T07:45:54Z</time>
      </trkpt>
      <trkpt lat="46.75419" lon="0.40089">
        <ele>147.2</ele>
        <time>2020-10-11T07:45:55Z</time>
      </trkpt>
      <trkpt lat="46.75416" lon="0.40079">
        <ele>147</ele>
        <time>2020-10-11T07:45:56Z</time>
      </trkpt>
      <trkpt lat="46.7541" lon="0.40058">
        <ele>147</ele>
        <time>2020-10-11T07:45:58Z</time>
      </trkpt>
      <trkpt lat="46.75409" lon="0.40046">
        <ele>147</ele>
        <time>2020-10-11T07:45:59Z</time>
      </trkpt>
      <trkpt lat="46.75404" lon="0.40019">
        <ele>146.6</ele>
        <time>2020-10-11T07:46:02Z</time>
      </trkpt>
      <trkpt lat="46.75403" lon="0.40011">
        <ele>146.4</ele>
        <time>2020-10-11T07:46:03Z</time>
      </trkpt>
      <trkpt lat="46.75401" lon="0.40004">
        <ele>146.4</ele>
        <time>2020-10-11T07:46:04Z</time>
      </trkpt>
      <trkpt lat="46.75395" lon="0.39971">
        <ele>146</ele>
        <time>2020-10-11T07:46:09Z</time>
      </trkpt>
      <trkpt lat="46.75388" lon="0.39923">
        <ele>145.8</ele>
        <time>2020-10-11T07:46:15Z</time>
      </trkpt>
      <trkpt lat="46.75379" lon="0.39879">
        <ele>145.4</ele>
        <time>2020-10-11T07:46:20Z</time>
      </trkpt>
      <trkpt lat="46.75378" lon="0.39872">
        <ele>145.2</ele>
        <time>2020-10-11T07:46:21Z</time>
      </trkpt>
      <trkpt lat="46.75375" lon="0.39854">
        <ele>145.2</ele>
        <time>2020-10-11T07:46:23Z</time>
      </trkpt>
      <trkpt lat="46.75373" lon="0.39833">
        <ele>145</ele>
        <time>2020-10-11T07:46:26Z</time>
      </trkpt>
      <trkpt lat="46.75367" lon="0.3979">
        <ele>144.2</ele>
        <time>2020-10-11T07:46:32Z</time>
      </trkpt>
      <trkpt lat="46.75365" lon="0.39775">
        <ele>144.2</ele>
        <time>2020-10-11T07:46:34Z</time>
      </trkpt>
      <trkpt lat="46.75362" lon="0.39761">
        <ele>144</ele>
        <time>2020-10-11T07:46:36Z</time>
      </trkpt>
      <trkpt lat="46.75361" lon="0.39755">
        <ele>144</ele>
        <time>2020-10-11T07:46:37Z</time>
      </trkpt>
      <trkpt lat="46.75359" lon="0.39741">
        <ele>144</ele>
        <time>2020-10-11T07:46:39Z</time>
      </trkpt>
      <trkpt lat="46.75355" lon="0.39713">
        <ele>144.2</ele>
        <time>2020-10-11T07:46:43Z</time>
      </trkpt>
      <trkpt lat="46.75351" lon="0.39682">
        <ele>143.2</ele>
        <time>2020-10-11T07:46:47Z</time>
      </trkpt>
      <trkpt lat="46.7535" lon="0.39668">
        <ele>142.8</ele>
        <time>2020-10-11T07:46:49Z</time>
      </trkpt>
      <trkpt lat="46.75346" lon="0.39641">
        <ele>142.4</ele>
        <time>2020-10-11T07:46:52Z</time>
      </trkpt>
      <trkpt lat="46.75344" lon="0.39633">
        <ele>142.2</ele>
        <time>2020-10-11T07:46:53Z</time>
      </trkpt>
      <trkpt lat="46.75341" lon="0.39628">
        <ele>141.8</ele>
        <time>2020-10-11T07:46:54Z</time>
      </trkpt>
      <trkpt lat="46.75338" lon="0.39623">
        <ele>141</ele>
        <time>2020-10-11T07:46:55Z</time>
      </trkpt>
      <trkpt lat="46.75333" lon="0.3962">
        <ele>140.4</ele>
        <time>2020-10-11T07:46:56Z</time>
      </trkpt>
      <trkpt lat="46.75329" lon="0.39621">
        <ele>140.4</ele>
        <time>2020-10-11T07:46:57Z</time>
      </trkpt>
      <trkpt lat="46.7532" lon="0.39621">
        <ele>140</ele>
        <time>2020-10-11T07:46:59Z</time>
      </trkpt>
      <trkpt lat="46.75315" lon="0.39619">
        <ele>140</ele>
        <time>2020-10-11T07:47:00Z</time>
      </trkpt>
      <trkpt lat="46.75287" lon="0.39607">
        <ele>140</ele>
        <time>2020-10-11T07:47:04Z</time>
      </trkpt>
      <trkpt lat="46.75281" lon="0.39605">
        <ele>140</ele>
        <time>2020-10-11T07:47:05Z</time>
      </trkpt>
      <trkpt lat="46.75277" lon="0.39603">
        <ele>139.6</ele>
        <time>2020-10-11T07:47:06Z</time>
      </trkpt>
      <trkpt lat="46.75274" lon="0.39603">
        <ele>138.8</ele>
        <time>2020-10-11T07:47:07Z</time>
      </trkpt>
      <trkpt lat="46.75273" lon="0.39606">
        <ele>138</ele>
        <time>2020-10-11T07:47:08Z</time>
      </trkpt>
      <trkpt lat="46.75271" lon="0.39607">
        <ele>137.4</ele>
        <time>2020-10-11T07:47:09Z</time>
      </trkpt>
      <trkpt lat="46.75269" lon="0.39609">
        <ele>137</ele>
        <time>2020-10-11T07:47:10Z</time>
      </trkpt>
      <trkpt lat="46.75264" lon="0.39611">
        <ele>136.2</ele>
        <time>2020-10-11T07:47:12Z</time>
      </trkpt>
      <trkpt lat="46.75256" lon="0.39613">
        <ele>136</ele>
        <time>2020-10-11T07:47:15Z</time>
      </trkpt>
      <trkpt lat="46.75246" lon="0.39616">
        <ele>135.6</ele>
        <time>2020-10-11T07:47:18Z</time>
      </trkpt>
      <trkpt lat="46.75239" lon="0.39613">
        <ele>135</ele>
        <time>2020-10-11T07:47:20Z</time>
      </trkpt>
      <trkpt lat="46.7523" lon="0.39614">
        <ele>134</ele>
        <time>2020-10-11T07:47:22Z</time>
      </trkpt>
      <trkpt lat="46.75226" lon="0.39614">
        <ele>133.8</ele>
        <time>2020-10-11T07:47:23Z</time>
      </trkpt>
      <trkpt lat="46.75223" lon="0.39613">
        <ele>133.6</ele>
        <time>2020-10-11T07:47:24Z</time>
      </trkpt>
      <trkpt lat="46.75215" lon="0.3961">
        <ele>133.2</ele>
        <time>2020-10-11T07:47:26Z</time>
      </trkpt>
      <trkpt lat="46.75205" lon="0.39606">
        <ele>132</ele>
        <time>2020-10-11T07:47:28Z</time>
      </trkpt>
      <trkpt lat="46.75196" lon="0.39599">
        <ele>131.2</ele>
        <time>2020-10-11T07:47:30Z</time>
      </trkpt>
      <trkpt lat="46.75192" lon="0.39598">
        <ele>131</ele>
        <time>2020-10-11T07:47:31Z</time>
      </trkpt>
      <trkpt lat="46.75187" lon="0.39598">
        <ele>130.8</ele>
        <time>2020-10-11T07:47:32Z</time>
      </trkpt>
      <trkpt lat="46.7518" lon="0.39602">
        <ele>130</ele>
        <time>2020-10-11T07:47:34Z</time>
      </trkpt>
      <trkpt lat="46.75178" lon="0.39606">
        <ele>129.6</ele>
        <time>2020-10-11T07:47:35Z</time>
      </trkpt>
      <trkpt lat="46.75176" lon="0.39609">
        <ele>129.2</ele>
        <time>2020-10-11T07:47:36Z</time>
      </trkpt>
      <trkpt lat="46.75174" lon="0.39617">
        <ele>128.4</ele>
        <time>2020-10-11T07:47:38Z</time>
      </trkpt>
      <trkpt lat="46.75176" lon="0.39622">
        <ele>128.2</ele>
        <time>2020-10-11T07:47:40Z</time>
      </trkpt>
      <trkpt lat="46.75178" lon="0.3963">
        <ele>128.2</ele>
        <time>2020-10-11T07:47:42Z</time>
      </trkpt>
      <trkpt lat="46.7518" lon="0.39642">
        <ele>128.2</ele>
        <time>2020-10-11T07:47:44Z</time>
      </trkpt>
      <trkpt lat="46.75179" lon="0.39651">
        <ele>128.2</ele>
        <time>2020-10-11T07:47:46Z</time>
      </trkpt>
      <trkpt lat="46.75174" lon="0.39656">
        <ele>128</ele>
        <time>2020-10-11T07:47:48Z</time>
      </trkpt>
      <trkpt lat="46.75173" lon="0.39659">
        <ele>128</ele>
        <time>2020-10-11T07:47:49Z</time>
      </trkpt>
      <trkpt lat="46.75168" lon="0.39665">
        <ele>127.4</ele>
        <time>2020-10-11T07:47:51Z</time>
      </trkpt>
      <trkpt lat="46.75163" lon="0.39669">
        <ele>126.8</ele>
        <time>2020-10-11T07:47:53Z</time>
      </trkpt>
      <trkpt lat="46.75162" lon="0.39675">
        <ele>126.4</ele>
        <time>2020-10-11T07:47:55Z</time>
      </trkpt>
      <trkpt lat="46.75162" lon="0.39678">
        <ele>126.4</ele>
        <time>2020-10-11T07:47:56Z</time>
      </trkpt>
      <trkpt lat="46.75165" lon="0.39689">
        <ele>126.4</ele>
        <time>2020-10-11T07:47:59Z</time>
      </trkpt>
      <trkpt lat="46.75166" lon="0.39699">
        <ele>126.2</ele>
        <time>2020-10-11T07:48:01Z</time>
      </trkpt>
      <trkpt lat="46.75168" lon="0.39707">
        <ele>126.4</ele>
        <time>2020-10-11T07:48:03Z</time>
      </trkpt>
      <trkpt lat="46.75169" lon="0.39727">
        <ele>126.6</ele>
        <time>2020-10-11T07:48:07Z</time>
      </trkpt>
      <trkpt lat="46.75173" lon="0.39737">
        <ele>127</ele>
        <time>2020-10-11T07:48:10Z</time>
      </trkpt>
      <trkpt lat="46.75172" lon="0.3974">
        <ele>127.4</ele>
        <time>2020-10-11T07:48:11Z</time>
      </trkpt>
      <trkpt lat="46.75173" lon="0.39744">
        <ele>127.4</ele>
        <time>2020-10-11T07:48:12Z</time>
      </trkpt>
      <trkpt lat="46.75173" lon="0.39761">
        <ele>128</ele>
        <time>2020-10-11T07:48:16Z</time>
      </trkpt>
      <trkpt lat="46.75173" lon="0.39783">
        <ele>128.2</ele>
        <time>2020-10-11T07:48:21Z</time>
      </trkpt>
      <trkpt lat="46.75171" lon="0.39789">
        <ele>128.2</ele>
        <time>2020-10-11T07:48:22Z</time>
      </trkpt>
      <trkpt lat="46.75168" lon="0.39798">
        <ele>128.2</ele>
        <time>2020-10-11T07:48:24Z</time>
      </trkpt>
      <trkpt lat="46.75168" lon="0.39802">
        <ele>128.2</ele>
        <time>2020-10-11T07:48:25Z</time>
      </trkpt>
      <trkpt lat="46.75167" lon="0.3983">
        <ele>128.2</ele>
        <time>2020-10-11T07:48:30Z</time>
      </trkpt>
      <trkpt lat="46.75166" lon="0.39835">
        <ele>128.4</ele>
        <time>2020-10-11T07:48:31Z</time>
      </trkpt>
      <trkpt lat="46.75166" lon="0.39847">
        <ele>128.4</ele>
        <time>2020-10-11T07:48:33Z</time>
      </trkpt>
      <trkpt lat="46.75164" lon="0.39859">
        <ele>128.6</ele>
        <time>2020-10-11T07:48:35Z</time>
      </trkpt>
      <trkpt lat="46.75164" lon="0.39873">
        <ele>129.2</ele>
        <time>2020-10-11T07:48:39Z</time>
      </trkpt>
      <trkpt lat="46.75165" lon="0.39881">
        <ele>129.6</ele>
        <time>2020-10-11T07:48:41Z</time>
      </trkpt>
      <trkpt lat="46.75166" lon="0.39892">
        <ele>130.2</ele>
        <time>2020-10-11T07:48:44Z</time>
      </trkpt>
      <trkpt lat="46.75167" lon="0.399">
        <ele>130.6</ele>
        <time>2020-10-11T07:48:46Z</time>
      </trkpt>
      <trkpt lat="46.75166" lon="0.39906">
        <ele>130.6</ele>
        <time>2020-10-11T07:48:47Z</time>
      </trkpt>
      <trkpt lat="46.75161" lon="0.39915">
        <ele>130.8</ele>
        <time>2020-10-11T07:48:49Z</time>
      </trkpt>
      <trkpt lat="46.75152" lon="0.39933">
        <ele>130.8</ele>
        <time>2020-10-11T07:48:54Z</time>
      </trkpt>
      <trkpt lat="46.75141" lon="0.39953">
        <ele>131.8</ele>
        <time>2020-10-11T07:49:00Z</time>
      </trkpt>
      <trkpt lat="46.7513" lon="0.39968">
        <ele>132.4</ele>
        <time>2020-10-11T07:49:06Z</time>
      </trkpt>
      <trkpt lat="46.7513" lon="0.3997">
        <ele>132.4</ele>
        <time>2020-10-11T07:49:07Z</time>
      </trkpt>
      <trkpt lat="46.75129" lon="0.39979">
        <ele>132.2</ele>
        <time>2020-10-11T07:49:10Z</time>
      </trkpt>
      <trkpt lat="46.75127" lon="0.39995">
        <ele>132.4</ele>
        <time>2020-10-11T07:49:14Z</time>
      </trkpt>
      <trkpt lat="46.75125" lon="0.39998">
        <ele>132.4</ele>
        <time>2020-10-11T07:49:15Z</time>
      </trkpt>
      <trkpt lat="46.75117" lon="0.40008">
        <ele>132</ele>
        <time>2020-10-11T07:49:18Z</time>
      </trkpt>
      <trkpt lat="46.75117" lon="0.40012">
        <ele>131.8</ele>
        <time>2020-10-11T07:49:19Z</time>
      </trkpt>
      <trkpt lat="46.75114" lon="0.40024">
        <ele>131.6</ele>
        <time>2020-10-11T07:49:22Z</time>
      </trkpt>
      <trkpt lat="46.75111" lon="0.40035">
        <ele>131.6</ele>
        <time>2020-10-11T07:49:24Z</time>
      </trkpt>
      <trkpt lat="46.75109" lon="0.40061">
        <ele>131.2</ele>
        <time>2020-10-11T07:49:28Z</time>
      </trkpt>
      <trkpt lat="46.75109" lon="0.40065">
        <ele>131</ele>
        <time>2020-10-11T07:49:29Z</time>
      </trkpt>
      <trkpt lat="46.75108" lon="0.40074">
        <ele>131</ele>
        <time>2020-10-11T07:49:32Z</time>
      </trkpt>
      <trkpt lat="46.75109" lon="0.4008">
        <ele>131.4</ele>
        <time>2020-10-11T07:49:35Z</time>
      </trkpt>
      <trkpt lat="46.7511" lon="0.401">
        <ele>132.6</ele>
        <time>2020-10-11T07:49:40Z</time>
      </trkpt>
      <trkpt lat="46.75108" lon="0.40103">
        <ele>133</ele>
        <time>2020-10-11T07:49:41Z</time>
      </trkpt>
      <trkpt lat="46.75107" lon="0.40108">
        <ele>133</ele>
        <time>2020-10-11T07:49:42Z</time>
      </trkpt>
      <trkpt lat="46.75104" lon="0.40118">
        <ele>133.2</ele>
        <time>2020-10-11T07:49:45Z</time>
      </trkpt>
      <trkpt lat="46.75096" lon="0.40116">
        <ele>133</ele>
        <time>2020-10-11T07:49:49Z</time>
      </trkpt>
      <trkpt lat="46.75091" lon="0.40108">
        <ele>132</ele>
        <time>2020-10-11T07:49:54Z</time>
      </trkpt>
      <trkpt lat="46.75091" lon="0.40109">
        <ele>131.6</ele>
        <time>2020-10-11T07:49:55Z</time>
      </trkpt>
      <trkpt lat="46.75086" lon="0.40114">
        <ele>130.4</ele>
        <time>2020-10-11T07:49:58Z</time>
      </trkpt>
      <trkpt lat="46.75085" lon="0.40115">
        <ele>130</ele>
        <time>2020-10-11T07:49:59Z</time>
      </trkpt>
      <trkpt lat="46.75084" lon="0.40118">
        <ele>129.2</ele>
        <time>2020-10-11T07:50:00Z</time>
      </trkpt>
      <trkpt lat="46.75084" lon="0.40125">
        <ele>128</ele>
        <time>2020-10-11T07:50:02Z</time>
      </trkpt>
      <trkpt lat="46.75079" lon="0.40139">
        <ele>127</ele>
        <time>2020-10-11T07:50:07Z</time>
      </trkpt>
      <trkpt lat="46.75078" lon="0.40144">
        <ele>127.6</ele>
        <time>2020-10-11T07:50:09Z</time>
      </trkpt>
      <trkpt lat="46.75078" lon="0.40151">
        <ele>128.8</ele>
        <time>2020-10-11T07:50:12Z</time>
      </trkpt>
      <trkpt lat="46.75079" lon="0.40152">
        <ele>129.2</ele>
        <time>2020-10-11T07:50:13Z</time>
      </trkpt>
      <trkpt lat="46.7508" lon="0.40156">
        <ele>130</ele>
        <time>2020-10-11T07:50:15Z</time>
      </trkpt>
      <trkpt lat="46.7508" lon="0.40158">
        <ele>130.4</ele>
        <time>2020-10-11T07:50:16Z</time>
      </trkpt>
      <trkpt lat="46.7508" lon="0.40163">
        <ele>130.6</ele>
        <time>2020-10-11T07:50:18Z</time>
      </trkpt>
      <trkpt lat="46.75084" lon="0.40171">
        <ele>131.4</ele>
        <time>2020-10-11T07:50:22Z</time>
      </trkpt>
      <trkpt lat="46.75085" lon="0.40189">
        <ele>132.6</ele>
        <time>2020-10-11T07:50:29Z</time>
      </trkpt>
      <trkpt lat="46.75089" lon="0.40203">
        <ele>133.2</ele>
        <time>2020-10-11T07:50:35Z</time>
      </trkpt>
      <trkpt lat="46.75088" lon="0.40204">
        <ele>133.6</ele>
        <time>2020-10-11T07:50:36Z</time>
      </trkpt>
      <trkpt lat="46.7509" lon="0.40205">
        <ele>133.8</ele>
        <time>2020-10-11T07:50:37Z</time>
      </trkpt>
      <trkpt lat="46.75092" lon="0.4021">
        <ele>134.6</ele>
        <time>2020-10-11T07:50:40Z</time>
      </trkpt>
      <trkpt lat="46.75098" lon="0.40223">
        <ele>135.4</ele>
        <time>2020-10-11T07:50:46Z</time>
      </trkpt>
      <trkpt lat="46.75099" lon="0.40224">
        <ele>135.6</ele>
        <time>2020-10-11T07:50:47Z</time>
      </trkpt>
      <trkpt lat="46.75101" lon="0.40238">
        <ele>136.2</ele>
        <time>2020-10-11T07:50:53Z</time>
      </trkpt>
      <trkpt lat="46.75102" lon="0.40268">
        <ele>136.4</ele>
        <time>2020-10-11T07:51:02Z</time>
      </trkpt>
      <trkpt lat="46.75105" lon="0.40278">
        <ele>136.8</ele>
        <time>2020-10-11T07:51:06Z</time>
      </trkpt>
      <trkpt lat="46.75111" lon="0.40293">
        <ele>137.4</ele>
        <time>2020-10-11T07:51:11Z</time>
      </trkpt>
      <trkpt lat="46.75114" lon="0.40303">
        <ele>137.8</ele>
        <time>2020-10-11T07:51:14Z</time>
      </trkpt>
      <trkpt lat="46.75116" lon="0.40316">
        <ele>137.8</ele>
        <time>2020-10-11T07:51:18Z</time>
      </trkpt>
      <trkpt lat="46.75118" lon="0.40342">
        <ele>137.8</ele>
        <time>2020-10-11T07:51:23Z</time>
      </trkpt>
      <trkpt lat="46.75121" lon="0.40365">
        <ele>137.6</ele>
        <time>2020-10-11T07:51:28Z</time>
      </trkpt>
      <trkpt lat="46.75122" lon="0.40369">
        <ele>137.6</ele>
        <time>2020-10-11T07:51:29Z</time>
      </trkpt>
      <trkpt lat="46.7513" lon="0.40377">
        <ele>138.2</ele>
        <time>2020-10-11T07:51:34Z</time>
      </trkpt>
      <trkpt lat="46.75138" lon="0.40381">
        <ele>138.6</ele>
        <time>2020-10-11T07:51:37Z</time>
      </trkpt>
      <trkpt lat="46.75142" lon="0.40384">
        <ele>138.8</ele>
        <time>2020-10-11T07:51:39Z</time>
      </trkpt>
      <trkpt lat="46.75144" lon="0.40386">
        <ele>139</ele>
        <time>2020-10-11T07:51:40Z</time>
      </trkpt>
      <trkpt lat="46.7516" lon="0.40392">
        <ele>140</ele>
        <time>2020-10-11T07:51:45Z</time>
      </trkpt>
      <trkpt lat="46.75172" lon="0.40395">
        <ele>141.2</ele>
        <time>2020-10-11T07:51:49Z</time>
      </trkpt>
      <trkpt lat="46.75175" lon="0.40396">
        <ele>141.6</ele>
        <time>2020-10-11T07:51:50Z</time>
      </trkpt>
      <trkpt lat="46.75183" lon="0.40394">
        <ele>142.4</ele>
        <time>2020-10-11T07:51:53Z</time>
      </trkpt>
      <trkpt lat="46.75193" lon="0.40396">
        <ele>142.6</ele>
        <time>2020-10-11T07:51:56Z</time>
      </trkpt>
      <trkpt lat="46.75201" lon="0.40395">
        <ele>142.8</ele>
        <time>2020-10-11T07:51:59Z</time>
      </trkpt>
      <trkpt lat="46.75206" lon="0.40394">
        <ele>142.8</ele>
        <time>2020-10-11T07:52:01Z</time>
      </trkpt>
      <trkpt lat="46.75219" lon="0.404">
        <ele>143.4</ele>
        <time>2020-10-11T07:52:08Z</time>
      </trkpt>
      <trkpt lat="46.75234" lon="0.40406">
        <ele>144.4</ele>
        <time>2020-10-11T07:52:13Z</time>
      </trkpt>
      <trkpt lat="46.7525" lon="0.40408">
        <ele>145</ele>
        <time>2020-10-11T07:52:18Z</time>
      </trkpt>
      <trkpt lat="46.75257" lon="0.40409">
        <ele>145.4</ele>
        <time>2020-10-11T07:52:20Z</time>
      </trkpt>
      <trkpt lat="46.75267" lon="0.40409">
        <ele>146</ele>
        <time>2020-10-11T07:52:23Z</time>
      </trkpt>
      <trkpt lat="46.75273" lon="0.40409">
        <ele>146</ele>
        <time>2020-10-11T07:52:25Z</time>
      </trkpt>
      <trkpt lat="46.75288" lon="0.4041">
        <ele>146.4</ele>
        <time>2020-10-11T07:52:30Z</time>
      </trkpt>
      <trkpt lat="46.75292" lon="0.4041">
        <ele>146.6</ele>
        <time>2020-10-11T07:52:31Z</time>
      </trkpt>
      <trkpt lat="46.75305" lon="0.40406">
        <ele>147.4</ele>
        <time>2020-10-11T07:52:35Z</time>
      </trkpt>
      <trkpt lat="46.75311" lon="0.40406">
        <ele>147.6</ele>
        <time>2020-10-11T07:52:37Z</time>
      </trkpt>
      <trkpt lat="46.75323" lon="0.40403">
        <ele>147.4</ele>
        <time>2020-10-11T07:52:41Z</time>
      </trkpt>
      <trkpt lat="46.75341" lon="0.40401">
        <ele>147.4</ele>
        <time>2020-10-11T07:52:46Z</time>
      </trkpt>
      <trkpt lat="46.75364" lon="0.4041">
        <ele>147.8</ele>
        <time>2020-10-11T07:52:52Z</time>
      </trkpt>
      <trkpt lat="46.75372" lon="0.40411">
        <ele>148</ele>
        <time>2020-10-11T07:52:54Z</time>
      </trkpt>
      <trkpt lat="46.75383" lon="0.40407">
        <ele>148</ele>
        <time>2020-10-11T07:52:57Z</time>
      </trkpt>
      <trkpt lat="46.75406" lon="0.40408">
        <ele>148.2</ele>
        <time>2020-10-11T07:53:03Z</time>
      </trkpt>
      <trkpt lat="46.75413" lon="0.4041">
        <ele>148.6</ele>
        <time>2020-10-11T07:53:05Z</time>
      </trkpt>
      <trkpt lat="46.7542" lon="0.40415">
        <ele>148.6</ele>
        <time>2020-10-11T07:53:07Z</time>
      </trkpt>
      <trkpt lat="46.75424" lon="0.40418">
        <ele>148.6</ele>
        <time>2020-10-11T07:53:08Z</time>
      </trkpt>
      <trkpt lat="46.75427" lon="0.40424">
        <ele>148.6</ele>
        <time>2020-10-11T07:53:09Z</time>
      </trkpt>
      <trkpt lat="46.75435" lon="0.40435">
        <ele>148.4</ele>
        <time>2020-10-11T07:53:11Z</time>
      </trkpt>
      <trkpt lat="46.75438" lon="0.40446">
        <ele>148.2</ele>
        <time>2020-10-11T07:53:13Z</time>
      </trkpt>
      <trkpt lat="46.75438" lon="0.4045">
        <ele>148</ele>
        <time>2020-10-11T07:53:14Z</time>
      </trkpt>
      <trkpt lat="46.75442" lon="0.40463">
        <ele>147.8</ele>
        <time>2020-10-11T07:53:17Z</time>
      </trkpt>
      <trkpt lat="46.75444" lon="0.40468">
        <ele>147.6</ele>
        <time>2020-10-11T07:53:18Z</time>
      </trkpt>
      <trkpt lat="46.75448" lon="0.40476">
        <ele>147.6</ele>
        <time>2020-10-11T07:53:20Z</time>
      </trkpt>
      <trkpt lat="46.75452" lon="0.40489">
        <ele>148</ele>
        <time>2020-10-11T07:53:23Z</time>
      </trkpt>
      <trkpt lat="46.75455" lon="0.40497">
        <ele>148.2</ele>
        <time>2020-10-11T07:53:25Z</time>
      </trkpt>
      <trkpt lat="46.75458" lon="0.40507">
        <ele>148</ele>
        <time>2020-10-11T07:53:27Z</time>
      </trkpt>
      <trkpt lat="46.7546" lon="0.40512">
        <ele>148</ele>
        <time>2020-10-11T07:53:28Z</time>
      </trkpt>
      <trkpt lat="46.7546" lon="0.40517">
        <ele>148</ele>
        <time>2020-10-11T07:53:29Z</time>
      </trkpt>
      <trkpt lat="46.75461" lon="0.40531">
        <ele>148</ele>
        <time>2020-10-11T07:53:32Z</time>
      </trkpt>
      <trkpt lat="46.75464" lon="0.40539">
        <ele>148</ele>
        <time>2020-10-11T07:53:34Z</time>
      </trkpt>
      <trkpt lat="46.75466" lon="0.40541">
        <ele>148</ele>
        <time>2020-10-11T07:53:35Z</time>
      </trkpt>
      <trkpt lat="46.75468" lon="0.40544">
        <ele>147.8</ele>
        <time>2020-10-11T07:53:36Z</time>
      </trkpt>
      <trkpt lat="46.75474" lon="0.40556">
        <ele>147.6</ele>
        <time>2020-10-11T07:53:39Z</time>
      </trkpt>
      <trkpt lat="46.75476" lon="0.40565">
        <ele>147.6</ele>
        <time>2020-10-11T07:53:42Z</time>
      </trkpt>
      <trkpt lat="46.75476" lon="0.40567">
        <ele>147.6</ele>
        <time>2020-10-11T07:53:43Z</time>
      </trkpt>
      <trkpt lat="46.75472" lon="0.40586">
        <ele>147.4</ele>
        <time>2020-10-11T07:53:47Z</time>
      </trkpt>
      <trkpt lat="46.75472" lon="0.40608">
        <ele>146.8</ele>
        <time>2020-10-11T07:53:51Z</time>
      </trkpt>
      <trkpt lat="46.75472" lon="0.4062">
        <ele>146.6</ele>
        <time>2020-10-11T07:53:53Z</time>
      </trkpt>
      <trkpt lat="46.75473" lon="0.4063">
        <ele>146.6</ele>
        <time>2020-10-11T07:53:55Z</time>
      </trkpt>
      <trkpt lat="46.75473" lon="0.40635">
        <ele>146.6</ele>
        <time>2020-10-11T07:53:56Z</time>
      </trkpt>
      <trkpt lat="46.75473" lon="0.40639">
        <ele>146.4</ele>
        <time>2020-10-11T07:53:57Z</time>
      </trkpt>
      <trkpt lat="46.75474" lon="0.40652">
        <ele>146.4</ele>
        <time>2020-10-11T07:54:01Z</time>
      </trkpt>
      <trkpt lat="46.75476" lon="0.40681">
        <ele>146.4</ele>
        <time>2020-10-11T07:54:07Z</time>
      </trkpt>
      <trkpt lat="46.75476" lon="0.40701">
        <ele>146.4</ele>
        <time>2020-10-11T07:54:11Z</time>
      </trkpt>
      <trkpt lat="46.75479" lon="0.40723">
        <ele>146.2</ele>
        <time>2020-10-11T07:54:16Z</time>
      </trkpt>
      <trkpt lat="46.75481" lon="0.40732">
        <ele>146.2</ele>
        <time>2020-10-11T07:54:18Z</time>
      </trkpt>
      <trkpt lat="46.7548" lon="0.40742">
        <ele>146.2</ele>
        <time>2020-10-11T07:54:21Z</time>
      </trkpt>
      <trkpt lat="46.75477" lon="0.4075">
        <ele>146.2</ele>
        <time>2020-10-11T07:54:23Z</time>
      </trkpt>
      <trkpt lat="46.75471" lon="0.40754">
        <ele>146.2</ele>
        <time>2020-10-11T07:54:25Z</time>
      </trkpt>
      <trkpt lat="46.75464" lon="0.40758">
        <ele>146.2</ele>
        <time>2020-10-11T07:54:28Z</time>
      </trkpt>
      <trkpt lat="46.75461" lon="0.40765">
        <ele>146.2</ele>
        <time>2020-10-11T07:54:30Z</time>
      </trkpt>
      <trkpt lat="46.75456" lon="0.40777">
        <ele>146.4</ele>
        <time>2020-10-11T07:54:34Z</time>
      </trkpt>
      <trkpt lat="46.75455" lon="0.40781">
        <ele>146.4</ele>
        <time>2020-10-11T07:54:35Z</time>
      </trkpt>
      <trkpt lat="46.75452" lon="0.40796">
        <ele>145.8</ele>
        <time>2020-10-11T07:54:41Z</time>
      </trkpt>
      <trkpt lat="46.75455" lon="0.40817">
        <ele>146.2</ele>
        <time>2020-10-11T07:54:46Z</time>
      </trkpt>
      <trkpt lat="46.75461" lon="0.40835">
        <ele>146</ele>
        <time>2020-10-11T07:54:50Z</time>
      </trkpt>
      <trkpt lat="46.75463" lon="0.40845">
        <ele>145.8</ele>
        <time>2020-10-11T07:54:52Z</time>
      </trkpt>
      <trkpt lat="46.75461" lon="0.40852">
        <ele>145.8</ele>
        <time>2020-10-11T07:54:54Z</time>
      </trkpt>
      <trkpt lat="46.75461" lon="0.40857">
        <ele>145.8</ele>
        <time>2020-10-11T07:54:55Z</time>
      </trkpt>
      <trkpt lat="46.75466" lon="0.40869">
        <ele>145.8</ele>
        <time>2020-10-11T07:54:58Z</time>
      </trkpt>
      <trkpt lat="46.75469" lon="0.40875">
        <ele>145.6</ele>
        <time>2020-10-11T07:55:00Z</time>
      </trkpt>
      <trkpt lat="46.7547" lon="0.40879">
        <ele>145.4</ele>
        <time>2020-10-11T07:55:01Z</time>
      </trkpt>
      <trkpt lat="46.75474" lon="0.40898">
        <ele>145.6</ele>
        <time>2020-10-11T07:55:06Z</time>
      </trkpt>
      <trkpt lat="46.75478" lon="0.40905">
        <ele>145.4</ele>
        <time>2020-10-11T07:55:09Z</time>
      </trkpt>
      <trkpt lat="46.75481" lon="0.4091">
        <ele>145.4</ele>
        <time>2020-10-11T07:55:11Z</time>
      </trkpt>
      <trkpt lat="46.75484" lon="0.40911">
        <ele>145.4</ele>
        <time>2020-10-11T07:55:12Z</time>
      </trkpt>
      <trkpt lat="46.75487" lon="0.40917">
        <ele>145.4</ele>
        <time>2020-10-11T07:55:14Z</time>
      </trkpt>
      <trkpt lat="46.75487" lon="0.40922">
        <ele>145.4</ele>
        <time>2020-10-11T07:55:16Z</time>
      </trkpt>
      <trkpt lat="46.75483" lon="0.40927">
        <ele>145.4</ele>
        <time>2020-10-11T07:55:18Z</time>
      </trkpt>
      <trkpt lat="46.75465" lon="0.40931">
        <ele>145.6</ele>
        <time>2020-10-11T07:55:23Z</time>
      </trkpt>
      <trkpt lat="46.75458" lon="0.40933">
        <ele>145.6</ele>
        <time>2020-10-11T07:55:25Z</time>
      </trkpt>
      <trkpt lat="46.75446" lon="0.40933">
        <ele>145.6</ele>
        <time>2020-10-11T07:55:28Z</time>
      </trkpt>
      <trkpt lat="46.75439" lon="0.40937">
        <ele>145.8</ele>
        <time>2020-10-11T07:55:30Z</time>
      </trkpt>
      <trkpt lat="46.75437" lon="0.40948">
        <ele>145.8</ele>
        <time>2020-10-11T07:55:32Z</time>
      </trkpt>
      <trkpt lat="46.75436" lon="0.40961">
        <ele>145.6</ele>
        <time>2020-10-11T07:55:34Z</time>
      </trkpt>
      <trkpt lat="46.75436" lon="0.40973">
        <ele>145.4</ele>
        <time>2020-10-11T07:55:36Z</time>
      </trkpt>
      <trkpt lat="46.75437" lon="0.41008">
        <ele>145.2</ele>
        <time>2020-10-11T07:55:41Z</time>
      </trkpt>
      <trkpt lat="46.75436" lon="0.41014">
        <ele>145.2</ele>
        <time>2020-10-11T07:55:42Z</time>
      </trkpt>
      <trkpt lat="46.75437" lon="0.41026">
        <ele>145.2</ele>
        <time>2020-10-11T07:55:44Z</time>
      </trkpt>
      <trkpt lat="46.75437" lon="0.41033">
        <ele>145.2</ele>
        <time>2020-10-11T07:55:45Z</time>
      </trkpt>
      <trkpt lat="46.75435" lon="0.4106">
        <ele>145</ele>
        <time>2020-10-11T07:55:49Z</time>
      </trkpt>
      <trkpt lat="46.75436" lon="0.41116">
        <ele>145</ele>
        <time>2020-10-11T07:55:55Z</time>
      </trkpt>
      <trkpt lat="46.75437" lon="0.41149">
        <ele>145</ele>
        <time>2020-10-11T07:55:59Z</time>
      </trkpt>
      <trkpt lat="46.75437" lon="0.41174">
        <ele>144.6</ele>
        <time>2020-10-11T07:56:02Z</time>
      </trkpt>
      <trkpt lat="46.75435" lon="0.41219">
        <ele>144.6</ele>
        <time>2020-10-11T07:56:07Z</time>
      </trkpt>
      <trkpt lat="46.75435" lon="0.41252">
        <ele>144.8</ele>
        <time>2020-10-11T07:56:11Z</time>
      </trkpt>
      <trkpt lat="46.75435" lon="0.41277">
        <ele>144.6</ele>
        <time>2020-10-11T07:56:14Z</time>
      </trkpt>
      <trkpt lat="46.75435" lon="0.41324">
        <ele>144.2</ele>
        <time>2020-10-11T07:56:19Z</time>
      </trkpt>
      <trkpt lat="46.75435" lon="0.41332">
        <ele>144.4</ele>
        <time>2020-10-11T07:56:20Z</time>
      </trkpt>
      <trkpt lat="46.75434" lon="0.41384">
        <ele>143.4</ele>
        <time>2020-10-11T07:56:27Z</time>
      </trkpt>
      <trkpt lat="46.75433" lon="0.41398">
        <ele>143.4</ele>
        <time>2020-10-11T07:56:29Z</time>
      </trkpt>
      <trkpt lat="46.75432" lon="0.41419">
        <ele>143.4</ele>
        <time>2020-10-11T07:56:32Z</time>
      </trkpt>
      <trkpt lat="46.75433" lon="0.41468">
        <ele>142.8</ele>
        <time>2020-10-11T07:56:39Z</time>
      </trkpt>
      <trkpt lat="46.75433" lon="0.41483">
        <ele>142.8</ele>
        <time>2020-10-11T07:56:41Z</time>
      </trkpt>
      <trkpt lat="46.75431" lon="0.41515">
        <ele>142.8</ele>
        <time>2020-10-11T07:56:45Z</time>
      </trkpt>
      <trkpt lat="46.75429" lon="0.41563">
        <ele>142.6</ele>
        <time>2020-10-11T07:56:51Z</time>
      </trkpt>
      <trkpt lat="46.75427" lon="0.41589">
        <ele>142.6</ele>
        <time>2020-10-11T07:56:55Z</time>
      </trkpt>
      <trkpt lat="46.75424" lon="0.41597">
        <ele>142.4</ele>
        <time>2020-10-11T07:56:57Z</time>
      </trkpt>
      <trkpt lat="46.75411" lon="0.41605">
        <ele>142.2</ele>
        <time>2020-10-11T07:57:00Z</time>
      </trkpt>
      <trkpt lat="46.75401" lon="0.41606">
        <ele>142</ele>
        <time>2020-10-11T07:57:02Z</time>
      </trkpt>
      <trkpt lat="46.75395" lon="0.41604">
        <ele>141.8</ele>
        <time>2020-10-11T07:57:03Z</time>
      </trkpt>
      <trkpt lat="46.75359" lon="0.41586">
        <ele>142.2</ele>
        <time>2020-10-11T07:57:09Z</time>
      </trkpt>
      <trkpt lat="46.75319" lon="0.41564">
        <ele>142.6</ele>
        <time>2020-10-11T07:57:16Z</time>
      </trkpt>
      <trkpt lat="46.75301" lon="0.41549">
        <ele>141.8</ele>
        <time>2020-10-11T07:57:20Z</time>
      </trkpt>
      <trkpt lat="46.75292" lon="0.41541">
        <ele>141.8</ele>
        <time>2020-10-11T07:57:22Z</time>
      </trkpt>
      <trkpt lat="46.75265" lon="0.41521">
        <ele>142.2</ele>
        <time>2020-10-11T07:57:29Z</time>
      </trkpt>
      <trkpt lat="46.75232" lon="0.41495">
        <ele>141.8</ele>
        <time>2020-10-11T07:57:38Z</time>
      </trkpt>
      <trkpt lat="46.75198" lon="0.4147">
        <ele>142.4</ele>
        <time>2020-10-11T07:57:46Z</time>
      </trkpt>
      <trkpt lat="46.75171" lon="0.41456">
        <ele>142.4</ele>
        <time>2020-10-11T07:57:52Z</time>
      </trkpt>
      <trkpt lat="46.75142" lon="0.41445">
        <ele>143</ele>
        <time>2020-10-11T07:57:58Z</time>
      </trkpt>
      <trkpt lat="46.75133" lon="0.41439">
        <ele>143</ele>
        <time>2020-10-11T07:58:00Z</time>
      </trkpt>
      <trkpt lat="46.75121" lon="0.41431">
        <ele>143.2</ele>
        <time>2020-10-11T07:58:03Z</time>
      </trkpt>
      <trkpt lat="46.751" lon="0.4142">
        <ele>143</ele>
        <time>2020-10-11T07:58:08Z</time>
      </trkpt>
      <trkpt lat="46.75095" lon="0.41418">
        <ele>143</ele>
        <time>2020-10-11T07:58:09Z</time>
      </trkpt>
      <trkpt lat="46.75071" lon="0.41404">
        <ele>143.2</ele>
        <time>2020-10-11T07:58:14Z</time>
      </trkpt>
      <trkpt lat="46.75039" lon="0.41384">
        <ele>143.4</ele>
        <time>2020-10-11T07:58:21Z</time>
      </trkpt>
      <trkpt lat="46.75035" lon="0.4138">
        <ele>143.4</ele>
        <time>2020-10-11T07:58:22Z</time>
      </trkpt>
      <trkpt lat="46.75016" lon="0.41362">
        <ele>143.4</ele>
        <time>2020-10-11T07:58:28Z</time>
      </trkpt>
      <trkpt lat="46.75013" lon="0.41359">
        <ele>143.4</ele>
        <time>2020-10-11T07:58:29Z</time>
      </trkpt>
      <trkpt lat="46.75" lon="0.41341">
        <ele>143.8</ele>
        <time>2020-10-11T07:58:33Z</time>
      </trkpt>
      <trkpt lat="46.74978" lon="0.41315">
        <ele>143.4</ele>
        <time>2020-10-11T07:58:40Z</time>
      </trkpt>
      <trkpt lat="46.74971" lon="0.41307">
        <ele>143.6</ele>
        <time>2020-10-11T07:58:42Z</time>
      </trkpt>
      <trkpt lat="46.74958" lon="0.41297">
        <ele>144</ele>
        <time>2020-10-11T07:58:45Z</time>
      </trkpt>
      <trkpt lat="46.7493" lon="0.41275">
        <ele>144.2</ele>
        <time>2020-10-11T07:58:52Z</time>
      </trkpt>
      <trkpt lat="46.74906" lon="0.41256">
        <ele>144.2</ele>
        <time>2020-10-11T07:58:58Z</time>
      </trkpt>
      <trkpt lat="46.74875" lon="0.41228">
        <ele>144.4</ele>
        <time>2020-10-11T07:59:05Z</time>
      </trkpt>
      <trkpt lat="46.74865" lon="0.4122">
        <ele>144.4</ele>
        <time>2020-10-11T07:59:07Z</time>
      </trkpt>
      <trkpt lat="46.74833" lon="0.41198">
        <ele>144.4</ele>
        <time>2020-10-11T07:59:13Z</time>
      </trkpt>
      <trkpt lat="46.74818" lon="0.41189">
        <ele>144.2</ele>
        <time>2020-10-11T07:59:16Z</time>
      </trkpt>
      <trkpt lat="46.7481" lon="0.4119">
        <ele>143.8</ele>
        <time>2020-10-11T07:59:18Z</time>
      </trkpt>
      <trkpt lat="46.74806" lon="0.41199">
        <ele>143.6</ele>
        <time>2020-10-11T07:59:20Z</time>
      </trkpt>
      <trkpt lat="46.74804" lon="0.41204">
        <ele>143.6</ele>
        <time>2020-10-11T07:59:21Z</time>
      </trkpt>
      <trkpt lat="46.74786" lon="0.41242">
        <ele>144.4</ele>
        <time>2020-10-11T07:59:27Z</time>
      </trkpt>
      <trkpt lat="46.74776" lon="0.41289">
        <ele>144.2</ele>
        <time>2020-10-11T07:59:33Z</time>
      </trkpt>
      <trkpt lat="46.74775" lon="0.41297">
        <ele>144.2</ele>
        <time>2020-10-11T07:59:34Z</time>
      </trkpt>
      <trkpt lat="46.74771" lon="0.41383">
        <ele>144.8</ele>
        <time>2020-10-11T07:59:44Z</time>
      </trkpt>
      <trkpt lat="46.74763" lon="0.41449">
        <ele>145.2</ele>
        <time>2020-10-11T07:59:52Z</time>
      </trkpt>
      <trkpt lat="46.74761" lon="0.41458">
        <ele>145.2</ele>
        <time>2020-10-11T07:59:53Z</time>
      </trkpt>
      <trkpt lat="46.74752" lon="0.4149">
        <ele>145</ele>
        <time>2020-10-11T07:59:57Z</time>
      </trkpt>
      <trkpt lat="46.74738" lon="0.41525">
        <ele>145.6</ele>
        <time>2020-10-11T08:00:02Z</time>
      </trkpt>
      <trkpt lat="46.74731" lon="0.41538">
        <ele>145.6</ele>
        <time>2020-10-11T08:00:04Z</time>
      </trkpt>
      <trkpt lat="46.74698" lon="0.41593">
        <ele>145</ele>
        <time>2020-10-11T08:00:12Z</time>
      </trkpt>
      <trkpt lat="46.74671" lon="0.41637">
        <ele>144.6</ele>
        <time>2020-10-11T08:00:18Z</time>
      </trkpt>
      <trkpt lat="46.74666" lon="0.41645">
        <ele>144.4</ele>
        <time>2020-10-11T08:00:19Z</time>
      </trkpt>
      <trkpt lat="46.74631" lon="0.4171">
        <ele>144.4</ele>
        <time>2020-10-11T08:00:27Z</time>
      </trkpt>
      <trkpt lat="46.74611" lon="0.41754">
        <ele>143.4</ele>
        <time>2020-10-11T08:00:32Z</time>
      </trkpt>
      <trkpt lat="46.74596" lon="0.41786">
        <ele>142.6</ele>
        <time>2020-10-11T08:00:36Z</time>
      </trkpt>
      <trkpt lat="46.74578" lon="0.41824">
        <ele>142.4</ele>
        <time>2020-10-11T08:00:41Z</time>
      </trkpt>
      <trkpt lat="46.74561" lon="0.41851">
        <ele>142</ele>
        <time>2020-10-11T08:00:45Z</time>
      </trkpt>
      <trkpt lat="46.7452" lon="0.41897">
        <ele>142.4</ele>
        <time>2020-10-11T08:00:53Z</time>
      </trkpt>
      <trkpt lat="46.74489" lon="0.41943">
        <ele>141.8</ele>
        <time>2020-10-11T08:00:59Z</time>
      </trkpt>
      <trkpt lat="46.74478" lon="0.41962">
        <ele>141</ele>
        <time>2020-10-11T08:01:01Z</time>
      </trkpt>
      <trkpt lat="46.74461" lon="0.41989">
        <ele>139.6</ele>
        <time>2020-10-11T08:01:04Z</time>
      </trkpt>
      <trkpt lat="46.74449" lon="0.42005">
        <ele>139</ele>
        <time>2020-10-11T08:01:06Z</time>
      </trkpt>
      <trkpt lat="46.74442" lon="0.42011">
        <ele>138.6</ele>
        <time>2020-10-11T08:01:07Z</time>
      </trkpt>
      <trkpt lat="46.74436" lon="0.42017">
        <ele>138</ele>
        <time>2020-10-11T08:01:08Z</time>
      </trkpt>
      <trkpt lat="46.74432" lon="0.42022">
        <ele>137.4</ele>
        <time>2020-10-11T08:01:09Z</time>
      </trkpt>
      <trkpt lat="46.74429" lon="0.42034">
        <ele>136.6</ele>
        <time>2020-10-11T08:01:11Z</time>
      </trkpt>
      <trkpt lat="46.7443" lon="0.4204">
        <ele>136</ele>
        <time>2020-10-11T08:01:12Z</time>
      </trkpt>
      <trkpt lat="46.74433" lon="0.42043">
        <ele>135.6</ele>
        <time>2020-10-11T08:01:13Z</time>
      </trkpt>
      <trkpt lat="46.74448" lon="0.42047">
        <ele>135.4</ele>
        <time>2020-10-11T08:01:17Z</time>
      </trkpt>
      <trkpt lat="46.7447" lon="0.42054">
        <ele>135.2</ele>
        <time>2020-10-11T08:01:23Z</time>
      </trkpt>
      <trkpt lat="46.74495" lon="0.42068">
        <ele>136</ele>
        <time>2020-10-11T08:01:29Z</time>
      </trkpt>
      <trkpt lat="46.74504" lon="0.42073">
        <ele>136.8</ele>
        <time>2020-10-11T08:01:31Z</time>
      </trkpt>
      <trkpt lat="46.74507" lon="0.42075">
        <ele>137.2</ele>
        <time>2020-10-11T08:01:32Z</time>
      </trkpt>
      <trkpt lat="46.74522" lon="0.42084">
        <ele>138</ele>
        <time>2020-10-11T08:01:36Z</time>
      </trkpt>
      <trkpt lat="46.74529" lon="0.4209">
        <ele>138.6</ele>
        <time>2020-10-11T08:01:38Z</time>
      </trkpt>
      <trkpt lat="46.74553" lon="0.42108">
        <ele>139.6</ele>
        <time>2020-10-11T08:01:45Z</time>
      </trkpt>
      <trkpt lat="46.74557" lon="0.4211">
        <ele>139.8</ele>
        <time>2020-10-11T08:01:46Z</time>
      </trkpt>
      <trkpt lat="46.74572" lon="0.4212">
        <ele>140.6</ele>
        <time>2020-10-11T08:01:50Z</time>
      </trkpt>
      <trkpt lat="46.74595" lon="0.42133">
        <ele>141.2</ele>
        <time>2020-10-11T08:01:56Z</time>
      </trkpt>
      <trkpt lat="46.74599" lon="0.42135">
        <ele>141.2</ele>
        <time>2020-10-11T08:01:57Z</time>
      </trkpt>
      <trkpt lat="46.74609" lon="0.42131">
        <ele>141.4</ele>
        <time>2020-10-11T08:02:00Z</time>
      </trkpt>
      <trkpt lat="46.74622" lon="0.42116">
        <ele>141.8</ele>
        <time>2020-10-11T08:02:04Z</time>
      </trkpt>
      <trkpt lat="46.74628" lon="0.42107">
        <ele>141.8</ele>
        <time>2020-10-11T08:02:06Z</time>
      </trkpt>
      <trkpt lat="46.74645" lon="0.42083">
        <ele>142.8</ele>
        <time>2020-10-11T08:02:11Z</time>
      </trkpt>
      <trkpt lat="46.74655" lon="0.4207">
        <ele>143.2</ele>
        <time>2020-10-11T08:02:14Z</time>
      </trkpt>
      <trkpt lat="46.74686" lon="0.42028">
        <ele>143.6</ele>
        <time>2020-10-11T08:02:23Z</time>
      </trkpt>
      <trkpt lat="46.74689" lon="0.42023">
        <ele>144</ele>
        <time>2020-10-11T08:02:24Z</time>
      </trkpt>
      <trkpt lat="46.74718" lon="0.41984">
        <ele>144</ele>
        <time>2020-10-11T08:02:32Z</time>
      </trkpt>
      <trkpt lat="46.74749" lon="0.41949">
        <ele>144</ele>
        <time>2020-10-11T08:02:39Z</time>
      </trkpt>
      <trkpt lat="46.74771" lon="0.41925">
        <ele>144</ele>
        <time>2020-10-11T08:02:44Z</time>
      </trkpt>
      <trkpt lat="46.74775" lon="0.41921">
        <ele>144</ele>
        <time>2020-10-11T08:02:45Z</time>
      </trkpt>
      <trkpt lat="46.74792" lon="0.41903">
        <ele>144.2</ele>
        <time>2020-10-11T08:02:49Z</time>
      </trkpt>
      <trkpt lat="46.74818" lon="0.41882">
        <ele>143.2</ele>
        <time>2020-10-11T08:02:55Z</time>
      </trkpt>
      <trkpt lat="46.74827" lon="0.41876">
        <ele>143</ele>
        <time>2020-10-11T08:02:57Z</time>
      </trkpt>
      <trkpt lat="46.74855" lon="0.41862">
        <ele>142.6</ele>
        <time>2020-10-11T08:03:03Z</time>
      </trkpt>
      <trkpt lat="46.74902" lon="0.41844">
        <ele>142.8</ele>
        <time>2020-10-11T08:03:13Z</time>
      </trkpt>
      <trkpt lat="46.74929" lon="0.41835">
        <ele>142.2</ele>
        <time>2020-10-11T08:03:19Z</time>
      </trkpt>
      <trkpt lat="46.74937" lon="0.41833">
        <ele>141.8</ele>
        <time>2020-10-11T08:03:21Z</time>
      </trkpt>
      <trkpt lat="46.7495" lon="0.41828">
        <ele>141.8</ele>
        <time>2020-10-11T08:03:24Z</time>
      </trkpt>
      <trkpt lat="46.74959" lon="0.41824">
        <ele>141.8</ele>
        <time>2020-10-11T08:03:26Z</time>
      </trkpt>
      <trkpt lat="46.74977" lon="0.41817">
        <ele>142.2</ele>
        <time>2020-10-11T08:03:30Z</time>
      </trkpt>
      <trkpt lat="46.74983" lon="0.41822">
        <ele>142</ele>
        <time>2020-10-11T08:03:31Z</time>
      </trkpt>
      <trkpt lat="46.74984" lon="0.41827">
        <ele>142</ele>
        <time>2020-10-11T08:03:33Z</time>
      </trkpt>
      <trkpt lat="46.74985" lon="0.41843">
        <ele>141.6</ele>
        <time>2020-10-11T08:03:36Z</time>
      </trkpt>
      <trkpt lat="46.74987" lon="0.41855">
        <ele>141.8</ele>
        <time>2020-10-11T08:03:38Z</time>
      </trkpt>
      <trkpt lat="46.74992" lon="0.41872">
        <ele>142</ele>
        <time>2020-10-11T08:03:41Z</time>
      </trkpt>
      <trkpt lat="46.74994" lon="0.41893">
        <ele>141.6</ele>
        <time>2020-10-11T08:03:44Z</time>
      </trkpt>
      <trkpt lat="46.74996" lon="0.41913">
        <ele>141.6</ele>
        <time>2020-10-11T08:03:47Z</time>
      </trkpt>
      <trkpt lat="46.74994" lon="0.41951">
        <ele>141.4</ele>
        <time>2020-10-11T08:03:52Z</time>
      </trkpt>
      <trkpt lat="46.74994" lon="0.41958">
        <ele>141.2</ele>
        <time>2020-10-11T08:03:53Z</time>
      </trkpt>
      <trkpt lat="46.74994" lon="0.41966">
        <ele>141.2</ele>
        <time>2020-10-11T08:03:54Z</time>
      </trkpt>
      <trkpt lat="46.74998" lon="0.41975">
        <ele>141.4</ele>
        <time>2020-10-11T08:03:56Z</time>
      </trkpt>
      <trkpt lat="46.75021" lon="0.42001">
        <ele>142.2</ele>
        <time>2020-10-11T08:04:03Z</time>
      </trkpt>
      <trkpt lat="46.75032" lon="0.42013">
        <ele>142.6</ele>
        <time>2020-10-11T08:04:06Z</time>
      </trkpt>
      <trkpt lat="46.75038" lon="0.42022">
        <ele>142.6</ele>
        <time>2020-10-11T08:04:08Z</time>
      </trkpt>
      <trkpt lat="46.75042" lon="0.42026">
        <ele>142.6</ele>
        <time>2020-10-11T08:04:09Z</time>
      </trkpt>
      <trkpt lat="46.75064" lon="0.42046">
        <ele>142.4</ele>
        <time>2020-10-11T08:04:15Z</time>
      </trkpt>
      <trkpt lat="46.75089" lon="0.4207">
        <ele>142.6</ele>
        <time>2020-10-11T08:04:21Z</time>
      </trkpt>
      <trkpt lat="46.75093" lon="0.42074">
        <ele>142.4</ele>
        <time>2020-10-11T08:04:22Z</time>
      </trkpt>
      <trkpt lat="46.75099" lon="0.42083">
        <ele>142.6</ele>
        <time>2020-10-11T08:04:24Z</time>
      </trkpt>
      <trkpt lat="46.75105" lon="0.42094">
        <ele>142.6</ele>
        <time>2020-10-11T08:04:26Z</time>
      </trkpt>
      <trkpt lat="46.75108" lon="0.4211">
        <ele>142.6</ele>
        <time>2020-10-11T08:04:28Z</time>
      </trkpt>
      <trkpt lat="46.75111" lon="0.42135">
        <ele>142.6</ele>
        <time>2020-10-11T08:04:31Z</time>
      </trkpt>
      <trkpt lat="46.75112" lon="0.42142">
        <ele>142.6</ele>
        <time>2020-10-11T08:04:32Z</time>
      </trkpt>
      <trkpt lat="46.75113" lon="0.42167">
        <ele>142.4</ele>
        <time>2020-10-11T08:04:36Z</time>
      </trkpt>
      <trkpt lat="46.75112" lon="0.42173">
        <ele>142.4</ele>
        <time>2020-10-11T08:04:37Z</time>
      </trkpt>
      <trkpt lat="46.75108" lon="0.42194">
        <ele>142.6</ele>
        <time>2020-10-11T08:04:41Z</time>
      </trkpt>
      <trkpt lat="46.75105" lon="0.42205">
        <ele>142.8</ele>
        <time>2020-10-11T08:04:43Z</time>
      </trkpt>
      <trkpt lat="46.75102" lon="0.42216">
        <ele>143</ele>
        <time>2020-10-11T08:04:45Z</time>
      </trkpt>
      <trkpt lat="46.75096" lon="0.42226">
        <ele>143.2</ele>
        <time>2020-10-11T08:04:47Z</time>
      </trkpt>
      <trkpt lat="46.75074" lon="0.42264">
        <ele>143.6</ele>
        <time>2020-10-11T08:04:54Z</time>
      </trkpt>
      <trkpt lat="46.7507" lon="0.42273">
        <ele>143.8</ele>
        <time>2020-10-11T08:04:56Z</time>
      </trkpt>
      <trkpt lat="46.75052" lon="0.42302">
        <ele>144.8</ele>
        <time>2020-10-11T08:05:01Z</time>
      </trkpt>
      <trkpt lat="46.75045" lon="0.42316">
        <ele>144.8</ele>
        <time>2020-10-11T08:05:03Z</time>
      </trkpt>
      <trkpt lat="46.75039" lon="0.42332">
        <ele>144.8</ele>
        <time>2020-10-11T08:05:05Z</time>
      </trkpt>
      <trkpt lat="46.75025" lon="0.42384">
        <ele>144.8</ele>
        <time>2020-10-11T08:05:12Z</time>
      </trkpt>
      <trkpt lat="46.75022" lon="0.42398">
        <ele>145</ele>
        <time>2020-10-11T08:05:14Z</time>
      </trkpt>
      <trkpt lat="46.75018" lon="0.42425">
        <ele>145.4</ele>
        <time>2020-10-11T08:05:18Z</time>
      </trkpt>
      <trkpt lat="46.7502" lon="0.42436">
        <ele>145.8</ele>
        <time>2020-10-11T08:05:20Z</time>
      </trkpt>
      <trkpt lat="46.75031" lon="0.42453">
        <ele>145.8</ele>
        <time>2020-10-11T08:05:24Z</time>
      </trkpt>
      <trkpt lat="46.75035" lon="0.42457">
        <ele>145.8</ele>
        <time>2020-10-11T08:05:25Z</time>
      </trkpt>
      <trkpt lat="46.75054" lon="0.42488">
        <ele>146</ele>
        <time>2020-10-11T08:05:31Z</time>
      </trkpt>
      <trkpt lat="46.75061" lon="0.42498">
        <ele>146.4</ele>
        <time>2020-10-11T08:05:33Z</time>
      </trkpt>
      <trkpt lat="46.75083" lon="0.42532">
        <ele>146.6</ele>
        <time>2020-10-11T08:05:40Z</time>
      </trkpt>
      <trkpt lat="46.75089" lon="0.42539">
        <ele>146.6</ele>
        <time>2020-10-11T08:05:42Z</time>
      </trkpt>
      <trkpt lat="46.75096" lon="0.42551">
        <ele>146.6</ele>
        <time>2020-10-11T08:05:45Z</time>
      </trkpt>
      <trkpt lat="46.75115" lon="0.42577">
        <ele>146.8</ele>
        <time>2020-10-11T08:05:51Z</time>
      </trkpt>
      <trkpt lat="46.75126" lon="0.42595">
        <ele>147.2</ele>
        <time>2020-10-11T08:05:54Z</time>
      </trkpt>
      <trkpt lat="46.75138" lon="0.42616">
        <ele>147.2</ele>
        <time>2020-10-11T08:05:57Z</time>
      </trkpt>
      <trkpt lat="46.75171" lon="0.4269">
        <ele>147.2</ele>
        <time>2020-10-11T08:06:07Z</time>
      </trkpt>
      <trkpt lat="46.75197" lon="0.42747">
        <ele>147</ele>
        <time>2020-10-11T08:06:15Z</time>
      </trkpt>
      <trkpt lat="46.75224" lon="0.42795">
        <ele>147.2</ele>
        <time>2020-10-11T08:06:22Z</time>
      </trkpt>
      <trkpt lat="46.75237" lon="0.42817">
        <ele>146</ele>
        <time>2020-10-11T08:06:25Z</time>
      </trkpt>
      <trkpt lat="46.7524" lon="0.42825">
        <ele>145.6</ele>
        <time>2020-10-11T08:06:26Z</time>
      </trkpt>
      <trkpt lat="46.75246" lon="0.42843">
        <ele>145</ele>
        <time>2020-10-11T08:06:28Z</time>
      </trkpt>
      <trkpt lat="46.75251" lon="0.42857">
        <ele>144</ele>
        <time>2020-10-11T08:06:30Z</time>
      </trkpt>
      <trkpt lat="46.75254" lon="0.42861">
        <ele>143.6</ele>
        <time>2020-10-11T08:06:31Z</time>
      </trkpt>
      <trkpt lat="46.75258" lon="0.42862">
        <ele>143.6</ele>
        <time>2020-10-11T08:06:32Z</time>
      </trkpt>
      <trkpt lat="46.75262" lon="0.42859">
        <ele>143.4</ele>
        <time>2020-10-11T08:06:33Z</time>
      </trkpt>
      <trkpt lat="46.75282" lon="0.42835">
        <ele>143.6</ele>
        <time>2020-10-11T08:06:38Z</time>
      </trkpt>
      <trkpt lat="46.75309" lon="0.42791">
        <ele>144.2</ele>
        <time>2020-10-11T08:06:44Z</time>
      </trkpt>
      <trkpt lat="46.75345" lon="0.4273">
        <ele>143.6</ele>
        <time>2020-10-11T08:06:52Z</time>
      </trkpt>
      <trkpt lat="46.7535" lon="0.42722">
        <ele>143.6</ele>
        <time>2020-10-11T08:06:53Z</time>
      </trkpt>
      <trkpt lat="46.75387" lon="0.42677">
        <ele>143.4</ele>
        <time>2020-10-11T08:07:00Z</time>
      </trkpt>
      <trkpt lat="46.75417" lon="0.42645">
        <ele>142.8</ele>
        <time>2020-10-11T08:07:06Z</time>
      </trkpt>
      <trkpt lat="46.75427" lon="0.42636">
        <ele>142.6</ele>
        <time>2020-10-11T08:07:08Z</time>
      </trkpt>
      <trkpt lat="46.75465" lon="0.426">
        <ele>141.4</ele>
        <time>2020-10-11T08:07:16Z</time>
      </trkpt>
      <trkpt lat="46.7547" lon="0.42596">
        <ele>141.2</ele>
        <time>2020-10-11T08:07:17Z</time>
      </trkpt>
      <trkpt lat="46.75474" lon="0.42591">
        <ele>141</ele>
        <time>2020-10-11T08:07:18Z</time>
      </trkpt>
      <trkpt lat="46.75482" lon="0.42582">
        <ele>140.8</ele>
        <time>2020-10-11T08:07:20Z</time>
      </trkpt>
      <trkpt lat="46.75487" lon="0.42581">
        <ele>140.8</ele>
        <time>2020-10-11T08:07:21Z</time>
      </trkpt>
      <trkpt lat="46.75491" lon="0.42583">
        <ele>140.8</ele>
        <time>2020-10-11T08:07:22Z</time>
      </trkpt>
      <trkpt lat="46.75499" lon="0.42592">
        <ele>140.6</ele>
        <time>2020-10-11T08:07:24Z</time>
      </trkpt>
      <trkpt lat="46.75509" lon="0.42605">
        <ele>140.4</ele>
        <time>2020-10-11T08:07:27Z</time>
      </trkpt>
      <trkpt lat="46.75512" lon="0.42609">
        <ele>140.2</ele>
        <time>2020-10-11T08:07:28Z</time>
      </trkpt>
      <trkpt lat="46.75515" lon="0.42612">
        <ele>140</ele>
        <time>2020-10-11T08:07:29Z</time>
      </trkpt>
      <trkpt lat="46.7552" lon="0.42613">
        <ele>140.2</ele>
        <time>2020-10-11T08:07:31Z</time>
      </trkpt>
      <trkpt lat="46.75523" lon="0.4261">
        <ele>139.8</ele>
        <time>2020-10-11T08:07:32Z</time>
      </trkpt>
      <trkpt lat="46.75533" lon="0.42597">
        <ele>139.6</ele>
        <time>2020-10-11T08:07:35Z</time>
      </trkpt>
      <trkpt lat="46.75537" lon="0.42591">
        <ele>139.6</ele>
        <time>2020-10-11T08:07:36Z</time>
      </trkpt>
      <trkpt lat="46.75567" lon="0.42547">
        <ele>139.2</ele>
        <time>2020-10-11T08:07:43Z</time>
      </trkpt>
      <trkpt lat="46.75578" lon="0.42531">
        <ele>139.4</ele>
        <time>2020-10-11T08:07:46Z</time>
      </trkpt>
      <trkpt lat="46.75581" lon="0.42528">
        <ele>139.4</ele>
        <time>2020-10-11T08:07:47Z</time>
      </trkpt>
      <trkpt lat="46.75583" lon="0.42527">
        <ele>139.2</ele>
        <time>2020-10-11T08:07:48Z</time>
      </trkpt>
      <trkpt lat="46.75584" lon="0.42527">
        <ele>138.8</ele>
        <time>2020-10-11T08:07:49Z</time>
      </trkpt>
      <trkpt lat="46.75587" lon="0.42527">
        <ele>138.2</ele>
        <time>2020-10-11T08:07:51Z</time>
      </trkpt>
      <trkpt lat="46.75591" lon="0.42528">
        <ele>138</ele>
        <time>2020-10-11T08:07:53Z</time>
      </trkpt>
      <trkpt lat="46.75595" lon="0.42529">
        <ele>137.6</ele>
        <time>2020-10-11T08:07:55Z</time>
      </trkpt>
      <trkpt lat="46.75603" lon="0.42534">
        <ele>137.4</ele>
        <time>2020-10-11T08:07:59Z</time>
      </trkpt>
      <trkpt lat="46.75616" lon="0.42531">
        <ele>137.6</ele>
        <time>2020-10-11T08:08:05Z</time>
      </trkpt>
      <trkpt lat="46.75618" lon="0.42531">
        <ele>137.4</ele>
        <time>2020-10-11T08:08:06Z</time>
      </trkpt>
      <trkpt lat="46.75622" lon="0.42534">
        <ele>137</ele>
        <time>2020-10-11T08:08:08Z</time>
      </trkpt>
      <trkpt lat="46.75623" lon="0.42534">
        <ele>137</ele>
        <time>2020-10-11T08:08:09Z</time>
      </trkpt>
      <trkpt lat="46.75629" lon="0.42532">
        <ele>136.6</ele>
        <time>2020-10-11T08:08:12Z</time>
      </trkpt>
      <trkpt lat="46.75631" lon="0.42534">
        <ele>136.4</ele>
        <time>2020-10-11T08:08:13Z</time>
      </trkpt>
      <trkpt lat="46.75636" lon="0.4254">
        <ele>136.2</ele>
        <time>2020-10-11T08:08:16Z</time>
      </trkpt>
      <trkpt lat="46.75639" lon="0.42542">
        <ele>136</ele>
        <time>2020-10-11T08:08:17Z</time>
      </trkpt>
      <trkpt lat="46.75644" lon="0.42542">
        <ele>136</ele>
        <time>2020-10-11T08:08:19Z</time>
      </trkpt>
      <trkpt lat="46.75648" lon="0.42539">
        <ele>136.2</ele>
        <time>2020-10-11T08:08:21Z</time>
      </trkpt>
      <trkpt lat="46.75653" lon="0.4254">
        <ele>136</ele>
        <time>2020-10-11T08:08:23Z</time>
      </trkpt>
      <trkpt lat="46.75655" lon="0.42542">
        <ele>135.8</ele>
        <time>2020-10-11T08:08:24Z</time>
      </trkpt>
      <trkpt lat="46.75658" lon="0.42542">
        <ele>135.6</ele>
        <time>2020-10-11T08:08:25Z</time>
      </trkpt>
      <trkpt lat="46.75663" lon="0.42542">
        <ele>135.4</ele>
        <time>2020-10-11T08:08:27Z</time>
      </trkpt>
      <trkpt lat="46.75666" lon="0.42539">
        <ele>135.2</ele>
        <time>2020-10-11T08:08:29Z</time>
      </trkpt>
      <trkpt lat="46.75669" lon="0.4253">
        <ele>134.8</ele>
        <time>2020-10-11T08:08:32Z</time>
      </trkpt>
      <trkpt lat="46.75671" lon="0.42526">
        <ele>134.6</ele>
        <time>2020-10-11T08:08:33Z</time>
      </trkpt>
      <trkpt lat="46.75672" lon="0.42523">
        <ele>134.4</ele>
        <time>2020-10-11T08:08:34Z</time>
      </trkpt>
      <trkpt lat="46.75674" lon="0.4252">
        <ele>134.4</ele>
        <time>2020-10-11T08:08:35Z</time>
      </trkpt>
      <trkpt lat="46.75679" lon="0.42512">
        <ele>133.6</ele>
        <time>2020-10-11T08:08:37Z</time>
      </trkpt>
      <trkpt lat="46.75683" lon="0.42508">
        <ele>133.2</ele>
        <time>2020-10-11T08:08:38Z</time>
      </trkpt>
      <trkpt lat="46.75687" lon="0.42504">
        <ele>132.8</ele>
        <time>2020-10-11T08:08:39Z</time>
      </trkpt>
      <trkpt lat="46.7569" lon="0.42501">
        <ele>132.4</ele>
        <time>2020-10-11T08:08:40Z</time>
      </trkpt>
      <trkpt lat="46.75693" lon="0.42498">
        <ele>132.2</ele>
        <time>2020-10-11T08:08:41Z</time>
      </trkpt>
      <trkpt lat="46.75696" lon="0.42496">
        <ele>131.8</ele>
        <time>2020-10-11T08:08:42Z</time>
      </trkpt>
      <trkpt lat="46.75701" lon="0.4249">
        <ele>131.4</ele>
        <time>2020-10-11T08:08:44Z</time>
      </trkpt>
      <trkpt lat="46.75707" lon="0.4248">
        <ele>130.8</ele>
        <time>2020-10-11T08:08:47Z</time>
      </trkpt>
      <trkpt lat="46.75722" lon="0.42467">
        <ele>131</ele>
        <time>2020-10-11T08:08:52Z</time>
      </trkpt>
      <trkpt lat="46.75731" lon="0.42456">
        <ele>132.2</ele>
        <time>2020-10-11T08:08:56Z</time>
      </trkpt>
      <trkpt lat="46.75733" lon="0.42453">
        <ele>132.4</ele>
        <time>2020-10-11T08:08:57Z</time>
      </trkpt>
      <trkpt lat="46.75748" lon="0.42435">
        <ele>133.2</ele>
        <time>2020-10-11T08:09:02Z</time>
      </trkpt>
      <trkpt lat="46.75751" lon="0.4243">
        <ele>133.4</ele>
        <time>2020-10-11T08:09:03Z</time>
      </trkpt>
      <trkpt lat="46.75763" lon="0.42416">
        <ele>134</ele>
        <time>2020-10-11T08:09:07Z</time>
      </trkpt>
      <trkpt lat="46.7577" lon="0.42407">
        <ele>134</ele>
        <time>2020-10-11T08:09:11Z</time>
      </trkpt>
      <trkpt lat="46.75767" lon="0.42387">
        <ele>134</ele>
        <time>2020-10-11T08:09:16Z</time>
      </trkpt>
      <trkpt lat="46.75763" lon="0.4238">
        <ele>134.4</ele>
        <time>2020-10-11T08:09:18Z</time>
      </trkpt>
      <trkpt lat="46.75761" lon="0.42376">
        <ele>134.6</ele>
        <time>2020-10-11T08:09:19Z</time>
      </trkpt>
      <trkpt lat="46.75757" lon="0.4237">
        <ele>135</ele>
        <time>2020-10-11T08:09:21Z</time>
      </trkpt>
      <trkpt lat="46.75753" lon="0.42364">
        <ele>135.4</ele>
        <time>2020-10-11T08:09:23Z</time>
      </trkpt>
      <trkpt lat="46.75748" lon="0.42356">
        <ele>135.6</ele>
        <time>2020-10-11T08:09:26Z</time>
      </trkpt>
      <trkpt lat="46.75741" lon="0.42343">
        <ele>135.8</ele>
        <time>2020-10-11T08:09:30Z</time>
      </trkpt>
      <trkpt lat="46.7573" lon="0.42329">
        <ele>135.8</ele>
        <time>2020-10-11T08:09:36Z</time>
      </trkpt>
      <trkpt lat="46.75719" lon="0.42332">
        <ele>136.2</ele>
        <time>2020-10-11T08:09:40Z</time>
      </trkpt>
      <trkpt lat="46.75697" lon="0.42344">
        <ele>136.4</ele>
        <time>2020-10-11T08:09:46Z</time>
      </trkpt>
      <trkpt lat="46.75665" lon="0.42366">
        <ele>136</ele>
        <time>2020-10-11T08:09:53Z</time>
      </trkpt>
      <trkpt lat="46.75633" lon="0.42393">
        <ele>135</ele>
        <time>2020-10-11T08:09:59Z</time>
      </trkpt>
      <trkpt lat="46.75621" lon="0.42403">
        <ele>135</ele>
        <time>2020-10-11T08:10:01Z</time>
      </trkpt>
      <trkpt lat="46.7561" lon="0.42404">
        <ele>135</ele>
        <time>2020-10-11T08:10:03Z</time>
      </trkpt>
      <trkpt lat="46.75599" lon="0.42395">
        <ele>135</ele>
        <time>2020-10-11T08:10:05Z</time>
      </trkpt>
      <trkpt lat="46.75594" lon="0.4239">
        <ele>135</ele>
        <time>2020-10-11T08:10:06Z</time>
      </trkpt>
      <trkpt lat="46.75557" lon="0.42359">
        <ele>135.8</ele>
        <time>2020-10-11T08:10:13Z</time>
      </trkpt>
      <trkpt lat="46.75525" lon="0.42324">
        <ele>135.6</ele>
        <time>2020-10-11T08:10:20Z</time>
      </trkpt>
      <trkpt lat="46.75497" lon="0.42294">
        <ele>136.2</ele>
        <time>2020-10-11T08:10:26Z</time>
      </trkpt>
      <trkpt lat="46.75473" lon="0.42268">
        <ele>136.4</ele>
        <time>2020-10-11T08:10:32Z</time>
      </trkpt>
      <trkpt lat="46.75461" lon="0.42257">
        <ele>136.8</ele>
        <time>2020-10-11T08:10:35Z</time>
      </trkpt>
      <trkpt lat="46.75444" lon="0.42242">
        <ele>137.2</ele>
        <time>2020-10-11T08:10:39Z</time>
      </trkpt>
      <trkpt lat="46.75427" lon="0.42225">
        <ele>137.6</ele>
        <time>2020-10-11T08:10:43Z</time>
      </trkpt>
      <trkpt lat="46.75424" lon="0.42213">
        <ele>137.8</ele>
        <time>2020-10-11T08:10:45Z</time>
      </trkpt>
      <trkpt lat="46.75424" lon="0.42207">
        <ele>137.8</ele>
        <time>2020-10-11T08:10:46Z</time>
      </trkpt>
      <trkpt lat="46.75425" lon="0.422">
        <ele>138</ele>
        <time>2020-10-11T08:10:47Z</time>
      </trkpt>
      <trkpt lat="46.75426" lon="0.42185">
        <ele>138.2</ele>
        <time>2020-10-11T08:10:49Z</time>
      </trkpt>
      <trkpt lat="46.75426" lon="0.42177">
        <ele>138.4</ele>
        <time>2020-10-11T08:10:50Z</time>
      </trkpt>
      <trkpt lat="46.75426" lon="0.42144">
        <ele>138.4</ele>
        <time>2020-10-11T08:10:54Z</time>
      </trkpt>
      <trkpt lat="46.75427" lon="0.42087">
        <ele>138.6</ele>
        <time>2020-10-11T08:11:01Z</time>
      </trkpt>
      <trkpt lat="46.75429" lon="0.42054">
        <ele>139</ele>
        <time>2020-10-11T08:11:05Z</time>
      </trkpt>
      <trkpt lat="46.7543" lon="0.42033">
        <ele>139</ele>
        <time>2020-10-11T08:11:08Z</time>
      </trkpt>
      <trkpt lat="46.75432" lon="0.41999">
        <ele>138.8</ele>
        <time>2020-10-11T08:11:13Z</time>
      </trkpt>
      <trkpt lat="46.75433" lon="0.41984">
        <ele>138.8</ele>
        <time>2020-10-11T08:11:15Z</time>
      </trkpt>
      <trkpt lat="46.75432" lon="0.41932">
        <ele>139</ele>
        <time>2020-10-11T08:11:22Z</time>
      </trkpt>
      <trkpt lat="46.75428" lon="0.41882">
        <ele>139.2</ele>
        <time>2020-10-11T08:11:29Z</time>
      </trkpt>
      <trkpt lat="46.75424" lon="0.41815">
        <ele>140</ele>
        <time>2020-10-11T08:11:38Z</time>
      </trkpt>
      <trkpt lat="46.7542" lon="0.41759">
        <ele>140.4</ele>
        <time>2020-10-11T08:11:46Z</time>
      </trkpt>
      <trkpt lat="46.75415" lon="0.41704">
        <ele>140.6</ele>
        <time>2020-10-11T08:11:54Z</time>
      </trkpt>
      <trkpt lat="46.75414" lon="0.41697">
        <ele>140.6</ele>
        <time>2020-10-11T08:11:55Z</time>
      </trkpt>
      <trkpt lat="46.75414" lon="0.41684">
        <ele>140.8</ele>
        <time>2020-10-11T08:11:57Z</time>
      </trkpt>
      <trkpt lat="46.75415" lon="0.41673">
        <ele>141</ele>
        <time>2020-10-11T08:11:59Z</time>
      </trkpt>
      <trkpt lat="46.75416" lon="0.41668">
        <ele>141.2</ele>
        <time>2020-10-11T08:12:00Z</time>
      </trkpt>
      <trkpt lat="46.75419" lon="0.41649">
        <ele>141.2</ele>
        <time>2020-10-11T08:12:04Z</time>
      </trkpt>
      <trkpt lat="46.75421" lon="0.41646">
        <ele>141.4</ele>
        <time>2020-10-11T08:12:05Z</time>
      </trkpt>
      <trkpt lat="46.75426" lon="0.41644">
        <ele>141.4</ele>
        <time>2020-10-11T08:12:07Z</time>
      </trkpt>
      <trkpt lat="46.75442" lon="0.4165">
        <ele>141.2</ele>
        <time>2020-10-11T08:12:12Z</time>
      </trkpt>
      <trkpt lat="46.75449" lon="0.41655">
        <ele>141</ele>
        <time>2020-10-11T08:12:14Z</time>
      </trkpt>
      <trkpt lat="46.75465" lon="0.41668">
        <ele>141</ele>
        <time>2020-10-11T08:12:18Z</time>
      </trkpt>
      <trkpt lat="46.75498" lon="0.41699">
        <ele>141</ele>
        <time>2020-10-11T08:12:25Z</time>
      </trkpt>
      <trkpt lat="46.75529" lon="0.41735">
        <ele>141.8</ele>
        <time>2020-10-11T08:12:32Z</time>
      </trkpt>
      <trkpt lat="46.75543" lon="0.41751">
        <ele>141.4</ele>
        <time>2020-10-11T08:12:35Z</time>
      </trkpt>
      <trkpt lat="46.75556" lon="0.41769">
        <ele>141.2</ele>
        <time>2020-10-11T08:12:38Z</time>
      </trkpt>
      <trkpt lat="46.75593" lon="0.41818">
        <ele>140.8</ele>
        <time>2020-10-11T08:12:46Z</time>
      </trkpt>
      <trkpt lat="46.75625" lon="0.41857">
        <ele>141</ele>
        <time>2020-10-11T08:12:53Z</time>
      </trkpt>
      <trkpt lat="46.75654" lon="0.41889">
        <ele>141.2</ele>
        <time>2020-10-11T08:12:59Z</time>
      </trkpt>
      <trkpt lat="46.75665" lon="0.41897">
        <ele>141</ele>
        <time>2020-10-11T08:13:01Z</time>
      </trkpt>
      <trkpt lat="46.75694" lon="0.41907">
        <ele>140.6</ele>
        <time>2020-10-11T08:13:06Z</time>
      </trkpt>
      <trkpt lat="46.75729" lon="0.4192">
        <ele>140.2</ele>
        <time>2020-10-11T08:13:12Z</time>
      </trkpt>
      <trkpt lat="46.75735" lon="0.41923">
        <ele>139.8</ele>
        <time>2020-10-11T08:13:13Z</time>
      </trkpt>
      <trkpt lat="46.75764" lon="0.41939">
        <ele>139.8</ele>
        <time>2020-10-11T08:13:18Z</time>
      </trkpt>
      <trkpt lat="46.75787" lon="0.41958">
        <ele>139.8</ele>
        <time>2020-10-11T08:13:22Z</time>
      </trkpt>
      <trkpt lat="46.75792" lon="0.41964">
        <ele>139.6</ele>
        <time>2020-10-11T08:13:23Z</time>
      </trkpt>
      <trkpt lat="46.75814" lon="0.41987">
        <ele>138.8</ele>
        <time>2020-10-11T08:13:27Z</time>
      </trkpt>
      <trkpt lat="46.75836" lon="0.42008">
        <ele>138.2</ele>
        <time>2020-10-11T08:13:31Z</time>
      </trkpt>
      <trkpt lat="46.75841" lon="0.42013">
        <ele>138</ele>
        <time>2020-10-11T08:13:32Z</time>
      </trkpt>
      <trkpt lat="46.75847" lon="0.42018">
        <ele>137.6</ele>
        <time>2020-10-11T08:13:33Z</time>
      </trkpt>
      <trkpt lat="46.75851" lon="0.42024">
        <ele>137.6</ele>
        <time>2020-10-11T08:13:34Z</time>
      </trkpt>
      <trkpt lat="46.75856" lon="0.42031">
        <ele>137.4</ele>
        <time>2020-10-11T08:13:35Z</time>
      </trkpt>
      <trkpt lat="46.75871" lon="0.42048">
        <ele>137</ele>
        <time>2020-10-11T08:13:38Z</time>
      </trkpt>
      <trkpt lat="46.75884" lon="0.42064">
        <ele>137.2</ele>
        <time>2020-10-11T08:13:41Z</time>
      </trkpt>
      <trkpt lat="46.75903" lon="0.42087">
        <ele>136.8</ele>
        <time>2020-10-11T08:13:46Z</time>
      </trkpt>
      <trkpt lat="46.75911" lon="0.42095">
        <ele>136.4</ele>
        <time>2020-10-11T08:13:48Z</time>
      </trkpt>
      <trkpt lat="46.75915" lon="0.42099">
        <ele>136.2</ele>
        <time>2020-10-11T08:13:49Z</time>
      </trkpt>
      <trkpt lat="46.75923" lon="0.42107">
        <ele>135.8</ele>
        <time>2020-10-11T08:13:51Z</time>
      </trkpt>
      <trkpt lat="46.75934" lon="0.42119">
        <ele>135.4</ele>
        <time>2020-10-11T08:13:54Z</time>
      </trkpt>
      <trkpt lat="46.75946" lon="0.42132">
        <ele>135.2</ele>
        <time>2020-10-11T08:13:57Z</time>
      </trkpt>
      <trkpt lat="46.75978" lon="0.42168">
        <ele>136.2</ele>
        <time>2020-10-11T08:14:04Z</time>
      </trkpt>
      <trkpt lat="46.75984" lon="0.42173">
        <ele>136.6</ele>
        <time>2020-10-11T08:14:05Z</time>
      </trkpt>
      <trkpt lat="46.76012" lon="0.42206">
        <ele>137.4</ele>
        <time>2020-10-11T08:14:10Z</time>
      </trkpt>
      <trkpt lat="46.76044" lon="0.42244">
        <ele>136.2</ele>
        <time>2020-10-11T08:14:16Z</time>
      </trkpt>
      <trkpt lat="46.76048" lon="0.4225">
        <ele>136.2</ele>
        <time>2020-10-11T08:14:17Z</time>
      </trkpt>
      <trkpt lat="46.76063" lon="0.42275">
        <ele>136.4</ele>
        <time>2020-10-11T08:14:21Z</time>
      </trkpt>
      <trkpt lat="46.76079" lon="0.42299">
        <ele>136.8</ele>
        <time>2020-10-11T08:14:26Z</time>
      </trkpt>
      <trkpt lat="46.76082" lon="0.42303">
        <ele>137.2</ele>
        <time>2020-10-11T08:14:27Z</time>
      </trkpt>
      <trkpt lat="46.76084" lon="0.42306">
        <ele>137.2</ele>
        <time>2020-10-11T08:14:28Z</time>
      </trkpt>
      <trkpt lat="46.76084" lon="0.42306">
        <ele>137.6</ele>
        <time>2020-10-11T08:14:29Z</time>
      </trkpt>
      <trkpt lat="46.76085" lon="0.42316">
        <ele>137.4</ele>
        <time>2020-10-11T08:14:32Z</time>
      </trkpt>
      <trkpt lat="46.76084" lon="0.42317">
        <ele>137.4</ele>
        <time>2020-10-11T08:14:33Z</time>
      </trkpt>
      <trkpt lat="46.76082" lon="0.42318">
        <ele>137.4</ele>
        <time>2020-10-11T08:14:34Z</time>
      </trkpt>
      <trkpt lat="46.76077" lon="0.42322">
        <ele>137</ele>
        <time>2020-10-11T08:14:37Z</time>
      </trkpt>
      <trkpt lat="46.76076" lon="0.42335">
        <ele>137</ele>
        <time>2020-10-11T08:14:42Z</time>
      </trkpt>
      <trkpt lat="46.76074" lon="0.42339">
        <ele>136.8</ele>
        <time>2020-10-11T08:14:43Z</time>
      </trkpt>
      <trkpt lat="46.76073" lon="0.42343">
        <ele>136.8</ele>
        <time>2020-10-11T08:14:44Z</time>
      </trkpt>
      <trkpt lat="46.76068" lon="0.42352">
        <ele>136.6</ele>
        <time>2020-10-11T08:14:46Z</time>
      </trkpt>
      <trkpt lat="46.76066" lon="0.42355">
        <ele>136.4</ele>
        <time>2020-10-11T08:14:47Z</time>
      </trkpt>
      <trkpt lat="46.76063" lon="0.42359">
        <ele>136.2</ele>
        <time>2020-10-11T08:14:48Z</time>
      </trkpt>
      <trkpt lat="46.76054" lon="0.42368">
        <ele>136.2</ele>
        <time>2020-10-11T08:14:52Z</time>
      </trkpt>
      <trkpt lat="46.76052" lon="0.42372">
        <ele>136.2</ele>
        <time>2020-10-11T08:14:53Z</time>
      </trkpt>
      <trkpt lat="46.76049" lon="0.42375">
        <ele>136.2</ele>
        <time>2020-10-11T08:14:54Z</time>
      </trkpt>
      <trkpt lat="46.76042" lon="0.42379">
        <ele>136</ele>
        <time>2020-10-11T08:14:56Z</time>
      </trkpt>
      <trkpt lat="46.76038" lon="0.4238">
        <ele>136</ele>
        <time>2020-10-11T08:14:57Z</time>
      </trkpt>
      <trkpt lat="46.76036" lon="0.4238">
        <ele>135.8</ele>
        <time>2020-10-11T08:14:58Z</time>
      </trkpt>
      <trkpt lat="46.76032" lon="0.42386">
        <ele>135.4</ele>
        <time>2020-10-11T08:15:00Z</time>
      </trkpt>
      <trkpt lat="46.76031" lon="0.42389">
        <ele>135.2</ele>
        <time>2020-10-11T08:15:01Z</time>
      </trkpt>
      <trkpt lat="46.7603" lon="0.42394">
        <ele>135.2</ele>
        <time>2020-10-11T08:15:02Z</time>
      </trkpt>
      <trkpt lat="46.76028" lon="0.42402">
        <ele>135</ele>
        <time>2020-10-11T08:15:04Z</time>
      </trkpt>
      <trkpt lat="46.76026" lon="0.42408">
        <ele>135</ele>
        <time>2020-10-11T08:15:05Z</time>
      </trkpt>
      <trkpt lat="46.76024" lon="0.42414">
        <ele>135</ele>
        <time>2020-10-11T08:15:06Z</time>
      </trkpt>
      <trkpt lat="46.7602" lon="0.42425">
        <ele>134.8</ele>
        <time>2020-10-11T08:15:08Z</time>
      </trkpt>
      <trkpt lat="46.76019" lon="0.42428">
        <ele>134.8</ele>
        <time>2020-10-11T08:15:09Z</time>
      </trkpt>
      <trkpt lat="46.76019" lon="0.42428">
        <ele>134</ele>
        <time>2020-10-11T08:15:12Z</time>
      </trkpt>
      <trkpt lat="46.76012" lon="0.42443">
        <ele>134</ele>
        <time>2020-10-11T08:15:13Z</time>
      </trkpt>
      <trkpt lat="46.76012" lon="0.42448">
        <ele>133.8</ele>
        <time>2020-10-11T08:15:14Z</time>
      </trkpt>
      <trkpt lat="46.76011" lon="0.42454">
        <ele>133.8</ele>
        <time>2020-10-11T08:15:15Z</time>
      </trkpt>
      <trkpt lat="46.76011" lon="0.42467">
        <ele>133.8</ele>
        <time>2020-10-11T08:15:17Z</time>
      </trkpt>
      <trkpt lat="46.76014" lon="0.42478">
        <ele>134.2</ele>
        <time>2020-10-11T08:15:19Z</time>
      </trkpt>
      <trkpt lat="46.76015" lon="0.42484">
        <ele>134</ele>
        <time>2020-10-11T08:15:20Z</time>
      </trkpt>
      <trkpt lat="46.76016" lon="0.42494">
        <ele>133.6</ele>
        <time>2020-10-11T08:15:22Z</time>
      </trkpt>
      <trkpt lat="46.76016" lon="0.42504">
        <ele>133.4</ele>
        <time>2020-10-11T08:15:24Z</time>
      </trkpt>
      <trkpt lat="46.76016" lon="0.42508">
        <ele>133.2</ele>
        <time>2020-10-11T08:15:25Z</time>
      </trkpt>
      <trkpt lat="46.76017" lon="0.42513">
        <ele>132.8</ele>
        <time>2020-10-11T08:15:26Z</time>
      </trkpt>
      <trkpt lat="46.76016" lon="0.42521">
        <ele>132.6</ele>
        <time>2020-10-11T08:15:28Z</time>
      </trkpt>
      <trkpt lat="46.76014" lon="0.42527">
        <ele>132.2</ele>
        <time>2020-10-11T08:15:30Z</time>
      </trkpt>
      <trkpt lat="46.76008" lon="0.42533">
        <ele>132</ele>
        <time>2020-10-11T08:15:32Z</time>
      </trkpt>
      <trkpt lat="46.76001" lon="0.42546">
        <ele>131.8</ele>
        <time>2020-10-11T08:15:35Z</time>
      </trkpt>
      <trkpt lat="46.75996" lon="0.42554">
        <ele>131.6</ele>
        <time>2020-10-11T08:15:37Z</time>
      </trkpt>
      <trkpt lat="46.75994" lon="0.42557">
        <ele>131.4</ele>
        <time>2020-10-11T08:15:38Z</time>
      </trkpt>
      <trkpt lat="46.75989" lon="0.42562">
        <ele>130.4</ele>
        <time>2020-10-11T08:15:40Z</time>
      </trkpt>
      <trkpt lat="46.75984" lon="0.42571">
        <ele>129.8</ele>
        <time>2020-10-11T08:15:43Z</time>
      </trkpt>
      <trkpt lat="46.75983" lon="0.42575">
        <ele>129.6</ele>
        <time>2020-10-11T08:15:44Z</time>
      </trkpt>
      <trkpt lat="46.75983" lon="0.42577">
        <ele>129.4</ele>
        <time>2020-10-11T08:15:45Z</time>
      </trkpt>
      <trkpt lat="46.75983" lon="0.42578">
        <ele>129.4</ele>
        <time>2020-10-11T08:15:46Z</time>
      </trkpt>
      <trkpt lat="46.75985" lon="0.42583">
        <ele>129.4</ele>
        <time>2020-10-11T08:15:49Z</time>
      </trkpt>
      <trkpt lat="46.75984" lon="0.42587">
        <ele>129.2</ele>
        <time>2020-10-11T08:15:50Z</time>
      </trkpt>
      <trkpt lat="46.75984" lon="0.426">
        <ele>128.8</ele>
        <time>2020-10-11T08:15:54Z</time>
      </trkpt>
      <trkpt lat="46.75982" lon="0.42602">
        <ele>128.4</ele>
        <time>2020-10-11T08:15:55Z</time>
      </trkpt>
      <trkpt lat="46.7598" lon="0.42604">
        <ele>128</ele>
        <time>2020-10-11T08:15:56Z</time>
      </trkpt>
      <trkpt lat="46.75977" lon="0.42611">
        <ele>126.6</ele>
        <time>2020-10-11T08:15:58Z</time>
      </trkpt>
      <trkpt lat="46.75975" lon="0.42615">
        <ele>125.8</ele>
        <time>2020-10-11T08:15:59Z</time>
      </trkpt>
      <trkpt lat="46.75974" lon="0.42618">
        <ele>125.4</ele>
        <time>2020-10-11T08:16:00Z</time>
      </trkpt>
      <trkpt lat="46.75973" lon="0.42632">
        <ele>124.2</ele>
        <time>2020-10-11T08:16:04Z</time>
      </trkpt>
      <trkpt lat="46.7597" lon="0.42639">
        <ele>124</ele>
        <time>2020-10-11T08:16:06Z</time>
      </trkpt>
      <trkpt lat="46.75963" lon="0.42644">
        <ele>123.8</ele>
        <time>2020-10-11T08:16:09Z</time>
      </trkpt>
      <trkpt lat="46.75961" lon="0.42644">
        <ele>123.8</ele>
        <time>2020-10-11T08:16:10Z</time>
      </trkpt>
      <trkpt lat="46.75948" lon="0.42639">
        <ele>123.8</ele>
        <time>2020-10-11T08:16:17Z</time>
      </trkpt>
      <trkpt lat="46.75942" lon="0.42642">
        <ele>124</ele>
        <time>2020-10-11T08:16:22Z</time>
      </trkpt>
      <trkpt lat="46.7594" lon="0.42644">
        <ele>124</ele>
        <time>2020-10-11T08:16:23Z</time>
      </trkpt>
      <trkpt lat="46.75929" lon="0.42653">
        <ele>124.4</ele>
        <time>2020-10-11T08:16:27Z</time>
      </trkpt>
      <trkpt lat="46.75929" lon="0.42653">
        <ele>125.8</ele>
        <time>2020-10-11T08:16:28Z</time>
      </trkpt>
      <trkpt lat="46.75918" lon="0.42659">
        <ele>127</ele>
        <time>2020-10-11T08:16:31Z</time>
      </trkpt>
      <trkpt lat="46.75913" lon="0.42661">
        <ele>127.8</ele>
        <time>2020-10-11T08:16:33Z</time>
      </trkpt>
      <trkpt lat="46.75911" lon="0.42663">
        <ele>128.2</ele>
        <time>2020-10-11T08:16:34Z</time>
      </trkpt>
      <trkpt lat="46.75904" lon="0.42668">
        <ele>129.2</ele>
        <time>2020-10-11T08:16:37Z</time>
      </trkpt>
      <trkpt lat="46.759" lon="0.42674">
        <ele>129.8</ele>
        <time>2020-10-11T08:16:39Z</time>
      </trkpt>
      <trkpt lat="46.75898" lon="0.42677">
        <ele>130</ele>
        <time>2020-10-11T08:16:40Z</time>
      </trkpt>
      <trkpt lat="46.75894" lon="0.42687">
        <ele>130.4</ele>
        <time>2020-10-11T08:16:44Z</time>
      </trkpt>
      <trkpt lat="46.75891" lon="0.42696">
        <ele>131</ele>
        <time>2020-10-11T08:16:47Z</time>
      </trkpt>
      <trkpt lat="46.75891" lon="0.42698">
        <ele>131.2</ele>
        <time>2020-10-11T08:16:48Z</time>
      </trkpt>
      <trkpt lat="46.75892" lon="0.42703">
        <ele>131.4</ele>
        <time>2020-10-11T08:16:50Z</time>
      </trkpt>
      <trkpt lat="46.75893" lon="0.4271">
        <ele>131.4</ele>
        <time>2020-10-11T08:16:53Z</time>
      </trkpt>
      <trkpt lat="46.75893" lon="0.42714">
        <ele>131.4</ele>
        <time>2020-10-11T08:16:55Z</time>
      </trkpt>
      <trkpt lat="46.75891" lon="0.42718">
        <ele>131.4</ele>
        <time>2020-10-11T08:16:57Z</time>
      </trkpt>
      <trkpt lat="46.7588" lon="0.42729">
        <ele>132</ele>
        <time>2020-10-11T08:17:01Z</time>
      </trkpt>
      <trkpt lat="46.75876" lon="0.42733">
        <ele>132.4</ele>
        <time>2020-10-11T08:17:03Z</time>
      </trkpt>
      <trkpt lat="46.75875" lon="0.42737">
        <ele>132.4</ele>
        <time>2020-10-11T08:17:04Z</time>
      </trkpt>
      <trkpt lat="46.75874" lon="0.4274">
        <ele>132.6</ele>
        <time>2020-10-11T08:17:05Z</time>
      </trkpt>
      <trkpt lat="46.75867" lon="0.42764">
        <ele>133.2</ele>
        <time>2020-10-11T08:17:11Z</time>
      </trkpt>
      <trkpt lat="46.75867" lon="0.42767">
        <ele>133.2</ele>
        <time>2020-10-11T08:17:12Z</time>
      </trkpt>
      <trkpt lat="46.75868" lon="0.42772">
        <ele>133.2</ele>
        <time>2020-10-11T08:17:14Z</time>
      </trkpt>
      <trkpt lat="46.75868" lon="0.42776">
        <ele>133.4</ele>
        <time>2020-10-11T08:17:15Z</time>
      </trkpt>
      <trkpt lat="46.75864" lon="0.4279">
        <ele>133.4</ele>
        <time>2020-10-11T08:17:19Z</time>
      </trkpt>
      <trkpt lat="46.75861" lon="0.42793">
        <ele>133.4</ele>
        <time>2020-10-11T08:17:20Z</time>
      </trkpt>
      <trkpt lat="46.75852" lon="0.42809">
        <ele>133.2</ele>
        <time>2020-10-11T08:17:25Z</time>
      </trkpt>
      <trkpt lat="46.75846" lon="0.42818">
        <ele>132.8</ele>
        <time>2020-10-11T08:17:28Z</time>
      </trkpt>
      <trkpt lat="46.75846" lon="0.42825">
        <ele>132.8</ele>
        <time>2020-10-11T08:17:30Z</time>
      </trkpt>
      <trkpt lat="46.7585" lon="0.4284">
        <ele>132.8</ele>
        <time>2020-10-11T08:17:34Z</time>
      </trkpt>
      <trkpt lat="46.75851" lon="0.42843">
        <ele>132.6</ele>
        <time>2020-10-11T08:17:35Z</time>
      </trkpt>
      <trkpt lat="46.75855" lon="0.42854">
        <ele>132</ele>
        <time>2020-10-11T08:17:38Z</time>
      </trkpt>
      <trkpt lat="46.75855" lon="0.42858">
        <ele>131.6</ele>
        <time>2020-10-11T08:17:39Z</time>
      </trkpt>
      <trkpt lat="46.75854" lon="0.42864">
        <ele>131.2</ele>
        <time>2020-10-11T08:17:40Z</time>
      </trkpt>
      <trkpt lat="46.75852" lon="0.42868">
        <ele>130.8</ele>
        <time>2020-10-11T08:17:41Z</time>
      </trkpt>
      <trkpt lat="46.7585" lon="0.42876">
        <ele>130.4</ele>
        <time>2020-10-11T08:17:43Z</time>
      </trkpt>
      <trkpt lat="46.75848" lon="0.42885">
        <ele>130.4</ele>
        <time>2020-10-11T08:17:45Z</time>
      </trkpt>
      <trkpt lat="46.75844" lon="0.42899">
        <ele>130.8</ele>
        <time>2020-10-11T08:17:48Z</time>
      </trkpt>
      <trkpt lat="46.75843" lon="0.42914">
        <ele>131</ele>
        <time>2020-10-11T08:17:51Z</time>
      </trkpt>
      <trkpt lat="46.75843" lon="0.4292">
        <ele>131</ele>
        <time>2020-10-11T08:17:52Z</time>
      </trkpt>
      <trkpt lat="46.75843" lon="0.42929">
        <ele>131</ele>
        <time>2020-10-11T08:17:54Z</time>
      </trkpt>
      <trkpt lat="46.75844" lon="0.42939">
        <ele>130.6</ele>
        <time>2020-10-11T08:17:56Z</time>
      </trkpt>
      <trkpt lat="46.75845" lon="0.42945">
        <ele>130.4</ele>
        <time>2020-10-11T08:17:57Z</time>
      </trkpt>
      <trkpt lat="46.75846" lon="0.42953">
        <ele>130.2</ele>
        <time>2020-10-11T08:17:58Z</time>
      </trkpt>
      <trkpt lat="46.7585" lon="0.4297">
        <ele>129.8</ele>
        <time>2020-10-11T08:18:01Z</time>
      </trkpt>
      <trkpt lat="46.75852" lon="0.42977">
        <ele>129.8</ele>
        <time>2020-10-11T08:18:03Z</time>
      </trkpt>
      <trkpt lat="46.75849" lon="0.42983">
        <ele>129.6</ele>
        <time>2020-10-11T08:18:05Z</time>
      </trkpt>
      <trkpt lat="46.75846" lon="0.42988">
        <ele>129.8</ele>
        <time>2020-10-11T08:18:07Z</time>
      </trkpt>
      <trkpt lat="46.75845" lon="0.42994">
        <ele>130</ele>
        <time>2020-10-11T08:18:09Z</time>
      </trkpt>
      <trkpt lat="46.75845" lon="0.42998">
        <ele>130.4</ele>
        <time>2020-10-11T08:18:10Z</time>
      </trkpt>
      <trkpt lat="46.75844" lon="0.43007">
        <ele>130.8</ele>
        <time>2020-10-11T08:18:12Z</time>
      </trkpt>
      <trkpt lat="46.75844" lon="0.43016">
        <ele>131</ele>
        <time>2020-10-11T08:18:14Z</time>
      </trkpt>
      <trkpt lat="46.75845" lon="0.4302">
        <ele>131.2</ele>
        <time>2020-10-11T08:18:15Z</time>
      </trkpt>
      <trkpt lat="46.75846" lon="0.43043">
        <ele>131</ele>
        <time>2020-10-11T08:18:20Z</time>
      </trkpt>
      <trkpt lat="46.75845" lon="0.43054">
        <ele>131</ele>
        <time>2020-10-11T08:18:22Z</time>
      </trkpt>
      <trkpt lat="46.75847" lon="0.43058">
        <ele>130.4</ele>
        <time>2020-10-11T08:18:24Z</time>
      </trkpt>
      <trkpt lat="46.75849" lon="0.4306">
        <ele>130.2</ele>
        <time>2020-10-11T08:18:25Z</time>
      </trkpt>
      <trkpt lat="46.75859" lon="0.43061">
        <ele>129.6</ele>
        <time>2020-10-11T08:18:27Z</time>
      </trkpt>
      <trkpt lat="46.75864" lon="0.4306">
        <ele>129.4</ele>
        <time>2020-10-11T08:18:28Z</time>
      </trkpt>
      <trkpt lat="46.7587" lon="0.4306">
        <ele>129.2</ele>
        <time>2020-10-11T08:18:29Z</time>
      </trkpt>
      <trkpt lat="46.75876" lon="0.4306">
        <ele>129</ele>
        <time>2020-10-11T08:18:30Z</time>
      </trkpt>
      <trkpt lat="46.75882" lon="0.4306">
        <ele>128.8</ele>
        <time>2020-10-11T08:18:31Z</time>
      </trkpt>
      <trkpt lat="46.75904" lon="0.43059">
        <ele>127.8</ele>
        <time>2020-10-11T08:18:35Z</time>
      </trkpt>
      <trkpt lat="46.75915" lon="0.43059">
        <ele>127.2</ele>
        <time>2020-10-11T08:18:36Z</time>
      </trkpt>
      <trkpt lat="46.75925" lon="0.43059">
        <ele>126.6</ele>
        <time>2020-10-11T08:18:39Z</time>
      </trkpt>
      <trkpt lat="46.75949" lon="0.43058">
        <ele>125.6</ele>
        <time>2020-10-11T08:18:43Z</time>
      </trkpt>
      <trkpt lat="46.75954" lon="0.43059">
        <ele>125.4</ele>
        <time>2020-10-11T08:18:44Z</time>
      </trkpt>
      <trkpt lat="46.7596" lon="0.43059">
        <ele>125.2</ele>
        <time>2020-10-11T08:18:45Z</time>
      </trkpt>
      <trkpt lat="46.75978" lon="0.43063">
        <ele>124.8</ele>
        <time>2020-10-11T08:18:48Z</time>
      </trkpt>
      <trkpt lat="46.76002" lon="0.43064">
        <ele>124.2</ele>
        <time>2020-10-11T08:18:51Z</time>
      </trkpt>
      <trkpt lat="46.7602" lon="0.43063">
        <ele>123.4</ele>
        <time>2020-10-11T08:18:53Z</time>
      </trkpt>
      <trkpt lat="46.76036" lon="0.43061">
        <ele>123.2</ele>
        <time>2020-10-11T08:18:55Z</time>
      </trkpt>
      <trkpt lat="46.76066" lon="0.43061">
        <ele>122.6</ele>
        <time>2020-10-11T08:18:59Z</time>
      </trkpt>
      <trkpt lat="46.76087" lon="0.43062">
        <ele>122</ele>
        <time>2020-10-11T08:19:02Z</time>
      </trkpt>
      <trkpt lat="46.76098" lon="0.43064">
        <ele>121.2</ele>
        <time>2020-10-11T08:19:04Z</time>
      </trkpt>
      <trkpt lat="46.76102" lon="0.43065">
        <ele>120.6</ele>
        <time>2020-10-11T08:19:05Z</time>
      </trkpt>
      <trkpt lat="46.76109" lon="0.43068">
        <ele>120</ele>
        <time>2020-10-11T08:19:07Z</time>
      </trkpt>
      <trkpt lat="46.76113" lon="0.4307">
        <ele>119.6</ele>
        <time>2020-10-11T08:19:09Z</time>
      </trkpt>
      <trkpt lat="46.76117" lon="0.43072">
        <ele>119.4</ele>
        <time>2020-10-11T08:19:11Z</time>
      </trkpt>
      <trkpt lat="46.76125" lon="0.43076">
        <ele>119.2</ele>
        <time>2020-10-11T08:19:24Z</time>
      </trkpt>
      <trkpt lat="46.76127" lon="0.43075">
        <ele>119.2</ele>
        <time>2020-10-11T08:19:36Z</time>
      </trkpt>
      <trkpt lat="46.7613" lon="0.43076">
        <ele>119.2</ele>
        <time>2020-10-11T08:19:49Z</time>
      </trkpt>
      <trkpt lat="46.76134" lon="0.43077">
        <ele>119.2</ele>
        <time>2020-10-11T08:20:01Z</time>
      </trkpt>
      <trkpt lat="46.76134" lon="0.43077">
        <ele>119</ele>
        <time>2020-10-11T08:20:12Z</time>
      </trkpt>
      <trkpt lat="46.76134" lon="0.43077">
        <ele>118.8</ele>
        <time>2020-10-11T08:20:21Z</time>
      </trkpt>
      <trkpt lat="46.76134" lon="0.43077">
        <ele>118.8</ele>
        <time>2020-10-11T08:20:34Z</time>
      </trkpt>
      <trkpt lat="46.76134" lon="0.43077">
        <ele>118.8</ele>
        <time>2020-10-11T08:20:47Z</time>
      </trkpt>
      <trkpt lat="46.76134" lon="0.43077">
        <ele>118.8</ele>
        <time>2020-10-11T08:20:51Z</time>
      </trkpt>
      <trkpt lat="46.76134" lon="0.43078">
        <ele>118.8</ele>
        <time>2020-10-11T08:21:14Z</time>
      </trkpt>
      <trkpt lat="46.76134" lon="0.43078">
        <ele>118.8</ele>
        <time>2020-10-11T08:21:32Z</time>
      </trkpt>
      <trkpt lat="46.76134" lon="0.43078">
        <ele>118.8</ele>
        <time>2020-10-11T08:21:53Z</time>
      </trkpt>
      <trkpt lat="46.76135" lon="0.43078">
        <ele>118.8</ele>
        <time>2020-10-11T08:22:16Z</time>
      </trkpt>
      <trkpt lat="46.76135" lon="0.43079">
        <ele>118.8</ele>
        <time>2020-10-11T08:22:29Z</time>
      </trkpt>
      <trkpt lat="46.76136" lon="0.43079">
        <ele>118.8</ele>
        <time>2020-10-11T08:22:40Z</time>
      </trkpt>
      <trkpt lat="46.76136" lon="0.43079">
        <ele>118.8</ele>
        <time>2020-10-11T08:22:53Z</time>
      </trkpt>
      <trkpt lat="46.76135" lon="0.43079">
        <ele>118.8</ele>
        <time>2020-10-11T08:23:05Z</time>
      </trkpt>
      <trkpt lat="46.76134" lon="0.43079">
        <ele>118.8</ele>
        <time>2020-10-11T08:23:12Z</time>
      </trkpt>
      <trkpt lat="46.76133" lon="0.43078">
        <ele>118.8</ele>
        <time>2020-10-11T08:23:25Z</time>
      </trkpt>
      <trkpt lat="46.76135" lon="0.43078">
        <ele>118.8</ele>
        <time>2020-10-11T08:23:37Z</time>
      </trkpt>
      <trkpt lat="46.76136" lon="0.43078">
        <ele>118.8</ele>
        <time>2020-10-11T08:23:39Z</time>
      </trkpt>
      <trkpt lat="46.76137" lon="0.43078">
        <ele>118.8</ele>
        <time>2020-10-11T08:23:46Z</time>
      </trkpt>
      <trkpt lat="46.76132" lon="0.43072">
        <ele>118.8</ele>
        <time>2020-10-11T08:23:56Z</time>
      </trkpt>
      <trkpt lat="46.76126" lon="0.43077">
        <ele>119</ele>
        <time>2020-10-11T08:24:00Z</time>
      </trkpt>
      <trkpt lat="46.76124" lon="0.4308">
        <ele>119</ele>
        <time>2020-10-11T08:24:01Z</time>
      </trkpt>
      <trkpt lat="46.76119" lon="0.43085">
        <ele>119.6</ele>
        <time>2020-10-11T08:24:03Z</time>
      </trkpt>
      <trkpt lat="46.76112" lon="0.43095">
        <ele>120</ele>
        <time>2020-10-11T08:24:06Z</time>
      </trkpt>
      <trkpt lat="46.76102" lon="0.43106">
        <ele>120.6</ele>
        <time>2020-10-11T08:24:11Z</time>
      </trkpt>
      <trkpt lat="46.76095" lon="0.43117">
        <ele>121.8</ele>
        <time>2020-10-11T08:24:14Z</time>
      </trkpt>
      <trkpt lat="46.76092" lon="0.43123">
        <ele>122.4</ele>
        <time>2020-10-11T08:24:16Z</time>
      </trkpt>
      <trkpt lat="46.76088" lon="0.43128">
        <ele>123</ele>
        <time>2020-10-11T08:24:18Z</time>
      </trkpt>
      <trkpt lat="46.76083" lon="0.43135">
        <ele>124.4</ele>
        <time>2020-10-11T08:24:21Z</time>
      </trkpt>
      <trkpt lat="46.76081" lon="0.43138">
        <ele>125</ele>
        <time>2020-10-11T08:24:22Z</time>
      </trkpt>
      <trkpt lat="46.76077" lon="0.43145">
        <ele>125.6</ele>
        <time>2020-10-11T08:24:25Z</time>
      </trkpt>
      <trkpt lat="46.7607" lon="0.43152">
        <ele>126.6</ele>
        <time>2020-10-11T08:24:28Z</time>
      </trkpt>
      <trkpt lat="46.76067" lon="0.43157">
        <ele>126.8</ele>
        <time>2020-10-11T08:24:29Z</time>
      </trkpt>
      <trkpt lat="46.76057" lon="0.43167">
        <ele>127.6</ele>
        <time>2020-10-11T08:24:33Z</time>
      </trkpt>
      <trkpt lat="46.76056" lon="0.4317">
        <ele>127.8</ele>
        <time>2020-10-11T08:24:34Z</time>
      </trkpt>
      <trkpt lat="46.76054" lon="0.43173">
        <ele>127.8</ele>
        <time>2020-10-11T08:24:35Z</time>
      </trkpt>
      <trkpt lat="46.76051" lon="0.43182">
        <ele>128</ele>
        <time>2020-10-11T08:24:38Z</time>
      </trkpt>
      <trkpt lat="46.76046" lon="0.432">
        <ele>129</ele>
        <time>2020-10-11T08:24:43Z</time>
      </trkpt>
      <trkpt lat="46.76044" lon="0.43203">
        <ele>129</ele>
        <time>2020-10-11T08:24:44Z</time>
      </trkpt>
      <trkpt lat="46.76041" lon="0.43208">
        <ele>129.4</ele>
        <time>2020-10-11T08:24:46Z</time>
      </trkpt>
      <trkpt lat="46.76041" lon="0.43208">
        <ele>130</ele>
        <time>2020-10-11T08:24:47Z</time>
      </trkpt>
      <trkpt lat="46.76034" lon="0.43221">
        <ele>130</ele>
        <time>2020-10-11T08:24:50Z</time>
      </trkpt>
      <trkpt lat="46.76031" lon="0.43223">
        <ele>130.2</ele>
        <time>2020-10-11T08:24:51Z</time>
      </trkpt>
      <trkpt lat="46.76022" lon="0.43228">
        <ele>130.6</ele>
        <time>2020-10-11T08:24:55Z</time>
      </trkpt>
      <trkpt lat="46.7602" lon="0.4323">
        <ele>130.8</ele>
        <time>2020-10-11T08:24:56Z</time>
      </trkpt>
      <trkpt lat="46.76016" lon="0.43235">
        <ele>130.8</ele>
        <time>2020-10-11T08:24:59Z</time>
      </trkpt>
      <trkpt lat="46.76014" lon="0.43241">
        <ele>130.8</ele>
        <time>2020-10-11T08:25:01Z</time>
      </trkpt>
      <trkpt lat="46.76009" lon="0.43246">
        <ele>130.8</ele>
        <time>2020-10-11T08:25:03Z</time>
      </trkpt>
      <trkpt lat="46.76007" lon="0.43247">
        <ele>131</ele>
        <time>2020-10-11T08:25:04Z</time>
      </trkpt>
      <trkpt lat="46.76004" lon="0.43246">
        <ele>131.2</ele>
        <time>2020-10-11T08:25:05Z</time>
      </trkpt>
      <trkpt lat="46.75991" lon="0.43242">
        <ele>131.4</ele>
        <time>2020-10-11T08:25:10Z</time>
      </trkpt>
      <trkpt lat="46.75981" lon="0.43229">
        <ele>131</ele>
        <time>2020-10-11T08:25:15Z</time>
      </trkpt>
      <trkpt lat="46.75979" lon="0.43223">
        <ele>130.4</ele>
        <time>2020-10-11T08:25:18Z</time>
      </trkpt>
      <trkpt lat="46.75979" lon="0.43221">
        <ele>130.2</ele>
        <time>2020-10-11T08:25:19Z</time>
      </trkpt>
      <trkpt lat="46.75979" lon="0.43219">
        <ele>130</ele>
        <time>2020-10-11T08:25:20Z</time>
      </trkpt>
      <trkpt lat="46.75977" lon="0.43206">
        <ele>129.8</ele>
        <time>2020-10-11T08:25:24Z</time>
      </trkpt>
      <trkpt lat="46.75968" lon="0.43195">
        <ele>129.4</ele>
        <time>2020-10-11T08:25:29Z</time>
      </trkpt>
      <trkpt lat="46.75965" lon="0.43193">
        <ele>129</ele>
        <time>2020-10-11T08:25:31Z</time>
      </trkpt>
      <trkpt lat="46.75956" lon="0.43192">
        <ele>129.4</ele>
        <time>2020-10-11T08:25:37Z</time>
      </trkpt>
      <trkpt lat="46.75946" lon="0.43186">
        <ele>130.2</ele>
        <time>2020-10-11T08:25:42Z</time>
      </trkpt>
      <trkpt lat="46.75942" lon="0.43182">
        <ele>130</ele>
        <time>2020-10-11T08:25:44Z</time>
      </trkpt>
      <trkpt lat="46.75941" lon="0.43178">
        <ele>129.6</ele>
        <time>2020-10-11T08:25:46Z</time>
      </trkpt>
      <trkpt lat="46.7594" lon="0.43171">
        <ele>129.4</ele>
        <time>2020-10-11T08:25:49Z</time>
      </trkpt>
      <trkpt lat="46.75937" lon="0.43165">
        <ele>128.8</ele>
        <time>2020-10-11T08:25:52Z</time>
      </trkpt>
      <trkpt lat="46.75934" lon="0.43161">
        <ele>128.8</ele>
        <time>2020-10-11T08:25:54Z</time>
      </trkpt>
      <trkpt lat="46.75924" lon="0.43143">
        <ele>128.6</ele>
        <time>2020-10-11T08:26:00Z</time>
      </trkpt>
      <trkpt lat="46.75915" lon="0.4314">
        <ele>128.4</ele>
        <time>2020-10-11T08:26:04Z</time>
      </trkpt>
      <trkpt lat="46.75913" lon="0.43139">
        <ele>128.4</ele>
        <time>2020-10-11T08:26:05Z</time>
      </trkpt>
      <trkpt lat="46.75901" lon="0.43131">
        <ele>128.4</ele>
        <time>2020-10-11T08:26:10Z</time>
      </trkpt>
      <trkpt lat="46.75899" lon="0.4313">
        <ele>128.8</ele>
        <time>2020-10-11T08:26:11Z</time>
      </trkpt>
      <trkpt lat="46.7589" lon="0.4313">
        <ele>129.2</ele>
        <time>2020-10-11T08:26:14Z</time>
      </trkpt>
      <trkpt lat="46.75886" lon="0.43127">
        <ele>129.4</ele>
        <time>2020-10-11T08:26:16Z</time>
      </trkpt>
      <trkpt lat="46.75881" lon="0.43121">
        <ele>129.2</ele>
        <time>2020-10-11T08:26:18Z</time>
      </trkpt>
      <trkpt lat="46.75877" lon="0.43119">
        <ele>129.4</ele>
        <time>2020-10-11T08:26:20Z</time>
      </trkpt>
      <trkpt lat="46.75874" lon="0.43119">
        <ele>129.4</ele>
        <time>2020-10-11T08:26:22Z</time>
      </trkpt>
      <trkpt lat="46.75868" lon="0.43118">
        <ele>130</ele>
        <time>2020-10-11T08:26:25Z</time>
      </trkpt>
      <trkpt lat="46.75862" lon="0.43118">
        <ele>130.4</ele>
        <time>2020-10-11T08:26:28Z</time>
      </trkpt>
      <trkpt lat="46.75857" lon="0.43115">
        <ele>131</ele>
        <time>2020-10-11T08:26:31Z</time>
      </trkpt>
      <trkpt lat="46.75854" lon="0.43113">
        <ele>131.2</ele>
        <time>2020-10-11T08:26:33Z</time>
      </trkpt>
      <trkpt lat="46.75846" lon="0.43106">
        <ele>131</ele>
        <time>2020-10-11T08:26:39Z</time>
      </trkpt>
      <trkpt lat="46.75843" lon="0.43102">
        <ele>130.8</ele>
        <time>2020-10-11T08:26:41Z</time>
      </trkpt>
      <trkpt lat="46.75838" lon="0.43101">
        <ele>130.8</ele>
        <time>2020-10-11T08:26:43Z</time>
      </trkpt>
      <trkpt lat="46.75821" lon="0.43105">
        <ele>132</ele>
        <time>2020-10-11T08:26:49Z</time>
      </trkpt>
      <trkpt lat="46.75818" lon="0.43105">
        <ele>132.2</ele>
        <time>2020-10-11T08:26:50Z</time>
      </trkpt>
      <trkpt lat="46.75801" lon="0.43105">
        <ele>133</ele>
        <time>2020-10-11T08:26:55Z</time>
      </trkpt>
      <trkpt lat="46.75786" lon="0.43108">
        <ele>133.2</ele>
        <time>2020-10-11T08:26:59Z</time>
      </trkpt>
      <trkpt lat="46.75775" lon="0.43108">
        <ele>133.6</ele>
        <time>2020-10-11T08:27:02Z</time>
      </trkpt>
      <trkpt lat="46.7575" lon="0.4311">
        <ele>133.6</ele>
        <time>2020-10-11T08:27:09Z</time>
      </trkpt>
      <trkpt lat="46.7573" lon="0.43111">
        <ele>134.4</ele>
        <time>2020-10-11T08:27:14Z</time>
      </trkpt>
      <trkpt lat="46.75726" lon="0.43111">
        <ele>134.6</ele>
        <time>2020-10-11T08:27:15Z</time>
      </trkpt>
      <trkpt lat="46.75698" lon="0.4311">
        <ele>135.4</ele>
        <time>2020-10-11T08:27:22Z</time>
      </trkpt>
      <trkpt lat="46.75694" lon="0.4311">
        <ele>135.4</ele>
        <time>2020-10-11T08:27:23Z</time>
      </trkpt>
      <trkpt lat="46.7567" lon="0.43107">
        <ele>136</ele>
        <time>2020-10-11T08:27:29Z</time>
      </trkpt>
      <trkpt lat="46.75646" lon="0.43101">
        <ele>136.4</ele>
        <time>2020-10-11T08:27:35Z</time>
      </trkpt>
      <trkpt lat="46.75642" lon="0.431">
        <ele>136.6</ele>
        <time>2020-10-11T08:27:36Z</time>
      </trkpt>
      <trkpt lat="46.75638" lon="0.43098">
        <ele>136.6</ele>
        <time>2020-10-11T08:27:37Z</time>
      </trkpt>
      <trkpt lat="46.7563" lon="0.43094">
        <ele>136.6</ele>
        <time>2020-10-11T08:27:39Z</time>
      </trkpt>
      <trkpt lat="46.75618" lon="0.4309">
        <ele>136.6</ele>
        <time>2020-10-11T08:27:43Z</time>
      </trkpt>
      <trkpt lat="46.75615" lon="0.4309">
        <ele>136.8</ele>
        <time>2020-10-11T08:27:44Z</time>
      </trkpt>
      <trkpt lat="46.75613" lon="0.43098">
        <ele>136.8</ele>
        <time>2020-10-11T08:27:46Z</time>
      </trkpt>
      <trkpt lat="46.75615" lon="0.43103">
        <ele>136.8</ele>
        <time>2020-10-11T08:27:47Z</time>
      </trkpt>
      <trkpt lat="46.7562" lon="0.43113">
        <ele>136.8</ele>
        <time>2020-10-11T08:27:49Z</time>
      </trkpt>
      <trkpt lat="46.75622" lon="0.4312">
        <ele>137</ele>
        <time>2020-10-11T08:27:50Z</time>
      </trkpt>
      <trkpt lat="46.7563" lon="0.43143">
        <ele>137</ele>
        <time>2020-10-11T08:27:53Z</time>
      </trkpt>
      <trkpt lat="46.75645" lon="0.43192">
        <ele>136.6</ele>
        <time>2020-10-11T08:27:59Z</time>
      </trkpt>
      <trkpt lat="46.75646" lon="0.43199">
        <ele>136.6</ele>
        <time>2020-10-11T08:28:00Z</time>
      </trkpt>
      <trkpt lat="46.75644" lon="0.43214">
        <ele>136.6</ele>
        <time>2020-10-11T08:28:02Z</time>
      </trkpt>
      <trkpt lat="46.75629" lon="0.43228">
        <ele>136.4</ele>
        <time>2020-10-11T08:28:05Z</time>
      </trkpt>
      <trkpt lat="46.75579" lon="0.43273">
        <ele>135.4</ele>
        <time>2020-10-11T08:28:13Z</time>
      </trkpt>
      <trkpt lat="46.75559" lon="0.43291">
        <ele>134.4</ele>
        <time>2020-10-11T08:28:16Z</time>
      </trkpt>
      <trkpt lat="46.75523" lon="0.43324">
        <ele>133</ele>
        <time>2020-10-11T08:28:21Z</time>
      </trkpt>
      <trkpt lat="46.75505" lon="0.43342">
        <ele>131.8</ele>
        <time>2020-10-11T08:28:24Z</time>
      </trkpt>
      <trkpt lat="46.755" lon="0.43347">
        <ele>131.2</ele>
        <time>2020-10-11T08:28:25Z</time>
      </trkpt>
      <trkpt lat="46.7549" lon="0.43356">
        <ele>130.4</ele>
        <time>2020-10-11T08:28:27Z</time>
      </trkpt>
      <trkpt lat="46.75485" lon="0.4336">
        <ele>129.8</ele>
        <time>2020-10-11T08:28:28Z</time>
      </trkpt>
      <trkpt lat="46.75479" lon="0.43363">
        <ele>129.2</ele>
        <time>2020-10-11T08:28:29Z</time>
      </trkpt>
      <trkpt lat="46.75473" lon="0.43366">
        <ele>128.4</ele>
        <time>2020-10-11T08:28:30Z</time>
      </trkpt>
      <trkpt lat="46.75468" lon="0.43371">
        <ele>127.4</ele>
        <time>2020-10-11T08:28:31Z</time>
      </trkpt>
      <trkpt lat="46.75464" lon="0.43376">
        <ele>126.6</ele>
        <time>2020-10-11T08:28:32Z</time>
      </trkpt>
      <trkpt lat="46.7546" lon="0.4338">
        <ele>125.8</ele>
        <time>2020-10-11T08:28:33Z</time>
      </trkpt>
      <trkpt lat="46.75456" lon="0.43384">
        <ele>125.4</ele>
        <time>2020-10-11T08:28:34Z</time>
      </trkpt>
      <trkpt lat="46.75454" lon="0.43389">
        <ele>125</ele>
        <time>2020-10-11T08:28:35Z</time>
      </trkpt>
      <trkpt lat="46.7545" lon="0.43399">
        <ele>124.4</ele>
        <time>2020-10-11T08:28:37Z</time>
      </trkpt>
      <trkpt lat="46.75447" lon="0.43405">
        <ele>123.8</ele>
        <time>2020-10-11T08:28:38Z</time>
      </trkpt>
      <trkpt lat="46.75445" lon="0.43411">
        <ele>123.2</ele>
        <time>2020-10-11T08:28:39Z</time>
      </trkpt>
      <trkpt lat="46.7544" lon="0.43425">
        <ele>122</ele>
        <time>2020-10-11T08:28:41Z</time>
      </trkpt>
      <trkpt lat="46.75435" lon="0.43437">
        <ele>120.8</ele>
        <time>2020-10-11T08:28:43Z</time>
      </trkpt>
      <trkpt lat="46.75431" lon="0.43442">
        <ele>119.6</ele>
        <time>2020-10-11T08:28:45Z</time>
      </trkpt>
      <trkpt lat="46.7543" lon="0.43443">
        <ele>119.2</ele>
        <time>2020-10-11T08:28:46Z</time>
      </trkpt>
      <trkpt lat="46.75428" lon="0.43443">
        <ele>118.8</ele>
        <time>2020-10-11T08:28:48Z</time>
      </trkpt>
      <trkpt lat="46.75423" lon="0.43441">
        <ele>118.6</ele>
        <time>2020-10-11T08:28:50Z</time>
      </trkpt>
      <trkpt lat="46.7542" lon="0.4344">
        <ele>118.4</ele>
        <time>2020-10-11T08:28:51Z</time>
      </trkpt>
      <trkpt lat="46.7541" lon="0.43435">
        <ele>117.8</ele>
        <time>2020-10-11T08:28:54Z</time>
      </trkpt>
      <trkpt lat="46.75407" lon="0.43433">
        <ele>117.6</ele>
        <time>2020-10-11T08:28:55Z</time>
      </trkpt>
      <trkpt lat="46.75404" lon="0.43432">
        <ele>117.4</ele>
        <time>2020-10-11T08:28:56Z</time>
      </trkpt>
      <trkpt lat="46.75402" lon="0.43431">
        <ele>117.2</ele>
        <time>2020-10-11T08:28:57Z</time>
      </trkpt>
      <trkpt lat="46.75397" lon="0.43431">
        <ele>117</ele>
        <time>2020-10-11T08:28:59Z</time>
      </trkpt>
      <trkpt lat="46.7539" lon="0.4343">
        <ele>116.6</ele>
        <time>2020-10-11T08:29:01Z</time>
      </trkpt>
      <trkpt lat="46.75384" lon="0.43429">
        <ele>116</ele>
        <time>2020-10-11T08:29:03Z</time>
      </trkpt>
      <trkpt lat="46.75375" lon="0.4343">
        <ele>114.8</ele>
        <time>2020-10-11T08:29:06Z</time>
      </trkpt>
      <trkpt lat="46.75366" lon="0.43434">
        <ele>113.6</ele>
        <time>2020-10-11T08:29:08Z</time>
      </trkpt>
      <trkpt lat="46.75355" lon="0.43442">
        <ele>113</ele>
        <time>2020-10-11T08:29:11Z</time>
      </trkpt>
      <trkpt lat="46.75349" lon="0.43443">
        <ele>113</ele>
        <time>2020-10-11T08:29:13Z</time>
      </trkpt>
      <trkpt lat="46.75339" lon="0.43436">
        <ele>112.8</ele>
        <time>2020-10-11T08:29:17Z</time>
      </trkpt>
      <trkpt lat="46.75338" lon="0.43433">
        <ele>112.8</ele>
        <time>2020-10-11T08:29:18Z</time>
      </trkpt>
      <trkpt lat="46.75336" lon="0.43427">
        <ele>112.8</ele>
        <time>2020-10-11T08:29:20Z</time>
      </trkpt>
      <trkpt lat="46.75329" lon="0.43412">
        <ele>113.2</ele>
        <time>2020-10-11T08:29:24Z</time>
      </trkpt>
      <trkpt lat="46.75325" lon="0.43404">
        <ele>113</ele>
        <time>2020-10-11T08:29:26Z</time>
      </trkpt>
      <trkpt lat="46.75319" lon="0.43398">
        <ele>113.2</ele>
        <time>2020-10-11T08:29:28Z</time>
      </trkpt>
      <trkpt lat="46.75318" lon="0.43395">
        <ele>113.4</ele>
        <time>2020-10-11T08:29:29Z</time>
      </trkpt>
      <trkpt lat="46.75316" lon="0.43386">
        <ele>114</ele>
        <time>2020-10-11T08:29:32Z</time>
      </trkpt>
      <trkpt lat="46.75317" lon="0.4338">
        <ele>114.2</ele>
        <time>2020-10-11T08:29:34Z</time>
      </trkpt>
      <trkpt lat="46.75318" lon="0.43375">
        <ele>114.2</ele>
        <time>2020-10-11T08:29:36Z</time>
      </trkpt>
      <trkpt lat="46.75318" lon="0.43374">
        <ele>114.2</ele>
        <time>2020-10-11T08:29:37Z</time>
      </trkpt>
      <trkpt lat="46.75317" lon="0.43366">
        <ele>114.4</ele>
        <time>2020-10-11T08:29:42Z</time>
      </trkpt>
      <trkpt lat="46.75317" lon="0.43364">
        <ele>114.4</ele>
        <time>2020-10-11T08:29:43Z</time>
      </trkpt>
      <trkpt lat="46.75319" lon="0.43356">
        <ele>114.8</ele>
        <time>2020-10-11T08:29:46Z</time>
      </trkpt>
      <trkpt lat="46.75315" lon="0.43345">
        <ele>115.4</ele>
        <time>2020-10-11T08:29:50Z</time>
      </trkpt>
      <trkpt lat="46.75309" lon="0.43336">
        <ele>115.8</ele>
        <time>2020-10-11T08:29:54Z</time>
      </trkpt>
      <trkpt lat="46.75306" lon="0.43326">
        <ele>116.4</ele>
        <time>2020-10-11T08:29:57Z</time>
      </trkpt>
      <trkpt lat="46.75304" lon="0.43316">
        <ele>116.6</ele>
        <time>2020-10-11T08:30:00Z</time>
      </trkpt>
      <trkpt lat="46.75305" lon="0.43312">
        <ele>116.8</ele>
        <time>2020-10-11T08:30:01Z</time>
      </trkpt>
      <trkpt lat="46.75305" lon="0.43309">
        <ele>117</ele>
        <time>2020-10-11T08:30:02Z</time>
      </trkpt>
      <trkpt lat="46.75311" lon="0.43294">
        <ele>118</ele>
        <time>2020-10-11T08:30:07Z</time>
      </trkpt>
      <trkpt lat="46.75313" lon="0.4329">
        <ele>118</ele>
        <time>2020-10-11T08:30:08Z</time>
      </trkpt>
      <trkpt lat="46.75318" lon="0.43279">
        <ele>119</ele>
        <time>2020-10-11T08:30:12Z</time>
      </trkpt>
      <trkpt lat="46.7532" lon="0.43277">
        <ele>119.2</ele>
        <time>2020-10-11T08:30:13Z</time>
      </trkpt>
      <trkpt lat="46.75322" lon="0.43277">
        <ele>119.4</ele>
        <time>2020-10-11T08:30:14Z</time>
      </trkpt>
      <trkpt lat="46.75329" lon="0.43279">
        <ele>119.8</ele>
        <time>2020-10-11T08:30:17Z</time>
      </trkpt>
      <trkpt lat="46.75336" lon="0.43285">
        <ele>119.4</ele>
        <time>2020-10-11T08:30:21Z</time>
      </trkpt>
      <trkpt lat="46.75338" lon="0.43284">
        <ele>119</ele>
        <time>2020-10-11T08:30:22Z</time>
      </trkpt>
      <trkpt lat="46.75344" lon="0.43282">
        <ele>118.8</ele>
        <time>2020-10-11T08:30:25Z</time>
      </trkpt>
      <trkpt lat="46.75348" lon="0.43281">
        <ele>119.8</ele>
        <time>2020-10-11T08:30:28Z</time>
      </trkpt>
      <trkpt lat="46.75351" lon="0.4328">
        <ele>120.4</ele>
        <time>2020-10-11T08:30:30Z</time>
      </trkpt>
      <trkpt lat="46.75358" lon="0.43278">
        <ele>121</ele>
        <time>2020-10-11T08:30:33Z</time>
      </trkpt>
      <trkpt lat="46.75362" lon="0.43276">
        <ele>121.4</ele>
        <time>2020-10-11T08:30:35Z</time>
      </trkpt>
      <trkpt lat="46.75369" lon="0.43272">
        <ele>121.6</ele>
        <time>2020-10-11T08:30:38Z</time>
      </trkpt>
      <trkpt lat="46.7537" lon="0.4327">
        <ele>121.8</ele>
        <time>2020-10-11T08:30:39Z</time>
      </trkpt>
      <trkpt lat="46.75374" lon="0.43264">
        <ele>122.4</ele>
        <time>2020-10-11T08:30:43Z</time>
      </trkpt>
      <trkpt lat="46.75377" lon="0.4326">
        <ele>123</ele>
        <time>2020-10-11T08:30:46Z</time>
      </trkpt>
      <trkpt lat="46.75382" lon="0.43255">
        <ele>123.6</ele>
        <time>2020-10-11T08:30:49Z</time>
      </trkpt>
      <trkpt lat="46.75386" lon="0.43249">
        <ele>124.4</ele>
        <time>2020-10-11T08:30:53Z</time>
      </trkpt>
      <trkpt lat="46.75387" lon="0.43248">
        <ele>124.6</ele>
        <time>2020-10-11T08:30:54Z</time>
      </trkpt>
      <trkpt lat="46.75389" lon="0.43247">
        <ele>125</ele>
        <time>2020-10-11T08:30:55Z</time>
      </trkpt>
      <trkpt lat="46.75396" lon="0.4324">
        <ele>126</ele>
        <time>2020-10-11T08:31:00Z</time>
      </trkpt>
      <trkpt lat="46.75398" lon="0.43238">
        <ele>126</ele>
        <time>2020-10-11T08:31:01Z</time>
      </trkpt>
      <trkpt lat="46.75409" lon="0.43225">
        <ele>127.2</ele>
        <time>2020-10-11T08:31:08Z</time>
      </trkpt>
      <trkpt lat="46.75412" lon="0.4322">
        <ele>127.8</ele>
        <time>2020-10-11T08:31:10Z</time>
      </trkpt>
      <trkpt lat="46.75413" lon="0.43206">
        <ele>128.4</ele>
        <time>2020-10-11T08:31:17Z</time>
      </trkpt>
      <trkpt lat="46.75413" lon="0.43197">
        <ele>129.4</ele>
        <time>2020-10-11T08:31:21Z</time>
      </trkpt>
      <trkpt lat="46.75413" lon="0.4318">
        <ele>130.2</ele>
        <time>2020-10-11T08:31:27Z</time>
      </trkpt>
      <trkpt lat="46.75414" lon="0.43177">
        <ele>130.4</ele>
        <time>2020-10-11T08:31:28Z</time>
      </trkpt>
      <trkpt lat="46.75414" lon="0.43169">
        <ele>131</ele>
        <time>2020-10-11T08:31:31Z</time>
      </trkpt>
      <trkpt lat="46.75413" lon="0.43167">
        <ele>131.2</ele>
        <time>2020-10-11T08:31:32Z</time>
      </trkpt>
      <trkpt lat="46.75412" lon="0.43165">
        <ele>131.2</ele>
        <time>2020-10-11T08:31:33Z</time>
      </trkpt>
      <trkpt lat="46.75411" lon="0.43163">
        <ele>131.6</ele>
        <time>2020-10-11T08:31:34Z</time>
      </trkpt>
      <trkpt lat="46.75411" lon="0.4316">
        <ele>131.8</ele>
        <time>2020-10-11T08:31:35Z</time>
      </trkpt>
      <trkpt lat="46.75412" lon="0.43156">
        <ele>132</ele>
        <time>2020-10-11T08:31:36Z</time>
      </trkpt>
      <trkpt lat="46.75414" lon="0.43149">
        <ele>132.4</ele>
        <time>2020-10-11T08:31:39Z</time>
      </trkpt>
      <trkpt lat="46.75415" lon="0.43147">
        <ele>132.6</ele>
        <time>2020-10-11T08:31:40Z</time>
      </trkpt>
      <trkpt lat="46.75419" lon="0.43145">
        <ele>132.6</ele>
        <time>2020-10-11T08:31:42Z</time>
      </trkpt>
      <trkpt lat="46.75431" lon="0.43136">
        <ele>132.4</ele>
        <time>2020-10-11T08:31:47Z</time>
      </trkpt>
      <trkpt lat="46.75436" lon="0.43132">
        <ele>132.4</ele>
        <time>2020-10-11T08:31:49Z</time>
      </trkpt>
      <trkpt lat="46.75443" lon="0.4312">
        <ele>132.4</ele>
        <time>2020-10-11T08:31:53Z</time>
      </trkpt>
      <trkpt lat="46.75448" lon="0.43102">
        <ele>133.2</ele>
        <time>2020-10-11T08:31:58Z</time>
      </trkpt>
      <trkpt lat="46.75449" lon="0.43099">
        <ele>133.4</ele>
        <time>2020-10-11T08:31:59Z</time>
      </trkpt>
      <trkpt lat="46.75451" lon="0.43095">
        <ele>133.6</ele>
        <time>2020-10-11T08:32:00Z</time>
      </trkpt>
      <trkpt lat="46.75459" lon="0.43086">
        <ele>133.6</ele>
        <time>2020-10-11T08:32:05Z</time>
      </trkpt>
      <trkpt lat="46.75463" lon="0.43084">
        <ele>133.6</ele>
        <time>2020-10-11T08:32:07Z</time>
      </trkpt>
      <trkpt lat="46.75467" lon="0.4308">
        <ele>133.6</ele>
        <time>2020-10-11T08:32:10Z</time>
      </trkpt>
      <trkpt lat="46.75469" lon="0.4308">
        <ele>133.6</ele>
        <time>2020-10-11T08:32:11Z</time>
      </trkpt>
      <trkpt lat="46.75478" lon="0.43078">
        <ele>134</ele>
        <time>2020-10-11T08:32:14Z</time>
      </trkpt>
      <trkpt lat="46.75485" lon="0.43078">
        <ele>134</ele>
        <time>2020-10-11T08:32:16Z</time>
      </trkpt>
      <trkpt lat="46.75489" lon="0.43081">
        <ele>134</ele>
        <time>2020-10-11T08:32:18Z</time>
      </trkpt>
      <trkpt lat="46.755" lon="0.43085">
        <ele>133.8</ele>
        <time>2020-10-11T08:32:22Z</time>
      </trkpt>
      <trkpt lat="46.7551" lon="0.43076">
        <ele>134</ele>
        <time>2020-10-11T08:32:26Z</time>
      </trkpt>
      <trkpt lat="46.7552" lon="0.43068">
        <ele>134.8</ele>
        <time>2020-10-11T08:32:30Z</time>
      </trkpt>
      <trkpt lat="46.75527" lon="0.43063">
        <ele>135.2</ele>
        <time>2020-10-11T08:32:32Z</time>
      </trkpt>
      <trkpt lat="46.75536" lon="0.43056">
        <ele>135.8</ele>
        <time>2020-10-11T08:32:35Z</time>
      </trkpt>
      <trkpt lat="46.75545" lon="0.43049">
        <ele>136.4</ele>
        <time>2020-10-11T08:32:38Z</time>
      </trkpt>
      <trkpt lat="46.7555" lon="0.43043">
        <ele>137</ele>
        <time>2020-10-11T08:32:40Z</time>
      </trkpt>
      <trkpt lat="46.75555" lon="0.43033">
        <ele>137.6</ele>
        <time>2020-10-11T08:32:44Z</time>
      </trkpt>
      <trkpt lat="46.75551" lon="0.43017">
        <ele>137.8</ele>
        <time>2020-10-11T08:32:50Z</time>
      </trkpt>
      <trkpt lat="46.75548" lon="0.4301">
        <ele>138.2</ele>
        <time>2020-10-11T08:32:52Z</time>
      </trkpt>
      <trkpt lat="46.7554" lon="0.42998">
        <ele>138.6</ele>
        <time>2020-10-11T08:32:56Z</time>
      </trkpt>
      <trkpt lat="46.75519" lon="0.42971">
        <ele>138.6</ele>
        <time>2020-10-11T08:33:03Z</time>
      </trkpt>
      <trkpt lat="46.75495" lon="0.42947">
        <ele>139.2</ele>
        <time>2020-10-11T08:33:10Z</time>
      </trkpt>
      <trkpt lat="46.7547" lon="0.4293">
        <ele>140</ele>
        <time>2020-10-11T08:33:17Z</time>
      </trkpt>
      <trkpt lat="46.75453" lon="0.42922">
        <ele>140</ele>
        <time>2020-10-11T08:33:21Z</time>
      </trkpt>
      <trkpt lat="46.75446" lon="0.42917">
        <ele>140.2</ele>
        <time>2020-10-11T08:33:23Z</time>
      </trkpt>
      <trkpt lat="46.75443" lon="0.42915">
        <ele>140.4</ele>
        <time>2020-10-11T08:33:24Z</time>
      </trkpt>
      <trkpt lat="46.7544" lon="0.42914">
        <ele>140.4</ele>
        <time>2020-10-11T08:33:25Z</time>
      </trkpt>
      <trkpt lat="46.75438" lon="0.42915">
        <ele>140.6</ele>
        <time>2020-10-11T08:33:27Z</time>
      </trkpt>
      <trkpt lat="46.75434" lon="0.42917">
        <ele>140.6</ele>
        <time>2020-10-11T08:33:30Z</time>
      </trkpt>
      <trkpt lat="46.75429" lon="0.42917">
        <ele>140.8</ele>
        <time>2020-10-11T08:33:32Z</time>
      </trkpt>
      <trkpt lat="46.75421" lon="0.42922">
        <ele>140.8</ele>
        <time>2020-10-11T08:33:36Z</time>
      </trkpt>
      <trkpt lat="46.7542" lon="0.42925">
        <ele>140.8</ele>
        <time>2020-10-11T08:33:37Z</time>
      </trkpt>
      <trkpt lat="46.75414" lon="0.42938">
        <ele>140.4</ele>
        <time>2020-10-11T08:33:40Z</time>
      </trkpt>
      <trkpt lat="46.75408" lon="0.42947">
        <ele>140.2</ele>
        <time>2020-10-11T08:33:42Z</time>
      </trkpt>
      <trkpt lat="46.75395" lon="0.42968">
        <ele>139.6</ele>
        <time>2020-10-11T08:33:46Z</time>
      </trkpt>
      <trkpt lat="46.75389" lon="0.42978">
        <ele>139.2</ele>
        <time>2020-10-11T08:33:48Z</time>
      </trkpt>
      <trkpt lat="46.75381" lon="0.42986">
        <ele>138.8</ele>
        <time>2020-10-11T08:33:50Z</time>
      </trkpt>
      <trkpt lat="46.75372" lon="0.42996">
        <ele>138.6</ele>
        <time>2020-10-11T08:33:52Z</time>
      </trkpt>
      <trkpt lat="46.75365" lon="0.4301">
        <ele>138.4</ele>
        <time>2020-10-11T08:33:54Z</time>
      </trkpt>
      <trkpt lat="46.75358" lon="0.43027">
        <ele>138</ele>
        <time>2020-10-11T08:33:56Z</time>
      </trkpt>
      <trkpt lat="46.75356" lon="0.43036">
        <ele>137.8</ele>
        <time>2020-10-11T08:33:57Z</time>
      </trkpt>
      <trkpt lat="46.75355" lon="0.4305">
        <ele>136.6</ele>
        <time>2020-10-11T08:33:59Z</time>
      </trkpt>
      <trkpt lat="46.75356" lon="0.43057">
        <ele>136</ele>
        <time>2020-10-11T08:34:00Z</time>
      </trkpt>
      <trkpt lat="46.75357" lon="0.43063">
        <ele>135.4</ele>
        <time>2020-10-11T08:34:01Z</time>
      </trkpt>
      <trkpt lat="46.75358" lon="0.43073">
        <ele>134.6</ele>
        <time>2020-10-11T08:34:03Z</time>
      </trkpt>
      <trkpt lat="46.75357" lon="0.43079">
        <ele>134.4</ele>
        <time>2020-10-11T08:34:04Z</time>
      </trkpt>
      <trkpt lat="46.75356" lon="0.43085">
        <ele>134.2</ele>
        <time>2020-10-11T08:34:05Z</time>
      </trkpt>
      <trkpt lat="46.75351" lon="0.43092">
        <ele>133.4</ele>
        <time>2020-10-11T08:34:07Z</time>
      </trkpt>
      <trkpt lat="46.75349" lon="0.43093">
        <ele>132.8</ele>
        <time>2020-10-11T08:34:08Z</time>
      </trkpt>
      <trkpt lat="46.75344" lon="0.43094">
        <ele>132.4</ele>
        <time>2020-10-11T08:34:09Z</time>
      </trkpt>
      <trkpt lat="46.75338" lon="0.43098">
        <ele>132</ele>
        <time>2020-10-11T08:34:11Z</time>
      </trkpt>
      <trkpt lat="46.75335" lon="0.43102">
        <ele>131.6</ele>
        <time>2020-10-11T08:34:12Z</time>
      </trkpt>
      <trkpt lat="46.75334" lon="0.43104">
        <ele>131.2</ele>
        <time>2020-10-11T08:34:13Z</time>
      </trkpt>
      <trkpt lat="46.75332" lon="0.43106">
        <ele>130.6</ele>
        <time>2020-10-11T08:34:14Z</time>
      </trkpt>
      <trkpt lat="46.75329" lon="0.43107">
        <ele>130</ele>
        <time>2020-10-11T08:34:15Z</time>
      </trkpt>
      <trkpt lat="46.75323" lon="0.43108">
        <ele>129.4</ele>
        <time>2020-10-11T08:34:17Z</time>
      </trkpt>
      <trkpt lat="46.75322" lon="0.4311">
        <ele>129</ele>
        <time>2020-10-11T08:34:18Z</time>
      </trkpt>
      <trkpt lat="46.75317" lon="0.43116">
        <ele>128.6</ele>
        <time>2020-10-11T08:34:20Z</time>
      </trkpt>
      <trkpt lat="46.75311" lon="0.43122">
        <ele>128.2</ele>
        <time>2020-10-11T08:34:23Z</time>
      </trkpt>
      <trkpt lat="46.75309" lon="0.43125">
        <ele>128</ele>
        <time>2020-10-11T08:34:24Z</time>
      </trkpt>
      <trkpt lat="46.75303" lon="0.4313">
        <ele>127</ele>
        <time>2020-10-11T08:34:26Z</time>
      </trkpt>
      <trkpt lat="46.753" lon="0.4313">
        <ele>126</ele>
        <time>2020-10-11T08:34:28Z</time>
      </trkpt>
      <trkpt lat="46.753" lon="0.4313">
        <ele>125.6</ele>
        <time>2020-10-11T08:34:29Z</time>
      </trkpt>
      <trkpt lat="46.75296" lon="0.4313">
        <ele>125.4</ele>
        <time>2020-10-11T08:34:32Z</time>
      </trkpt>
      <trkpt lat="46.75295" lon="0.4313">
        <ele>125.4</ele>
        <time>2020-10-11T08:34:34Z</time>
      </trkpt>
      <trkpt lat="46.75286" lon="0.43145">
        <ele>125.8</ele>
        <time>2020-10-11T08:34:40Z</time>
      </trkpt>
      <trkpt lat="46.75282" lon="0.43154">
        <ele>125.2</ele>
        <time>2020-10-11T08:34:46Z</time>
      </trkpt>
      <trkpt lat="46.7528" lon="0.4316">
        <ele>124.6</ele>
        <time>2020-10-11T08:34:50Z</time>
      </trkpt>
      <trkpt lat="46.75279" lon="0.43162">
        <ele>124.6</ele>
        <time>2020-10-11T08:34:51Z</time>
      </trkpt>
      <trkpt lat="46.75274" lon="0.43173">
        <ele>123.6</ele>
        <time>2020-10-11T08:34:55Z</time>
      </trkpt>
      <trkpt lat="46.75274" lon="0.43176">
        <ele>123.6</ele>
        <time>2020-10-11T08:34:56Z</time>
      </trkpt>
      <trkpt lat="46.75273" lon="0.4318">
        <ele>123.4</ele>
        <time>2020-10-11T08:34:57Z</time>
      </trkpt>
      <trkpt lat="46.75264" lon="0.43199">
        <ele>122.4</ele>
        <time>2020-10-11T08:35:02Z</time>
      </trkpt>
      <trkpt lat="46.75261" lon="0.43204">
        <ele>122</ele>
        <time>2020-10-11T08:35:04Z</time>
      </trkpt>
      <trkpt lat="46.75258" lon="0.43217">
        <ele>121.6</ele>
        <time>2020-10-11T08:35:07Z</time>
      </trkpt>
      <trkpt lat="46.75258" lon="0.43224">
        <ele>121.2</ele>
        <time>2020-10-11T08:35:09Z</time>
      </trkpt>
      <trkpt lat="46.75256" lon="0.43236">
        <ele>120.6</ele>
        <time>2020-10-11T08:35:11Z</time>
      </trkpt>
      <trkpt lat="46.75256" lon="0.43236">
        <ele>120.2</ele>
        <time>2020-10-11T08:35:12Z</time>
      </trkpt>
      <trkpt lat="46.75253" lon="0.43247">
        <ele>119.8</ele>
        <time>2020-10-11T08:35:13Z</time>
      </trkpt>
      <trkpt lat="46.7525" lon="0.43263">
        <ele>119.2</ele>
        <time>2020-10-11T08:35:16Z</time>
      </trkpt>
      <trkpt lat="46.7525" lon="0.43263">
        <ele>119</ele>
        <time>2020-10-11T08:35:17Z</time>
      </trkpt>
      <trkpt lat="46.75243" lon="0.43274">
        <ele>119</ele>
        <time>2020-10-11T08:35:19Z</time>
      </trkpt>
      <trkpt lat="46.7524" lon="0.43276">
        <ele>119</ele>
        <time>2020-10-11T08:35:20Z</time>
      </trkpt>
      <trkpt lat="46.75237" lon="0.43276">
        <ele>118.8</ele>
        <time>2020-10-11T08:35:21Z</time>
      </trkpt>
      <trkpt lat="46.75235" lon="0.43276">
        <ele>118.8</ele>
        <time>2020-10-11T08:35:22Z</time>
      </trkpt>
      <trkpt lat="46.75222" lon="0.4327">
        <ele>118.8</ele>
        <time>2020-10-11T08:35:27Z</time>
      </trkpt>
      <trkpt lat="46.75216" lon="0.43268">
        <ele>119.2</ele>
        <time>2020-10-11T08:35:29Z</time>
      </trkpt>
      <trkpt lat="46.7521" lon="0.43269">
        <ele>119.4</ele>
        <time>2020-10-11T08:35:31Z</time>
      </trkpt>
      <trkpt lat="46.75198" lon="0.43281">
        <ele>119.8</ele>
        <time>2020-10-11T08:35:35Z</time>
      </trkpt>
      <trkpt lat="46.75195" lon="0.43283">
        <ele>120</ele>
        <time>2020-10-11T08:35:36Z</time>
      </trkpt>
      <trkpt lat="46.75184" lon="0.43291">
        <ele>121.4</ele>
        <time>2020-10-11T08:35:40Z</time>
      </trkpt>
      <trkpt lat="46.75182" lon="0.43293">
        <ele>122</ele>
        <time>2020-10-11T08:35:41Z</time>
      </trkpt>
      <trkpt lat="46.75178" lon="0.43298">
        <ele>122.8</ele>
        <time>2020-10-11T08:35:43Z</time>
      </trkpt>
      <trkpt lat="46.75173" lon="0.43306">
        <ele>123.6</ele>
        <time>2020-10-11T08:35:46Z</time>
      </trkpt>
      <trkpt lat="46.75172" lon="0.43309">
        <ele>123.8</ele>
        <time>2020-10-11T08:35:47Z</time>
      </trkpt>
      <trkpt lat="46.75165" lon="0.43327">
        <ele>125</ele>
        <time>2020-10-11T08:35:53Z</time>
      </trkpt>
      <trkpt lat="46.75157" lon="0.43351">
        <ele>125.2</ele>
        <time>2020-10-11T08:36:00Z</time>
      </trkpt>
      <trkpt lat="46.7516" lon="0.4337">
        <ele>124.8</ele>
        <time>2020-10-11T08:36:05Z</time>
      </trkpt>
      <trkpt lat="46.75162" lon="0.43377">
        <ele>124.4</ele>
        <time>2020-10-11T08:36:07Z</time>
      </trkpt>
      <trkpt lat="46.75165" lon="0.43385">
        <ele>124</ele>
        <time>2020-10-11T08:36:09Z</time>
      </trkpt>
      <trkpt lat="46.75167" lon="0.43388">
        <ele>123.8</ele>
        <time>2020-10-11T08:36:10Z</time>
      </trkpt>
      <trkpt lat="46.75168" lon="0.4339">
        <ele>123.8</ele>
        <time>2020-10-11T08:36:11Z</time>
      </trkpt>
      <trkpt lat="46.75172" lon="0.43396">
        <ele>123.6</ele>
        <time>2020-10-11T08:36:14Z</time>
      </trkpt>
      <trkpt lat="46.75176" lon="0.43402">
        <ele>123.6</ele>
        <time>2020-10-11T08:36:16Z</time>
      </trkpt>
      <trkpt lat="46.75186" lon="0.43413">
        <ele>122.8</ele>
        <time>2020-10-11T08:36:20Z</time>
      </trkpt>
      <trkpt lat="46.75188" lon="0.43414">
        <ele>122.6</ele>
        <time>2020-10-11T08:36:21Z</time>
      </trkpt>
      <trkpt lat="46.75195" lon="0.43416">
        <ele>121.8</ele>
        <time>2020-10-11T08:36:24Z</time>
      </trkpt>
      <trkpt lat="46.75197" lon="0.43418">
        <ele>121.4</ele>
        <time>2020-10-11T08:36:25Z</time>
      </trkpt>
      <trkpt lat="46.752" lon="0.43423">
        <ele>121</ele>
        <time>2020-10-11T08:36:28Z</time>
      </trkpt>
      <trkpt lat="46.75204" lon="0.43429">
        <ele>120.8</ele>
        <time>2020-10-11T08:36:30Z</time>
      </trkpt>
      <trkpt lat="46.75204" lon="0.43432">
        <ele>121</ele>
        <time>2020-10-11T08:36:31Z</time>
      </trkpt>
      <trkpt lat="46.75203" lon="0.4344">
        <ele>121.6</ele>
        <time>2020-10-11T08:36:34Z</time>
      </trkpt>
      <trkpt lat="46.75203" lon="0.43443">
        <ele>121.8</ele>
        <time>2020-10-11T08:36:35Z</time>
      </trkpt>
      <trkpt lat="46.75201" lon="0.43454">
        <ele>122.2</ele>
        <time>2020-10-11T08:36:38Z</time>
      </trkpt>
      <trkpt lat="46.752" lon="0.43474">
        <ele>122.4</ele>
        <time>2020-10-11T08:36:42Z</time>
      </trkpt>
      <trkpt lat="46.75194" lon="0.43487">
        <ele>122.4</ele>
        <time>2020-10-11T08:36:46Z</time>
      </trkpt>
      <trkpt lat="46.75195" lon="0.43489">
        <ele>122.2</ele>
        <time>2020-10-11T08:36:47Z</time>
      </trkpt>
      <trkpt lat="46.75196" lon="0.43506">
        <ele>121.6</ele>
        <time>2020-10-11T08:36:54Z</time>
      </trkpt>
      <trkpt lat="46.75197" lon="0.43509">
        <ele>121.8</ele>
        <time>2020-10-11T08:36:55Z</time>
      </trkpt>
      <trkpt lat="46.75201" lon="0.43522">
        <ele>121.6</ele>
        <time>2020-10-11T08:36:58Z</time>
      </trkpt>
      <trkpt lat="46.75203" lon="0.43526">
        <ele>121.6</ele>
        <time>2020-10-11T08:36:59Z</time>
      </trkpt>
      <trkpt lat="46.75207" lon="0.43532">
        <ele>121.6</ele>
        <time>2020-10-11T08:37:01Z</time>
      </trkpt>
      <trkpt lat="46.7521" lon="0.43534">
        <ele>121.6</ele>
        <time>2020-10-11T08:37:02Z</time>
      </trkpt>
      <trkpt lat="46.75213" lon="0.43535">
        <ele>121.6</ele>
        <time>2020-10-11T08:37:03Z</time>
      </trkpt>
      <trkpt lat="46.75218" lon="0.43532">
        <ele>121.4</ele>
        <time>2020-10-11T08:37:05Z</time>
      </trkpt>
      <trkpt lat="46.75221" lon="0.43532">
        <ele>121.4</ele>
        <time>2020-10-11T08:37:06Z</time>
      </trkpt>
      <trkpt lat="46.75231" lon="0.43532">
        <ele>121</ele>
        <time>2020-10-11T08:37:09Z</time>
      </trkpt>
      <trkpt lat="46.75234" lon="0.43531">
        <ele>120.8</ele>
        <time>2020-10-11T08:37:10Z</time>
      </trkpt>
      <trkpt lat="46.75238" lon="0.43529">
        <ele>120.6</ele>
        <time>2020-10-11T08:37:11Z</time>
      </trkpt>
      <trkpt lat="46.75244" lon="0.43525">
        <ele>120</ele>
        <time>2020-10-11T08:37:13Z</time>
      </trkpt>
      <trkpt lat="46.75253" lon="0.43524">
        <ele>119.6</ele>
        <time>2020-10-11T08:37:15Z</time>
      </trkpt>
      <trkpt lat="46.75264" lon="0.43521">
        <ele>119.2</ele>
        <time>2020-10-11T08:37:18Z</time>
      </trkpt>
      <trkpt lat="46.75269" lon="0.4352">
        <ele>118.4</ele>
        <time>2020-10-11T08:37:20Z</time>
      </trkpt>
      <trkpt lat="46.75275" lon="0.43516">
        <ele>117.6</ele>
        <time>2020-10-11T08:37:23Z</time>
      </trkpt>
      <trkpt lat="46.75276" lon="0.43515">
        <ele>117.4</ele>
        <time>2020-10-11T08:37:24Z</time>
      </trkpt>
      <trkpt lat="46.75283" lon="0.43515">
        <ele>116.8</ele>
        <time>2020-10-11T08:37:27Z</time>
      </trkpt>
      <trkpt lat="46.75285" lon="0.43516">
        <ele>116.4</ele>
        <time>2020-10-11T08:37:28Z</time>
      </trkpt>
      <trkpt lat="46.75297" lon="0.43525">
        <ele>114.8</ele>
        <time>2020-10-11T08:37:32Z</time>
      </trkpt>
      <trkpt lat="46.753" lon="0.43526">
        <ele>114</ele>
        <time>2020-10-11T08:37:33Z</time>
      </trkpt>
      <trkpt lat="46.75302" lon="0.43525">
        <ele>113.6</ele>
        <time>2020-10-11T08:37:34Z</time>
      </trkpt>
      <trkpt lat="46.75306" lon="0.43519">
        <ele>112.4</ele>
        <time>2020-10-11T08:37:36Z</time>
      </trkpt>
      <trkpt lat="46.75323" lon="0.43503">
        <ele>111.8</ele>
        <time>2020-10-11T08:37:41Z</time>
      </trkpt>
      <trkpt lat="46.75325" lon="0.43499">
        <ele>112</ele>
        <time>2020-10-11T08:37:42Z</time>
      </trkpt>
      <trkpt lat="46.75327" lon="0.43498">
        <ele>112</ele>
        <time>2020-10-11T08:37:43Z</time>
      </trkpt>
      <trkpt lat="46.75333" lon="0.43496">
        <ele>112</ele>
        <time>2020-10-11T08:37:46Z</time>
      </trkpt>
      <trkpt lat="46.75349" lon="0.43495">
        <ele>113.2</ele>
        <time>2020-10-11T08:37:52Z</time>
      </trkpt>
      <trkpt lat="46.75354" lon="0.43495">
        <ele>113.6</ele>
        <time>2020-10-11T08:37:53Z</time>
      </trkpt>
      <trkpt lat="46.7537" lon="0.43491">
        <ele>114.4</ele>
        <time>2020-10-11T08:37:58Z</time>
      </trkpt>
      <trkpt lat="46.75373" lon="0.43489">
        <ele>114.8</ele>
        <time>2020-10-11T08:38:00Z</time>
      </trkpt>
      <trkpt lat="46.75376" lon="0.43488">
        <ele>115.6</ele>
        <time>2020-10-11T08:38:02Z</time>
      </trkpt>
      <trkpt lat="46.75378" lon="0.43488">
        <ele>115.8</ele>
        <time>2020-10-11T08:38:03Z</time>
      </trkpt>
      <trkpt lat="46.75381" lon="0.43491">
        <ele>116.4</ele>
        <time>2020-10-11T08:38:06Z</time>
      </trkpt>
      <trkpt lat="46.75384" lon="0.43494">
        <ele>116.2</ele>
        <time>2020-10-11T08:38:08Z</time>
      </trkpt>
      <trkpt lat="46.7539" lon="0.43502">
        <ele>116</ele>
        <time>2020-10-11T08:38:12Z</time>
      </trkpt>
      <trkpt lat="46.75392" lon="0.43506">
        <ele>116</ele>
        <time>2020-10-11T08:38:13Z</time>
      </trkpt>
      <trkpt lat="46.75394" lon="0.43522">
        <ele>115.8</ele>
        <time>2020-10-11T08:38:18Z</time>
      </trkpt>
      <trkpt lat="46.75399" lon="0.4354">
        <ele>115.4</ele>
        <time>2020-10-11T08:38:23Z</time>
      </trkpt>
      <trkpt lat="46.754" lon="0.43562">
        <ele>115.4</ele>
        <time>2020-10-11T08:38:28Z</time>
      </trkpt>
      <trkpt lat="46.75399" lon="0.4357">
        <ele>115.4</ele>
        <time>2020-10-11T08:38:31Z</time>
      </trkpt>
      <trkpt lat="46.754" lon="0.43573">
        <ele>115.4</ele>
        <time>2020-10-11T08:38:32Z</time>
      </trkpt>
      <trkpt lat="46.75405" lon="0.43592">
        <ele>115.6</ele>
        <time>2020-10-11T08:38:37Z</time>
      </trkpt>
      <trkpt lat="46.75408" lon="0.436">
        <ele>115.6</ele>
        <time>2020-10-11T08:38:39Z</time>
      </trkpt>
      <trkpt lat="46.75412" lon="0.43613">
        <ele>115.8</ele>
        <time>2020-10-11T08:38:42Z</time>
      </trkpt>
      <trkpt lat="46.75417" lon="0.43629">
        <ele>115.8</ele>
        <time>2020-10-11T08:38:46Z</time>
      </trkpt>
      <trkpt lat="46.75419" lon="0.43632">
        <ele>116</ele>
        <time>2020-10-11T08:38:47Z</time>
      </trkpt>
      <trkpt lat="46.75423" lon="0.43637">
        <ele>116.4</ele>
        <time>2020-10-11T08:38:49Z</time>
      </trkpt>
      <trkpt lat="46.75428" lon="0.43639">
        <ele>117</ele>
        <time>2020-10-11T08:38:51Z</time>
      </trkpt>
      <trkpt lat="46.7543" lon="0.4364">
        <ele>117.2</ele>
        <time>2020-10-11T08:38:52Z</time>
      </trkpt>
      <trkpt lat="46.75439" lon="0.43649">
        <ele>117.8</ele>
        <time>2020-10-11T08:38:57Z</time>
      </trkpt>
      <trkpt lat="46.7544" lon="0.4365">
        <ele>118</ele>
        <time>2020-10-11T08:38:58Z</time>
      </trkpt>
      <trkpt lat="46.75442" lon="0.4365">
        <ele>118</ele>
        <time>2020-10-11T08:38:59Z</time>
      </trkpt>
      <trkpt lat="46.75452" lon="0.43649">
        <ele>119</ele>
        <time>2020-10-11T08:39:05Z</time>
      </trkpt>
      <trkpt lat="46.75456" lon="0.43649">
        <ele>119</ele>
        <time>2020-10-11T08:39:07Z</time>
      </trkpt>
      <trkpt lat="46.75457" lon="0.43648">
        <ele>119.2</ele>
        <time>2020-10-11T08:39:09Z</time>
      </trkpt>
      <trkpt lat="46.75458" lon="0.43648">
        <ele>119.2</ele>
        <time>2020-10-11T08:39:10Z</time>
      </trkpt>
      <trkpt lat="46.75462" lon="0.43646">
        <ele>119.6</ele>
        <time>2020-10-11T08:39:13Z</time>
      </trkpt>
      <trkpt lat="46.75465" lon="0.43644">
        <ele>120.2</ele>
        <time>2020-10-11T08:39:16Z</time>
      </trkpt>
      <trkpt lat="46.75467" lon="0.43643">
        <ele>120.8</ele>
        <time>2020-10-11T08:39:18Z</time>
      </trkpt>
      <trkpt lat="46.75471" lon="0.43642">
        <ele>121.2</ele>
        <time>2020-10-11T08:39:20Z</time>
      </trkpt>
      <trkpt lat="46.75472" lon="0.43642">
        <ele>121.2</ele>
        <time>2020-10-11T08:39:21Z</time>
      </trkpt>
      <trkpt lat="46.75474" lon="0.43643">
        <ele>121.4</ele>
        <time>2020-10-11T08:39:22Z</time>
      </trkpt>
      <trkpt lat="46.75484" lon="0.43648">
        <ele>122.2</ele>
        <time>2020-10-11T08:39:26Z</time>
      </trkpt>
      <trkpt lat="46.7549" lon="0.43651">
        <ele>122.4</ele>
        <time>2020-10-11T08:39:28Z</time>
      </trkpt>
      <trkpt lat="46.75492" lon="0.43652">
        <ele>122.6</ele>
        <time>2020-10-11T08:39:29Z</time>
      </trkpt>
      <trkpt lat="46.75497" lon="0.43658">
        <ele>122.8</ele>
        <time>2020-10-11T08:39:31Z</time>
      </trkpt>
      <trkpt lat="46.75507" lon="0.43675">
        <ele>122.8</ele>
        <time>2020-10-11T08:39:36Z</time>
      </trkpt>
      <trkpt lat="46.75513" lon="0.43693">
        <ele>123.6</ele>
        <time>2020-10-11T08:39:42Z</time>
      </trkpt>
      <trkpt lat="46.75513" lon="0.4371">
        <ele>123.8</ele>
        <time>2020-10-11T08:39:47Z</time>
      </trkpt>
      <trkpt lat="46.75514" lon="0.43717">
        <ele>123.8</ele>
        <time>2020-10-11T08:39:49Z</time>
      </trkpt>
      <trkpt lat="46.75516" lon="0.43723">
        <ele>124</ele>
        <time>2020-10-11T08:39:51Z</time>
      </trkpt>
      <trkpt lat="46.75521" lon="0.43731">
        <ele>124.6</ele>
        <time>2020-10-11T08:39:55Z</time>
      </trkpt>
      <trkpt lat="46.75523" lon="0.43731">
        <ele>125</ele>
        <time>2020-10-11T08:39:56Z</time>
      </trkpt>
      <trkpt lat="46.75536" lon="0.43726">
        <ele>125.8</ele>
        <time>2020-10-11T08:40:02Z</time>
      </trkpt>
      <trkpt lat="46.75538" lon="0.43726">
        <ele>126</ele>
        <time>2020-10-11T08:40:03Z</time>
      </trkpt>
      <trkpt lat="46.75543" lon="0.43723">
        <ele>126.4</ele>
        <time>2020-10-11T08:40:06Z</time>
      </trkpt>
      <trkpt lat="46.75546" lon="0.43721">
        <ele>126.8</ele>
        <time>2020-10-11T08:40:08Z</time>
      </trkpt>
      <trkpt lat="46.75547" lon="0.43721">
        <ele>127</ele>
        <time>2020-10-11T08:40:09Z</time>
      </trkpt>
      <trkpt lat="46.75556" lon="0.43719">
        <ele>128.2</ele>
        <time>2020-10-11T08:40:14Z</time>
      </trkpt>
      <trkpt lat="46.75567" lon="0.43719">
        <ele>129.2</ele>
        <time>2020-10-11T08:40:20Z</time>
      </trkpt>
      <trkpt lat="46.75579" lon="0.4372">
        <ele>130</ele>
        <time>2020-10-11T08:40:26Z</time>
      </trkpt>
      <trkpt lat="46.75582" lon="0.43722">
        <ele>130.2</ele>
        <time>2020-10-11T08:40:27Z</time>
      </trkpt>
      <trkpt lat="46.75588" lon="0.43734">
        <ele>130.4</ele>
        <time>2020-10-11T08:40:31Z</time>
      </trkpt>
      <trkpt lat="46.75595" lon="0.43752">
        <ele>130.6</ele>
        <time>2020-10-11T08:40:37Z</time>
      </trkpt>
      <trkpt lat="46.75605" lon="0.4377">
        <ele>130.6</ele>
        <time>2020-10-11T08:40:43Z</time>
      </trkpt>
      <trkpt lat="46.75608" lon="0.43773">
        <ele>130.6</ele>
        <time>2020-10-11T08:40:44Z</time>
      </trkpt>
      <trkpt lat="46.75622" lon="0.43777">
        <ele>130.6</ele>
        <time>2020-10-11T08:40:49Z</time>
      </trkpt>
      <trkpt lat="46.75626" lon="0.43776">
        <ele>131.4</ele>
        <time>2020-10-11T08:40:51Z</time>
      </trkpt>
      <trkpt lat="46.75634" lon="0.4377">
        <ele>132.2</ele>
        <time>2020-10-11T08:40:55Z</time>
      </trkpt>
      <trkpt lat="46.75643" lon="0.43768">
        <ele>132.4</ele>
        <time>2020-10-11T08:40:58Z</time>
      </trkpt>
      <trkpt lat="46.75649" lon="0.43766">
        <ele>132.4</ele>
        <time>2020-10-11T08:41:00Z</time>
      </trkpt>
      <trkpt lat="46.7566" lon="0.4376">
        <ele>133.2</ele>
        <time>2020-10-11T08:41:05Z</time>
      </trkpt>
      <trkpt lat="46.75662" lon="0.43758">
        <ele>133.6</ele>
        <time>2020-10-11T08:41:06Z</time>
      </trkpt>
      <trkpt lat="46.75671" lon="0.43748">
        <ele>134.6</ele>
        <time>2020-10-11T08:41:11Z</time>
      </trkpt>
      <trkpt lat="46.75692" lon="0.43725">
        <ele>135</ele>
        <time>2020-10-11T08:41:18Z</time>
      </trkpt>
      <trkpt lat="46.75705" lon="0.43708">
        <ele>135.4</ele>
        <time>2020-10-11T08:41:23Z</time>
      </trkpt>
      <trkpt lat="46.75708" lon="0.43705">
        <ele>135.6</ele>
        <time>2020-10-11T08:41:24Z</time>
      </trkpt>
      <trkpt lat="46.7573" lon="0.43678">
        <ele>136.6</ele>
        <time>2020-10-11T08:41:32Z</time>
      </trkpt>
      <trkpt lat="46.75747" lon="0.43657">
        <ele>136.8</ele>
        <time>2020-10-11T08:41:39Z</time>
      </trkpt>
      <trkpt lat="46.75749" lon="0.43643">
        <ele>136.8</ele>
        <time>2020-10-11T08:41:43Z</time>
      </trkpt>
      <trkpt lat="46.7575" lon="0.43636">
        <ele>136.6</ele>
        <time>2020-10-11T08:41:46Z</time>
      </trkpt>
      <trkpt lat="46.75752" lon="0.43629">
        <ele>136.4</ele>
        <time>2020-10-11T08:41:48Z</time>
      </trkpt>
      <trkpt lat="46.75763" lon="0.43595">
        <ele>137.2</ele>
        <time>2020-10-11T08:41:55Z</time>
      </trkpt>
      <trkpt lat="46.75782" lon="0.43553">
        <ele>137</ele>
        <time>2020-10-11T08:42:04Z</time>
      </trkpt>
      <trkpt lat="46.75792" lon="0.4354">
        <ele>137.6</ele>
        <time>2020-10-11T08:42:08Z</time>
      </trkpt>
      <trkpt lat="46.75798" lon="0.43534">
        <ele>137.8</ele>
        <time>2020-10-11T08:42:10Z</time>
      </trkpt>
      <trkpt lat="46.75825" lon="0.43507">
        <ele>138</ele>
        <time>2020-10-11T08:42:18Z</time>
      </trkpt>
      <trkpt lat="46.75858" lon="0.43474">
        <ele>138.4</ele>
        <time>2020-10-11T08:42:26Z</time>
      </trkpt>
      <trkpt lat="46.75892" lon="0.43438">
        <ele>137.2</ele>
        <time>2020-10-11T08:42:34Z</time>
      </trkpt>
      <trkpt lat="46.75922" lon="0.43407">
        <ele>136.6</ele>
        <time>2020-10-11T08:42:41Z</time>
      </trkpt>
      <trkpt lat="46.75926" lon="0.43402">
        <ele>136.4</ele>
        <time>2020-10-11T08:42:42Z</time>
      </trkpt>
      <trkpt lat="46.75942" lon="0.43385">
        <ele>135.4</ele>
        <time>2020-10-11T08:42:46Z</time>
      </trkpt>
      <trkpt lat="46.75956" lon="0.43368">
        <ele>134.8</ele>
        <time>2020-10-11T08:42:50Z</time>
      </trkpt>
      <trkpt lat="46.7596" lon="0.43364">
        <ele>134.8</ele>
        <time>2020-10-11T08:42:51Z</time>
      </trkpt>
      <trkpt lat="46.75966" lon="0.43361">
        <ele>134.8</ele>
        <time>2020-10-11T08:42:53Z</time>
      </trkpt>
      <trkpt lat="46.7597" lon="0.43362">
        <ele>134.8</ele>
        <time>2020-10-11T08:42:54Z</time>
      </trkpt>
      <trkpt lat="46.75973" lon="0.43365">
        <ele>134.6</ele>
        <time>2020-10-11T08:42:55Z</time>
      </trkpt>
      <trkpt lat="46.75975" lon="0.4337">
        <ele>134.4</ele>
        <time>2020-10-11T08:42:56Z</time>
      </trkpt>
      <trkpt lat="46.75984" lon="0.43383">
        <ele>134</ele>
        <time>2020-10-11T08:42:59Z</time>
      </trkpt>
      <trkpt lat="46.75989" lon="0.43391">
        <ele>133.8</ele>
        <time>2020-10-11T08:43:01Z</time>
      </trkpt>
      <trkpt lat="46.75997" lon="0.43403">
        <ele>133.8</ele>
        <time>2020-10-11T08:43:04Z</time>
      </trkpt>
      <trkpt lat="46.76008" lon="0.43422">
        <ele>133.6</ele>
        <time>2020-10-11T08:43:08Z</time>
      </trkpt>
      <trkpt lat="46.76014" lon="0.43428">
        <ele>133.2</ele>
        <time>2020-10-11T08:43:10Z</time>
      </trkpt>
      <trkpt lat="46.7602" lon="0.4343">
        <ele>133</ele>
        <time>2020-10-11T08:43:12Z</time>
      </trkpt>
      <trkpt lat="46.76026" lon="0.43435">
        <ele>132.6</ele>
        <time>2020-10-11T08:43:14Z</time>
      </trkpt>
      <trkpt lat="46.76027" lon="0.4344">
        <ele>132.4</ele>
        <time>2020-10-11T08:43:15Z</time>
      </trkpt>
      <trkpt lat="46.7603" lon="0.43443">
        <ele>132.2</ele>
        <time>2020-10-11T08:43:16Z</time>
      </trkpt>
      <trkpt lat="46.76031" lon="0.43446">
        <ele>132.2</ele>
        <time>2020-10-11T08:43:17Z</time>
      </trkpt>
      <trkpt lat="46.76033" lon="0.43449">
        <ele>132</ele>
        <time>2020-10-11T08:43:18Z</time>
      </trkpt>
      <trkpt lat="46.76035" lon="0.4345">
        <ele>132</ele>
        <time>2020-10-11T08:43:19Z</time>
      </trkpt>
      <trkpt lat="46.76041" lon="0.43453">
        <ele>131.4</ele>
        <time>2020-10-11T08:43:21Z</time>
      </trkpt>
      <trkpt lat="46.76044" lon="0.43457">
        <ele>131</ele>
        <time>2020-10-11T08:43:22Z</time>
      </trkpt>
      <trkpt lat="46.76045" lon="0.43462">
        <ele>130.6</ele>
        <time>2020-10-11T08:43:23Z</time>
      </trkpt>
      <trkpt lat="46.76053" lon="0.43476">
        <ele>129.6</ele>
        <time>2020-10-11T08:43:26Z</time>
      </trkpt>
      <trkpt lat="46.76056" lon="0.4348">
        <ele>129</ele>
        <time>2020-10-11T08:43:27Z</time>
      </trkpt>
      <trkpt lat="46.76059" lon="0.43482">
        <ele>128.4</ele>
        <time>2020-10-11T08:43:28Z</time>
      </trkpt>
      <trkpt lat="46.76071" lon="0.43498">
        <ele>127.4</ele>
        <time>2020-10-11T08:43:32Z</time>
      </trkpt>
      <trkpt lat="46.76073" lon="0.43504">
        <ele>127</ele>
        <time>2020-10-11T08:43:33Z</time>
      </trkpt>
      <trkpt lat="46.76073" lon="0.4351">
        <ele>126.8</ele>
        <time>2020-10-11T08:43:34Z</time>
      </trkpt>
      <trkpt lat="46.76075" lon="0.43531">
        <ele>126.4</ele>
        <time>2020-10-11T08:43:37Z</time>
      </trkpt>
      <trkpt lat="46.76074" lon="0.43544">
        <ele>126.4</ele>
        <time>2020-10-11T08:43:40Z</time>
      </trkpt>
      <trkpt lat="46.76074" lon="0.4355">
        <ele>126.4</ele>
        <time>2020-10-11T08:43:41Z</time>
      </trkpt>
      <trkpt lat="46.76072" lon="0.43573">
        <ele>126.4</ele>
        <time>2020-10-11T08:43:47Z</time>
      </trkpt>
      <trkpt lat="46.76067" lon="0.43602">
        <ele>126</ele>
        <time>2020-10-11T08:43:52Z</time>
      </trkpt>
      <trkpt lat="46.76067" lon="0.43607">
        <ele>126</ele>
        <time>2020-10-11T08:43:53Z</time>
      </trkpt>
      <trkpt lat="46.76065" lon="0.43618">
        <ele>126</ele>
        <time>2020-10-11T08:43:55Z</time>
      </trkpt>
      <trkpt lat="46.76062" lon="0.43629">
        <ele>126.2</ele>
        <time>2020-10-11T08:43:57Z</time>
      </trkpt>
      <trkpt lat="46.76057" lon="0.43658">
        <ele>126.8</ele>
        <time>2020-10-11T08:44:02Z</time>
      </trkpt>
      <trkpt lat="46.76058" lon="0.4366">
        <ele>126.6</ele>
        <time>2020-10-11T08:44:03Z</time>
      </trkpt>
      <trkpt lat="46.76063" lon="0.4367">
        <ele>125.8</ele>
        <time>2020-10-11T08:44:07Z</time>
      </trkpt>
      <trkpt lat="46.76064" lon="0.43674">
        <ele>125.4</ele>
        <time>2020-10-11T08:44:08Z</time>
      </trkpt>
      <trkpt lat="46.76063" lon="0.43681">
        <ele>124.8</ele>
        <time>2020-10-11T08:44:10Z</time>
      </trkpt>
      <trkpt lat="46.76062" lon="0.4369">
        <ele>124.4</ele>
        <time>2020-10-11T08:44:13Z</time>
      </trkpt>
      <trkpt lat="46.76063" lon="0.43693">
        <ele>124.4</ele>
        <time>2020-10-11T08:44:14Z</time>
      </trkpt>
      <trkpt lat="46.76065" lon="0.43696">
        <ele>124.2</ele>
        <time>2020-10-11T08:44:15Z</time>
      </trkpt>
      <trkpt lat="46.76066" lon="0.437">
        <ele>124</ele>
        <time>2020-10-11T08:44:16Z</time>
      </trkpt>
      <trkpt lat="46.76068" lon="0.43709">
        <ele>123.6</ele>
        <time>2020-10-11T08:44:18Z</time>
      </trkpt>
      <trkpt lat="46.76071" lon="0.43719">
        <ele>122.8</ele>
        <time>2020-10-11T08:44:20Z</time>
      </trkpt>
      <trkpt lat="46.76071" lon="0.43731">
        <ele>121.8</ele>
        <time>2020-10-11T08:44:22Z</time>
      </trkpt>
      <trkpt lat="46.76066" lon="0.43745">
        <ele>120.8</ele>
        <time>2020-10-11T08:44:26Z</time>
      </trkpt>
      <trkpt lat="46.76065" lon="0.43748">
        <ele>120.8</ele>
        <time>2020-10-11T08:44:27Z</time>
      </trkpt>
      <trkpt lat="46.76063" lon="0.43764">
        <ele>121.4</ele>
        <time>2020-10-11T08:44:32Z</time>
      </trkpt>
      <trkpt lat="46.76068" lon="0.43782">
        <ele>120.6</ele>
        <time>2020-10-11T08:44:37Z</time>
      </trkpt>
      <trkpt lat="46.7607" lon="0.43789">
        <ele>119.6</ele>
        <time>2020-10-11T08:44:39Z</time>
      </trkpt>
      <trkpt lat="46.76076" lon="0.43805">
        <ele>118.8</ele>
        <time>2020-10-11T08:44:42Z</time>
      </trkpt>
      <trkpt lat="46.76077" lon="0.43811">
        <ele>118.6</ele>
        <time>2020-10-11T08:44:43Z</time>
      </trkpt>
      <trkpt lat="46.76076" lon="0.43815">
        <ele>118.6</ele>
        <time>2020-10-11T08:44:44Z</time>
      </trkpt>
      <trkpt lat="46.76076" lon="0.43825">
        <ele>118.6</ele>
        <time>2020-10-11T08:44:46Z</time>
      </trkpt>
      <trkpt lat="46.76077" lon="0.43832">
        <ele>118.4</ele>
        <time>2020-10-11T08:44:48Z</time>
      </trkpt>
      <trkpt lat="46.7608" lon="0.43837">
        <ele>118.4</ele>
        <time>2020-10-11T08:44:50Z</time>
      </trkpt>
      <trkpt lat="46.76079" lon="0.43852">
        <ele>118</ele>
        <time>2020-10-11T08:44:54Z</time>
      </trkpt>
      <trkpt lat="46.76074" lon="0.43856">
        <ele>118</ele>
        <time>2020-10-11T08:44:57Z</time>
      </trkpt>
      <trkpt lat="46.7607" lon="0.43856">
        <ele>118.4</ele>
        <time>2020-10-11T08:44:59Z</time>
      </trkpt>
      <trkpt lat="46.76067" lon="0.43857">
        <ele>118.8</ele>
        <time>2020-10-11T08:45:00Z</time>
      </trkpt>
      <trkpt lat="46.76065" lon="0.43862">
        <ele>119.4</ele>
        <time>2020-10-11T08:45:03Z</time>
      </trkpt>
      <trkpt lat="46.76065" lon="0.43866">
        <ele>119.4</ele>
        <time>2020-10-11T08:45:05Z</time>
      </trkpt>
      <trkpt lat="46.76064" lon="0.43871">
        <ele>119.2</ele>
        <time>2020-10-11T08:45:07Z</time>
      </trkpt>
      <trkpt lat="46.76064" lon="0.43874">
        <ele>119</ele>
        <time>2020-10-11T08:45:08Z</time>
      </trkpt>
      <trkpt lat="46.76056" lon="0.43887">
        <ele>118.8</ele>
        <time>2020-10-11T08:45:12Z</time>
      </trkpt>
      <trkpt lat="46.76054" lon="0.4389">
        <ele>118.8</ele>
        <time>2020-10-11T08:45:13Z</time>
      </trkpt>
      <trkpt lat="46.76054" lon="0.43896">
        <ele>118.8</ele>
        <time>2020-10-11T08:45:15Z</time>
      </trkpt>
      <trkpt lat="46.76067" lon="0.43902">
        <ele>118.4</ele>
        <time>2020-10-11T08:45:19Z</time>
      </trkpt>
      <trkpt lat="46.76077" lon="0.43906">
        <ele>117.6</ele>
        <time>2020-10-11T08:45:21Z</time>
      </trkpt>
      <trkpt lat="46.76094" lon="0.43912">
        <ele>116.6</ele>
        <time>2020-10-11T08:45:24Z</time>
      </trkpt>
      <trkpt lat="46.76099" lon="0.43914">
        <ele>116.4</ele>
        <time>2020-10-11T08:45:25Z</time>
      </trkpt>
      <trkpt lat="46.76109" lon="0.43918">
        <ele>115.2</ele>
        <time>2020-10-11T08:45:27Z</time>
      </trkpt>
      <trkpt lat="46.76119" lon="0.43922">
        <ele>113.8</ele>
        <time>2020-10-11T08:45:29Z</time>
      </trkpt>
      <trkpt lat="46.76129" lon="0.43926">
        <ele>113</ele>
        <time>2020-10-11T08:45:31Z</time>
      </trkpt>
      <trkpt lat="46.76134" lon="0.43927">
        <ele>112.6</ele>
        <time>2020-10-11T08:45:32Z</time>
      </trkpt>
      <trkpt lat="46.76138" lon="0.43925">
        <ele>112.2</ele>
        <time>2020-10-11T08:45:33Z</time>
      </trkpt>
      <trkpt lat="46.76141" lon="0.4392">
        <ele>112</ele>
        <time>2020-10-11T08:45:34Z</time>
      </trkpt>
      <trkpt lat="46.76142" lon="0.43912">
        <ele>111.6</ele>
        <time>2020-10-11T08:45:35Z</time>
      </trkpt>
      <trkpt lat="46.76142" lon="0.43904">
        <ele>111.4</ele>
        <time>2020-10-11T08:45:36Z</time>
      </trkpt>
      <trkpt lat="46.76142" lon="0.43896">
        <ele>111.2</ele>
        <time>2020-10-11T08:45:37Z</time>
      </trkpt>
      <trkpt lat="46.76143" lon="0.43888">
        <ele>111</ele>
        <time>2020-10-11T08:45:38Z</time>
      </trkpt>
      <trkpt lat="46.76147" lon="0.43854">
        <ele>110.4</ele>
        <time>2020-10-11T08:45:42Z</time>
      </trkpt>
      <trkpt lat="46.76155" lon="0.43799">
        <ele>110.2</ele>
        <time>2020-10-11T08:45:49Z</time>
      </trkpt>
      <trkpt lat="46.76166" lon="0.43748">
        <ele>110.6</ele>
        <time>2020-10-11T08:45:56Z</time>
      </trkpt>
      <trkpt lat="46.76182" lon="0.43708">
        <ele>110.8</ele>
        <time>2020-10-11T08:46:02Z</time>
      </trkpt>
      <trkpt lat="46.76199" lon="0.43661">
        <ele>111.2</ele>
        <time>2020-10-11T08:46:10Z</time>
      </trkpt>
      <trkpt lat="46.76206" lon="0.43642">
        <ele>111.4</ele>
        <time>2020-10-11T08:46:13Z</time>
      </trkpt>
      <trkpt lat="46.76217" lon="0.43611">
        <ele>111.6</ele>
        <time>2020-10-11T08:46:18Z</time>
      </trkpt>
      <trkpt lat="46.76229" lon="0.4357">
        <ele>112</ele>
        <time>2020-10-11T08:46:24Z</time>
      </trkpt>
      <trkpt lat="46.7624" lon="0.43531">
        <ele>112</ele>
        <time>2020-10-11T08:46:30Z</time>
      </trkpt>
      <trkpt lat="46.7625" lon="0.43494">
        <ele>112.4</ele>
        <time>2020-10-11T08:46:36Z</time>
      </trkpt>
      <trkpt lat="46.76252" lon="0.43488">
        <ele>112.4</ele>
        <time>2020-10-11T08:46:37Z</time>
      </trkpt>
      <trkpt lat="46.7626" lon="0.43446">
        <ele>113</ele>
        <time>2020-10-11T08:46:43Z</time>
      </trkpt>
      <trkpt lat="46.76265" lon="0.43414">
        <ele>113.4</ele>
        <time>2020-10-11T08:46:47Z</time>
      </trkpt>
      <trkpt lat="46.76265" lon="0.43414">
        <ele>113.8</ele>
        <time>2020-10-11T08:46:48Z</time>
      </trkpt>
      <trkpt lat="46.76264" lon="0.43395">
        <ele>113.8</ele>
        <time>2020-10-11T08:46:50Z</time>
      </trkpt>
      <trkpt lat="46.76259" lon="0.43357">
        <ele>114.6</ele>
        <time>2020-10-11T08:46:56Z</time>
      </trkpt>
      <trkpt lat="46.76258" lon="0.43351">
        <ele>114.8</ele>
        <time>2020-10-11T08:46:57Z</time>
      </trkpt>
      <trkpt lat="46.76253" lon="0.43328">
        <ele>115.2</ele>
        <time>2020-10-11T08:47:02Z</time>
      </trkpt>
      <trkpt lat="46.76248" lon="0.43308">
        <ele>115.8</ele>
        <time>2020-10-11T08:47:07Z</time>
      </trkpt>
      <trkpt lat="46.76246" lon="0.43305">
        <ele>116</ele>
        <time>2020-10-11T08:47:08Z</time>
      </trkpt>
      <trkpt lat="46.76236" lon="0.43281">
        <ele>116.6</ele>
        <time>2020-10-11T08:47:15Z</time>
      </trkpt>
      <trkpt lat="46.76227" lon="0.43264">
        <ele>116.8</ele>
        <time>2020-10-11T08:47:21Z</time>
      </trkpt>
      <trkpt lat="46.76226" lon="0.43261">
        <ele>116.8</ele>
        <time>2020-10-11T08:47:22Z</time>
      </trkpt>
      <trkpt lat="46.76216" lon="0.43242">
        <ele>117</ele>
        <time>2020-10-11T08:47:28Z</time>
      </trkpt>
      <trkpt lat="46.76211" lon="0.43233">
        <ele>117.2</ele>
        <time>2020-10-11T08:47:32Z</time>
      </trkpt>
      <trkpt lat="46.76211" lon="0.43232">
        <ele>117.2</ele>
        <time>2020-10-11T08:47:33Z</time>
      </trkpt>
      <trkpt lat="46.76212" lon="0.43232">
        <ele>117.2</ele>
        <time>2020-10-11T08:47:34Z</time>
      </trkpt>
      <trkpt lat="46.76215" lon="0.43238">
        <ele>117.4</ele>
        <time>2020-10-11T08:47:38Z</time>
      </trkpt>
      <trkpt lat="46.7622" lon="0.43238">
        <ele>117.4</ele>
        <time>2020-10-11T08:47:41Z</time>
      </trkpt>
      <trkpt lat="46.76223" lon="0.43236">
        <ele>118.2</ele>
        <time>2020-10-11T08:47:44Z</time>
      </trkpt>
      <trkpt lat="46.76226" lon="0.43235">
        <ele>118.8</ele>
        <time>2020-10-11T08:47:46Z</time>
      </trkpt>
      <trkpt lat="46.76229" lon="0.43233">
        <ele>119.2</ele>
        <time>2020-10-11T08:47:48Z</time>
      </trkpt>
      <trkpt lat="46.76235" lon="0.43232">
        <ele>120.2</ele>
        <time>2020-10-11T08:47:51Z</time>
      </trkpt>
      <trkpt lat="46.76238" lon="0.43233">
        <ele>120.4</ele>
        <time>2020-10-11T08:47:52Z</time>
      </trkpt>
      <trkpt lat="46.76244" lon="0.43233">
        <ele>121</ele>
        <time>2020-10-11T08:47:55Z</time>
      </trkpt>
      <trkpt lat="46.76249" lon="0.43234">
        <ele>121.4</ele>
        <time>2020-10-11T08:47:57Z</time>
      </trkpt>
      <trkpt lat="46.76255" lon="0.43238">
        <ele>121.6</ele>
        <time>2020-10-11T08:48:00Z</time>
      </trkpt>
      <trkpt lat="46.76266" lon="0.43246">
        <ele>121.6</ele>
        <time>2020-10-11T08:48:05Z</time>
      </trkpt>
      <trkpt lat="46.76274" lon="0.43251">
        <ele>122.6</ele>
        <time>2020-10-11T08:48:09Z</time>
      </trkpt>
      <trkpt lat="46.76276" lon="0.43252">
        <ele>123</ele>
        <time>2020-10-11T08:48:10Z</time>
      </trkpt>
      <trkpt lat="46.76281" lon="0.43254">
        <ele>123.8</ele>
        <time>2020-10-11T08:48:12Z</time>
      </trkpt>
      <trkpt lat="46.76293" lon="0.43259">
        <ele>124.6</ele>
        <time>2020-10-11T08:48:16Z</time>
      </trkpt>
      <trkpt lat="46.76298" lon="0.43262">
        <ele>124.8</ele>
        <time>2020-10-11T08:48:18Z</time>
      </trkpt>
      <trkpt lat="46.76308" lon="0.4327">
        <ele>125.8</ele>
        <time>2020-10-11T08:48:22Z</time>
      </trkpt>
      <trkpt lat="46.7631" lon="0.43271">
        <ele>126</ele>
        <time>2020-10-11T08:48:23Z</time>
      </trkpt>
      <trkpt lat="46.76312" lon="0.43272">
        <ele>126</ele>
        <time>2020-10-11T08:48:24Z</time>
      </trkpt>
      <trkpt lat="46.7632" lon="0.43278">
        <ele>126.6</ele>
        <time>2020-10-11T08:48:28Z</time>
      </trkpt>
      <trkpt lat="46.76336" lon="0.43288">
        <ele>126.8</ele>
        <time>2020-10-11T08:48:35Z</time>
      </trkpt>
      <trkpt lat="46.76338" lon="0.4329">
        <ele>126.8</ele>
        <time>2020-10-11T08:48:36Z</time>
      </trkpt>
      <trkpt lat="46.7635" lon="0.43304">
        <ele>126.8</ele>
        <time>2020-10-11T08:48:43Z</time>
      </trkpt>
      <trkpt lat="46.76361" lon="0.43319">
        <ele>126.2</ele>
        <time>2020-10-11T08:48:50Z</time>
      </trkpt>
      <trkpt lat="46.76373" lon="0.43337">
        <ele>126.4</ele>
        <time>2020-10-11T08:48:56Z</time>
      </trkpt>
      <trkpt lat="46.76381" lon="0.43357">
        <ele>126.4</ele>
        <time>2020-10-11T08:49:02Z</time>
      </trkpt>
      <trkpt lat="46.76387" lon="0.43375">
        <ele>125.4</ele>
        <time>2020-10-11T08:49:07Z</time>
      </trkpt>
      <trkpt lat="46.76389" lon="0.43383">
        <ele>124.8</ele>
        <time>2020-10-11T08:49:09Z</time>
      </trkpt>
      <trkpt lat="46.76392" lon="0.43397">
        <ele>123.4</ele>
        <time>2020-10-11T08:49:12Z</time>
      </trkpt>
      <trkpt lat="46.76395" lon="0.43403">
        <ele>123</ele>
        <time>2020-10-11T08:49:14Z</time>
      </trkpt>
      <trkpt lat="46.76398" lon="0.43407">
        <ele>122.8</ele>
        <time>2020-10-11T08:49:16Z</time>
      </trkpt>
      <trkpt lat="46.7641" lon="0.43422">
        <ele>123.4</ele>
        <time>2020-10-11T08:49:23Z</time>
      </trkpt>
      <trkpt lat="46.76419" lon="0.4343">
        <ele>124.4</ele>
        <time>2020-10-11T08:49:29Z</time>
      </trkpt>
      <trkpt lat="46.76427" lon="0.43434">
        <ele>125.4</ele>
        <time>2020-10-11T08:49:38Z</time>
      </trkpt>
      <trkpt lat="46.76432" lon="0.43434">
        <ele>125.4</ele>
        <time>2020-10-11T08:49:52Z</time>
      </trkpt>
      <trkpt lat="46.76439" lon="0.43435">
        <ele>125.4</ele>
        <time>2020-10-11T08:50:00Z</time>
      </trkpt>
      <trkpt lat="46.76441" lon="0.43437">
        <ele>125.4</ele>
        <time>2020-10-11T08:50:01Z</time>
      </trkpt>
      <trkpt lat="46.76446" lon="0.43444">
        <ele>125.6</ele>
        <time>2020-10-11T08:50:05Z</time>
      </trkpt>
      <trkpt lat="46.76451" lon="0.4345">
        <ele>127.2</ele>
        <time>2020-10-11T08:50:09Z</time>
      </trkpt>
      <trkpt lat="46.76454" lon="0.43459">
        <ele>128.2</ele>
        <time>2020-10-11T08:50:12Z</time>
      </trkpt>
      <trkpt lat="46.76456" lon="0.43469">
        <ele>129.6</ele>
        <time>2020-10-11T08:50:16Z</time>
      </trkpt>
      <trkpt lat="46.76464" lon="0.43484">
        <ele>130.8</ele>
        <time>2020-10-11T08:50:23Z</time>
      </trkpt>
      <trkpt lat="46.76475" lon="0.43495">
        <ele>131.8</ele>
        <time>2020-10-11T08:50:31Z</time>
      </trkpt>
      <trkpt lat="46.76478" lon="0.435">
        <ele>131.8</ele>
        <time>2020-10-11T08:50:33Z</time>
      </trkpt>
      <trkpt lat="46.76479" lon="0.43508">
        <ele>131.8</ele>
        <time>2020-10-11T08:50:35Z</time>
      </trkpt>
      <trkpt lat="46.76479" lon="0.43532">
        <ele>132</ele>
        <time>2020-10-11T08:50:40Z</time>
      </trkpt>
      <trkpt lat="46.7648" lon="0.43567">
        <ele>133</ele>
        <time>2020-10-11T08:50:47Z</time>
      </trkpt>
      <trkpt lat="46.7648" lon="0.43576">
        <ele>133.2</ele>
        <time>2020-10-11T08:50:49Z</time>
      </trkpt>
      <trkpt lat="46.76482" lon="0.43617">
        <ele>133.8</ele>
        <time>2020-10-11T08:50:58Z</time>
      </trkpt>
      <trkpt lat="46.76482" lon="0.43632">
        <ele>134</ele>
        <time>2020-10-11T08:51:01Z</time>
      </trkpt>
      <trkpt lat="46.76483" lon="0.43646">
        <ele>134.2</ele>
        <time>2020-10-11T08:51:04Z</time>
      </trkpt>
      <trkpt lat="46.7648" lon="0.43666">
        <ele>134</ele>
        <time>2020-10-11T08:51:09Z</time>
      </trkpt>
      <trkpt lat="46.76477" lon="0.43671">
        <ele>134</ele>
        <time>2020-10-11T08:51:11Z</time>
      </trkpt>
      <trkpt lat="46.76476" lon="0.43676">
        <ele>134</ele>
        <time>2020-10-11T08:51:13Z</time>
      </trkpt>
      <trkpt lat="46.76469" lon="0.43693">
        <ele>135</ele>
        <time>2020-10-11T08:51:18Z</time>
      </trkpt>
      <trkpt lat="46.76466" lon="0.43697">
        <ele>135</ele>
        <time>2020-10-11T08:51:19Z</time>
      </trkpt>
      <trkpt lat="46.76459" lon="0.43708">
        <ele>135.2</ele>
        <time>2020-10-11T08:51:22Z</time>
      </trkpt>
      <trkpt lat="46.76453" lon="0.43718">
        <ele>135</ele>
        <time>2020-10-11T08:51:25Z</time>
      </trkpt>
      <trkpt lat="46.76441" lon="0.43737">
        <ele>134.4</ele>
        <time>2020-10-11T08:51:30Z</time>
      </trkpt>
      <trkpt lat="46.76425" lon="0.43763">
        <ele>134.4</ele>
        <time>2020-10-11T08:51:37Z</time>
      </trkpt>
      <trkpt lat="46.7641" lon="0.43781">
        <ele>134.4</ele>
        <time>2020-10-11T08:51:42Z</time>
      </trkpt>
      <trkpt lat="46.76401" lon="0.438">
        <ele>134.2</ele>
        <time>2020-10-11T08:51:46Z</time>
      </trkpt>
      <trkpt lat="46.76395" lon="0.43817">
        <ele>134</ele>
        <time>2020-10-11T08:51:49Z</time>
      </trkpt>
      <trkpt lat="46.76393" lon="0.43822">
        <ele>134</ele>
        <time>2020-10-11T08:51:50Z</time>
      </trkpt>
      <trkpt lat="46.76389" lon="0.43831">
        <ele>133.8</ele>
        <time>2020-10-11T08:51:52Z</time>
      </trkpt>
      <trkpt lat="46.76372" lon="0.43854">
        <ele>133.4</ele>
        <time>2020-10-11T08:51:58Z</time>
      </trkpt>
      <trkpt lat="46.76366" lon="0.43861">
        <ele>132.8</ele>
        <time>2020-10-11T08:52:00Z</time>
      </trkpt>
      <trkpt lat="46.76359" lon="0.43869">
        <ele>132.6</ele>
        <time>2020-10-11T08:52:02Z</time>
      </trkpt>
      <trkpt lat="46.76352" lon="0.43876">
        <ele>132.4</ele>
        <time>2020-10-11T08:52:04Z</time>
      </trkpt>
      <trkpt lat="46.76349" lon="0.4388">
        <ele>132.4</ele>
        <time>2020-10-11T08:52:05Z</time>
      </trkpt>
      <trkpt lat="46.76338" lon="0.43899">
        <ele>132.4</ele>
        <time>2020-10-11T08:52:09Z</time>
      </trkpt>
      <trkpt lat="46.76334" lon="0.43907">
        <ele>132.2</ele>
        <time>2020-10-11T08:52:11Z</time>
      </trkpt>
      <trkpt lat="46.7633" lon="0.43917">
        <ele>131.8</ele>
        <time>2020-10-11T08:52:13Z</time>
      </trkpt>
      <trkpt lat="46.76323" lon="0.43933">
        <ele>131.4</ele>
        <time>2020-10-11T08:52:18Z</time>
      </trkpt>
      <trkpt lat="46.76321" lon="0.43943">
        <ele>130.6</ele>
        <time>2020-10-11T08:52:22Z</time>
      </trkpt>
      <trkpt lat="46.76321" lon="0.43944">
        <ele>130.6</ele>
        <time>2020-10-11T08:52:23Z</time>
      </trkpt>
      <trkpt lat="46.76323" lon="0.43948">
        <ele>130.4</ele>
        <time>2020-10-11T08:52:25Z</time>
      </trkpt>
      <trkpt lat="46.76326" lon="0.43951">
        <ele>131</ele>
        <time>2020-10-11T08:52:27Z</time>
      </trkpt>
      <trkpt lat="46.76332" lon="0.43956">
        <ele>131.4</ele>
        <time>2020-10-11T08:52:29Z</time>
      </trkpt>
      <trkpt lat="46.76335" lon="0.43957">
        <ele>131.8</ele>
        <time>2020-10-11T08:52:30Z</time>
      </trkpt>
      <trkpt lat="46.76338" lon="0.43957">
        <ele>132</ele>
        <time>2020-10-11T08:52:31Z</time>
      </trkpt>
      <trkpt lat="46.76342" lon="0.43958">
        <ele>132.2</ele>
        <time>2020-10-11T08:52:32Z</time>
      </trkpt>
      <trkpt lat="46.76349" lon="0.43958">
        <ele>132.6</ele>
        <time>2020-10-11T08:52:34Z</time>
      </trkpt>
      <trkpt lat="46.76357" lon="0.43957">
        <ele>133</ele>
        <time>2020-10-11T08:52:36Z</time>
      </trkpt>
      <trkpt lat="46.7637" lon="0.43956">
        <ele>133.4</ele>
        <time>2020-10-11T08:52:39Z</time>
      </trkpt>
      <trkpt lat="46.76383" lon="0.43952">
        <ele>133.4</ele>
        <time>2020-10-11T08:52:42Z</time>
      </trkpt>
      <trkpt lat="46.76399" lon="0.43948">
        <ele>133.8</ele>
        <time>2020-10-11T08:52:46Z</time>
      </trkpt>
      <trkpt lat="46.76416" lon="0.43943">
        <ele>134</ele>
        <time>2020-10-11T08:52:50Z</time>
      </trkpt>
      <trkpt lat="46.76423" lon="0.4394">
        <ele>134.2</ele>
        <time>2020-10-11T08:52:52Z</time>
      </trkpt>
      <trkpt lat="46.76431" lon="0.43936">
        <ele>134.2</ele>
        <time>2020-10-11T08:52:54Z</time>
      </trkpt>
      <trkpt lat="46.76435" lon="0.43933">
        <ele>134.2</ele>
        <time>2020-10-11T08:52:55Z</time>
      </trkpt>
      <trkpt lat="46.76442" lon="0.4393">
        <ele>134</ele>
        <time>2020-10-11T08:52:57Z</time>
      </trkpt>
      <trkpt lat="46.76448" lon="0.43926">
        <ele>134</ele>
        <time>2020-10-11T08:52:59Z</time>
      </trkpt>
      <trkpt lat="46.76451" lon="0.43924">
        <ele>133.8</ele>
        <time>2020-10-11T08:53:00Z</time>
      </trkpt>
      <trkpt lat="46.7646" lon="0.43921">
        <ele>133.6</ele>
        <time>2020-10-11T08:53:03Z</time>
      </trkpt>
      <trkpt lat="46.76464" lon="0.43921">
        <ele>133.6</ele>
        <time>2020-10-11T08:53:04Z</time>
      </trkpt>
      <trkpt lat="46.76476" lon="0.43929">
        <ele>133.6</ele>
        <time>2020-10-11T08:53:08Z</time>
      </trkpt>
      <trkpt lat="46.76477" lon="0.43936">
        <ele>133.4</ele>
        <time>2020-10-11T08:53:12Z</time>
      </trkpt>
      <trkpt lat="46.76478" lon="0.43937">
        <ele>133.4</ele>
        <time>2020-10-11T08:53:13Z</time>
      </trkpt>
      <trkpt lat="46.76484" lon="0.43948">
        <ele>133.4</ele>
        <time>2020-10-11T08:53:17Z</time>
      </trkpt>
      <trkpt lat="46.76488" lon="0.43972">
        <ele>133.2</ele>
        <time>2020-10-11T08:53:22Z</time>
      </trkpt>
      <trkpt lat="46.76489" lon="0.43976">
        <ele>133</ele>
        <time>2020-10-11T08:53:23Z</time>
      </trkpt>
      <trkpt lat="46.76495" lon="0.44004">
        <ele>132.4</ele>
        <time>2020-10-11T08:53:30Z</time>
      </trkpt>
      <trkpt lat="46.76497" lon="0.44007">
        <ele>132.4</ele>
        <time>2020-10-11T08:53:31Z</time>
      </trkpt>
      <trkpt lat="46.765" lon="0.44018">
        <ele>132</ele>
        <time>2020-10-11T08:53:33Z</time>
      </trkpt>
      <trkpt lat="46.765" lon="0.44018">
        <ele>132</ele>
        <time>2020-10-11T08:53:34Z</time>
      </trkpt>
      <trkpt lat="46.76505" lon="0.44037">
        <ele>131.2</ele>
        <time>2020-10-11T08:53:39Z</time>
      </trkpt>
      <trkpt lat="46.76506" lon="0.4404">
        <ele>131</ele>
        <time>2020-10-11T08:53:40Z</time>
      </trkpt>
      <trkpt lat="46.76507" lon="0.44057">
        <ele>130.8</ele>
        <time>2020-10-11T08:53:44Z</time>
      </trkpt>
      <trkpt lat="46.76507" lon="0.44065">
        <ele>130.6</ele>
        <time>2020-10-11T08:53:46Z</time>
      </trkpt>
      <trkpt lat="46.7651" lon="0.44073">
        <ele>130.4</ele>
        <time>2020-10-11T08:53:48Z</time>
      </trkpt>
      <trkpt lat="46.7651" lon="0.44083">
        <ele>129.8</ele>
        <time>2020-10-11T08:53:50Z</time>
      </trkpt>
      <trkpt lat="46.76513" lon="0.44096">
        <ele>129.4</ele>
        <time>2020-10-11T08:53:53Z</time>
      </trkpt>
      <trkpt lat="46.76514" lon="0.44121">
        <ele>129</ele>
        <time>2020-10-11T08:53:56Z</time>
      </trkpt>
      <trkpt lat="46.76514" lon="0.4413">
        <ele>128.4</ele>
        <time>2020-10-11T08:53:57Z</time>
      </trkpt>
      <trkpt lat="46.76517" lon="0.44146">
        <ele>126.8</ele>
        <time>2020-10-11T08:53:59Z</time>
      </trkpt>
      <trkpt lat="46.7652" lon="0.44161">
        <ele>125.6</ele>
        <time>2020-10-11T08:54:01Z</time>
      </trkpt>
      <trkpt lat="46.76522" lon="0.44167">
        <ele>125</ele>
        <time>2020-10-11T08:54:02Z</time>
      </trkpt>
      <trkpt lat="46.76523" lon="0.44173">
        <ele>124.2</ele>
        <time>2020-10-11T08:54:03Z</time>
      </trkpt>
      <trkpt lat="46.76523" lon="0.44181">
        <ele>122.6</ele>
        <time>2020-10-11T08:54:05Z</time>
      </trkpt>
      <trkpt lat="46.76522" lon="0.44184">
        <ele>121.8</ele>
        <time>2020-10-11T08:54:06Z</time>
      </trkpt>
      <trkpt lat="46.7652" lon="0.44188">
        <ele>121.4</ele>
        <time>2020-10-11T08:54:07Z</time>
      </trkpt>
      <trkpt lat="46.76518" lon="0.44191">
        <ele>121.2</ele>
        <time>2020-10-11T08:54:08Z</time>
      </trkpt>
      <trkpt lat="46.76519" lon="0.44196">
        <ele>120.8</ele>
        <time>2020-10-11T08:54:10Z</time>
      </trkpt>
      <trkpt lat="46.7652" lon="0.442">
        <ele>120.4</ele>
        <time>2020-10-11T08:54:11Z</time>
      </trkpt>
      <trkpt lat="46.76519" lon="0.44208">
        <ele>120</ele>
        <time>2020-10-11T08:54:13Z</time>
      </trkpt>
      <trkpt lat="46.76518" lon="0.44213">
        <ele>119.8</ele>
        <time>2020-10-11T08:54:14Z</time>
      </trkpt>
      <trkpt lat="46.76518" lon="0.44213">
        <ele>119.4</ele>
        <time>2020-10-11T08:54:15Z</time>
      </trkpt>
      <trkpt lat="46.76514" lon="0.4422">
        <ele>119</ele>
        <time>2020-10-11T08:54:16Z</time>
      </trkpt>
      <trkpt lat="46.76508" lon="0.44228">
        <ele>118.6</ele>
        <time>2020-10-11T08:54:18Z</time>
      </trkpt>
      <trkpt lat="46.76506" lon="0.44232">
        <ele>118.6</ele>
        <time>2020-10-11T08:54:19Z</time>
      </trkpt>
      <trkpt lat="46.76505" lon="0.44237">
        <ele>118.6</ele>
        <time>2020-10-11T08:54:20Z</time>
      </trkpt>
      <trkpt lat="46.765" lon="0.44249">
        <ele>118.2</ele>
        <time>2020-10-11T08:54:23Z</time>
      </trkpt>
      <trkpt lat="46.76499" lon="0.44254">
        <ele>117.8</ele>
        <time>2020-10-11T08:54:24Z</time>
      </trkpt>
      <trkpt lat="46.76497" lon="0.44262">
        <ele>117.4</ele>
        <time>2020-10-11T08:54:26Z</time>
      </trkpt>
      <trkpt lat="46.76497" lon="0.44266">
        <ele>117</ele>
        <time>2020-10-11T08:54:27Z</time>
      </trkpt>
      <trkpt lat="46.76495" lon="0.44269">
        <ele>116.8</ele>
        <time>2020-10-11T08:54:28Z</time>
      </trkpt>
      <trkpt lat="46.76493" lon="0.44276">
        <ele>116</ele>
        <time>2020-10-11T08:54:30Z</time>
      </trkpt>
      <trkpt lat="46.76493" lon="0.44282">
        <ele>114.8</ele>
        <time>2020-10-11T08:54:32Z</time>
      </trkpt>
      <trkpt lat="46.76492" lon="0.44292">
        <ele>113.8</ele>
        <time>2020-10-11T08:54:35Z</time>
      </trkpt>
      <trkpt lat="46.76491" lon="0.44301">
        <ele>113.2</ele>
        <time>2020-10-11T08:54:36Z</time>
      </trkpt>
      <trkpt lat="46.7649" lon="0.44306">
        <ele>112.8</ele>
        <time>2020-10-11T08:54:37Z</time>
      </trkpt>
      <trkpt lat="46.76487" lon="0.44319">
        <ele>111.6</ele>
        <time>2020-10-11T08:54:40Z</time>
      </trkpt>
      <trkpt lat="46.76488" lon="0.44324">
        <ele>111.4</ele>
        <time>2020-10-11T08:54:41Z</time>
      </trkpt>
      <trkpt lat="46.7648" lon="0.44346">
        <ele>110.8</ele>
        <time>2020-10-11T08:54:48Z</time>
      </trkpt>
      <trkpt lat="46.76477" lon="0.44351">
        <ele>110.6</ele>
        <time>2020-10-11T08:54:50Z</time>
      </trkpt>
      <trkpt lat="46.76475" lon="0.44353">
        <ele>110.6</ele>
        <time>2020-10-11T08:54:51Z</time>
      </trkpt>
      <trkpt lat="46.76469" lon="0.44359">
        <ele>110.2</ele>
        <time>2020-10-11T08:54:54Z</time>
      </trkpt>
      <trkpt lat="46.76458" lon="0.44371">
        <ele>109.6</ele>
        <time>2020-10-11T08:54:58Z</time>
      </trkpt>
      <trkpt lat="46.76457" lon="0.44374">
        <ele>109.6</ele>
        <time>2020-10-11T08:54:59Z</time>
      </trkpt>
      <trkpt lat="46.76456" lon="0.44374">
        <ele>109.4</ele>
        <time>2020-10-11T08:55:00Z</time>
      </trkpt>
      <trkpt lat="46.76454" lon="0.44376">
        <ele>109.2</ele>
        <time>2020-10-11T08:55:01Z</time>
      </trkpt>
      <trkpt lat="46.76451" lon="0.44379">
        <ele>108.8</ele>
        <time>2020-10-11T08:55:02Z</time>
      </trkpt>
      <trkpt lat="46.76443" lon="0.44392">
        <ele>108.4</ele>
        <time>2020-10-11T08:55:05Z</time>
      </trkpt>
      <trkpt lat="46.76435" lon="0.44404">
        <ele>108.4</ele>
        <time>2020-10-11T08:55:08Z</time>
      </trkpt>
      <trkpt lat="46.76428" lon="0.44421">
        <ele>108</ele>
        <time>2020-10-11T08:55:11Z</time>
      </trkpt>
      <trkpt lat="46.76419" lon="0.4444">
        <ele>107.8</ele>
        <time>2020-10-11T08:55:14Z</time>
      </trkpt>
      <trkpt lat="46.76413" lon="0.4445">
        <ele>107.8</ele>
        <time>2020-10-11T08:55:16Z</time>
      </trkpt>
      <trkpt lat="46.7641" lon="0.44455">
        <ele>107.6</ele>
        <time>2020-10-11T08:55:17Z</time>
      </trkpt>
      <trkpt lat="46.76404" lon="0.44463">
        <ele>107.4</ele>
        <time>2020-10-11T08:55:19Z</time>
      </trkpt>
      <trkpt lat="46.764" lon="0.44469">
        <ele>107</ele>
        <time>2020-10-11T08:55:21Z</time>
      </trkpt>
      <trkpt lat="46.76389" lon="0.44498">
        <ele>106.8</ele>
        <time>2020-10-11T08:55:27Z</time>
      </trkpt>
      <trkpt lat="46.76384" lon="0.4452">
        <ele>106.6</ele>
        <time>2020-10-11T08:55:31Z</time>
      </trkpt>
      <trkpt lat="46.7638" lon="0.44525">
        <ele>106.4</ele>
        <time>2020-10-11T08:55:33Z</time>
      </trkpt>
      <trkpt lat="46.76376" lon="0.44526">
        <ele>106.4</ele>
        <time>2020-10-11T08:55:35Z</time>
      </trkpt>
      <trkpt lat="46.76368" lon="0.44532">
        <ele>107.6</ele>
        <time>2020-10-11T08:55:40Z</time>
      </trkpt>
      <trkpt lat="46.76364" lon="0.44535">
        <ele>108.8</ele>
        <time>2020-10-11T08:55:44Z</time>
      </trkpt>
      <trkpt lat="46.76362" lon="0.44537">
        <ele>109.2</ele>
        <time>2020-10-11T08:55:46Z</time>
      </trkpt>
      <trkpt lat="46.76354" lon="0.44549">
        <ele>109.4</ele>
        <time>2020-10-11T08:55:51Z</time>
      </trkpt>
      <trkpt lat="46.7635" lon="0.44556">
        <ele>109.4</ele>
        <time>2020-10-11T08:55:55Z</time>
      </trkpt>
      <trkpt lat="46.76343" lon="0.4456">
        <ele>109.2</ele>
        <time>2020-10-11T08:55:58Z</time>
      </trkpt>
      <trkpt lat="46.76341" lon="0.44562">
        <ele>108.8</ele>
        <time>2020-10-11T08:55:59Z</time>
      </trkpt>
      <trkpt lat="46.76333" lon="0.44569">
        <ele>109</ele>
        <time>2020-10-11T08:56:03Z</time>
      </trkpt>
      <trkpt lat="46.76331" lon="0.44569">
        <ele>108.8</ele>
        <time>2020-10-11T08:56:04Z</time>
      </trkpt>
      <trkpt lat="46.76319" lon="0.44565">
        <ele>109.2</ele>
        <time>2020-10-11T08:56:09Z</time>
      </trkpt>
      <trkpt lat="46.76312" lon="0.44555">
        <ele>108.8</ele>
        <time>2020-10-11T08:56:14Z</time>
      </trkpt>
      <trkpt lat="46.76305" lon="0.44549">
        <ele>109.2</ele>
        <time>2020-10-11T08:56:18Z</time>
      </trkpt>
      <trkpt lat="46.76299" lon="0.44547">
        <ele>109.2</ele>
        <time>2020-10-11T08:56:20Z</time>
      </trkpt>
      <trkpt lat="46.76287" lon="0.44543">
        <ele>108</ele>
        <time>2020-10-11T08:56:24Z</time>
      </trkpt>
      <trkpt lat="46.76285" lon="0.44544">
        <ele>107.8</ele>
        <time>2020-10-11T08:56:25Z</time>
      </trkpt>
      <trkpt lat="46.76283" lon="0.44546">
        <ele>107.6</ele>
        <time>2020-10-11T08:56:26Z</time>
      </trkpt>
      <trkpt lat="46.76282" lon="0.44549">
        <ele>107.4</ele>
        <time>2020-10-11T08:56:27Z</time>
      </trkpt>
      <trkpt lat="46.7628" lon="0.44552">
        <ele>106.4</ele>
        <time>2020-10-11T08:56:29Z</time>
      </trkpt>
      <trkpt lat="46.7628" lon="0.44554">
        <ele>106.2</ele>
        <time>2020-10-11T08:56:31Z</time>
      </trkpt>
      <trkpt lat="46.76279" lon="0.44559">
        <ele>106.2</ele>
        <time>2020-10-11T08:56:34Z</time>
      </trkpt>
      <trkpt lat="46.76284" lon="0.44572">
        <ele>105.8</ele>
        <time>2020-10-11T08:56:42Z</time>
      </trkpt>
      <trkpt lat="46.76291" lon="0.44584">
        <ele>106.2</ele>
        <time>2020-10-11T08:56:48Z</time>
      </trkpt>
      <trkpt lat="46.76297" lon="0.44581">
        <ele>106.6</ele>
        <time>2020-10-11T08:56:52Z</time>
      </trkpt>
      <trkpt lat="46.76298" lon="0.44582">
        <ele>106.8</ele>
        <time>2020-10-11T08:56:53Z</time>
      </trkpt>
      <trkpt lat="46.76305" lon="0.44586">
        <ele>107.4</ele>
        <time>2020-10-11T08:56:56Z</time>
      </trkpt>
      <trkpt lat="46.76307" lon="0.44588">
        <ele>107.6</ele>
        <time>2020-10-11T08:56:57Z</time>
      </trkpt>
      <trkpt lat="46.76317" lon="0.446">
        <ele>107.2</ele>
        <time>2020-10-11T08:57:02Z</time>
      </trkpt>
      <trkpt lat="46.76321" lon="0.44604">
        <ele>107</ele>
        <time>2020-10-11T08:57:04Z</time>
      </trkpt>
      <trkpt lat="46.76323" lon="0.44603">
        <ele>106.8</ele>
        <time>2020-10-11T08:57:06Z</time>
      </trkpt>
      <trkpt lat="46.76325" lon="0.446">
        <ele>107.6</ele>
        <time>2020-10-11T08:57:11Z</time>
      </trkpt>
      <trkpt lat="46.76327" lon="0.446">
        <ele>107.6</ele>
        <time>2020-10-11T08:57:12Z</time>
      </trkpt>
      <trkpt lat="46.7633" lon="0.44599">
        <ele>107.8</ele>
        <time>2020-10-11T08:57:14Z</time>
      </trkpt>
      <trkpt lat="46.76331" lon="0.44597">
        <ele>107.6</ele>
        <time>2020-10-11T08:57:16Z</time>
      </trkpt>
      <trkpt lat="46.76333" lon="0.44596">
        <ele>107.6</ele>
        <time>2020-10-11T08:57:17Z</time>
      </trkpt>
      <trkpt lat="46.76336" lon="0.44594">
        <ele>107.8</ele>
        <time>2020-10-11T08:57:19Z</time>
      </trkpt>
      <trkpt lat="46.76337" lon="0.44592">
        <ele>107.8</ele>
        <time>2020-10-11T08:57:20Z</time>
      </trkpt>
      <trkpt lat="46.76339" lon="0.44589">
        <ele>107.4</ele>
        <time>2020-10-11T08:57:22Z</time>
      </trkpt>
      <trkpt lat="46.76341" lon="0.4459">
        <ele>107.2</ele>
        <time>2020-10-11T08:57:24Z</time>
      </trkpt>
      <trkpt lat="46.7635" lon="0.44592">
        <ele>106.4</ele>
        <time>2020-10-11T08:57:28Z</time>
      </trkpt>
      <trkpt lat="46.76353" lon="0.44593">
        <ele>105.8</ele>
        <time>2020-10-11T08:57:29Z</time>
      </trkpt>
      <trkpt lat="46.76356" lon="0.44595">
        <ele>105.4</ele>
        <time>2020-10-11T08:57:30Z</time>
      </trkpt>
      <trkpt lat="46.76359" lon="0.44597">
        <ele>105.2</ele>
        <time>2020-10-11T08:57:31Z</time>
      </trkpt>
      <trkpt lat="46.76361" lon="0.44599">
        <ele>104.8</ele>
        <time>2020-10-11T08:57:32Z</time>
      </trkpt>
      <trkpt lat="46.76362" lon="0.44601">
        <ele>104.8</ele>
        <time>2020-10-11T08:57:33Z</time>
      </trkpt>
      <trkpt lat="46.76363" lon="0.44601">
        <ele>104.6</ele>
        <time>2020-10-11T08:57:34Z</time>
      </trkpt>
      <trkpt lat="46.76371" lon="0.44601">
        <ele>104.4</ele>
        <time>2020-10-11T08:57:37Z</time>
      </trkpt>
      <trkpt lat="46.76373" lon="0.44602">
        <ele>104.2</ele>
        <time>2020-10-11T08:57:38Z</time>
      </trkpt>
      <trkpt lat="46.76374" lon="0.44605">
        <ele>104</ele>
        <time>2020-10-11T08:57:39Z</time>
      </trkpt>
      <trkpt lat="46.76376" lon="0.44608">
        <ele>103.8</ele>
        <time>2020-10-11T08:57:40Z</time>
      </trkpt>
      <trkpt lat="46.76382" lon="0.44625">
        <ele>103.4</ele>
        <time>2020-10-11T08:57:44Z</time>
      </trkpt>
      <trkpt lat="46.76384" lon="0.4463">
        <ele>103.2</ele>
        <time>2020-10-11T08:57:45Z</time>
      </trkpt>
      <trkpt lat="46.76384" lon="0.4463">
        <ele>103</ele>
        <time>2020-10-11T08:57:46Z</time>
      </trkpt>
      <trkpt lat="46.76396" lon="0.44652">
        <ele>102.8</ele>
        <time>2020-10-11T08:57:49Z</time>
      </trkpt>
      <trkpt lat="46.76401" lon="0.44658">
        <ele>102.8</ele>
        <time>2020-10-11T08:57:50Z</time>
      </trkpt>
      <trkpt lat="46.76434" lon="0.44683">
        <ele>103.4</ele>
        <time>2020-10-11T08:57:58Z</time>
      </trkpt>
      <trkpt lat="46.76439" lon="0.44686">
        <ele>104</ele>
        <time>2020-10-11T08:58:00Z</time>
      </trkpt>
      <trkpt lat="46.76439" lon="0.44685">
        <ele>104.2</ele>
        <time>2020-10-11T08:58:01Z</time>
      </trkpt>
      <trkpt lat="46.7644" lon="0.44685">
        <ele>104.4</ele>
        <time>2020-10-11T08:58:02Z</time>
      </trkpt>
      <trkpt lat="46.76445" lon="0.44682">
        <ele>105</ele>
        <time>2020-10-11T08:58:05Z</time>
      </trkpt>
      <trkpt lat="46.7645" lon="0.44682">
        <ele>106.2</ele>
        <time>2020-10-11T08:58:09Z</time>
      </trkpt>
      <trkpt lat="46.76453" lon="0.44682">
        <ele>107</ele>
        <time>2020-10-11T08:58:11Z</time>
      </trkpt>
      <trkpt lat="46.76455" lon="0.44682">
        <ele>107.4</ele>
        <time>2020-10-11T08:58:13Z</time>
      </trkpt>
      <trkpt lat="46.7646" lon="0.44683">
        <ele>108.4</ele>
        <time>2020-10-11T08:58:17Z</time>
      </trkpt>
      <trkpt lat="46.76461" lon="0.44683">
        <ele>109</ele>
        <time>2020-10-11T08:58:18Z</time>
      </trkpt>
      <trkpt lat="46.76463" lon="0.44683">
        <ele>109.6</ele>
        <time>2020-10-11T08:58:20Z</time>
      </trkpt>
      <trkpt lat="46.76468" lon="0.44683">
        <ele>110.6</ele>
        <time>2020-10-11T08:58:24Z</time>
      </trkpt>
      <trkpt lat="46.76469" lon="0.44684">
        <ele>110.8</ele>
        <time>2020-10-11T08:58:25Z</time>
      </trkpt>
      <trkpt lat="46.76472" lon="0.44685">
        <ele>111.8</ele>
        <time>2020-10-11T08:58:28Z</time>
      </trkpt>
      <trkpt lat="46.7648" lon="0.44685">
        <ele>112.8</ele>
        <time>2020-10-11T08:58:32Z</time>
      </trkpt>
      <trkpt lat="46.76482" lon="0.44685">
        <ele>113</ele>
        <time>2020-10-11T08:58:33Z</time>
      </trkpt>
      <trkpt lat="46.76488" lon="0.44684">
        <ele>113.8</ele>
        <time>2020-10-11T08:58:37Z</time>
      </trkpt>
      <trkpt lat="46.76491" lon="0.44683">
        <ele>114.2</ele>
        <time>2020-10-11T08:58:40Z</time>
      </trkpt>
      <trkpt lat="46.76497" lon="0.44682">
        <ele>115</ele>
        <time>2020-10-11T08:58:44Z</time>
      </trkpt>
      <trkpt lat="46.76505" lon="0.4468">
        <ele>115.4</ele>
        <time>2020-10-11T08:58:48Z</time>
      </trkpt>
      <trkpt lat="46.7651" lon="0.44681">
        <ele>116.2</ele>
        <time>2020-10-11T08:58:51Z</time>
      </trkpt>
      <trkpt lat="46.76512" lon="0.44681">
        <ele>116.4</ele>
        <time>2020-10-11T08:58:52Z</time>
      </trkpt>
      <trkpt lat="46.76516" lon="0.4468">
        <ele>116.8</ele>
        <time>2020-10-11T08:58:55Z</time>
      </trkpt>
      <trkpt lat="46.76519" lon="0.44679">
        <ele>117.4</ele>
        <time>2020-10-11T08:58:57Z</time>
      </trkpt>
      <trkpt lat="46.76526" lon="0.44678">
        <ele>118</ele>
        <time>2020-10-11T08:59:01Z</time>
      </trkpt>
      <trkpt lat="46.76529" lon="0.44677">
        <ele>118.4</ele>
        <time>2020-10-11T08:59:03Z</time>
      </trkpt>
      <trkpt lat="46.76538" lon="0.44675">
        <ele>119.4</ele>
        <time>2020-10-11T08:59:09Z</time>
      </trkpt>
      <trkpt lat="46.76539" lon="0.44674">
        <ele>119.6</ele>
        <time>2020-10-11T08:59:10Z</time>
      </trkpt>
      <trkpt lat="46.76544" lon="0.44672">
        <ele>120.6</ele>
        <time>2020-10-11T08:59:14Z</time>
      </trkpt>
      <trkpt lat="46.76548" lon="0.44672">
        <ele>121.2</ele>
        <time>2020-10-11T08:59:17Z</time>
      </trkpt>
      <trkpt lat="46.7655" lon="0.44671">
        <ele>121.8</ele>
        <time>2020-10-11T08:59:19Z</time>
      </trkpt>
      <trkpt lat="46.76557" lon="0.44667">
        <ele>122.8</ele>
        <time>2020-10-11T08:59:25Z</time>
      </trkpt>
      <trkpt lat="46.76558" lon="0.44666">
        <ele>123</ele>
        <time>2020-10-11T08:59:26Z</time>
      </trkpt>
      <trkpt lat="46.76563" lon="0.44665">
        <ele>123.6</ele>
        <time>2020-10-11T08:59:29Z</time>
      </trkpt>
      <trkpt lat="46.76564" lon="0.44664">
        <ele>123.8</ele>
        <time>2020-10-11T08:59:30Z</time>
      </trkpt>
      <trkpt lat="46.76566" lon="0.44663">
        <ele>124.2</ele>
        <time>2020-10-11T08:59:32Z</time>
      </trkpt>
      <trkpt lat="46.76572" lon="0.4466">
        <ele>125</ele>
        <time>2020-10-11T08:59:37Z</time>
      </trkpt>
      <trkpt lat="46.76579" lon="0.4466">
        <ele>125.6</ele>
        <time>2020-10-11T08:59:40Z</time>
      </trkpt>
      <trkpt lat="46.76581" lon="0.4466">
        <ele>126</ele>
        <time>2020-10-11T08:59:42Z</time>
      </trkpt>
      <trkpt lat="46.76587" lon="0.4466">
        <ele>126.8</ele>
        <time>2020-10-11T08:59:47Z</time>
      </trkpt>
      <trkpt lat="46.76589" lon="0.4466">
        <ele>127</ele>
        <time>2020-10-11T08:59:48Z</time>
      </trkpt>
      <trkpt lat="46.76593" lon="0.44661">
        <ele>127.8</ele>
        <time>2020-10-11T08:59:51Z</time>
      </trkpt>
      <trkpt lat="46.76594" lon="0.44661">
        <ele>128.2</ele>
        <time>2020-10-11T08:59:52Z</time>
      </trkpt>
      <trkpt lat="46.76595" lon="0.44662">
        <ele>128.6</ele>
        <time>2020-10-11T08:59:53Z</time>
      </trkpt>
      <trkpt lat="46.76596" lon="0.44663">
        <ele>128.8</ele>
        <time>2020-10-11T08:59:54Z</time>
      </trkpt>
      <trkpt lat="46.76599" lon="0.44664">
        <ele>129.2</ele>
        <time>2020-10-11T08:59:57Z</time>
      </trkpt>
      <trkpt lat="46.76609" lon="0.44664">
        <ele>130</ele>
        <time>2020-10-11T09:00:03Z</time>
      </trkpt>
      <trkpt lat="46.7661" lon="0.44664">
        <ele>130.2</ele>
        <time>2020-10-11T09:00:04Z</time>
      </trkpt>
      <trkpt lat="46.76623" lon="0.44661">
        <ele>131</ele>
        <time>2020-10-11T09:00:11Z</time>
      </trkpt>
      <trkpt lat="46.76626" lon="0.44661">
        <ele>131.2</ele>
        <time>2020-10-11T09:00:13Z</time>
      </trkpt>
      <trkpt lat="46.7664" lon="0.4466">
        <ele>132.4</ele>
        <time>2020-10-11T09:00:19Z</time>
      </trkpt>
      <trkpt lat="46.76654" lon="0.44658">
        <ele>133</ele>
        <time>2020-10-11T09:00:26Z</time>
      </trkpt>
      <trkpt lat="46.76655" lon="0.44657">
        <ele>133.2</ele>
        <time>2020-10-11T09:00:27Z</time>
      </trkpt>
      <trkpt lat="46.76657" lon="0.44655">
        <ele>133.4</ele>
        <time>2020-10-11T09:00:28Z</time>
      </trkpt>
      <trkpt lat="46.7666" lon="0.44644">
        <ele>133.8</ele>
        <time>2020-10-11T09:00:32Z</time>
      </trkpt>
      <trkpt lat="46.76663" lon="0.44626">
        <ele>133.6</ele>
        <time>2020-10-11T09:00:39Z</time>
      </trkpt>
      <trkpt lat="46.76667" lon="0.44601">
        <ele>133.4</ele>
        <time>2020-10-11T09:00:45Z</time>
      </trkpt>
      <trkpt lat="46.76675" lon="0.44572">
        <ele>133.6</ele>
        <time>2020-10-11T09:00:52Z</time>
      </trkpt>
      <trkpt lat="46.76681" lon="0.44555">
        <ele>133.4</ele>
        <time>2020-10-11T09:00:56Z</time>
      </trkpt>
      <trkpt lat="46.76683" lon="0.44544">
        <ele>133.2</ele>
        <time>2020-10-11T09:00:58Z</time>
      </trkpt>
      <trkpt lat="46.76687" lon="0.44517">
        <ele>133.2</ele>
        <time>2020-10-11T09:01:03Z</time>
      </trkpt>
      <trkpt lat="46.76686" lon="0.44511">
        <ele>133</ele>
        <time>2020-10-11T09:01:04Z</time>
      </trkpt>
      <trkpt lat="46.76686" lon="0.44506">
        <ele>132.8</ele>
        <time>2020-10-11T09:01:05Z</time>
      </trkpt>
      <trkpt lat="46.76686" lon="0.44488">
        <ele>132.6</ele>
        <time>2020-10-11T09:01:08Z</time>
      </trkpt>
      <trkpt lat="46.76688" lon="0.44477">
        <ele>132.4</ele>
        <time>2020-10-11T09:01:10Z</time>
      </trkpt>
      <trkpt lat="46.7669" lon="0.44472">
        <ele>132.2</ele>
        <time>2020-10-11T09:01:11Z</time>
      </trkpt>
      <trkpt lat="46.76692" lon="0.44439">
        <ele>131.4</ele>
        <time>2020-10-11T09:01:16Z</time>
      </trkpt>
      <trkpt lat="46.76692" lon="0.44433">
        <ele>131.4</ele>
        <time>2020-10-11T09:01:17Z</time>
      </trkpt>
      <trkpt lat="46.76691" lon="0.44417">
        <ele>131.2</ele>
        <time>2020-10-11T09:01:19Z</time>
      </trkpt>
      <trkpt lat="46.76689" lon="0.44388">
        <ele>130.4</ele>
        <time>2020-10-11T09:01:23Z</time>
      </trkpt>
      <trkpt lat="46.76689" lon="0.4438">
        <ele>130</ele>
        <time>2020-10-11T09:01:24Z</time>
      </trkpt>
      <trkpt lat="46.76692" lon="0.4435">
        <ele>129</ele>
        <time>2020-10-11T09:01:28Z</time>
      </trkpt>
      <trkpt lat="46.76693" lon="0.44343">
        <ele>128.8</ele>
        <time>2020-10-11T09:01:29Z</time>
      </trkpt>
      <trkpt lat="46.76698" lon="0.44321">
        <ele>127.2</ele>
        <time>2020-10-11T09:01:32Z</time>
      </trkpt>
      <trkpt lat="46.76699" lon="0.44314">
        <ele>126.4</ele>
        <time>2020-10-11T09:01:33Z</time>
      </trkpt>
      <trkpt lat="46.76702" lon="0.44307">
        <ele>125.8</ele>
        <time>2020-10-11T09:01:34Z</time>
      </trkpt>
      <trkpt lat="46.76704" lon="0.44299">
        <ele>125.4</ele>
        <time>2020-10-11T09:01:35Z</time>
      </trkpt>
      <trkpt lat="46.76706" lon="0.44284">
        <ele>124.8</ele>
        <time>2020-10-11T09:01:37Z</time>
      </trkpt>
      <trkpt lat="46.76709" lon="0.44266">
        <ele>123.8</ele>
        <time>2020-10-11T09:01:40Z</time>
      </trkpt>
      <trkpt lat="46.76709" lon="0.4426">
        <ele>123.2</ele>
        <time>2020-10-11T09:01:41Z</time>
      </trkpt>
      <trkpt lat="46.76708" lon="0.44255">
        <ele>122.6</ele>
        <time>2020-10-11T09:01:42Z</time>
      </trkpt>
      <trkpt lat="46.7671" lon="0.44245">
        <ele>122</ele>
        <time>2020-10-11T09:01:43Z</time>
      </trkpt>
      <trkpt lat="46.76711" lon="0.44238">
        <ele>121</ele>
        <time>2020-10-11T09:01:44Z</time>
      </trkpt>
      <trkpt lat="46.76709" lon="0.44232">
        <ele>120.4</ele>
        <time>2020-10-11T09:01:45Z</time>
      </trkpt>
      <trkpt lat="46.76708" lon="0.44226">
        <ele>119.8</ele>
        <time>2020-10-11T09:01:46Z</time>
      </trkpt>
      <trkpt lat="46.76706" lon="0.44221">
        <ele>119.6</ele>
        <time>2020-10-11T09:01:47Z</time>
      </trkpt>
      <trkpt lat="46.76706" lon="0.44217">
        <ele>119.6</ele>
        <time>2020-10-11T09:01:48Z</time>
      </trkpt>
      <trkpt lat="46.76709" lon="0.44201">
        <ele>119.8</ele>
        <time>2020-10-11T09:01:52Z</time>
      </trkpt>
      <trkpt lat="46.76713" lon="0.44196">
        <ele>120.8</ele>
        <time>2020-10-11T09:01:55Z</time>
      </trkpt>
      <trkpt lat="46.76718" lon="0.44194">
        <ele>121</ele>
        <time>2020-10-11T09:01:57Z</time>
      </trkpt>
      <trkpt lat="46.76729" lon="0.44191">
        <ele>121.8</ele>
        <time>2020-10-11T09:02:01Z</time>
      </trkpt>
      <trkpt lat="46.76738" lon="0.44189">
        <ele>122.6</ele>
        <time>2020-10-11T09:02:04Z</time>
      </trkpt>
      <trkpt lat="46.76741" lon="0.44188">
        <ele>123.2</ele>
        <time>2020-10-11T09:02:05Z</time>
      </trkpt>
      <trkpt lat="46.76754" lon="0.44186">
        <ele>124.2</ele>
        <time>2020-10-11T09:02:09Z</time>
      </trkpt>
      <trkpt lat="46.76767" lon="0.44185">
        <ele>125.4</ele>
        <time>2020-10-11T09:02:13Z</time>
      </trkpt>
      <trkpt lat="46.76773" lon="0.44183">
        <ele>126</ele>
        <time>2020-10-11T09:02:15Z</time>
      </trkpt>
      <trkpt lat="46.76784" lon="0.44177">
        <ele>126.6</ele>
        <time>2020-10-11T09:02:19Z</time>
      </trkpt>
      <trkpt lat="46.76791" lon="0.44174">
        <ele>127.4</ele>
        <time>2020-10-11T09:02:22Z</time>
      </trkpt>
      <trkpt lat="46.76793" lon="0.44173">
        <ele>127.6</ele>
        <time>2020-10-11T09:02:23Z</time>
      </trkpt>
      <trkpt lat="46.76803" lon="0.44168">
        <ele>128.8</ele>
        <time>2020-10-11T09:02:27Z</time>
      </trkpt>
      <trkpt lat="46.76808" lon="0.44165">
        <ele>129.4</ele>
        <time>2020-10-11T09:02:29Z</time>
      </trkpt>
      <trkpt lat="46.76813" lon="0.44163">
        <ele>130</ele>
        <time>2020-10-11T09:02:31Z</time>
      </trkpt>
      <trkpt lat="46.76829" lon="0.44157">
        <ele>130.4</ele>
        <time>2020-10-11T09:02:36Z</time>
      </trkpt>
      <trkpt lat="46.76833" lon="0.44155">
        <ele>131</ele>
        <time>2020-10-11T09:02:38Z</time>
      </trkpt>
      <trkpt lat="46.76849" lon="0.44148">
        <ele>131.6</ele>
        <time>2020-10-11T09:02:44Z</time>
      </trkpt>
      <trkpt lat="46.76866" lon="0.4414">
        <ele>132</ele>
        <time>2020-10-11T09:02:51Z</time>
      </trkpt>
      <trkpt lat="46.7688" lon="0.44136">
        <ele>133</ele>
        <time>2020-10-11T09:02:56Z</time>
      </trkpt>
      <trkpt lat="46.76883" lon="0.44135">
        <ele>133.2</ele>
        <time>2020-10-11T09:02:57Z</time>
      </trkpt>
      <trkpt lat="46.76899" lon="0.44126">
        <ele>133.8</ele>
        <time>2020-10-11T09:03:04Z</time>
      </trkpt>
      <trkpt lat="46.76915" lon="0.44121">
        <ele>134.2</ele>
        <time>2020-10-11T09:03:10Z</time>
      </trkpt>
      <trkpt lat="46.7693" lon="0.4412">
        <ele>134.4</ele>
        <time>2020-10-11T09:03:15Z</time>
      </trkpt>
      <trkpt lat="46.76947" lon="0.44113">
        <ele>134.2</ele>
        <time>2020-10-11T09:03:21Z</time>
      </trkpt>
      <trkpt lat="46.7695" lon="0.44114">
        <ele>134.2</ele>
        <time>2020-10-11T09:03:22Z</time>
      </trkpt>
      <trkpt lat="46.76954" lon="0.4412">
        <ele>134.4</ele>
        <time>2020-10-11T09:03:24Z</time>
      </trkpt>
      <trkpt lat="46.76966" lon="0.44153">
        <ele>134.6</ele>
        <time>2020-10-11T09:03:30Z</time>
      </trkpt>
      <trkpt lat="46.76971" lon="0.44166">
        <ele>134.4</ele>
        <time>2020-10-11T09:03:32Z</time>
      </trkpt>
      <trkpt lat="46.76977" lon="0.44183">
        <ele>134.4</ele>
        <time>2020-10-11T09:03:35Z</time>
      </trkpt>
      <trkpt lat="46.76983" lon="0.44189">
        <ele>134</ele>
        <time>2020-10-11T09:03:37Z</time>
      </trkpt>
      <trkpt lat="46.76987" lon="0.4419">
        <ele>134</ele>
        <time>2020-10-11T09:03:38Z</time>
      </trkpt>
      <trkpt lat="46.77007" lon="0.44192">
        <ele>134.4</ele>
        <time>2020-10-11T09:03:43Z</time>
      </trkpt>
      <trkpt lat="46.77019" lon="0.44194">
        <ele>134.2</ele>
        <time>2020-10-11T09:03:46Z</time>
      </trkpt>
      <trkpt lat="46.77027" lon="0.44194">
        <ele>134</ele>
        <time>2020-10-11T09:03:48Z</time>
      </trkpt>
      <trkpt lat="46.77039" lon="0.44191">
        <ele>133.8</ele>
        <time>2020-10-11T09:03:51Z</time>
      </trkpt>
      <trkpt lat="46.77055" lon="0.44188">
        <ele>133.2</ele>
        <time>2020-10-11T09:03:54Z</time>
      </trkpt>
      <trkpt lat="46.77061" lon="0.44188">
        <ele>133</ele>
        <time>2020-10-11T09:03:55Z</time>
      </trkpt>
      <trkpt lat="46.77067" lon="0.44187">
        <ele>132.8</ele>
        <time>2020-10-11T09:03:56Z</time>
      </trkpt>
      <trkpt lat="46.77102" lon="0.44184">
        <ele>132</ele>
        <time>2020-10-11T09:04:01Z</time>
      </trkpt>
      <trkpt lat="46.7711" lon="0.44182">
        <ele>131.8</ele>
        <time>2020-10-11T09:04:02Z</time>
      </trkpt>
      <trkpt lat="46.77148" lon="0.44176">
        <ele>132.4</ele>
        <time>2020-10-11T09:04:08Z</time>
      </trkpt>
      <trkpt lat="46.77178" lon="0.44172">
        <ele>133</ele>
        <time>2020-10-11T09:04:14Z</time>
      </trkpt>
      <trkpt lat="46.77186" lon="0.44172">
        <ele>133</ele>
        <time>2020-10-11T09:04:16Z</time>
      </trkpt>
      <trkpt lat="46.77211" lon="0.44167">
        <ele>133.2</ele>
        <time>2020-10-11T09:04:23Z</time>
      </trkpt>
      <trkpt lat="46.77231" lon="0.44161">
        <ele>134</ele>
        <time>2020-10-11T09:04:29Z</time>
      </trkpt>
      <trkpt lat="46.77233" lon="0.44159">
        <ele>134</ele>
        <time>2020-10-11T09:04:30Z</time>
      </trkpt>
      <trkpt lat="46.77245" lon="0.44148">
        <ele>134.6</ele>
        <time>2020-10-11T09:04:34Z</time>
      </trkpt>
      <trkpt lat="46.77251" lon="0.44141">
        <ele>135.2</ele>
        <time>2020-10-11T09:04:36Z</time>
      </trkpt>
      <trkpt lat="46.77269" lon="0.44125">
        <ele>135.2</ele>
        <time>2020-10-11T09:04:42Z</time>
      </trkpt>
      <trkpt lat="46.77284" lon="0.44121">
        <ele>135</ele>
        <time>2020-10-11T09:04:47Z</time>
      </trkpt>
      <trkpt lat="46.77288" lon="0.4412">
        <ele>134.8</ele>
        <time>2020-10-11T09:04:48Z</time>
      </trkpt>
      <trkpt lat="46.77292" lon="0.4412">
        <ele>134.8</ele>
        <time>2020-10-11T09:04:49Z</time>
      </trkpt>
      <trkpt lat="46.77312" lon="0.44118">
        <ele>134.8</ele>
        <time>2020-10-11T09:04:54Z</time>
      </trkpt>
      <trkpt lat="46.77335" lon="0.44117">
        <ele>135</ele>
        <time>2020-10-11T09:05:00Z</time>
      </trkpt>
      <trkpt lat="46.77359" lon="0.44113">
        <ele>134</ele>
        <time>2020-10-11T09:05:05Z</time>
      </trkpt>
      <trkpt lat="46.77363" lon="0.44113">
        <ele>133.8</ele>
        <time>2020-10-11T09:05:06Z</time>
      </trkpt>
      <trkpt lat="46.77377" lon="0.4411">
        <ele>132.8</ele>
        <time>2020-10-11T09:05:09Z</time>
      </trkpt>
      <trkpt lat="46.7739" lon="0.44106">
        <ele>132.4</ele>
        <time>2020-10-11T09:05:12Z</time>
      </trkpt>
      <trkpt lat="46.77396" lon="0.44105">
        <ele>132.2</ele>
        <time>2020-10-11T09:05:13Z</time>
      </trkpt>
      <trkpt lat="46.77405" lon="0.44101">
        <ele>131.6</ele>
        <time>2020-10-11T09:05:15Z</time>
      </trkpt>
      <trkpt lat="46.77409" lon="0.44098">
        <ele>131.2</ele>
        <time>2020-10-11T09:05:16Z</time>
      </trkpt>
      <trkpt lat="46.77413" lon="0.44095">
        <ele>130.6</ele>
        <time>2020-10-11T09:05:17Z</time>
      </trkpt>
      <trkpt lat="46.7742" lon="0.44086">
        <ele>130</ele>
        <time>2020-10-11T09:05:20Z</time>
      </trkpt>
      <trkpt lat="46.77428" lon="0.4407">
        <ele>129.8</ele>
        <time>2020-10-11T09:05:25Z</time>
      </trkpt>
      <trkpt lat="46.7743" lon="0.44063">
        <ele>129.6</ele>
        <time>2020-10-11T09:05:27Z</time>
      </trkpt>
      <trkpt lat="46.77437" lon="0.44051">
        <ele>128.6</ele>
        <time>2020-10-11T09:05:31Z</time>
      </trkpt>
      <trkpt lat="46.77439" lon="0.44048">
        <ele>128.4</ele>
        <time>2020-10-11T09:05:32Z</time>
      </trkpt>
      <trkpt lat="46.77447" lon="0.44041">
        <ele>127.6</ele>
        <time>2020-10-11T09:05:35Z</time>
      </trkpt>
      <trkpt lat="46.77448" lon="0.44039">
        <ele>127.2</ele>
        <time>2020-10-11T09:05:36Z</time>
      </trkpt>
      <trkpt lat="46.77449" lon="0.44034">
        <ele>125.8</ele>
        <time>2020-10-11T09:05:38Z</time>
      </trkpt>
      <trkpt lat="46.7745" lon="0.44032">
        <ele>125.6</ele>
        <time>2020-10-11T09:05:39Z</time>
      </trkpt>
      <trkpt lat="46.77446" lon="0.44018">
        <ele>126.2</ele>
        <time>2020-10-11T09:05:44Z</time>
      </trkpt>
      <trkpt lat="46.77442" lon="0.44008">
        <ele>127</ele>
        <time>2020-10-11T09:05:47Z</time>
      </trkpt>
      <trkpt lat="46.77438" lon="0.43999">
        <ele>128</ele>
        <time>2020-10-11T09:05:50Z</time>
      </trkpt>
      <trkpt lat="46.7743" lon="0.43987">
        <ele>129</ele>
        <time>2020-10-11T09:05:54Z</time>
      </trkpt>
      <trkpt lat="46.77424" lon="0.43979">
        <ele>130</ele>
        <time>2020-10-11T09:05:57Z</time>
      </trkpt>
      <trkpt lat="46.77422" lon="0.43977">
        <ele>130.2</ele>
        <time>2020-10-11T09:05:58Z</time>
      </trkpt>
      <trkpt lat="46.77417" lon="0.4397">
        <ele>131.4</ele>
        <time>2020-10-11T09:06:02Z</time>
      </trkpt>
      <trkpt lat="46.77416" lon="0.43969">
        <ele>131.8</ele>
        <time>2020-10-11T09:06:03Z</time>
      </trkpt>
      <trkpt lat="46.77411" lon="0.43964">
        <ele>132.4</ele>
        <time>2020-10-11T09:06:06Z</time>
      </trkpt>
      <trkpt lat="46.77405" lon="0.43958">
        <ele>133.4</ele>
        <time>2020-10-11T09:06:10Z</time>
      </trkpt>
      <trkpt lat="46.77403" lon="0.43957">
        <ele>133.6</ele>
        <time>2020-10-11T09:06:11Z</time>
      </trkpt>
      <trkpt lat="46.77389" lon="0.43946">
        <ele>134.6</ele>
        <time>2020-10-11T09:06:19Z</time>
      </trkpt>
      <trkpt lat="46.7738" lon="0.43938">
        <ele>135.6</ele>
        <time>2020-10-11T09:06:24Z</time>
      </trkpt>
      <trkpt lat="46.77374" lon="0.43933">
        <ele>136.2</ele>
        <time>2020-10-11T09:06:28Z</time>
      </trkpt>
      <trkpt lat="46.77371" lon="0.4393">
        <ele>136.8</ele>
        <time>2020-10-11T09:06:30Z</time>
      </trkpt>
      <trkpt lat="46.77358" lon="0.43918">
        <ele>137.6</ele>
        <time>2020-10-11T09:06:37Z</time>
      </trkpt>
      <trkpt lat="46.77357" lon="0.43916">
        <ele>137.8</ele>
        <time>2020-10-11T09:06:38Z</time>
      </trkpt>
      <trkpt lat="46.77346" lon="0.43897">
        <ele>139</ele>
        <time>2020-10-11T09:06:45Z</time>
      </trkpt>
      <trkpt lat="46.77344" lon="0.43894">
        <ele>139</ele>
        <time>2020-10-11T09:06:46Z</time>
      </trkpt>
      <trkpt lat="46.77333" lon="0.43878">
        <ele>139.4</ele>
        <time>2020-10-11T09:06:53Z</time>
      </trkpt>
      <trkpt lat="46.77322" lon="0.43864">
        <ele>140</ele>
        <time>2020-10-11T09:06:59Z</time>
      </trkpt>
      <trkpt lat="46.7732" lon="0.43861">
        <ele>140</ele>
        <time>2020-10-11T09:07:00Z</time>
      </trkpt>
      <trkpt lat="46.77306" lon="0.43841">
        <ele>140.2</ele>
        <time>2020-10-11T09:07:06Z</time>
      </trkpt>
      <trkpt lat="46.77292" lon="0.43822">
        <ele>140.8</ele>
        <time>2020-10-11T09:07:12Z</time>
      </trkpt>
      <trkpt lat="46.77277" lon="0.43805">
        <ele>140.8</ele>
        <time>2020-10-11T09:07:17Z</time>
      </trkpt>
      <trkpt lat="46.77253" lon="0.4378">
        <ele>140.8</ele>
        <time>2020-10-11T09:07:24Z</time>
      </trkpt>
      <trkpt lat="46.77245" lon="0.43768">
        <ele>140.8</ele>
        <time>2020-10-11T09:07:27Z</time>
      </trkpt>
      <trkpt lat="46.77237" lon="0.43756">
        <ele>140.8</ele>
        <time>2020-10-11T09:07:30Z</time>
      </trkpt>
      <trkpt lat="46.77219" lon="0.43734">
        <ele>140.8</ele>
        <time>2020-10-11T09:07:36Z</time>
      </trkpt>
      <trkpt lat="46.77204" lon="0.43724">
        <ele>140.4</ele>
        <time>2020-10-11T09:07:40Z</time>
      </trkpt>
      <trkpt lat="46.77198" lon="0.4372">
        <ele>140.6</ele>
        <time>2020-10-11T09:07:42Z</time>
      </trkpt>
      <trkpt lat="46.77191" lon="0.43715">
        <ele>140.8</ele>
        <time>2020-10-11T09:07:44Z</time>
      </trkpt>
      <trkpt lat="46.7718" lon="0.43708">
        <ele>140.6</ele>
        <time>2020-10-11T09:07:47Z</time>
      </trkpt>
      <trkpt lat="46.77173" lon="0.43703">
        <ele>140.4</ele>
        <time>2020-10-11T09:07:49Z</time>
      </trkpt>
      <trkpt lat="46.77162" lon="0.43693">
        <ele>140.4</ele>
        <time>2020-10-11T09:07:52Z</time>
      </trkpt>
      <trkpt lat="46.7713" lon="0.43668">
        <ele>139.8</ele>
        <time>2020-10-11T09:07:59Z</time>
      </trkpt>
      <trkpt lat="46.77107" lon="0.43649">
        <ele>139.6</ele>
        <time>2020-10-11T09:08:05Z</time>
      </trkpt>
      <trkpt lat="46.77104" lon="0.43645">
        <ele>139.6</ele>
        <time>2020-10-11T09:08:06Z</time>
      </trkpt>
      <trkpt lat="46.77094" lon="0.43636">
        <ele>139.2</ele>
        <time>2020-10-11T09:08:09Z</time>
      </trkpt>
      <trkpt lat="46.77091" lon="0.43633">
        <ele>139.2</ele>
        <time>2020-10-11T09:08:10Z</time>
      </trkpt>
      <trkpt lat="46.77083" lon="0.43622">
        <ele>139.4</ele>
        <time>2020-10-11T09:08:15Z</time>
      </trkpt>
      <trkpt lat="46.77081" lon="0.43618">
        <ele>139.4</ele>
        <time>2020-10-11T09:08:17Z</time>
      </trkpt>
      <trkpt lat="46.77079" lon="0.4361">
        <ele>139.6</ele>
        <time>2020-10-11T09:08:21Z</time>
      </trkpt>
      <trkpt lat="46.77078" lon="0.43603">
        <ele>139.6</ele>
        <time>2020-10-11T09:08:25Z</time>
      </trkpt>
      <trkpt lat="46.77075" lon="0.43599">
        <ele>139.4</ele>
        <time>2020-10-11T09:08:28Z</time>
      </trkpt>
      <trkpt lat="46.7707" lon="0.43591">
        <ele>139.2</ele>
        <time>2020-10-11T09:08:33Z</time>
      </trkpt>
      <trkpt lat="46.77069" lon="0.4359">
        <ele>139.2</ele>
        <time>2020-10-11T09:08:35Z</time>
      </trkpt>
      <trkpt lat="46.77069" lon="0.4359">
        <ele>139.2</ele>
        <time>2020-10-11T09:08:36Z</time>
      </trkpt>
      <trkpt lat="46.7707" lon="0.43591">
        <ele>139.2</ele>
        <time>2020-10-11T09:08:39Z</time>
      </trkpt>
      <trkpt lat="46.77069" lon="0.43591">
        <ele>139.2</ele>
        <time>2020-10-11T09:08:42Z</time>
      </trkpt>
      <trkpt lat="46.77068" lon="0.43591">
        <ele>139.2</ele>
        <time>2020-10-11T09:08:44Z</time>
      </trkpt>
      <trkpt lat="46.77067" lon="0.43587">
        <ele>139.2</ele>
        <time>2020-10-11T09:08:46Z</time>
      </trkpt>
      <trkpt lat="46.77066" lon="0.43585">
        <ele>139.2</ele>
        <time>2020-10-11T09:08:48Z</time>
      </trkpt>
      <trkpt lat="46.77066" lon="0.43585">
        <ele>139.4</ele>
        <time>2020-10-11T09:08:49Z</time>
      </trkpt>
      <trkpt lat="46.77066" lon="0.4359">
        <ele>139.4</ele>
        <time>2020-10-11T09:08:54Z</time>
      </trkpt>
      <trkpt lat="46.77066" lon="0.43592">
        <ele>139.4</ele>
        <time>2020-10-11T09:08:55Z</time>
      </trkpt>
      <trkpt lat="46.77067" lon="0.43599">
        <ele>139.2</ele>
        <time>2020-10-11T09:08:58Z</time>
      </trkpt>
      <trkpt lat="46.7707" lon="0.43604">
        <ele>139.4</ele>
        <time>2020-10-11T09:09:00Z</time>
      </trkpt>
      <trkpt lat="46.77076" lon="0.43621">
        <ele>139.4</ele>
        <time>2020-10-11T09:09:05Z</time>
      </trkpt>
      <trkpt lat="46.77077" lon="0.43636">
        <ele>138.8</ele>
        <time>2020-10-11T09:09:10Z</time>
      </trkpt>
      <trkpt lat="46.7708" lon="0.43643">
        <ele>138.6</ele>
        <time>2020-10-11T09:09:12Z</time>
      </trkpt>
      <trkpt lat="46.77082" lon="0.43649">
        <ele>138.8</ele>
        <time>2020-10-11T09:09:14Z</time>
      </trkpt>
      <trkpt lat="46.77084" lon="0.43653">
        <ele>138.8</ele>
        <time>2020-10-11T09:09:15Z</time>
      </trkpt>
      <trkpt lat="46.77081" lon="0.43676">
        <ele>138.8</ele>
        <time>2020-10-11T09:09:20Z</time>
      </trkpt>
      <trkpt lat="46.7708" lon="0.43679">
        <ele>138.6</ele>
        <time>2020-10-11T09:09:21Z</time>
      </trkpt>
      <trkpt lat="46.77069" lon="0.43699">
        <ele>138</ele>
        <time>2020-10-11T09:09:26Z</time>
      </trkpt>
      <trkpt lat="46.77065" lon="0.43703">
        <ele>137.8</ele>
        <time>2020-10-11T09:09:27Z</time>
      </trkpt>
      <trkpt lat="46.77058" lon="0.43712">
        <ele>137.6</ele>
        <time>2020-10-11T09:09:30Z</time>
      </trkpt>
      <trkpt lat="46.77055" lon="0.43715">
        <ele>137.6</ele>
        <time>2020-10-11T09:09:31Z</time>
      </trkpt>
      <trkpt lat="46.77054" lon="0.43716">
        <ele>137.6</ele>
        <time>2020-10-11T09:09:32Z</time>
      </trkpt>
      <trkpt lat="46.77043" lon="0.43722">
        <ele>137.4</ele>
        <time>2020-10-11T09:09:36Z</time>
      </trkpt>
      <trkpt lat="46.77027" lon="0.43733">
        <ele>136.8</ele>
        <time>2020-10-11T09:09:41Z</time>
      </trkpt>
      <trkpt lat="46.77025" lon="0.43733">
        <ele>136.6</ele>
        <time>2020-10-11T09:09:42Z</time>
      </trkpt>
      <trkpt lat="46.77016" lon="0.43736">
        <ele>136</ele>
        <time>2020-10-11T09:09:45Z</time>
      </trkpt>
      <trkpt lat="46.77011" lon="0.43736">
        <ele>136</ele>
        <time>2020-10-11T09:09:47Z</time>
      </trkpt>
      <trkpt lat="46.77004" lon="0.43742">
        <ele>136</ele>
        <time>2020-10-11T09:09:50Z</time>
      </trkpt>
      <trkpt lat="46.77001" lon="0.43745">
        <ele>136</ele>
        <time>2020-10-11T09:09:51Z</time>
      </trkpt>
      <trkpt lat="46.76994" lon="0.4375">
        <ele>136</ele>
        <time>2020-10-11T09:09:53Z</time>
      </trkpt>
      <trkpt lat="46.76991" lon="0.43753">
        <ele>135.8</ele>
        <time>2020-10-11T09:09:54Z</time>
      </trkpt>
      <trkpt lat="46.76987" lon="0.43756">
        <ele>135.6</ele>
        <time>2020-10-11T09:09:55Z</time>
      </trkpt>
      <trkpt lat="46.7698" lon="0.4376">
        <ele>135.4</ele>
        <time>2020-10-11T09:09:57Z</time>
      </trkpt>
      <trkpt lat="46.76972" lon="0.43753">
        <ele>134.6</ele>
        <time>2020-10-11T09:10:00Z</time>
      </trkpt>
      <trkpt lat="46.7697" lon="0.43749">
        <ele>134.6</ele>
        <time>2020-10-11T09:10:01Z</time>
      </trkpt>
      <trkpt lat="46.76959" lon="0.43728">
        <ele>135.2</ele>
        <time>2020-10-11T09:10:05Z</time>
      </trkpt>
      <trkpt lat="46.76941" lon="0.43701">
        <ele>135.6</ele>
        <time>2020-10-11T09:10:10Z</time>
      </trkpt>
      <trkpt lat="46.76926" lon="0.43679">
        <ele>135.6</ele>
        <time>2020-10-11T09:10:14Z</time>
      </trkpt>
      <trkpt lat="46.76901" lon="0.43639">
        <ele>136.6</ele>
        <time>2020-10-11T09:10:21Z</time>
      </trkpt>
      <trkpt lat="46.76898" lon="0.43634">
        <ele>136.8</ele>
        <time>2020-10-11T09:10:22Z</time>
      </trkpt>
      <trkpt lat="46.76884" lon="0.43603">
        <ele>137</ele>
        <time>2020-10-11T09:10:27Z</time>
      </trkpt>
      <trkpt lat="46.76867" lon="0.43559">
        <ele>137.2</ele>
        <time>2020-10-11T09:10:34Z</time>
      </trkpt>
      <trkpt lat="46.76863" lon="0.43546">
        <ele>137.4</ele>
        <time>2020-10-11T09:10:36Z</time>
      </trkpt>
      <trkpt lat="46.76851" lon="0.43523">
        <ele>137.8</ele>
        <time>2020-10-11T09:10:40Z</time>
      </trkpt>
      <trkpt lat="46.76849" lon="0.43517">
        <ele>137.8</ele>
        <time>2020-10-11T09:10:41Z</time>
      </trkpt>
      <trkpt lat="46.76833" lon="0.43482">
        <ele>138</ele>
        <time>2020-10-11T09:10:47Z</time>
      </trkpt>
      <trkpt lat="46.7683" lon="0.43476">
        <ele>138</ele>
        <time>2020-10-11T09:10:48Z</time>
      </trkpt>
      <trkpt lat="46.76815" lon="0.43447">
        <ele>138.4</ele>
        <time>2020-10-11T09:10:53Z</time>
      </trkpt>
      <trkpt lat="46.76793" lon="0.43405">
        <ele>138.4</ele>
        <time>2020-10-11T09:11:00Z</time>
      </trkpt>
      <trkpt lat="46.76757" lon="0.43361">
        <ele>138.6</ele>
        <time>2020-10-11T09:11:08Z</time>
      </trkpt>
      <trkpt lat="46.76753" lon="0.43356">
        <ele>138.6</ele>
        <time>2020-10-11T09:11:09Z</time>
      </trkpt>
      <trkpt lat="46.76738" lon="0.43343">
        <ele>138.4</ele>
        <time>2020-10-11T09:11:12Z</time>
      </trkpt>
      <trkpt lat="46.76714" lon="0.43309">
        <ele>138.2</ele>
        <time>2020-10-11T09:11:18Z</time>
      </trkpt>
      <trkpt lat="46.767" lon="0.43273">
        <ele>137.8</ele>
        <time>2020-10-11T09:11:23Z</time>
      </trkpt>
      <trkpt lat="46.76688" lon="0.43237">
        <ele>138.2</ele>
        <time>2020-10-11T09:11:29Z</time>
      </trkpt>
      <trkpt lat="46.76687" lon="0.43231">
        <ele>138.2</ele>
        <time>2020-10-11T09:11:30Z</time>
      </trkpt>
      <trkpt lat="46.76679" lon="0.43204">
        <ele>138.6</ele>
        <time>2020-10-11T09:11:34Z</time>
      </trkpt>
      <trkpt lat="46.76673" lon="0.43187">
        <ele>138.4</ele>
        <time>2020-10-11T09:11:37Z</time>
      </trkpt>
      <trkpt lat="46.76668" lon="0.43169">
        <ele>138.8</ele>
        <time>2020-10-11T09:11:40Z</time>
      </trkpt>
      <trkpt lat="46.76666" lon="0.43162">
        <ele>139</ele>
        <time>2020-10-11T09:11:41Z</time>
      </trkpt>
      <trkpt lat="46.76657" lon="0.43132">
        <ele>139.4</ele>
        <time>2020-10-11T09:11:45Z</time>
      </trkpt>
      <trkpt lat="46.76652" lon="0.43116">
        <ele>139.6</ele>
        <time>2020-10-11T09:11:47Z</time>
      </trkpt>
      <trkpt lat="46.76643" lon="0.43086">
        <ele>139.6</ele>
        <time>2020-10-11T09:11:51Z</time>
      </trkpt>
      <trkpt lat="46.76634" lon="0.43058">
        <ele>139.6</ele>
        <time>2020-10-11T09:11:55Z</time>
      </trkpt>
      <trkpt lat="46.76629" lon="0.43044">
        <ele>139.6</ele>
        <time>2020-10-11T09:11:57Z</time>
      </trkpt>
      <trkpt lat="46.76607" lon="0.42994">
        <ele>139.6</ele>
        <time>2020-10-11T09:12:04Z</time>
      </trkpt>
      <trkpt lat="46.7659" lon="0.42964">
        <ele>139.2</ele>
        <time>2020-10-11T09:12:09Z</time>
      </trkpt>
      <trkpt lat="46.76587" lon="0.42958">
        <ele>139.2</ele>
        <time>2020-10-11T09:12:10Z</time>
      </trkpt>
      <trkpt lat="46.76585" lon="0.42954">
        <ele>139.2</ele>
        <time>2020-10-11T09:12:11Z</time>
      </trkpt>
      <trkpt lat="46.76583" lon="0.42947">
        <ele>139.2</ele>
        <time>2020-10-11T09:12:13Z</time>
      </trkpt>
      <trkpt lat="46.76583" lon="0.42945">
        <ele>139.2</ele>
        <time>2020-10-11T09:12:14Z</time>
      </trkpt>
      <trkpt lat="46.76584" lon="0.42943">
        <ele>139.2</ele>
        <time>2020-10-11T09:12:17Z</time>
      </trkpt>
      <trkpt lat="46.76589" lon="0.42938">
        <ele>139.4</ele>
        <time>2020-10-11T09:12:25Z</time>
      </trkpt>
      <trkpt lat="46.7659" lon="0.42936">
        <ele>139.4</ele>
        <time>2020-10-11T09:12:26Z</time>
      </trkpt>
      <trkpt lat="46.76598" lon="0.4293">
        <ele>139.2</ele>
        <time>2020-10-11T09:12:31Z</time>
      </trkpt>
      <trkpt lat="46.766" lon="0.4293">
        <ele>139.4</ele>
        <time>2020-10-11T09:12:32Z</time>
      </trkpt>
      <trkpt lat="46.76604" lon="0.4293">
        <ele>139.4</ele>
        <time>2020-10-11T09:12:34Z</time>
      </trkpt>
      <trkpt lat="46.76609" lon="0.42924">
        <ele>139.4</ele>
        <time>2020-10-11T09:12:37Z</time>
      </trkpt>
      <trkpt lat="46.76614" lon="0.42918">
        <ele>139.2</ele>
        <time>2020-10-11T09:12:40Z</time>
      </trkpt>
      <trkpt lat="46.76616" lon="0.42911">
        <ele>139.2</ele>
        <time>2020-10-11T09:12:42Z</time>
      </trkpt>
      <trkpt lat="46.7662" lon="0.429">
        <ele>139.4</ele>
        <time>2020-10-11T09:12:47Z</time>
      </trkpt>
      <trkpt lat="46.76623" lon="0.42901">
        <ele>139.4</ele>
        <time>2020-10-11T09:12:49Z</time>
      </trkpt>
      <trkpt lat="46.76626" lon="0.42905">
        <ele>139.4</ele>
        <time>2020-10-11T09:12:52Z</time>
      </trkpt>
      <trkpt lat="46.76629" lon="0.42908">
        <ele>139.4</ele>
        <time>2020-10-11T09:12:54Z</time>
      </trkpt>
      <trkpt lat="46.7664" lon="0.42911">
        <ele>139.4</ele>
        <time>2020-10-11T09:12:58Z</time>
      </trkpt>
      <trkpt lat="46.7664" lon="0.42912">
        <ele>139.4</ele>
        <time>2020-10-11T09:12:59Z</time>
      </trkpt>
      <trkpt lat="46.76646" lon="0.42922">
        <ele>139.4</ele>
        <time>2020-10-11T09:13:03Z</time>
      </trkpt>
      <trkpt lat="46.76652" lon="0.42939">
        <ele>139.2</ele>
        <time>2020-10-11T09:13:09Z</time>
      </trkpt>
      <trkpt lat="46.7666" lon="0.42954">
        <ele>139.4</ele>
        <time>2020-10-11T09:13:15Z</time>
      </trkpt>
      <trkpt lat="46.76664" lon="0.42962">
        <ele>139.6</ele>
        <time>2020-10-11T09:13:18Z</time>
      </trkpt>
      <trkpt lat="46.76665" lon="0.42965">
        <ele>139.4</ele>
        <time>2020-10-11T09:13:20Z</time>
      </trkpt>
      <trkpt lat="46.76667" lon="0.42968">
        <ele>139.4</ele>
        <time>2020-10-11T09:13:23Z</time>
      </trkpt>
      <trkpt lat="46.76671" lon="0.42971">
        <ele>139.2</ele>
        <time>2020-10-11T09:13:26Z</time>
      </trkpt>
      <trkpt lat="46.76676" lon="0.42974">
        <ele>139.6</ele>
        <time>2020-10-11T09:13:29Z</time>
      </trkpt>
      <trkpt lat="46.76687" lon="0.42983">
        <ele>139.8</ele>
        <time>2020-10-11T09:13:33Z</time>
      </trkpt>
      <trkpt lat="46.76689" lon="0.4299">
        <ele>140</ele>
        <time>2020-10-11T09:13:35Z</time>
      </trkpt>
      <trkpt lat="46.76694" lon="0.42994">
        <ele>140</ele>
        <time>2020-10-11T09:13:37Z</time>
      </trkpt>
      <trkpt lat="46.76696" lon="0.42995">
        <ele>139.8</ele>
        <time>2020-10-11T09:13:39Z</time>
      </trkpt>
      <trkpt lat="46.76699" lon="0.42995">
        <ele>139.6</ele>
        <time>2020-10-11T09:13:41Z</time>
      </trkpt>
      <trkpt lat="46.76706" lon="0.42992">
        <ele>139.8</ele>
        <time>2020-10-11T09:13:44Z</time>
      </trkpt>
      <trkpt lat="46.76712" lon="0.42991">
        <ele>140</ele>
        <time>2020-10-11T09:13:47Z</time>
      </trkpt>
      <trkpt lat="46.76712" lon="0.42991">
        <ele>140</ele>
        <time>2020-10-11T09:13:48Z</time>
      </trkpt>
      <trkpt lat="46.76709" lon="0.42991">
        <ele>140</ele>
        <time>2020-10-11T09:13:51Z</time>
      </trkpt>
      <trkpt lat="46.76706" lon="0.42992">
        <ele>140</ele>
        <time>2020-10-11T09:13:53Z</time>
      </trkpt>
      <trkpt lat="46.76704" lon="0.42992">
        <ele>140</ele>
        <time>2020-10-11T09:13:54Z</time>
      </trkpt>
      <trkpt lat="46.767" lon="0.42987">
        <ele>139.8</ele>
        <time>2020-10-11T09:13:57Z</time>
      </trkpt>
      <trkpt lat="46.76693" lon="0.42971">
        <ele>139.6</ele>
        <time>2020-10-11T09:14:03Z</time>
      </trkpt>
      <trkpt lat="46.7669" lon="0.4295">
        <ele>140</ele>
        <time>2020-10-11T09:14:08Z</time>
      </trkpt>
      <trkpt lat="46.76689" lon="0.42942">
        <ele>140</ele>
        <time>2020-10-11T09:14:10Z</time>
      </trkpt>
      <trkpt lat="46.76686" lon="0.42935">
        <ele>140</ele>
        <time>2020-10-11T09:14:12Z</time>
      </trkpt>
      <trkpt lat="46.76686" lon="0.42932">
        <ele>140.2</ele>
        <time>2020-10-11T09:14:13Z</time>
      </trkpt>
      <trkpt lat="46.76688" lon="0.42923">
        <ele>140.4</ele>
        <time>2020-10-11T09:14:16Z</time>
      </trkpt>
      <trkpt lat="46.76691" lon="0.42917">
        <ele>140.4</ele>
        <time>2020-10-11T09:14:18Z</time>
      </trkpt>
      <trkpt lat="46.76703" lon="0.429">
        <ele>140.6</ele>
        <time>2020-10-11T09:14:25Z</time>
      </trkpt>
      <trkpt lat="46.76716" lon="0.42891">
        <ele>140.2</ele>
        <time>2020-10-11T09:14:30Z</time>
      </trkpt>
      <trkpt lat="46.76724" lon="0.42887">
        <ele>140.4</ele>
        <time>2020-10-11T09:14:34Z</time>
      </trkpt>
      <trkpt lat="46.76727" lon="0.42886">
        <ele>140.4</ele>
        <time>2020-10-11T09:14:35Z</time>
      </trkpt>
      <trkpt lat="46.76733" lon="0.42884">
        <ele>140.4</ele>
        <time>2020-10-11T09:14:38Z</time>
      </trkpt>
      <trkpt lat="46.76737" lon="0.42883">
        <ele>140.4</ele>
        <time>2020-10-11T09:14:39Z</time>
      </trkpt>
      <trkpt lat="46.76741" lon="0.42882">
        <ele>140.4</ele>
        <time>2020-10-11T09:14:42Z</time>
      </trkpt>
      <trkpt lat="46.76748" lon="0.42881">
        <ele>140.6</ele>
        <time>2020-10-11T09:14:45Z</time>
      </trkpt>
      <trkpt lat="46.7676" lon="0.4287">
        <ele>140.6</ele>
        <time>2020-10-11T09:14:50Z</time>
      </trkpt>
      <trkpt lat="46.76774" lon="0.42862">
        <ele>140.6</ele>
        <time>2020-10-11T09:14:55Z</time>
      </trkpt>
      <trkpt lat="46.76779" lon="0.42861">
        <ele>140.8</ele>
        <time>2020-10-11T09:14:57Z</time>
      </trkpt>
      <trkpt lat="46.76784" lon="0.42863">
        <ele>141</ele>
        <time>2020-10-11T09:14:59Z</time>
      </trkpt>
      <trkpt lat="46.76795" lon="0.42866">
        <ele>141</ele>
        <time>2020-10-11T09:15:02Z</time>
      </trkpt>
      <trkpt lat="46.76798" lon="0.42866">
        <ele>141</ele>
        <time>2020-10-11T09:15:04Z</time>
      </trkpt>
      <trkpt lat="46.76805" lon="0.42864">
        <ele>140.8</ele>
        <time>2020-10-11T09:15:07Z</time>
      </trkpt>
      <trkpt lat="46.7681" lon="0.42866">
        <ele>141.2</ele>
        <time>2020-10-11T09:15:09Z</time>
      </trkpt>
      <trkpt lat="46.76818" lon="0.42868">
        <ele>141.2</ele>
        <time>2020-10-11T09:15:12Z</time>
      </trkpt>
      <trkpt lat="46.76828" lon="0.42866">
        <ele>141.4</ele>
        <time>2020-10-11T09:15:15Z</time>
      </trkpt>
      <trkpt lat="46.76843" lon="0.42862">
        <ele>141.2</ele>
        <time>2020-10-11T09:15:20Z</time>
      </trkpt>
      <trkpt lat="46.76858" lon="0.4286">
        <ele>141.4</ele>
        <time>2020-10-11T09:15:25Z</time>
      </trkpt>
      <trkpt lat="46.7687" lon="0.42862">
        <ele>141.4</ele>
        <time>2020-10-11T09:15:30Z</time>
      </trkpt>
      <trkpt lat="46.76872" lon="0.42863">
        <ele>141.4</ele>
        <time>2020-10-11T09:15:31Z</time>
      </trkpt>
      <trkpt lat="46.7688" lon="0.42868">
        <ele>141.4</ele>
        <time>2020-10-11T09:15:34Z</time>
      </trkpt>
      <trkpt lat="46.76881" lon="0.42872">
        <ele>141.4</ele>
        <time>2020-10-11T09:15:37Z</time>
      </trkpt>
      <trkpt lat="46.76882" lon="0.42876">
        <ele>141.4</ele>
        <time>2020-10-11T09:15:39Z</time>
      </trkpt>
      <trkpt lat="46.76883" lon="0.42877">
        <ele>141.2</ele>
        <time>2020-10-11T09:15:40Z</time>
      </trkpt>
      <trkpt lat="46.76883" lon="0.42878">
        <ele>141.2</ele>
        <time>2020-10-11T09:15:42Z</time>
      </trkpt>
      <trkpt lat="46.76884" lon="0.42881">
        <ele>141</ele>
        <time>2020-10-11T09:15:44Z</time>
      </trkpt>
      <trkpt lat="46.76891" lon="0.4289">
        <ele>141</ele>
        <time>2020-10-11T09:15:49Z</time>
      </trkpt>
      <trkpt lat="46.76892" lon="0.42892">
        <ele>141</ele>
        <time>2020-10-11T09:15:50Z</time>
      </trkpt>
      <trkpt lat="46.76894" lon="0.42901">
        <ele>141</ele>
        <time>2020-10-11T09:15:54Z</time>
      </trkpt>
      <trkpt lat="46.76895" lon="0.42912">
        <ele>141.2</ele>
        <time>2020-10-11T09:15:58Z</time>
      </trkpt>
      <trkpt lat="46.76896" lon="0.42915">
        <ele>141.2</ele>
        <time>2020-10-11T09:15:59Z</time>
      </trkpt>
      <trkpt lat="46.769" lon="0.42927">
        <ele>141.4</ele>
        <time>2020-10-11T09:16:04Z</time>
      </trkpt>
      <trkpt lat="46.76901" lon="0.42932">
        <ele>141.2</ele>
        <time>2020-10-11T09:16:06Z</time>
      </trkpt>
      <trkpt lat="46.76902" lon="0.42937">
        <ele>141</ele>
        <time>2020-10-11T09:16:09Z</time>
      </trkpt>
      <trkpt lat="46.76908" lon="0.42954">
        <ele>141</ele>
        <time>2020-10-11T09:16:16Z</time>
      </trkpt>
      <trkpt lat="46.76913" lon="0.42966">
        <ele>141.2</ele>
        <time>2020-10-11T09:16:20Z</time>
      </trkpt>
      <trkpt lat="46.76917" lon="0.42971">
        <ele>141.2</ele>
        <time>2020-10-11T09:16:22Z</time>
      </trkpt>
      <trkpt lat="46.76917" lon="0.42979">
        <ele>141.2</ele>
        <time>2020-10-11T09:16:24Z</time>
      </trkpt>
      <trkpt lat="46.76913" lon="0.42994">
        <ele>141.2</ele>
        <time>2020-10-11T09:16:27Z</time>
      </trkpt>
      <trkpt lat="46.76912" lon="0.43003">
        <ele>141.6</ele>
        <time>2020-10-11T09:16:28Z</time>
      </trkpt>
      <trkpt lat="46.76913" lon="0.43013">
        <ele>141.6</ele>
        <time>2020-10-11T09:16:31Z</time>
      </trkpt>
      <trkpt lat="46.76916" lon="0.43033">
        <ele>141.6</ele>
        <time>2020-10-11T09:16:35Z</time>
      </trkpt>
      <trkpt lat="46.76916" lon="0.4304">
        <ele>141.6</ele>
        <time>2020-10-11T09:16:37Z</time>
      </trkpt>
      <trkpt lat="46.76926" lon="0.43062">
        <ele>141.4</ele>
        <time>2020-10-11T09:16:42Z</time>
      </trkpt>
      <trkpt lat="46.7693" lon="0.43066">
        <ele>141.6</ele>
        <time>2020-10-11T09:16:44Z</time>
      </trkpt>
      <trkpt lat="46.76933" lon="0.43072">
        <ele>141.6</ele>
        <time>2020-10-11T09:16:46Z</time>
      </trkpt>
      <trkpt lat="46.76937" lon="0.43073">
        <ele>141.6</ele>
        <time>2020-10-11T09:16:48Z</time>
      </trkpt>
      <trkpt lat="46.76939" lon="0.43072">
        <ele>141.6</ele>
        <time>2020-10-11T09:16:49Z</time>
      </trkpt>
      <trkpt lat="46.76946" lon="0.43065">
        <ele>141.4</ele>
        <time>2020-10-11T09:16:52Z</time>
      </trkpt>
      <trkpt lat="46.7695" lon="0.43061">
        <ele>141.4</ele>
        <time>2020-10-11T09:16:54Z</time>
      </trkpt>
      <trkpt lat="46.76954" lon="0.4306">
        <ele>141.4</ele>
        <time>2020-10-11T09:16:55Z</time>
      </trkpt>
      <trkpt lat="46.7697" lon="0.43066">
        <ele>141</ele>
        <time>2020-10-11T09:17:00Z</time>
      </trkpt>
      <trkpt lat="46.76973" lon="0.4307">
        <ele>141</ele>
        <time>2020-10-11T09:17:01Z</time>
      </trkpt>
      <trkpt lat="46.76984" lon="0.43083">
        <ele>141.2</ele>
        <time>2020-10-11T09:17:05Z</time>
      </trkpt>
      <trkpt lat="46.76987" lon="0.43087">
        <ele>141.2</ele>
        <time>2020-10-11T09:17:06Z</time>
      </trkpt>
      <trkpt lat="46.7699" lon="0.4309">
        <ele>141.2</ele>
        <time>2020-10-11T09:17:07Z</time>
      </trkpt>
      <trkpt lat="46.76994" lon="0.43094">
        <ele>141</ele>
        <time>2020-10-11T09:17:09Z</time>
      </trkpt>
      <trkpt lat="46.76995" lon="0.43096">
        <ele>141</ele>
        <time>2020-10-11T09:17:10Z</time>
      </trkpt>
      <trkpt lat="46.77003" lon="0.43108">
        <ele>141</ele>
        <time>2020-10-11T09:17:14Z</time>
      </trkpt>
      <trkpt lat="46.77005" lon="0.43111">
        <ele>141</ele>
        <time>2020-10-11T09:17:15Z</time>
      </trkpt>
      <trkpt lat="46.77008" lon="0.43114">
        <ele>141.2</ele>
        <time>2020-10-11T09:17:16Z</time>
      </trkpt>
      <trkpt lat="46.7701" lon="0.43129">
        <ele>141.4</ele>
        <time>2020-10-11T09:17:19Z</time>
      </trkpt>
      <trkpt lat="46.77015" lon="0.43152">
        <ele>141.2</ele>
        <time>2020-10-11T09:17:24Z</time>
      </trkpt>
      <trkpt lat="46.77021" lon="0.43165">
        <ele>141.4</ele>
        <time>2020-10-11T09:17:27Z</time>
      </trkpt>
      <trkpt lat="46.77021" lon="0.4317">
        <ele>141.4</ele>
        <time>2020-10-11T09:17:28Z</time>
      </trkpt>
      <trkpt lat="46.77025" lon="0.43178">
        <ele>141.6</ele>
        <time>2020-10-11T09:17:30Z</time>
      </trkpt>
      <trkpt lat="46.7703" lon="0.43186">
        <ele>141.4</ele>
        <time>2020-10-11T09:17:32Z</time>
      </trkpt>
      <trkpt lat="46.77042" lon="0.43206">
        <ele>141.2</ele>
        <time>2020-10-11T09:17:37Z</time>
      </trkpt>
      <trkpt lat="46.7705" lon="0.43227">
        <ele>141.6</ele>
        <time>2020-10-11T09:17:42Z</time>
      </trkpt>
      <trkpt lat="46.77061" lon="0.43245">
        <ele>141.8</ele>
        <time>2020-10-11T09:17:48Z</time>
      </trkpt>
      <trkpt lat="46.77064" lon="0.43248">
        <ele>141.8</ele>
        <time>2020-10-11T09:17:49Z</time>
      </trkpt>
      <trkpt lat="46.77066" lon="0.43254">
        <ele>141.8</ele>
        <time>2020-10-11T09:17:51Z</time>
      </trkpt>
      <trkpt lat="46.77064" lon="0.43257">
        <ele>141.8</ele>
        <time>2020-10-11T09:17:52Z</time>
      </trkpt>
      <trkpt lat="46.77054" lon="0.43264">
        <ele>141.8</ele>
        <time>2020-10-11T09:17:56Z</time>
      </trkpt>
      <trkpt lat="46.77048" lon="0.43268">
        <ele>142</ele>
        <time>2020-10-11T09:17:58Z</time>
      </trkpt>
      <trkpt lat="46.77031" lon="0.43276">
        <ele>142</ele>
        <time>2020-10-11T09:18:02Z</time>
      </trkpt>
      <trkpt lat="46.77022" lon="0.4328">
        <ele>142</ele>
        <time>2020-10-11T09:18:04Z</time>
      </trkpt>
      <trkpt lat="46.77008" lon="0.43282">
        <ele>142.2</ele>
        <time>2020-10-11T09:18:07Z</time>
      </trkpt>
      <trkpt lat="46.76974" lon="0.4329">
        <ele>141.8</ele>
        <time>2020-10-11T09:18:14Z</time>
      </trkpt>
      <trkpt lat="46.76951" lon="0.43297">
        <ele>141.6</ele>
        <time>2020-10-11T09:18:19Z</time>
      </trkpt>
      <trkpt lat="46.76938" lon="0.43301">
        <ele>141.6</ele>
        <time>2020-10-11T09:18:22Z</time>
      </trkpt>
      <trkpt lat="46.76926" lon="0.43304">
        <ele>141.4</ele>
        <time>2020-10-11T09:18:25Z</time>
      </trkpt>
      <trkpt lat="46.76921" lon="0.43311">
        <ele>141.4</ele>
        <time>2020-10-11T09:18:27Z</time>
      </trkpt>
      <trkpt lat="46.7692" lon="0.43315">
        <ele>141.2</ele>
        <time>2020-10-11T09:18:28Z</time>
      </trkpt>
      <trkpt lat="46.76922" lon="0.43319">
        <ele>141</ele>
        <time>2020-10-11T09:18:29Z</time>
      </trkpt>
      <trkpt lat="46.76923" lon="0.43323">
        <ele>141</ele>
        <time>2020-10-11T09:18:30Z</time>
      </trkpt>
      <trkpt lat="46.76926" lon="0.43327">
        <ele>141</ele>
        <time>2020-10-11T09:18:31Z</time>
      </trkpt>
      <trkpt lat="46.76948" lon="0.43359">
        <ele>141</ele>
        <time>2020-10-11T09:18:38Z</time>
      </trkpt>
      <trkpt lat="46.76958" lon="0.43374">
        <ele>140.8</ele>
        <time>2020-10-11T09:18:41Z</time>
      </trkpt>
      <trkpt lat="46.76965" lon="0.43384">
        <ele>140.8</ele>
        <time>2020-10-11T09:18:43Z</time>
      </trkpt>
      <trkpt lat="46.76988" lon="0.43414">
        <ele>141</ele>
        <time>2020-10-11T09:18:49Z</time>
      </trkpt>
      <trkpt lat="46.77011" lon="0.43451">
        <ele>141.2</ele>
        <time>2020-10-11T09:18:55Z</time>
      </trkpt>
      <trkpt lat="46.77034" lon="0.43499">
        <ele>141.2</ele>
        <time>2020-10-11T09:19:02Z</time>
      </trkpt>
      <trkpt lat="46.7704" lon="0.43512">
        <ele>140.8</ele>
        <time>2020-10-11T09:19:04Z</time>
      </trkpt>
      <trkpt lat="46.77044" lon="0.43516">
        <ele>140.6</ele>
        <time>2020-10-11T09:19:06Z</time>
      </trkpt>
      <trkpt lat="46.77046" lon="0.43514">
        <ele>140.6</ele>
        <time>2020-10-11T09:19:08Z</time>
      </trkpt>
      <trkpt lat="46.77049" lon="0.43509">
        <ele>140.4</ele>
        <time>2020-10-11T09:19:10Z</time>
      </trkpt>
      <trkpt lat="46.77054" lon="0.43499">
        <ele>140.8</ele>
        <time>2020-10-11T09:19:13Z</time>
      </trkpt>
      <trkpt lat="46.77058" lon="0.43489">
        <ele>141.2</ele>
        <time>2020-10-11T09:19:16Z</time>
      </trkpt>
      <trkpt lat="46.77059" lon="0.43483">
        <ele>141.6</ele>
        <time>2020-10-11T09:19:18Z</time>
      </trkpt>
      <trkpt lat="46.77062" lon="0.4347">
        <ele>141.8</ele>
        <time>2020-10-11T09:19:22Z</time>
      </trkpt>
      <trkpt lat="46.77062" lon="0.43467">
        <ele>141.8</ele>
        <time>2020-10-11T09:19:23Z</time>
      </trkpt>
      <trkpt lat="46.7706" lon="0.43445">
        <ele>141.8</ele>
        <time>2020-10-11T09:19:28Z</time>
      </trkpt>
      <trkpt lat="46.77054" lon="0.43436">
        <ele>142</ele>
        <time>2020-10-11T09:19:32Z</time>
      </trkpt>
      <trkpt lat="46.77053" lon="0.43432">
        <ele>142</ele>
        <time>2020-10-11T09:19:33Z</time>
      </trkpt>
      <trkpt lat="46.77052" lon="0.43418">
        <ele>142.2</ele>
        <time>2020-10-11T09:19:37Z</time>
      </trkpt>
      <trkpt lat="46.77054" lon="0.43395">
        <ele>142</ele>
        <time>2020-10-11T09:19:43Z</time>
      </trkpt>
      <trkpt lat="46.77053" lon="0.43377">
        <ele>142.2</ele>
        <time>2020-10-11T09:19:48Z</time>
      </trkpt>
      <trkpt lat="46.77058" lon="0.4337">
        <ele>142.2</ele>
        <time>2020-10-11T09:19:52Z</time>
      </trkpt>
      <trkpt lat="46.77074" lon="0.43357">
        <ele>142</ele>
        <time>2020-10-11T09:19:58Z</time>
      </trkpt>
      <trkpt lat="46.77089" lon="0.43344">
        <ele>142.4</ele>
        <time>2020-10-11T09:20:02Z</time>
      </trkpt>
      <trkpt lat="46.77097" lon="0.43343">
        <ele>142.4</ele>
        <time>2020-10-11T09:20:05Z</time>
      </trkpt>
      <trkpt lat="46.77099" lon="0.43339">
        <ele>142.4</ele>
        <time>2020-10-11T09:20:07Z</time>
      </trkpt>
      <trkpt lat="46.77102" lon="0.43324">
        <ele>142.2</ele>
        <time>2020-10-11T09:20:11Z</time>
      </trkpt>
      <trkpt lat="46.77104" lon="0.43308">
        <ele>142</ele>
        <time>2020-10-11T09:20:14Z</time>
      </trkpt>
      <trkpt lat="46.77101" lon="0.43298">
        <ele>142.2</ele>
        <time>2020-10-11T09:20:16Z</time>
      </trkpt>
      <trkpt lat="46.77104" lon="0.43289">
        <ele>142.2</ele>
        <time>2020-10-11T09:20:18Z</time>
      </trkpt>
      <trkpt lat="46.77103" lon="0.43282">
        <ele>142</ele>
        <time>2020-10-11T09:20:20Z</time>
      </trkpt>
      <trkpt lat="46.77102" lon="0.43275">
        <ele>141.4</ele>
        <time>2020-10-11T09:20:22Z</time>
      </trkpt>
      <trkpt lat="46.77101" lon="0.43265">
        <ele>141.4</ele>
        <time>2020-10-11T09:20:24Z</time>
      </trkpt>
      <trkpt lat="46.77103" lon="0.43256">
        <ele>141.2</ele>
        <time>2020-10-11T09:20:26Z</time>
      </trkpt>
      <trkpt lat="46.77108" lon="0.43254">
        <ele>141</ele>
        <time>2020-10-11T09:20:28Z</time>
      </trkpt>
      <trkpt lat="46.7711" lon="0.43254">
        <ele>141</ele>
        <time>2020-10-11T09:20:29Z</time>
      </trkpt>
      <trkpt lat="46.77115" lon="0.43249">
        <ele>141</ele>
        <time>2020-10-11T09:20:31Z</time>
      </trkpt>
      <trkpt lat="46.77118" lon="0.43248">
        <ele>141</ele>
        <time>2020-10-11T09:20:32Z</time>
      </trkpt>
      <trkpt lat="46.77126" lon="0.43251">
        <ele>141.2</ele>
        <time>2020-10-11T09:20:34Z</time>
      </trkpt>
      <trkpt lat="46.77132" lon="0.43251">
        <ele>141</ele>
        <time>2020-10-11T09:20:36Z</time>
      </trkpt>
      <trkpt lat="46.77137" lon="0.43246">
        <ele>140.4</ele>
        <time>2020-10-11T09:20:38Z</time>
      </trkpt>
      <trkpt lat="46.7714" lon="0.43238">
        <ele>140</ele>
        <time>2020-10-11T09:20:40Z</time>
      </trkpt>
      <trkpt lat="46.77141" lon="0.43234">
        <ele>139.6</ele>
        <time>2020-10-11T09:20:41Z</time>
      </trkpt>
      <trkpt lat="46.77143" lon="0.43226">
        <ele>139.2</ele>
        <time>2020-10-11T09:20:43Z</time>
      </trkpt>
      <trkpt lat="46.77142" lon="0.43212">
        <ele>139.2</ele>
        <time>2020-10-11T09:20:45Z</time>
      </trkpt>
      <trkpt lat="46.7714" lon="0.43205">
        <ele>139.2</ele>
        <time>2020-10-11T09:20:46Z</time>
      </trkpt>
      <trkpt lat="46.77131" lon="0.43174">
        <ele>139.2</ele>
        <time>2020-10-11T09:20:50Z</time>
      </trkpt>
      <trkpt lat="46.77118" lon="0.43141">
        <ele>139.2</ele>
        <time>2020-10-11T09:20:55Z</time>
      </trkpt>
      <trkpt lat="46.77103" lon="0.43106">
        <ele>139</ele>
        <time>2020-10-11T09:21:00Z</time>
      </trkpt>
      <trkpt lat="46.77096" lon="0.43084">
        <ele>138.2</ele>
        <time>2020-10-11T09:21:03Z</time>
      </trkpt>
      <trkpt lat="46.77091" lon="0.43068">
        <ele>138</ele>
        <time>2020-10-11T09:21:05Z</time>
      </trkpt>
      <trkpt lat="46.77073" lon="0.4302">
        <ele>139.4</ele>
        <time>2020-10-11T09:21:11Z</time>
      </trkpt>
      <trkpt lat="46.77048" lon="0.42971">
        <ele>140</ele>
        <time>2020-10-11T09:21:18Z</time>
      </trkpt>
      <trkpt lat="46.77044" lon="0.42964">
        <ele>139.8</ele>
        <time>2020-10-11T09:21:19Z</time>
      </trkpt>
      <trkpt lat="46.77031" lon="0.42939">
        <ele>139.8</ele>
        <time>2020-10-11T09:21:23Z</time>
      </trkpt>
      <trkpt lat="46.77016" lon="0.42909">
        <ele>139.8</ele>
        <time>2020-10-11T09:21:28Z</time>
      </trkpt>
      <trkpt lat="46.76993" lon="0.42859">
        <ele>141</ele>
        <time>2020-10-11T09:21:37Z</time>
      </trkpt>
      <trkpt lat="46.76976" lon="0.42822">
        <ele>141</ele>
        <time>2020-10-11T09:21:43Z</time>
      </trkpt>
      <trkpt lat="46.76956" lon="0.42777">
        <ele>141.2</ele>
        <time>2020-10-11T09:21:49Z</time>
      </trkpt>
      <trkpt lat="46.76941" lon="0.42745">
        <ele>141</ele>
        <time>2020-10-11T09:21:54Z</time>
      </trkpt>
      <trkpt lat="46.76939" lon="0.42739">
        <ele>140.8</ele>
        <time>2020-10-11T09:21:55Z</time>
      </trkpt>
      <trkpt lat="46.76925" lon="0.42702">
        <ele>140.8</ele>
        <time>2020-10-11T09:22:00Z</time>
      </trkpt>
      <trkpt lat="46.76913" lon="0.42684">
        <ele>140.8</ele>
        <time>2020-10-11T09:22:03Z</time>
      </trkpt>
      <trkpt lat="46.76908" lon="0.42681">
        <ele>140.6</ele>
        <time>2020-10-11T09:22:04Z</time>
      </trkpt>
      <trkpt lat="46.76892" lon="0.42671">
        <ele>140.6</ele>
        <time>2020-10-11T09:22:07Z</time>
      </trkpt>
      <trkpt lat="46.76868" lon="0.42663">
        <ele>140.6</ele>
        <time>2020-10-11T09:22:11Z</time>
      </trkpt>
      <trkpt lat="46.76858" lon="0.42659">
        <ele>140.6</ele>
        <time>2020-10-11T09:22:13Z</time>
      </trkpt>
      <trkpt lat="46.76853" lon="0.42653">
        <ele>140.8</ele>
        <time>2020-10-11T09:22:15Z</time>
      </trkpt>
      <trkpt lat="46.76854" lon="0.42641">
        <ele>140.8</ele>
        <time>2020-10-11T09:22:18Z</time>
      </trkpt>
      <trkpt lat="46.76868" lon="0.42626">
        <ele>140.2</ele>
        <time>2020-10-11T09:22:22Z</time>
      </trkpt>
      <trkpt lat="46.76872" lon="0.42622">
        <ele>140</ele>
        <time>2020-10-11T09:22:23Z</time>
      </trkpt>
      <trkpt lat="46.76883" lon="0.42611">
        <ele>139.4</ele>
        <time>2020-10-11T09:22:26Z</time>
      </trkpt>
      <trkpt lat="46.76889" lon="0.42602">
        <ele>139.4</ele>
        <time>2020-10-11T09:22:28Z</time>
      </trkpt>
      <trkpt lat="46.76892" lon="0.42598">
        <ele>139</ele>
        <time>2020-10-11T09:22:29Z</time>
      </trkpt>
      <trkpt lat="46.76895" lon="0.42594">
        <ele>138.8</ele>
        <time>2020-10-11T09:22:30Z</time>
      </trkpt>
      <trkpt lat="46.76904" lon="0.42583">
        <ele>138.2</ele>
        <time>2020-10-11T09:22:33Z</time>
      </trkpt>
      <trkpt lat="46.76907" lon="0.42583">
        <ele>138.2</ele>
        <time>2020-10-11T09:22:34Z</time>
      </trkpt>
      <trkpt lat="46.76909" lon="0.42583">
        <ele>138</ele>
        <time>2020-10-11T09:22:35Z</time>
      </trkpt>
      <trkpt lat="46.76915" lon="0.42593">
        <ele>137.6</ele>
        <time>2020-10-11T09:22:38Z</time>
      </trkpt>
      <trkpt lat="46.76919" lon="0.42596">
        <ele>137.6</ele>
        <time>2020-10-11T09:22:39Z</time>
      </trkpt>
      <trkpt lat="46.76928" lon="0.42601">
        <ele>137.4</ele>
        <time>2020-10-11T09:22:41Z</time>
      </trkpt>
      <trkpt lat="46.76936" lon="0.42606">
        <ele>137.2</ele>
        <time>2020-10-11T09:22:43Z</time>
      </trkpt>
      <trkpt lat="46.76945" lon="0.42614">
        <ele>136.8</ele>
        <time>2020-10-11T09:22:45Z</time>
      </trkpt>
      <trkpt lat="46.76948" lon="0.42618">
        <ele>136.6</ele>
        <time>2020-10-11T09:22:46Z</time>
      </trkpt>
      <trkpt lat="46.76961" lon="0.42635">
        <ele>136.2</ele>
        <time>2020-10-11T09:22:50Z</time>
      </trkpt>
      <trkpt lat="46.76966" lon="0.42644">
        <ele>136.2</ele>
        <time>2020-10-11T09:22:52Z</time>
      </trkpt>
      <trkpt lat="46.76968" lon="0.42653">
        <ele>136.6</ele>
        <time>2020-10-11T09:22:54Z</time>
      </trkpt>
      <trkpt lat="46.76975" lon="0.42675">
        <ele>137.2</ele>
        <time>2020-10-11T09:22:59Z</time>
      </trkpt>
      <trkpt lat="46.76979" lon="0.42688">
        <ele>137.4</ele>
        <time>2020-10-11T09:23:02Z</time>
      </trkpt>
      <trkpt lat="46.76982" lon="0.42698">
        <ele>137.6</ele>
        <time>2020-10-11T09:23:04Z</time>
      </trkpt>
      <trkpt lat="46.76985" lon="0.42711">
        <ele>137.8</ele>
        <time>2020-10-11T09:23:08Z</time>
      </trkpt>
      <trkpt lat="46.76985" lon="0.42714">
        <ele>137.8</ele>
        <time>2020-10-11T09:23:09Z</time>
      </trkpt>
      <trkpt lat="46.76987" lon="0.42718">
        <ele>137.8</ele>
        <time>2020-10-11T09:23:10Z</time>
      </trkpt>
      <trkpt lat="46.76988" lon="0.42726">
        <ele>137.8</ele>
        <time>2020-10-11T09:23:12Z</time>
      </trkpt>
      <trkpt lat="46.76989" lon="0.42728">
        <ele>137.8</ele>
        <time>2020-10-11T09:23:13Z</time>
      </trkpt>
      <trkpt lat="46.76991" lon="0.4273">
        <ele>137.8</ele>
        <time>2020-10-11T09:23:14Z</time>
      </trkpt>
      <trkpt lat="46.76997" lon="0.42733">
        <ele>138</ele>
        <time>2020-10-11T09:23:17Z</time>
      </trkpt>
      <trkpt lat="46.77004" lon="0.42739">
        <ele>137.8</ele>
        <time>2020-10-11T09:23:19Z</time>
      </trkpt>
      <trkpt lat="46.77006" lon="0.42743">
        <ele>137.8</ele>
        <time>2020-10-11T09:23:20Z</time>
      </trkpt>
      <trkpt lat="46.77015" lon="0.42763">
        <ele>138.2</ele>
        <time>2020-10-11T09:23:26Z</time>
      </trkpt>
      <trkpt lat="46.77018" lon="0.42767">
        <ele>138</ele>
        <time>2020-10-11T09:23:27Z</time>
      </trkpt>
      <trkpt lat="46.77027" lon="0.42783">
        <ele>136.6</ele>
        <time>2020-10-11T09:23:30Z</time>
      </trkpt>
      <trkpt lat="46.7703" lon="0.42794">
        <ele>135.8</ele>
        <time>2020-10-11T09:23:32Z</time>
      </trkpt>
      <trkpt lat="46.77035" lon="0.42805">
        <ele>135.6</ele>
        <time>2020-10-11T09:23:34Z</time>
      </trkpt>
      <trkpt lat="46.77036" lon="0.42809">
        <ele>135.6</ele>
        <time>2020-10-11T09:23:35Z</time>
      </trkpt>
      <trkpt lat="46.77036" lon="0.42815">
        <ele>135.6</ele>
        <time>2020-10-11T09:23:38Z</time>
      </trkpt>
      <trkpt lat="46.77035" lon="0.42819">
        <ele>136.4</ele>
        <time>2020-10-11T09:23:42Z</time>
      </trkpt>
      <trkpt lat="46.77035" lon="0.42824">
        <ele>136.8</ele>
        <time>2020-10-11T09:23:44Z</time>
      </trkpt>
      <trkpt lat="46.7704" lon="0.42839">
        <ele>136.8</ele>
        <time>2020-10-11T09:23:49Z</time>
      </trkpt>
      <trkpt lat="46.77046" lon="0.4284">
        <ele>136.4</ele>
        <time>2020-10-11T09:23:52Z</time>
      </trkpt>
      <trkpt lat="46.77053" lon="0.42848">
        <ele>135.6</ele>
        <time>2020-10-11T09:23:55Z</time>
      </trkpt>
      <trkpt lat="46.77054" lon="0.42852">
        <ele>135.4</ele>
        <time>2020-10-11T09:23:56Z</time>
      </trkpt>
      <trkpt lat="46.77054" lon="0.42858">
        <ele>135.2</ele>
        <time>2020-10-11T09:23:59Z</time>
      </trkpt>
      <trkpt lat="46.77054" lon="0.42859">
        <ele>135.4</ele>
        <time>2020-10-11T09:24:00Z</time>
      </trkpt>
      <trkpt lat="46.77053" lon="0.42861">
        <ele>135.4</ele>
        <time>2020-10-11T09:24:01Z</time>
      </trkpt>
      <trkpt lat="46.77057" lon="0.42871">
        <ele>136</ele>
        <time>2020-10-11T09:24:04Z</time>
      </trkpt>
      <trkpt lat="46.77059" lon="0.42875">
        <ele>136.2</ele>
        <time>2020-10-11T09:24:05Z</time>
      </trkpt>
      <trkpt lat="46.77062" lon="0.42878">
        <ele>136.2</ele>
        <time>2020-10-11T09:24:07Z</time>
      </trkpt>
      <trkpt lat="46.77072" lon="0.42884">
        <ele>135.4</ele>
        <time>2020-10-11T09:24:12Z</time>
      </trkpt>
      <trkpt lat="46.77074" lon="0.42887">
        <ele>135.2</ele>
        <time>2020-10-11T09:24:13Z</time>
      </trkpt>
      <trkpt lat="46.77082" lon="0.42898">
        <ele>134.8</ele>
        <time>2020-10-11T09:24:17Z</time>
      </trkpt>
      <trkpt lat="46.77087" lon="0.42905">
        <ele>134.8</ele>
        <time>2020-10-11T09:24:19Z</time>
      </trkpt>
      <trkpt lat="46.77091" lon="0.42912">
        <ele>134.6</ele>
        <time>2020-10-11T09:24:21Z</time>
      </trkpt>
      <trkpt lat="46.77093" lon="0.42915">
        <ele>134.6</ele>
        <time>2020-10-11T09:24:22Z</time>
      </trkpt>
      <trkpt lat="46.77095" lon="0.42918">
        <ele>134.4</ele>
        <time>2020-10-11T09:24:23Z</time>
      </trkpt>
      <trkpt lat="46.77102" lon="0.42946">
        <ele>134</ele>
        <time>2020-10-11T09:24:28Z</time>
      </trkpt>
      <trkpt lat="46.77109" lon="0.42956">
        <ele>133</ele>
        <time>2020-10-11T09:24:32Z</time>
      </trkpt>
      <trkpt lat="46.77111" lon="0.42958">
        <ele>132.4</ele>
        <time>2020-10-11T09:24:33Z</time>
      </trkpt>
      <trkpt lat="46.77114" lon="0.42962">
        <ele>132</ele>
        <time>2020-10-11T09:24:34Z</time>
      </trkpt>
      <trkpt lat="46.77121" lon="0.42973">
        <ele>130.8</ele>
        <time>2020-10-11T09:24:37Z</time>
      </trkpt>
      <trkpt lat="46.77126" lon="0.42979">
        <ele>130.2</ele>
        <time>2020-10-11T09:24:39Z</time>
      </trkpt>
      <trkpt lat="46.7713" lon="0.4298">
        <ele>129.8</ele>
        <time>2020-10-11T09:24:41Z</time>
      </trkpt>
      <trkpt lat="46.77136" lon="0.42977">
        <ele>128.4</ele>
        <time>2020-10-11T09:24:44Z</time>
      </trkpt>
      <trkpt lat="46.77141" lon="0.42975">
        <ele>127.4</ele>
        <time>2020-10-11T09:24:46Z</time>
      </trkpt>
      <trkpt lat="46.77148" lon="0.42969">
        <ele>126</ele>
        <time>2020-10-11T09:24:49Z</time>
      </trkpt>
      <trkpt lat="46.77152" lon="0.42966">
        <ele>124.6</ele>
        <time>2020-10-11T09:24:51Z</time>
      </trkpt>
      <trkpt lat="46.77155" lon="0.42963">
        <ele>123.6</ele>
        <time>2020-10-11T09:24:53Z</time>
      </trkpt>
      <trkpt lat="46.77163" lon="0.42964">
        <ele>122.4</ele>
        <time>2020-10-11T09:24:55Z</time>
      </trkpt>
      <trkpt lat="46.77167" lon="0.42966">
        <ele>121.8</ele>
        <time>2020-10-11T09:24:56Z</time>
      </trkpt>
      <trkpt lat="46.77171" lon="0.42969">
        <ele>121.4</ele>
        <time>2020-10-11T09:24:57Z</time>
      </trkpt>
      <trkpt lat="46.77177" lon="0.42978">
        <ele>121</ele>
        <time>2020-10-11T09:25:00Z</time>
      </trkpt>
      <trkpt lat="46.7719" lon="0.43006">
        <ele>121.6</ele>
        <time>2020-10-11T09:25:06Z</time>
      </trkpt>
      <trkpt lat="46.77197" lon="0.43043">
        <ele>122.6</ele>
        <time>2020-10-11T09:25:13Z</time>
      </trkpt>
      <trkpt lat="46.77198" lon="0.43048">
        <ele>123</ele>
        <time>2020-10-11T09:25:14Z</time>
      </trkpt>
      <trkpt lat="46.77199" lon="0.4306">
        <ele>123.8</ele>
        <time>2020-10-11T09:25:17Z</time>
      </trkpt>
      <trkpt lat="46.77202" lon="0.43077">
        <ele>124.6</ele>
        <time>2020-10-11T09:25:21Z</time>
      </trkpt>
      <trkpt lat="46.77203" lon="0.43081">
        <ele>125</ele>
        <time>2020-10-11T09:25:22Z</time>
      </trkpt>
      <trkpt lat="46.77206" lon="0.43098">
        <ele>126</ele>
        <time>2020-10-11T09:25:26Z</time>
      </trkpt>
      <trkpt lat="46.77207" lon="0.43101">
        <ele>126.2</ele>
        <time>2020-10-11T09:25:27Z</time>
      </trkpt>
      <trkpt lat="46.77207" lon="0.43116">
        <ele>127.2</ele>
        <time>2020-10-11T09:25:31Z</time>
      </trkpt>
      <trkpt lat="46.77206" lon="0.43123">
        <ele>128</ele>
        <time>2020-10-11T09:25:33Z</time>
      </trkpt>
      <trkpt lat="46.77205" lon="0.43126">
        <ele>128.4</ele>
        <time>2020-10-11T09:25:34Z</time>
      </trkpt>
      <trkpt lat="46.77201" lon="0.43139">
        <ele>129.4</ele>
        <time>2020-10-11T09:25:38Z</time>
      </trkpt>
      <trkpt lat="46.77199" lon="0.43145">
        <ele>130</ele>
        <time>2020-10-11T09:25:40Z</time>
      </trkpt>
      <trkpt lat="46.77197" lon="0.43151">
        <ele>130.6</ele>
        <time>2020-10-11T09:25:42Z</time>
      </trkpt>
      <trkpt lat="46.77194" lon="0.43162">
        <ele>132</ele>
        <time>2020-10-11T09:25:45Z</time>
      </trkpt>
      <trkpt lat="46.77193" lon="0.43165">
        <ele>132.2</ele>
        <time>2020-10-11T09:25:46Z</time>
      </trkpt>
      <trkpt lat="46.77191" lon="0.43178">
        <ele>133.2</ele>
        <time>2020-10-11T09:25:50Z</time>
      </trkpt>
      <trkpt lat="46.77187" lon="0.43193">
        <ele>134.4</ele>
        <time>2020-10-11T09:25:54Z</time>
      </trkpt>
      <trkpt lat="46.77183" lon="0.43211">
        <ele>135.6</ele>
        <time>2020-10-11T09:25:59Z</time>
      </trkpt>
      <trkpt lat="46.77181" lon="0.43218">
        <ele>136.2</ele>
        <time>2020-10-11T09:26:01Z</time>
      </trkpt>
      <trkpt lat="46.7718" lon="0.43226">
        <ele>136.8</ele>
        <time>2020-10-11T09:26:03Z</time>
      </trkpt>
      <trkpt lat="46.77179" lon="0.4323">
        <ele>137</ele>
        <time>2020-10-11T09:26:04Z</time>
      </trkpt>
      <trkpt lat="46.77181" lon="0.43235">
        <ele>137.2</ele>
        <time>2020-10-11T09:26:06Z</time>
      </trkpt>
      <trkpt lat="46.77182" lon="0.43236">
        <ele>137.4</ele>
        <time>2020-10-11T09:26:07Z</time>
      </trkpt>
      <trkpt lat="46.77184" lon="0.43235">
        <ele>137.4</ele>
        <time>2020-10-11T09:26:11Z</time>
      </trkpt>
      <trkpt lat="46.77185" lon="0.43233">
        <ele>136.2</ele>
        <time>2020-10-11T09:26:15Z</time>
      </trkpt>
      <trkpt lat="46.77186" lon="0.43235">
        <ele>136</ele>
        <time>2020-10-11T09:26:16Z</time>
      </trkpt>
      <trkpt lat="46.77188" lon="0.43238">
        <ele>135.8</ele>
        <time>2020-10-11T09:26:18Z</time>
      </trkpt>
      <trkpt lat="46.7719" lon="0.43238">
        <ele>135.6</ele>
        <time>2020-10-11T09:26:20Z</time>
      </trkpt>
      <trkpt lat="46.7719" lon="0.43236">
        <ele>135.4</ele>
        <time>2020-10-11T09:26:21Z</time>
      </trkpt>
      <trkpt lat="46.77194" lon="0.43232">
        <ele>135.2</ele>
        <time>2020-10-11T09:26:25Z</time>
      </trkpt>
      <trkpt lat="46.77198" lon="0.4323">
        <ele>135</ele>
        <time>2020-10-11T09:26:27Z</time>
      </trkpt>
      <trkpt lat="46.77198" lon="0.4323">
        <ele>134.8</ele>
        <time>2020-10-11T09:26:28Z</time>
      </trkpt>
      <trkpt lat="46.77201" lon="0.43226">
        <ele>134.6</ele>
        <time>2020-10-11T09:26:31Z</time>
      </trkpt>
      <trkpt lat="46.77201" lon="0.43223">
        <ele>134.6</ele>
        <time>2020-10-11T09:26:34Z</time>
      </trkpt>
      <trkpt lat="46.77201" lon="0.43222">
        <ele>134.6</ele>
        <time>2020-10-11T09:26:35Z</time>
      </trkpt>
      <trkpt lat="46.77206" lon="0.43223">
        <ele>134.6</ele>
        <time>2020-10-11T09:26:39Z</time>
      </trkpt>
      <trkpt lat="46.77207" lon="0.43223">
        <ele>134.6</ele>
        <time>2020-10-11T09:26:41Z</time>
      </trkpt>
      <trkpt lat="46.77209" lon="0.43217">
        <ele>133.4</ele>
        <time>2020-10-11T09:26:45Z</time>
      </trkpt>
      <trkpt lat="46.77209" lon="0.43215">
        <ele>133.2</ele>
        <time>2020-10-11T09:26:46Z</time>
      </trkpt>
      <trkpt lat="46.7721" lon="0.43211">
        <ele>132.8</ele>
        <time>2020-10-11T09:26:48Z</time>
      </trkpt>
      <trkpt lat="46.77212" lon="0.43203">
        <ele>132.4</ele>
        <time>2020-10-11T09:26:52Z</time>
      </trkpt>
      <trkpt lat="46.77212" lon="0.43194">
        <ele>132.2</ele>
        <time>2020-10-11T09:26:57Z</time>
      </trkpt>
      <trkpt lat="46.77213" lon="0.43193">
        <ele>132</ele>
        <time>2020-10-11T09:26:58Z</time>
      </trkpt>
      <trkpt lat="46.77216" lon="0.43191">
        <ele>131.8</ele>
        <time>2020-10-11T09:27:01Z</time>
      </trkpt>
      <trkpt lat="46.77218" lon="0.43192">
        <ele>131.4</ele>
        <time>2020-10-11T09:27:02Z</time>
      </trkpt>
      <trkpt lat="46.77221" lon="0.43197">
        <ele>130</ele>
        <time>2020-10-11T09:27:04Z</time>
      </trkpt>
      <trkpt lat="46.77222" lon="0.43207">
        <ele>129.2</ele>
        <time>2020-10-11T09:27:07Z</time>
      </trkpt>
      <trkpt lat="46.77228" lon="0.43226">
        <ele>130.2</ele>
        <time>2020-10-11T09:27:12Z</time>
      </trkpt>
      <trkpt lat="46.77234" lon="0.43233">
        <ele>130.8</ele>
        <time>2020-10-11T09:27:16Z</time>
      </trkpt>
      <trkpt lat="46.77235" lon="0.43234">
        <ele>131</ele>
        <time>2020-10-11T09:27:18Z</time>
      </trkpt>
      <trkpt lat="46.77236" lon="0.43232">
        <ele>131</ele>
        <time>2020-10-11T09:27:20Z</time>
      </trkpt>
      <trkpt lat="46.77236" lon="0.4323">
        <ele>131.2</ele>
        <time>2020-10-11T09:27:21Z</time>
      </trkpt>
      <trkpt lat="46.77236" lon="0.43229">
        <ele>131.2</ele>
        <time>2020-10-11T09:27:22Z</time>
      </trkpt>
      <trkpt lat="46.77238" lon="0.4322">
        <ele>130.8</ele>
        <time>2020-10-11T09:27:27Z</time>
      </trkpt>
      <trkpt lat="46.77236" lon="0.43205">
        <ele>130.6</ele>
        <time>2020-10-11T09:27:34Z</time>
      </trkpt>
      <trkpt lat="46.77234" lon="0.432">
        <ele>130</ele>
        <time>2020-10-11T09:27:37Z</time>
      </trkpt>
      <trkpt lat="46.77233" lon="0.43203">
        <ele>129.8</ele>
        <time>2020-10-11T09:27:39Z</time>
      </trkpt>
      <trkpt lat="46.77237" lon="0.43217">
        <ele>130.4</ele>
        <time>2020-10-11T09:27:43Z</time>
      </trkpt>
      <trkpt lat="46.77245" lon="0.43238">
        <ele>131</ele>
        <time>2020-10-11T09:27:49Z</time>
      </trkpt>
      <trkpt lat="46.77247" lon="0.43242">
        <ele>131</ele>
        <time>2020-10-11T09:27:50Z</time>
      </trkpt>
      <trkpt lat="46.77258" lon="0.43269">
        <ele>131.6</ele>
        <time>2020-10-11T09:27:56Z</time>
      </trkpt>
      <trkpt lat="46.77268" lon="0.43289">
        <ele>131.8</ele>
        <time>2020-10-11T09:28:00Z</time>
      </trkpt>
      <trkpt lat="46.77275" lon="0.43299">
        <ele>131.8</ele>
        <time>2020-10-11T09:28:02Z</time>
      </trkpt>
      <trkpt lat="46.77284" lon="0.43314">
        <ele>131.6</ele>
        <time>2020-10-11T09:28:06Z</time>
      </trkpt>
      <trkpt lat="46.77285" lon="0.43316">
        <ele>131.6</ele>
        <time>2020-10-11T09:28:07Z</time>
      </trkpt>
      <trkpt lat="46.77286" lon="0.43319">
        <ele>131.8</ele>
        <time>2020-10-11T09:28:09Z</time>
      </trkpt>
      <trkpt lat="46.77286" lon="0.43323">
        <ele>132</ele>
        <time>2020-10-11T09:28:11Z</time>
      </trkpt>
      <trkpt lat="46.77286" lon="0.43325">
        <ele>132.2</ele>
        <time>2020-10-11T09:28:12Z</time>
      </trkpt>
      <trkpt lat="46.77284" lon="0.43329">
        <ele>132.2</ele>
        <time>2020-10-11T09:28:14Z</time>
      </trkpt>
      <trkpt lat="46.77281" lon="0.43335">
        <ele>132.4</ele>
        <time>2020-10-11T09:28:16Z</time>
      </trkpt>
      <trkpt lat="46.77273" lon="0.43353">
        <ele>133.6</ele>
        <time>2020-10-11T09:28:21Z</time>
      </trkpt>
      <trkpt lat="46.77264" lon="0.43366">
        <ele>134.8</ele>
        <time>2020-10-11T09:28:25Z</time>
      </trkpt>
      <trkpt lat="46.77262" lon="0.4337">
        <ele>135</ele>
        <time>2020-10-11T09:28:26Z</time>
      </trkpt>
      <trkpt lat="46.77253" lon="0.43379">
        <ele>136</ele>
        <time>2020-10-11T09:28:30Z</time>
      </trkpt>
      <trkpt lat="46.7725" lon="0.4338">
        <ele>136.2</ele>
        <time>2020-10-11T09:28:31Z</time>
      </trkpt>
      <trkpt lat="46.77249" lon="0.43382">
        <ele>136.6</ele>
        <time>2020-10-11T09:28:32Z</time>
      </trkpt>
      <trkpt lat="46.77247" lon="0.43385">
        <ele>137</ele>
        <time>2020-10-11T09:28:33Z</time>
      </trkpt>
      <trkpt lat="46.77243" lon="0.4339">
        <ele>137.8</ele>
        <time>2020-10-11T09:28:35Z</time>
      </trkpt>
      <trkpt lat="46.77241" lon="0.43391">
        <ele>138</ele>
        <time>2020-10-11T09:28:36Z</time>
      </trkpt>
      <trkpt lat="46.77237" lon="0.43393">
        <ele>138.4</ele>
        <time>2020-10-11T09:28:38Z</time>
      </trkpt>
      <trkpt lat="46.77233" lon="0.43397">
        <ele>138.4</ele>
        <time>2020-10-11T09:28:39Z</time>
      </trkpt>
      <trkpt lat="46.77226" lon="0.43402">
        <ele>139.2</ele>
        <time>2020-10-11T09:28:44Z</time>
      </trkpt>
      <trkpt lat="46.77225" lon="0.43404">
        <ele>139.6</ele>
        <time>2020-10-11T09:28:45Z</time>
      </trkpt>
      <trkpt lat="46.77223" lon="0.43415">
        <ele>140.4</ele>
        <time>2020-10-11T09:28:48Z</time>
      </trkpt>
      <trkpt lat="46.77223" lon="0.43419">
        <ele>140.4</ele>
        <time>2020-10-11T09:28:49Z</time>
      </trkpt>
      <trkpt lat="46.77225" lon="0.43442">
        <ele>140.8</ele>
        <time>2020-10-11T09:28:55Z</time>
      </trkpt>
      <trkpt lat="46.77228" lon="0.43482">
        <ele>140.8</ele>
        <time>2020-10-11T09:29:02Z</time>
      </trkpt>
      <trkpt lat="46.77233" lon="0.43514">
        <ele>141</ele>
        <time>2020-10-11T09:29:08Z</time>
      </trkpt>
      <trkpt lat="46.77237" lon="0.43553">
        <ele>141.2</ele>
        <time>2020-10-11T09:29:14Z</time>
      </trkpt>
      <trkpt lat="46.77237" lon="0.43559">
        <ele>141.2</ele>
        <time>2020-10-11T09:29:15Z</time>
      </trkpt>
      <trkpt lat="46.77239" lon="0.43583">
        <ele>141.4</ele>
        <time>2020-10-11T09:29:19Z</time>
      </trkpt>
      <trkpt lat="46.7724" lon="0.43605">
        <ele>141.4</ele>
        <time>2020-10-11T09:29:24Z</time>
      </trkpt>
      <trkpt lat="46.77241" lon="0.43606">
        <ele>141.4</ele>
        <time>2020-10-11T09:29:25Z</time>
      </trkpt>
      <trkpt lat="46.77251" lon="0.43617">
        <ele>141</ele>
        <time>2020-10-11T09:29:30Z</time>
      </trkpt>
      <trkpt lat="46.77263" lon="0.43643">
        <ele>140.8</ele>
        <time>2020-10-11T09:29:36Z</time>
      </trkpt>
      <trkpt lat="46.77274" lon="0.4367">
        <ele>140.6</ele>
        <time>2020-10-11T09:29:41Z</time>
      </trkpt>
      <trkpt lat="46.77281" lon="0.43675">
        <ele>140.6</ele>
        <time>2020-10-11T09:29:43Z</time>
      </trkpt>
      <trkpt lat="46.77288" lon="0.43672">
        <ele>140.8</ele>
        <time>2020-10-11T09:29:45Z</time>
      </trkpt>
      <trkpt lat="46.77291" lon="0.4367">
        <ele>141</ele>
        <time>2020-10-11T09:29:46Z</time>
      </trkpt>
      <trkpt lat="46.77305" lon="0.43659">
        <ele>140.6</ele>
        <time>2020-10-11T09:29:49Z</time>
      </trkpt>
      <trkpt lat="46.77314" lon="0.43651">
        <ele>140.2</ele>
        <time>2020-10-11T09:29:51Z</time>
      </trkpt>
      <trkpt lat="46.77334" lon="0.43635">
        <ele>139</ele>
        <time>2020-10-11T09:29:55Z</time>
      </trkpt>
      <trkpt lat="46.77344" lon="0.43627">
        <ele>137.8</ele>
        <time>2020-10-11T09:29:57Z</time>
      </trkpt>
      <trkpt lat="46.77349" lon="0.43624">
        <ele>137.6</ele>
        <time>2020-10-11T09:29:58Z</time>
      </trkpt>
      <trkpt lat="46.77357" lon="0.43624">
        <ele>137</ele>
        <time>2020-10-11T09:30:00Z</time>
      </trkpt>
      <trkpt lat="46.77361" lon="0.43627">
        <ele>136.6</ele>
        <time>2020-10-11T09:30:01Z</time>
      </trkpt>
      <trkpt lat="46.77365" lon="0.43631">
        <ele>135.8</ele>
        <time>2020-10-11T09:30:02Z</time>
      </trkpt>
      <trkpt lat="46.7737" lon="0.43637">
        <ele>135.6</ele>
        <time>2020-10-11T09:30:04Z</time>
      </trkpt>
      <trkpt lat="46.77372" lon="0.43638">
        <ele>135.4</ele>
        <time>2020-10-11T09:30:05Z</time>
      </trkpt>
      <trkpt lat="46.77379" lon="0.43631">
        <ele>134.4</ele>
        <time>2020-10-11T09:30:08Z</time>
      </trkpt>
      <trkpt lat="46.77383" lon="0.43626">
        <ele>133.2</ele>
        <time>2020-10-11T09:30:10Z</time>
      </trkpt>
      <trkpt lat="46.77385" lon="0.43623">
        <ele>132.8</ele>
        <time>2020-10-11T09:30:11Z</time>
      </trkpt>
      <trkpt lat="46.77391" lon="0.43619">
        <ele>132</ele>
        <time>2020-10-11T09:30:13Z</time>
      </trkpt>
      <trkpt lat="46.77396" lon="0.43614">
        <ele>130.4</ele>
        <time>2020-10-11T09:30:15Z</time>
      </trkpt>
      <trkpt lat="46.77404" lon="0.43609">
        <ele>128.8</ele>
        <time>2020-10-11T09:30:17Z</time>
      </trkpt>
      <trkpt lat="46.77412" lon="0.43604">
        <ele>126.2</ele>
        <time>2020-10-11T09:30:19Z</time>
      </trkpt>
      <trkpt lat="46.77416" lon="0.43601">
        <ele>124.6</ele>
        <time>2020-10-11T09:30:20Z</time>
      </trkpt>
      <trkpt lat="46.7742" lon="0.436">
        <ele>123.4</ele>
        <time>2020-10-11T09:30:21Z</time>
      </trkpt>
      <trkpt lat="46.77424" lon="0.43598">
        <ele>122.2</ele>
        <time>2020-10-11T09:30:22Z</time>
      </trkpt>
      <trkpt lat="46.77428" lon="0.43595">
        <ele>121.2</ele>
        <time>2020-10-11T09:30:23Z</time>
      </trkpt>
      <trkpt lat="46.77436" lon="0.43592">
        <ele>120</ele>
        <time>2020-10-11T09:30:25Z</time>
      </trkpt>
      <trkpt lat="46.77441" lon="0.43589">
        <ele>118.4</ele>
        <time>2020-10-11T09:30:27Z</time>
      </trkpt>
      <trkpt lat="46.77444" lon="0.43588">
        <ele>117.4</ele>
        <time>2020-10-11T09:30:28Z</time>
      </trkpt>
      <trkpt lat="46.77455" lon="0.43582">
        <ele>116</ele>
        <time>2020-10-11T09:30:30Z</time>
      </trkpt>
      <trkpt lat="46.77464" lon="0.43579">
        <ele>114.4</ele>
        <time>2020-10-11T09:30:32Z</time>
      </trkpt>
      <trkpt lat="46.77476" lon="0.43576">
        <ele>113.2</ele>
        <time>2020-10-11T09:30:34Z</time>
      </trkpt>
      <trkpt lat="46.77482" lon="0.43574">
        <ele>111.8</ele>
        <time>2020-10-11T09:30:35Z</time>
      </trkpt>
      <trkpt lat="46.7749" lon="0.43571">
        <ele>110.4</ele>
        <time>2020-10-11T09:30:36Z</time>
      </trkpt>
      <trkpt lat="46.77512" lon="0.43559">
        <ele>108.6</ele>
        <time>2020-10-11T09:30:38Z</time>
      </trkpt>
      <trkpt lat="46.77527" lon="0.4355">
        <ele>107</ele>
        <time>2020-10-11T09:30:40Z</time>
      </trkpt>
      <trkpt lat="46.77534" lon="0.43544">
        <ele>105.6</ele>
        <time>2020-10-11T09:30:42Z</time>
      </trkpt>
      <trkpt lat="46.77536" lon="0.4354">
        <ele>105</ele>
        <time>2020-10-11T09:30:43Z</time>
      </trkpt>
      <trkpt lat="46.7754" lon="0.43538">
        <ele>104.6</ele>
        <time>2020-10-11T09:30:44Z</time>
      </trkpt>
      <trkpt lat="46.77547" lon="0.43537">
        <ele>104.4</ele>
        <time>2020-10-11T09:30:45Z</time>
      </trkpt>
      <trkpt lat="46.77553" lon="0.43539">
        <ele>104</ele>
        <time>2020-10-11T09:30:46Z</time>
      </trkpt>
      <trkpt lat="46.7756" lon="0.4354">
        <ele>103.4</ele>
        <time>2020-10-11T09:30:47Z</time>
      </trkpt>
      <trkpt lat="46.77568" lon="0.43542">
        <ele>102.8</ele>
        <time>2020-10-11T09:30:48Z</time>
      </trkpt>
      <trkpt lat="46.77577" lon="0.43542">
        <ele>102.2</ele>
        <time>2020-10-11T09:30:49Z</time>
      </trkpt>
      <trkpt lat="46.77598" lon="0.4354">
        <ele>100.2</ele>
        <time>2020-10-11T09:30:51Z</time>
      </trkpt>
      <trkpt lat="46.77609" lon="0.43536">
        <ele>99</ele>
        <time>2020-10-11T09:30:52Z</time>
      </trkpt>
      <trkpt lat="46.7762" lon="0.43531">
        <ele>97.8</ele>
        <time>2020-10-11T09:30:53Z</time>
      </trkpt>
      <trkpt lat="46.77631" lon="0.43526">
        <ele>96.2</ele>
        <time>2020-10-11T09:30:54Z</time>
      </trkpt>
      <trkpt lat="46.7764" lon="0.43521">
        <ele>94.8</ele>
        <time>2020-10-11T09:30:55Z</time>
      </trkpt>
      <trkpt lat="46.77648" lon="0.43514">
        <ele>93.4</ele>
        <time>2020-10-11T09:30:56Z</time>
      </trkpt>
      <trkpt lat="46.77656" lon="0.4351">
        <ele>92.2</ele>
        <time>2020-10-11T09:30:57Z</time>
      </trkpt>
      <trkpt lat="46.77664" lon="0.43506">
        <ele>91</ele>
        <time>2020-10-11T09:30:58Z</time>
      </trkpt>
      <trkpt lat="46.77669" lon="0.43502">
        <ele>89.6</ele>
        <time>2020-10-11T09:30:59Z</time>
      </trkpt>
      <trkpt lat="46.77673" lon="0.43499">
        <ele>88.8</ele>
        <time>2020-10-11T09:31:00Z</time>
      </trkpt>
      <trkpt lat="46.77676" lon="0.43494">
        <ele>88.4</ele>
        <time>2020-10-11T09:31:01Z</time>
      </trkpt>
      <trkpt lat="46.77676" lon="0.43489">
        <ele>88</ele>
        <time>2020-10-11T09:31:02Z</time>
      </trkpt>
      <trkpt lat="46.77676" lon="0.43477">
        <ele>87.2</ele>
        <time>2020-10-11T09:31:04Z</time>
      </trkpt>
      <trkpt lat="46.77673" lon="0.43458">
        <ele>86.4</ele>
        <time>2020-10-11T09:31:07Z</time>
      </trkpt>
      <trkpt lat="46.77671" lon="0.43445">
        <ele>86</ele>
        <time>2020-10-11T09:31:09Z</time>
      </trkpt>
      <trkpt lat="46.77663" lon="0.43409">
        <ele>86</ele>
        <time>2020-10-11T09:31:14Z</time>
      </trkpt>
      <trkpt lat="46.77649" lon="0.43354">
        <ele>85.8</ele>
        <time>2020-10-11T09:31:22Z</time>
      </trkpt>
      <trkpt lat="46.77635" lon="0.43303">
        <ele>85.2</ele>
        <time>2020-10-11T09:31:29Z</time>
      </trkpt>
      <trkpt lat="46.77627" lon="0.43269">
        <ele>85</ele>
        <time>2020-10-11T09:31:34Z</time>
      </trkpt>
      <trkpt lat="46.77626" lon="0.43262">
        <ele>85</ele>
        <time>2020-10-11T09:31:35Z</time>
      </trkpt>
      <trkpt lat="46.77625" lon="0.43255">
        <ele>85</ele>
        <time>2020-10-11T09:31:36Z</time>
      </trkpt>
      <trkpt lat="46.7762" lon="0.43228">
        <ele>85</ele>
        <time>2020-10-11T09:31:40Z</time>
      </trkpt>
      <trkpt lat="46.77613" lon="0.43198">
        <ele>84.4</ele>
        <time>2020-10-11T09:31:45Z</time>
      </trkpt>
      <trkpt lat="46.7761" lon="0.43187">
        <ele>83.8</ele>
        <time>2020-10-11T09:31:47Z</time>
      </trkpt>
      <trkpt lat="46.77602" lon="0.43153">
        <ele>83.2</ele>
        <time>2020-10-11T09:31:54Z</time>
      </trkpt>
      <trkpt lat="46.77597" lon="0.43131">
        <ele>82.8</ele>
        <time>2020-10-11T09:31:58Z</time>
      </trkpt>
      <trkpt lat="46.77595" lon="0.43124">
        <ele>82.8</ele>
        <time>2020-10-11T09:31:59Z</time>
      </trkpt>
      <trkpt lat="46.7758" lon="0.43072">
        <ele>83.8</ele>
        <time>2020-10-11T09:32:06Z</time>
      </trkpt>
      <trkpt lat="46.77563" lon="0.43028">
        <ele>84</ele>
        <time>2020-10-11T09:32:13Z</time>
      </trkpt>
      <trkpt lat="46.77548" lon="0.42988">
        <ele>85</ele>
        <time>2020-10-11T09:32:20Z</time>
      </trkpt>
      <trkpt lat="46.77537" lon="0.42958">
        <ele>85.4</ele>
        <time>2020-10-11T09:32:26Z</time>
      </trkpt>
      <trkpt lat="46.77525" lon="0.42926">
        <ele>86</ele>
        <time>2020-10-11T09:32:32Z</time>
      </trkpt>
      <trkpt lat="46.77517" lon="0.42903">
        <ele>86.4</ele>
        <time>2020-10-11T09:32:36Z</time>
      </trkpt>
      <trkpt lat="46.775" lon="0.42858">
        <ele>86.6</ele>
        <time>2020-10-11T09:32:44Z</time>
      </trkpt>
      <trkpt lat="46.77481" lon="0.42814">
        <ele>86.2</ele>
        <time>2020-10-11T09:32:52Z</time>
      </trkpt>
      <trkpt lat="46.77468" lon="0.42787">
        <ele>85.8</ele>
        <time>2020-10-11T09:32:58Z</time>
      </trkpt>
      <trkpt lat="46.77455" lon="0.42741">
        <ele>85.4</ele>
        <time>2020-10-11T09:33:05Z</time>
      </trkpt>
      <trkpt lat="46.77449" lon="0.42708">
        <ele>85</ele>
        <time>2020-10-11T09:33:10Z</time>
      </trkpt>
      <trkpt lat="46.77447" lon="0.42701">
        <ele>84.8</ele>
        <time>2020-10-11T09:33:11Z</time>
      </trkpt>
      <trkpt lat="46.77435" lon="0.42666">
        <ele>84</ele>
        <time>2020-10-11T09:33:17Z</time>
      </trkpt>
      <trkpt lat="46.77432" lon="0.4266">
        <ele>83.6</ele>
        <time>2020-10-11T09:33:18Z</time>
      </trkpt>
      <trkpt lat="46.77426" lon="0.4265">
        <ele>83.4</ele>
        <time>2020-10-11T09:33:20Z</time>
      </trkpt>
      <trkpt lat="46.77422" lon="0.42647">
        <ele>83.2</ele>
        <time>2020-10-11T09:33:21Z</time>
      </trkpt>
      <trkpt lat="46.77415" lon="0.4264">
        <ele>82.6</ele>
        <time>2020-10-11T09:33:23Z</time>
      </trkpt>
      <trkpt lat="46.77407" lon="0.42632">
        <ele>82.2</ele>
        <time>2020-10-11T09:33:26Z</time>
      </trkpt>
      <trkpt lat="46.77395" lon="0.42614">
        <ele>82.2</ele>
        <time>2020-10-11T09:33:31Z</time>
      </trkpt>
      <trkpt lat="46.77392" lon="0.42612">
        <ele>82.2</ele>
        <time>2020-10-11T09:33:32Z</time>
      </trkpt>
      <trkpt lat="46.77386" lon="0.4261">
        <ele>82.4</ele>
        <time>2020-10-11T09:33:34Z</time>
      </trkpt>
      <trkpt lat="46.77374" lon="0.42615">
        <ele>83.6</ele>
        <time>2020-10-11T09:33:39Z</time>
      </trkpt>
      <trkpt lat="46.77371" lon="0.42617">
        <ele>83.8</ele>
        <time>2020-10-11T09:33:40Z</time>
      </trkpt>
      <trkpt lat="46.77354" lon="0.42624">
        <ele>84.8</ele>
        <time>2020-10-11T09:33:45Z</time>
      </trkpt>
      <trkpt lat="46.77328" lon="0.42634">
        <ele>85.4</ele>
        <time>2020-10-11T09:33:53Z</time>
      </trkpt>
      <trkpt lat="46.77319" lon="0.42638">
        <ele>86</ele>
        <time>2020-10-11T09:33:56Z</time>
      </trkpt>
      <trkpt lat="46.77309" lon="0.42647">
        <ele>86.6</ele>
        <time>2020-10-11T09:34:00Z</time>
      </trkpt>
      <trkpt lat="46.77311" lon="0.42665">
        <ele>86.8</ele>
        <time>2020-10-11T09:34:04Z</time>
      </trkpt>
      <trkpt lat="46.77312" lon="0.4267">
        <ele>87</ele>
        <time>2020-10-11T09:34:05Z</time>
      </trkpt>
      <trkpt lat="46.77319" lon="0.42694">
        <ele>87.4</ele>
        <time>2020-10-11T09:34:10Z</time>
      </trkpt>
      <trkpt lat="46.77332" lon="0.42735">
        <ele>87.6</ele>
        <time>2020-10-11T09:34:18Z</time>
      </trkpt>
      <trkpt lat="46.77339" lon="0.42761">
        <ele>88</ele>
        <time>2020-10-11T09:34:23Z</time>
      </trkpt>
      <trkpt lat="46.77338" lon="0.42766">
        <ele>88</ele>
        <time>2020-10-11T09:34:24Z</time>
      </trkpt>
      <trkpt lat="46.77337" lon="0.42769">
        <ele>88</ele>
        <time>2020-10-11T09:34:25Z</time>
      </trkpt>
      <trkpt lat="46.77332" lon="0.42773">
        <ele>88.6</ele>
        <time>2020-10-11T09:34:28Z</time>
      </trkpt>
      <trkpt lat="46.77328" lon="0.42775">
        <ele>89.2</ele>
        <time>2020-10-11T09:34:30Z</time>
      </trkpt>
      <trkpt lat="46.77321" lon="0.42782">
        <ele>89.8</ele>
        <time>2020-10-11T09:34:34Z</time>
      </trkpt>
      <trkpt lat="46.77312" lon="0.42786">
        <ele>90.2</ele>
        <time>2020-10-11T09:34:38Z</time>
      </trkpt>
      <trkpt lat="46.77309" lon="0.42789">
        <ele>90.6</ele>
        <time>2020-10-11T09:34:40Z</time>
      </trkpt>
      <trkpt lat="46.77303" lon="0.42793">
        <ele>91.2</ele>
        <time>2020-10-11T09:34:43Z</time>
      </trkpt>
      <trkpt lat="46.77296" lon="0.42797">
        <ele>92</ele>
        <time>2020-10-11T09:34:47Z</time>
      </trkpt>
      <trkpt lat="46.77293" lon="0.42799">
        <ele>92.6</ele>
        <time>2020-10-11T09:34:49Z</time>
      </trkpt>
      <trkpt lat="46.77286" lon="0.428">
        <ele>93.6</ele>
        <time>2020-10-11T09:34:53Z</time>
      </trkpt>
      <trkpt lat="46.77284" lon="0.42801">
        <ele>94</ele>
        <time>2020-10-11T09:34:54Z</time>
      </trkpt>
      <trkpt lat="46.77283" lon="0.42802">
        <ele>94.4</ele>
        <time>2020-10-11T09:34:55Z</time>
      </trkpt>
      <trkpt lat="46.77282" lon="0.42804">
        <ele>94.6</ele>
        <time>2020-10-11T09:34:56Z</time>
      </trkpt>
      <trkpt lat="46.77277" lon="0.42808">
        <ele>95.6</ele>
        <time>2020-10-11T09:34:59Z</time>
      </trkpt>
      <trkpt lat="46.77276" lon="0.42809">
        <ele>96</ele>
        <time>2020-10-11T09:35:00Z</time>
      </trkpt>
      <trkpt lat="46.7727" lon="0.42811">
        <ele>97</ele>
        <time>2020-10-11T09:35:03Z</time>
      </trkpt>
      <trkpt lat="46.77267" lon="0.42809">
        <ele>97.4</ele>
        <time>2020-10-11T09:35:05Z</time>
      </trkpt>
      <trkpt lat="46.77265" lon="0.42806">
        <ele>97.6</ele>
        <time>2020-10-11T09:35:06Z</time>
      </trkpt>
      <trkpt lat="46.7726" lon="0.42793">
        <ele>97.8</ele>
        <time>2020-10-11T09:35:10Z</time>
      </trkpt>
      <trkpt lat="46.77251" lon="0.42765">
        <ele>98</ele>
        <time>2020-10-11T09:35:16Z</time>
      </trkpt>
      <trkpt lat="46.77243" lon="0.42734">
        <ele>97.6</ele>
        <time>2020-10-11T09:35:22Z</time>
      </trkpt>
      <trkpt lat="46.77234" lon="0.42703">
        <ele>97.2</ele>
        <time>2020-10-11T09:35:28Z</time>
      </trkpt>
      <trkpt lat="46.77224" lon="0.4267">
        <ele>96.6</ele>
        <time>2020-10-11T09:35:35Z</time>
      </trkpt>
      <trkpt lat="46.77214" lon="0.42649">
        <ele>96.8</ele>
        <time>2020-10-11T09:35:41Z</time>
      </trkpt>
      <trkpt lat="46.77205" lon="0.42622">
        <ele>97.2</ele>
        <time>2020-10-11T09:35:48Z</time>
      </trkpt>
      <trkpt lat="46.77201" lon="0.42609">
        <ele>97.2</ele>
        <time>2020-10-11T09:35:53Z</time>
      </trkpt>
      <trkpt lat="46.772" lon="0.42608">
        <ele>97</ele>
        <time>2020-10-11T09:35:54Z</time>
      </trkpt>
      <trkpt lat="46.77194" lon="0.42607">
        <ele>96.8</ele>
        <time>2020-10-11T09:35:57Z</time>
      </trkpt>
      <trkpt lat="46.7718" lon="0.42611">
        <ele>98</ele>
        <time>2020-10-11T09:36:03Z</time>
      </trkpt>
      <trkpt lat="46.77175" lon="0.42617">
        <ele>99</ele>
        <time>2020-10-11T09:36:06Z</time>
      </trkpt>
      <trkpt lat="46.77172" lon="0.42623">
        <ele>100</ele>
        <time>2020-10-11T09:36:08Z</time>
      </trkpt>
      <trkpt lat="46.7717" lon="0.42626">
        <ele>100.4</ele>
        <time>2020-10-11T09:36:09Z</time>
      </trkpt>
      <trkpt lat="46.77169" lon="0.42636">
        <ele>101.4</ele>
        <time>2020-10-11T09:36:12Z</time>
      </trkpt>
      <trkpt lat="46.77168" lon="0.42642">
        <ele>102</ele>
        <time>2020-10-11T09:36:14Z</time>
      </trkpt>
      <trkpt lat="46.77168" lon="0.42649">
        <ele>102.6</ele>
        <time>2020-10-11T09:36:16Z</time>
      </trkpt>
      <trkpt lat="46.77168" lon="0.42667">
        <ele>104</ele>
        <time>2020-10-11T09:36:21Z</time>
      </trkpt>
      <trkpt lat="46.77168" lon="0.4267">
        <ele>104.2</ele>
        <time>2020-10-11T09:36:22Z</time>
      </trkpt>
      <trkpt lat="46.77167" lon="0.42684">
        <ele>105</ele>
        <time>2020-10-11T09:36:26Z</time>
      </trkpt>
      <trkpt lat="46.77167" lon="0.42704">
        <ele>106</ele>
        <time>2020-10-11T09:36:32Z</time>
      </trkpt>
      <trkpt lat="46.77167" lon="0.42719">
        <ele>107.2</ele>
        <time>2020-10-11T09:36:36Z</time>
      </trkpt>
      <trkpt lat="46.77167" lon="0.42729">
        <ele>107.8</ele>
        <time>2020-10-11T09:36:39Z</time>
      </trkpt>
      <trkpt lat="46.77168" lon="0.42736">
        <ele>108.4</ele>
        <time>2020-10-11T09:36:41Z</time>
      </trkpt>
      <trkpt lat="46.77169" lon="0.42752">
        <ele>109.4</ele>
        <time>2020-10-11T09:36:46Z</time>
      </trkpt>
      <trkpt lat="46.77169" lon="0.42755">
        <ele>109.6</ele>
        <time>2020-10-11T09:36:47Z</time>
      </trkpt>
      <trkpt lat="46.7717" lon="0.42771">
        <ele>110.6</ele>
        <time>2020-10-11T09:36:52Z</time>
      </trkpt>
      <trkpt lat="46.77171" lon="0.42781">
        <ele>111.2</ele>
        <time>2020-10-11T09:36:55Z</time>
      </trkpt>
      <trkpt lat="46.77172" lon="0.42788">
        <ele>111.8</ele>
        <time>2020-10-11T09:36:57Z</time>
      </trkpt>
      <trkpt lat="46.77171" lon="0.42802">
        <ele>112.8</ele>
        <time>2020-10-11T09:37:01Z</time>
      </trkpt>
      <trkpt lat="46.77171" lon="0.42809">
        <ele>113.4</ele>
        <time>2020-10-11T09:37:03Z</time>
      </trkpt>
      <trkpt lat="46.77169" lon="0.42817">
        <ele>114</ele>
        <time>2020-10-11T09:37:06Z</time>
      </trkpt>
      <trkpt lat="46.77167" lon="0.42829">
        <ele>114.8</ele>
        <time>2020-10-11T09:37:10Z</time>
      </trkpt>
      <trkpt lat="46.77166" lon="0.42832">
        <ele>115</ele>
        <time>2020-10-11T09:37:11Z</time>
      </trkpt>
      <trkpt lat="46.77167" lon="0.42849">
        <ele>115.8</ele>
        <time>2020-10-11T09:37:17Z</time>
      </trkpt>
      <trkpt lat="46.77167" lon="0.42851">
        <ele>116</ele>
        <time>2020-10-11T09:37:18Z</time>
      </trkpt>
      <trkpt lat="46.77169" lon="0.42859">
        <ele>116.4</ele>
        <time>2020-10-11T09:37:21Z</time>
      </trkpt>
      <trkpt lat="46.77171" lon="0.42869">
        <ele>116.8</ele>
        <time>2020-10-11T09:37:24Z</time>
      </trkpt>
      <trkpt lat="46.77174" lon="0.42878">
        <ele>117.2</ele>
        <time>2020-10-11T09:37:27Z</time>
      </trkpt>
      <trkpt lat="46.77177" lon="0.42891">
        <ele>118</ele>
        <time>2020-10-11T09:37:31Z</time>
      </trkpt>
      <trkpt lat="46.77181" lon="0.42902">
        <ele>118.2</ele>
        <time>2020-10-11T09:37:34Z</time>
      </trkpt>
      <trkpt lat="46.77184" lon="0.42909">
        <ele>118.4</ele>
        <time>2020-10-11T09:37:36Z</time>
      </trkpt>
      <trkpt lat="46.7719" lon="0.42936">
        <ele>119</ele>
        <time>2020-10-11T09:37:43Z</time>
      </trkpt>
      <trkpt lat="46.77192" lon="0.42942">
        <ele>119.2</ele>
        <time>2020-10-11T09:37:45Z</time>
      </trkpt>
      <trkpt lat="46.77196" lon="0.4296">
        <ele>120.2</ele>
        <time>2020-10-11T09:37:51Z</time>
      </trkpt>
      <trkpt lat="46.77196" lon="0.42963">
        <ele>120.2</ele>
        <time>2020-10-11T09:37:52Z</time>
      </trkpt>
      <trkpt lat="46.772" lon="0.4298">
        <ele>120.8</ele>
        <time>2020-10-11T09:37:57Z</time>
      </trkpt>
      <trkpt lat="46.77203" lon="0.43003">
        <ele>121.2</ele>
        <time>2020-10-11T09:38:03Z</time>
      </trkpt>
      <trkpt lat="46.77204" lon="0.43007">
        <ele>121.4</ele>
        <time>2020-10-11T09:38:04Z</time>
      </trkpt>
      <trkpt lat="46.77207" lon="0.43031">
        <ele>122</ele>
        <time>2020-10-11T09:38:10Z</time>
      </trkpt>
      <trkpt lat="46.77208" lon="0.43042">
        <ele>122.4</ele>
        <time>2020-10-11T09:38:13Z</time>
      </trkpt>
      <trkpt lat="46.7721" lon="0.43062">
        <ele>123.6</ele>
        <time>2020-10-11T09:38:18Z</time>
      </trkpt>
      <trkpt lat="46.77212" lon="0.43081">
        <ele>124.6</ele>
        <time>2020-10-11T09:38:23Z</time>
      </trkpt>
      <trkpt lat="46.77213" lon="0.4309">
        <ele>125</ele>
        <time>2020-10-11T09:38:25Z</time>
      </trkpt>
      <trkpt lat="46.77212" lon="0.43098">
        <ele>125.6</ele>
        <time>2020-10-11T09:38:27Z</time>
      </trkpt>
      <trkpt lat="46.77212" lon="0.4311">
        <ele>126.8</ele>
        <time>2020-10-11T09:38:31Z</time>
      </trkpt>
      <trkpt lat="46.7721" lon="0.43123">
        <ele>128</ele>
        <time>2020-10-11T09:38:36Z</time>
      </trkpt>
      <trkpt lat="46.77209" lon="0.43125">
        <ele>128.2</ele>
        <time>2020-10-11T09:38:37Z</time>
      </trkpt>
      <trkpt lat="46.77206" lon="0.43138">
        <ele>129.2</ele>
        <time>2020-10-11T09:38:41Z</time>
      </trkpt>
      <trkpt lat="46.77205" lon="0.43142">
        <ele>130</ele>
        <time>2020-10-11T09:38:43Z</time>
      </trkpt>
      <trkpt lat="46.77203" lon="0.43146">
        <ele>130.4</ele>
        <time>2020-10-11T09:38:45Z</time>
      </trkpt>
      <trkpt lat="46.772" lon="0.43157">
        <ele>131.6</ele>
        <time>2020-10-11T09:38:51Z</time>
      </trkpt>
      <trkpt lat="46.77196" lon="0.43171">
        <ele>132.8</ele>
        <time>2020-10-11T09:38:57Z</time>
      </trkpt>
      <trkpt lat="46.77195" lon="0.43174">
        <ele>133.2</ele>
        <time>2020-10-11T09:38:58Z</time>
      </trkpt>
      <trkpt lat="46.77193" lon="0.4318">
        <ele>133.6</ele>
        <time>2020-10-11T09:39:00Z</time>
      </trkpt>
      <trkpt lat="46.77192" lon="0.43186">
        <ele>133.8</ele>
        <time>2020-10-11T09:39:02Z</time>
      </trkpt>
      <trkpt lat="46.77192" lon="0.43188">
        <ele>134.2</ele>
        <time>2020-10-11T09:39:03Z</time>
      </trkpt>
      <trkpt lat="46.7719" lon="0.432">
        <ele>135</ele>
        <time>2020-10-11T09:39:07Z</time>
      </trkpt>
      <trkpt lat="46.77189" lon="0.43209">
        <ele>135.4</ele>
        <time>2020-10-11T09:39:10Z</time>
      </trkpt>
      <trkpt lat="46.77184" lon="0.43223">
        <ele>136.2</ele>
        <time>2020-10-11T09:39:14Z</time>
      </trkpt>
      <trkpt lat="46.77182" lon="0.43233">
        <ele>136.8</ele>
        <time>2020-10-11T09:39:17Z</time>
      </trkpt>
      <trkpt lat="46.77182" lon="0.43241">
        <ele>137.2</ele>
        <time>2020-10-11T09:39:19Z</time>
      </trkpt>
      <trkpt lat="46.77183" lon="0.43244">
        <ele>137.6</ele>
        <time>2020-10-11T09:39:21Z</time>
      </trkpt>
      <trkpt lat="46.77184" lon="0.43244">
        <ele>137.6</ele>
        <time>2020-10-11T09:39:22Z</time>
      </trkpt>
      <trkpt lat="46.77187" lon="0.43237">
        <ele>137.4</ele>
        <time>2020-10-11T09:39:26Z</time>
      </trkpt>
      <trkpt lat="46.77188" lon="0.43234">
        <ele>136.4</ele>
        <time>2020-10-11T09:39:29Z</time>
      </trkpt>
      <trkpt lat="46.77188" lon="0.43234">
        <ele>136.2</ele>
        <time>2020-10-11T09:39:30Z</time>
      </trkpt>
      <trkpt lat="46.77189" lon="0.43236">
        <ele>136.2</ele>
        <time>2020-10-11T09:39:31Z</time>
      </trkpt>
      <trkpt lat="46.7719" lon="0.43237">
        <ele>136</ele>
        <time>2020-10-11T09:39:32Z</time>
      </trkpt>
      <trkpt lat="46.7719" lon="0.43236">
        <ele>135.8</ele>
        <time>2020-10-11T09:39:35Z</time>
      </trkpt>
      <trkpt lat="46.77192" lon="0.43232">
        <ele>135.2</ele>
        <time>2020-10-11T09:39:39Z</time>
      </trkpt>
      <trkpt lat="46.77193" lon="0.43231">
        <ele>135</ele>
        <time>2020-10-11T09:39:41Z</time>
      </trkpt>
      <trkpt lat="46.77196" lon="0.43228">
        <ele>134.8</ele>
        <time>2020-10-11T09:39:45Z</time>
      </trkpt>
      <trkpt lat="46.77197" lon="0.43228">
        <ele>134.8</ele>
        <time>2020-10-11T09:39:46Z</time>
      </trkpt>
      <trkpt lat="46.77199" lon="0.43225">
        <ele>134.8</ele>
        <time>2020-10-11T09:39:49Z</time>
      </trkpt>
      <trkpt lat="46.77201" lon="0.43222">
        <ele>134.8</ele>
        <time>2020-10-11T09:39:53Z</time>
      </trkpt>
      <trkpt lat="46.77204" lon="0.4322">
        <ele>134.2</ele>
        <time>2020-10-11T09:39:56Z</time>
      </trkpt>
      <trkpt lat="46.77206" lon="0.4322">
        <ele>134.2</ele>
        <time>2020-10-11T09:39:57Z</time>
      </trkpt>
      <trkpt lat="46.77207" lon="0.43216">
        <ele>133.6</ele>
        <time>2020-10-11T09:40:00Z</time>
      </trkpt>
      <trkpt lat="46.77207" lon="0.43214">
        <ele>133.4</ele>
        <time>2020-10-11T09:40:01Z</time>
      </trkpt>
      <trkpt lat="46.77212" lon="0.43207">
        <ele>133</ele>
        <time>2020-10-11T09:40:05Z</time>
      </trkpt>
      <trkpt lat="46.77214" lon="0.432">
        <ele>132.4</ele>
        <time>2020-10-11T09:40:09Z</time>
      </trkpt>
      <trkpt lat="46.77216" lon="0.4319">
        <ele>131.8</ele>
        <time>2020-10-11T09:40:14Z</time>
      </trkpt>
      <trkpt lat="46.77217" lon="0.43188">
        <ele>131.8</ele>
        <time>2020-10-11T09:40:15Z</time>
      </trkpt>
      <trkpt lat="46.77219" lon="0.43187">
        <ele>131.6</ele>
        <time>2020-10-11T09:40:16Z</time>
      </trkpt>
      <trkpt lat="46.77221" lon="0.43187">
        <ele>131.2</ele>
        <time>2020-10-11T09:40:17Z</time>
      </trkpt>
      <trkpt lat="46.77222" lon="0.43188">
        <ele>130.8</ele>
        <time>2020-10-11T09:40:18Z</time>
      </trkpt>
      <trkpt lat="46.77223" lon="0.43191">
        <ele>129.8</ele>
        <time>2020-10-11T09:40:20Z</time>
      </trkpt>
      <trkpt lat="46.77224" lon="0.43193">
        <ele>129.4</ele>
        <time>2020-10-11T09:40:21Z</time>
      </trkpt>
      <trkpt lat="46.77228" lon="0.43206">
        <ele>129.2</ele>
        <time>2020-10-11T09:40:25Z</time>
      </trkpt>
      <trkpt lat="46.77235" lon="0.43225">
        <ele>130.6</ele>
        <time>2020-10-11T09:40:31Z</time>
      </trkpt>
      <trkpt lat="46.77238" lon="0.43228">
        <ele>131.2</ele>
        <time>2020-10-11T09:40:36Z</time>
      </trkpt>
      <trkpt lat="46.77238" lon="0.43225">
        <ele>131.2</ele>
        <time>2020-10-11T09:40:38Z</time>
      </trkpt>
      <trkpt lat="46.77235" lon="0.43225">
        <ele>131.2</ele>
        <time>2020-10-11T09:40:40Z</time>
      </trkpt>
      <trkpt lat="46.77229" lon="0.43229">
        <ele>131.6</ele>
        <time>2020-10-11T09:40:45Z</time>
      </trkpt>
      <trkpt lat="46.77224" lon="0.43232">
        <ele>132.6</ele>
        <time>2020-10-11T09:40:49Z</time>
      </trkpt>
      <trkpt lat="46.77223" lon="0.43233">
        <ele>132.8</ele>
        <time>2020-10-11T09:40:50Z</time>
      </trkpt>
      <trkpt lat="46.77222" lon="0.43234">
        <ele>133.2</ele>
        <time>2020-10-11T09:40:51Z</time>
      </trkpt>
      <trkpt lat="46.77218" lon="0.43235">
        <ele>133.8</ele>
        <time>2020-10-11T09:40:54Z</time>
      </trkpt>
      <trkpt lat="46.77218" lon="0.43236">
        <ele>134</ele>
        <time>2020-10-11T09:40:55Z</time>
      </trkpt>
      <trkpt lat="46.77218" lon="0.43236">
        <ele>134.2</ele>
        <time>2020-10-11T09:40:56Z</time>
      </trkpt>
      <trkpt lat="46.77217" lon="0.43236">
        <ele>134.2</ele>
        <time>2020-10-11T09:40:57Z</time>
      </trkpt>
      <trkpt lat="46.77217" lon="0.43239">
        <ele>134.4</ele>
        <time>2020-10-11T09:41:05Z</time>
      </trkpt>
      <trkpt lat="46.7722" lon="0.43237">
        <ele>134.2</ele>
        <time>2020-10-11T09:41:11Z</time>
      </trkpt>
      <trkpt lat="46.77224" lon="0.43233">
        <ele>133.8</ele>
        <time>2020-10-11T09:41:14Z</time>
      </trkpt>
      <trkpt lat="46.77232" lon="0.43227">
        <ele>132.8</ele>
        <time>2020-10-11T09:41:18Z</time>
      </trkpt>
      <trkpt lat="46.77235" lon="0.43227">
        <ele>132.4</ele>
        <time>2020-10-11T09:41:19Z</time>
      </trkpt>
      <trkpt lat="46.77239" lon="0.43234">
        <ele>131.2</ele>
        <time>2020-10-11T09:41:22Z</time>
      </trkpt>
      <trkpt lat="46.77247" lon="0.43248">
        <ele>131.2</ele>
        <time>2020-10-11T09:41:27Z</time>
      </trkpt>
      <trkpt lat="46.7726" lon="0.43278">
        <ele>131.8</ele>
        <time>2020-10-11T09:41:34Z</time>
      </trkpt>
      <trkpt lat="46.77263" lon="0.43283">
        <ele>131.8</ele>
        <time>2020-10-11T09:41:35Z</time>
      </trkpt>
      <trkpt lat="46.77275" lon="0.43304">
        <ele>131.8</ele>
        <time>2020-10-11T09:41:39Z</time>
      </trkpt>
      <trkpt lat="46.7728" lon="0.43313">
        <ele>131.8</ele>
        <time>2020-10-11T09:41:42Z</time>
      </trkpt>
      <trkpt lat="46.77282" lon="0.43315">
        <ele>131.8</ele>
        <time>2020-10-11T09:41:43Z</time>
      </trkpt>
      <trkpt lat="46.77283" lon="0.43317">
        <ele>131.8</ele>
        <time>2020-10-11T09:41:44Z</time>
      </trkpt>
      <trkpt lat="46.77283" lon="0.43321">
        <ele>131.8</ele>
        <time>2020-10-11T09:41:46Z</time>
      </trkpt>
      <trkpt lat="46.77283" lon="0.43322">
        <ele>132</ele>
        <time>2020-10-11T09:41:47Z</time>
      </trkpt>
      <trkpt lat="46.77284" lon="0.43327">
        <ele>132.2</ele>
        <time>2020-10-11T09:41:50Z</time>
      </trkpt>
      <trkpt lat="46.77283" lon="0.43329">
        <ele>132.8</ele>
        <time>2020-10-11T09:41:52Z</time>
      </trkpt>
      <trkpt lat="46.7728" lon="0.43334">
        <ele>133</ele>
        <time>2020-10-11T09:41:54Z</time>
      </trkpt>
      <trkpt lat="46.77277" lon="0.43338">
        <ele>133.4</ele>
        <time>2020-10-11T09:41:56Z</time>
      </trkpt>
      <trkpt lat="46.77265" lon="0.43351">
        <ele>134.2</ele>
        <time>2020-10-11T09:42:01Z</time>
      </trkpt>
      <trkpt lat="46.77263" lon="0.43354">
        <ele>134.4</ele>
        <time>2020-10-11T09:42:02Z</time>
      </trkpt>
      <trkpt lat="46.77253" lon="0.43365">
        <ele>135.6</ele>
        <time>2020-10-11T09:42:06Z</time>
      </trkpt>
      <trkpt lat="46.77246" lon="0.43373">
        <ele>136.6</ele>
        <time>2020-10-11T09:42:10Z</time>
      </trkpt>
      <trkpt lat="46.77244" lon="0.43375">
        <ele>137</ele>
        <time>2020-10-11T09:42:11Z</time>
      </trkpt>
      <trkpt lat="46.77242" lon="0.43384">
        <ele>137.4</ele>
        <time>2020-10-11T09:42:14Z</time>
      </trkpt>
      <trkpt lat="46.7724" lon="0.43386">
        <ele>137.8</ele>
        <time>2020-10-11T09:42:15Z</time>
      </trkpt>
      <trkpt lat="46.77238" lon="0.43388">
        <ele>138.2</ele>
        <time>2020-10-11T09:42:16Z</time>
      </trkpt>
      <trkpt lat="46.77232" lon="0.43392">
        <ele>139</ele>
        <time>2020-10-11T09:42:19Z</time>
      </trkpt>
      <trkpt lat="46.77229" lon="0.43395">
        <ele>139.4</ele>
        <time>2020-10-11T09:42:21Z</time>
      </trkpt>
      <trkpt lat="46.77224" lon="0.43399">
        <ele>140</ele>
        <time>2020-10-11T09:42:25Z</time>
      </trkpt>
      <trkpt lat="46.77223" lon="0.43405">
        <ele>140.6</ele>
        <time>2020-10-11T09:42:27Z</time>
      </trkpt>
      <trkpt lat="46.77222" lon="0.43417">
        <ele>141</ele>
        <time>2020-10-11T09:42:30Z</time>
      </trkpt>
      <trkpt lat="46.77222" lon="0.4343">
        <ele>141</ele>
        <time>2020-10-11T09:42:33Z</time>
      </trkpt>
      <trkpt lat="46.77224" lon="0.43456">
        <ele>140.8</ele>
        <time>2020-10-11T09:42:38Z</time>
      </trkpt>
      <trkpt lat="46.77227" lon="0.43496">
        <ele>140.8</ele>
        <time>2020-10-11T09:42:45Z</time>
      </trkpt>
      <trkpt lat="46.77228" lon="0.43502">
        <ele>140.8</ele>
        <time>2020-10-11T09:42:46Z</time>
      </trkpt>
      <trkpt lat="46.77231" lon="0.43533">
        <ele>141.4</ele>
        <time>2020-10-11T09:42:51Z</time>
      </trkpt>
      <trkpt lat="46.77235" lon="0.43562">
        <ele>141.6</ele>
        <time>2020-10-11T09:42:55Z</time>
      </trkpt>
      <trkpt lat="46.77235" lon="0.43568">
        <ele>141.6</ele>
        <time>2020-10-11T09:42:56Z</time>
      </trkpt>
      <trkpt lat="46.77234" lon="0.43601">
        <ele>142</ele>
        <time>2020-10-11T09:43:02Z</time>
      </trkpt>
      <trkpt lat="46.77232" lon="0.4363">
        <ele>142</ele>
        <time>2020-10-11T09:43:08Z</time>
      </trkpt>
      <trkpt lat="46.77231" lon="0.43636">
        <ele>142</ele>
        <time>2020-10-11T09:43:09Z</time>
      </trkpt>
      <trkpt lat="46.77227" lon="0.43667">
        <ele>142</ele>
        <time>2020-10-11T09:43:14Z</time>
      </trkpt>
      <trkpt lat="46.77226" lon="0.43672">
        <ele>142</ele>
        <time>2020-10-11T09:43:15Z</time>
      </trkpt>
      <trkpt lat="46.77218" lon="0.43709">
        <ele>141.6</ele>
        <time>2020-10-11T09:43:21Z</time>
      </trkpt>
      <trkpt lat="46.77217" lon="0.43713">
        <ele>141.6</ele>
        <time>2020-10-11T09:43:22Z</time>
      </trkpt>
      <trkpt lat="46.77213" lon="0.43722">
        <ele>141.6</ele>
        <time>2020-10-11T09:43:25Z</time>
      </trkpt>
      <trkpt lat="46.77214" lon="0.43724">
        <ele>141.6</ele>
        <time>2020-10-11T09:43:26Z</time>
      </trkpt>
      <trkpt lat="46.77215" lon="0.43725">
        <ele>141.6</ele>
        <time>2020-10-11T09:43:27Z</time>
      </trkpt>
      <trkpt lat="46.77217" lon="0.4372">
        <ele>141.6</ele>
        <time>2020-10-11T09:43:30Z</time>
      </trkpt>
      <trkpt lat="46.7722" lon="0.43701">
        <ele>141.8</ele>
        <time>2020-10-11T09:43:35Z</time>
      </trkpt>
      <trkpt lat="46.7722" lon="0.43696">
        <ele>141.8</ele>
        <time>2020-10-11T09:43:36Z</time>
      </trkpt>
      <trkpt lat="46.77223" lon="0.43667">
        <ele>142</ele>
        <time>2020-10-11T09:43:41Z</time>
      </trkpt>
      <trkpt lat="46.77223" lon="0.43655">
        <ele>142.2</ele>
        <time>2020-10-11T09:43:43Z</time>
      </trkpt>
      <trkpt lat="46.77225" lon="0.43628">
        <ele>142.6</ele>
        <time>2020-10-11T09:43:47Z</time>
      </trkpt>
      <trkpt lat="46.77226" lon="0.43617">
        <ele>142.6</ele>
        <time>2020-10-11T09:43:49Z</time>
      </trkpt>
      <trkpt lat="46.77229" lon="0.43613">
        <ele>142.4</ele>
        <time>2020-10-11T09:43:51Z</time>
      </trkpt>
      <trkpt lat="46.77233" lon="0.43614">
        <ele>142.2</ele>
        <time>2020-10-11T09:43:53Z</time>
      </trkpt>
      <trkpt lat="46.7724" lon="0.43619">
        <ele>142.2</ele>
        <time>2020-10-11T09:43:55Z</time>
      </trkpt>
      <trkpt lat="46.77244" lon="0.43623">
        <ele>142</ele>
        <time>2020-10-11T09:43:56Z</time>
      </trkpt>
      <trkpt lat="46.77256" lon="0.43644">
        <ele>142</ele>
        <time>2020-10-11T09:44:00Z</time>
      </trkpt>
      <trkpt lat="46.77271" lon="0.43672">
        <ele>142.4</ele>
        <time>2020-10-11T09:44:05Z</time>
      </trkpt>
      <trkpt lat="46.77278" lon="0.43677">
        <ele>142.2</ele>
        <time>2020-10-11T09:44:07Z</time>
      </trkpt>
      <trkpt lat="46.77286" lon="0.43673">
        <ele>142.4</ele>
        <time>2020-10-11T09:44:09Z</time>
      </trkpt>
      <trkpt lat="46.7729" lon="0.4367">
        <ele>142.4</ele>
        <time>2020-10-11T09:44:10Z</time>
      </trkpt>
      <trkpt lat="46.77308" lon="0.43656">
        <ele>142</ele>
        <time>2020-10-11T09:44:14Z</time>
      </trkpt>
      <trkpt lat="46.77313" lon="0.43652">
        <ele>141.6</ele>
        <time>2020-10-11T09:44:15Z</time>
      </trkpt>
      <trkpt lat="46.77322" lon="0.43644">
        <ele>140.8</ele>
        <time>2020-10-11T09:44:17Z</time>
      </trkpt>
      <trkpt lat="46.77337" lon="0.43632">
        <ele>139.4</ele>
        <time>2020-10-11T09:44:20Z</time>
      </trkpt>
      <trkpt lat="46.77347" lon="0.43624">
        <ele>138.8</ele>
        <time>2020-10-11T09:44:22Z</time>
      </trkpt>
      <trkpt lat="46.77351" lon="0.43623">
        <ele>138.4</ele>
        <time>2020-10-11T09:44:23Z</time>
      </trkpt>
      <trkpt lat="46.77355" lon="0.43624">
        <ele>138</ele>
        <time>2020-10-11T09:44:24Z</time>
      </trkpt>
      <trkpt lat="46.77359" lon="0.43627">
        <ele>137.6</ele>
        <time>2020-10-11T09:44:25Z</time>
      </trkpt>
      <trkpt lat="46.77363" lon="0.4363">
        <ele>137</ele>
        <time>2020-10-11T09:44:26Z</time>
      </trkpt>
      <trkpt lat="46.77369" lon="0.43637">
        <ele>136</ele>
        <time>2020-10-11T09:44:28Z</time>
      </trkpt>
      <trkpt lat="46.77372" lon="0.43637">
        <ele>135.6</ele>
        <time>2020-10-11T09:44:29Z</time>
      </trkpt>
      <trkpt lat="46.77374" lon="0.43637">
        <ele>135.4</ele>
        <time>2020-10-11T09:44:30Z</time>
      </trkpt>
      <trkpt lat="46.77379" lon="0.43633">
        <ele>135.2</ele>
        <time>2020-10-11T09:44:32Z</time>
      </trkpt>
      <trkpt lat="46.77382" lon="0.4363">
        <ele>135</ele>
        <time>2020-10-11T09:44:33Z</time>
      </trkpt>
      <trkpt lat="46.77384" lon="0.43627">
        <ele>134.6</ele>
        <time>2020-10-11T09:44:34Z</time>
      </trkpt>
      <trkpt lat="46.77389" lon="0.43623">
        <ele>133.8</ele>
        <time>2020-10-11T09:44:35Z</time>
      </trkpt>
      <trkpt lat="46.77393" lon="0.4362">
        <ele>133.2</ele>
        <time>2020-10-11T09:44:36Z</time>
      </trkpt>
      <trkpt lat="46.77401" lon="0.43615">
        <ele>130.8</ele>
        <time>2020-10-11T09:44:38Z</time>
      </trkpt>
      <trkpt lat="46.77405" lon="0.43612">
        <ele>129.6</ele>
        <time>2020-10-11T09:44:39Z</time>
      </trkpt>
      <trkpt lat="46.77413" lon="0.43607">
        <ele>127.6</ele>
        <time>2020-10-11T09:44:41Z</time>
      </trkpt>
      <trkpt lat="46.77417" lon="0.43605">
        <ele>126.2</ele>
        <time>2020-10-11T09:44:42Z</time>
      </trkpt>
      <trkpt lat="46.77422" lon="0.43602">
        <ele>125</ele>
        <time>2020-10-11T09:44:43Z</time>
      </trkpt>
      <trkpt lat="46.77426" lon="0.43599">
        <ele>124.4</ele>
        <time>2020-10-11T09:44:44Z</time>
      </trkpt>
      <trkpt lat="46.7743" lon="0.43596">
        <ele>123.8</ele>
        <time>2020-10-11T09:44:45Z</time>
      </trkpt>
      <trkpt lat="46.77439" lon="0.43592">
        <ele>122.6</ele>
        <time>2020-10-11T09:44:47Z</time>
      </trkpt>
      <trkpt lat="46.77443" lon="0.4359">
        <ele>121.8</ele>
        <time>2020-10-11T09:44:48Z</time>
      </trkpt>
      <trkpt lat="46.77446" lon="0.43589">
        <ele>120.8</ele>
        <time>2020-10-11T09:44:49Z</time>
      </trkpt>
      <trkpt lat="46.77452" lon="0.43587">
        <ele>119.2</ele>
        <time>2020-10-11T09:44:51Z</time>
      </trkpt>
      <trkpt lat="46.77457" lon="0.43584">
        <ele>117.6</ele>
        <time>2020-10-11T09:44:53Z</time>
      </trkpt>
      <trkpt lat="46.77458" lon="0.43582">
        <ele>117</ele>
        <time>2020-10-11T09:44:54Z</time>
      </trkpt>
      <trkpt lat="46.77458" lon="0.43582">
        <ele>115.6</ele>
        <time>2020-10-11T09:44:55Z</time>
      </trkpt>
      <trkpt lat="46.77464" lon="0.43576">
        <ele>115.6</ele>
        <time>2020-10-11T09:44:57Z</time>
      </trkpt>
      <trkpt lat="46.77472" lon="0.43573">
        <ele>114.4</ele>
        <time>2020-10-11T09:44:59Z</time>
      </trkpt>
      <trkpt lat="46.77476" lon="0.43571">
        <ele>113.8</ele>
        <time>2020-10-11T09:45:00Z</time>
      </trkpt>
      <trkpt lat="46.7748" lon="0.43568">
        <ele>113.2</ele>
        <time>2020-10-11T09:45:01Z</time>
      </trkpt>
      <trkpt lat="46.77485" lon="0.43566">
        <ele>112.4</ele>
        <time>2020-10-11T09:45:02Z</time>
      </trkpt>
      <trkpt lat="46.7749" lon="0.43564">
        <ele>111.6</ele>
        <time>2020-10-11T09:45:03Z</time>
      </trkpt>
      <trkpt lat="46.77502" lon="0.43561">
        <ele>110.4</ele>
        <time>2020-10-11T09:45:05Z</time>
      </trkpt>
      <trkpt lat="46.77519" lon="0.43555">
        <ele>109.2</ele>
        <time>2020-10-11T09:45:07Z</time>
      </trkpt>
      <trkpt lat="46.77533" lon="0.43549">
        <ele>107.8</ele>
        <time>2020-10-11T09:45:09Z</time>
      </trkpt>
      <trkpt lat="46.77538" lon="0.43545">
        <ele>107.2</ele>
        <time>2020-10-11T09:45:10Z</time>
      </trkpt>
      <trkpt lat="46.77541" lon="0.43543">
        <ele>106.6</ele>
        <time>2020-10-11T09:45:11Z</time>
      </trkpt>
      <trkpt lat="46.77544" lon="0.43539">
        <ele>105.6</ele>
        <time>2020-10-11T09:45:13Z</time>
      </trkpt>
      <trkpt lat="46.7755" lon="0.43531">
        <ele>104.6</ele>
        <time>2020-10-11T09:45:16Z</time>
      </trkpt>
      <trkpt lat="46.77554" lon="0.4353">
        <ele>104.4</ele>
        <time>2020-10-11T09:45:17Z</time>
      </trkpt>
      <trkpt lat="46.77571" lon="0.43535">
        <ele>103.4</ele>
        <time>2020-10-11T09:45:20Z</time>
      </trkpt>
      <trkpt lat="46.77589" lon="0.43536">
        <ele>101.8</ele>
        <time>2020-10-11T09:45:22Z</time>
      </trkpt>
      <trkpt lat="46.77599" lon="0.43535">
        <ele>101</ele>
        <time>2020-10-11T09:45:23Z</time>
      </trkpt>
      <trkpt lat="46.77609" lon="0.43533">
        <ele>100</ele>
        <time>2020-10-11T09:45:24Z</time>
      </trkpt>
      <trkpt lat="46.77631" lon="0.43524">
        <ele>98.2</ele>
        <time>2020-10-11T09:45:26Z</time>
      </trkpt>
      <trkpt lat="46.77641" lon="0.43519">
        <ele>96.8</ele>
        <time>2020-10-11T09:45:27Z</time>
      </trkpt>
      <trkpt lat="46.7765" lon="0.43513">
        <ele>95.8</ele>
        <time>2020-10-11T09:45:28Z</time>
      </trkpt>
      <trkpt lat="46.77665" lon="0.43503">
        <ele>93.6</ele>
        <time>2020-10-11T09:45:30Z</time>
      </trkpt>
      <trkpt lat="46.77671" lon="0.43499">
        <ele>91.8</ele>
        <time>2020-10-11T09:45:31Z</time>
      </trkpt>
      <trkpt lat="46.77675" lon="0.43497">
        <ele>90.4</ele>
        <time>2020-10-11T09:45:32Z</time>
      </trkpt>
      <trkpt lat="46.77679" lon="0.43493">
        <ele>89.4</ele>
        <time>2020-10-11T09:45:33Z</time>
      </trkpt>
      <trkpt lat="46.77682" lon="0.43489">
        <ele>88.8</ele>
        <time>2020-10-11T09:45:34Z</time>
      </trkpt>
      <trkpt lat="46.77682" lon="0.43478">
        <ele>88.2</ele>
        <time>2020-10-11T09:45:36Z</time>
      </trkpt>
      <trkpt lat="46.7768" lon="0.43467">
        <ele>87.6</ele>
        <time>2020-10-11T09:45:38Z</time>
      </trkpt>
      <trkpt lat="46.77677" lon="0.43449">
        <ele>87.2</ele>
        <time>2020-10-11T09:45:41Z</time>
      </trkpt>
      <trkpt lat="46.77667" lon="0.43408">
        <ele>87.2</ele>
        <time>2020-10-11T09:45:47Z</time>
      </trkpt>
      <trkpt lat="46.77659" lon="0.4338">
        <ele>86.4</ele>
        <time>2020-10-11T09:45:51Z</time>
      </trkpt>
      <trkpt lat="46.77649" lon="0.43343">
        <ele>85.8</ele>
        <time>2020-10-11T09:45:56Z</time>
      </trkpt>
      <trkpt lat="46.77641" lon="0.43314">
        <ele>86</ele>
        <time>2020-10-11T09:46:00Z</time>
      </trkpt>
      <trkpt lat="46.77638" lon="0.43298">
        <ele>86</ele>
        <time>2020-10-11T09:46:02Z</time>
      </trkpt>
      <trkpt lat="46.77623" lon="0.43237">
        <ele>85.8</ele>
        <time>2020-10-11T09:46:10Z</time>
      </trkpt>
      <trkpt lat="46.77606" lon="0.43173">
        <ele>85.2</ele>
        <time>2020-10-11T09:46:18Z</time>
      </trkpt>
      <trkpt lat="46.77604" lon="0.43165">
        <ele>85</ele>
        <time>2020-10-11T09:46:19Z</time>
      </trkpt>
      <trkpt lat="46.77586" lon="0.43095">
        <ele>84.2</ele>
        <time>2020-10-11T09:46:28Z</time>
      </trkpt>
      <trkpt lat="46.77577" lon="0.43066">
        <ele>84.2</ele>
        <time>2020-10-11T09:46:32Z</time>
      </trkpt>
      <trkpt lat="46.7757" lon="0.43048">
        <ele>84.2</ele>
        <time>2020-10-11T09:46:35Z</time>
      </trkpt>
      <trkpt lat="46.77557" lon="0.43014">
        <ele>85.2</ele>
        <time>2020-10-11T09:46:41Z</time>
      </trkpt>
      <trkpt lat="46.77553" lon="0.43003">
        <ele>85.4</ele>
        <time>2020-10-11T09:46:43Z</time>
      </trkpt>
      <trkpt lat="46.77536" lon="0.42957">
        <ele>86.2</ele>
        <time>2020-10-11T09:46:51Z</time>
      </trkpt>
      <trkpt lat="46.77534" lon="0.42952">
        <ele>86.2</ele>
        <time>2020-10-11T09:46:52Z</time>
      </trkpt>
      <trkpt lat="46.77523" lon="0.42923">
        <ele>87.2</ele>
        <time>2020-10-11T09:46:57Z</time>
      </trkpt>
      <trkpt lat="46.77513" lon="0.42893">
        <ele>87.2</ele>
        <time>2020-10-11T09:47:02Z</time>
      </trkpt>
      <trkpt lat="46.77495" lon="0.42846">
        <ele>87.4</ele>
        <time>2020-10-11T09:47:10Z</time>
      </trkpt>
      <trkpt lat="46.77474" lon="0.42801">
        <ele>86.8</ele>
        <time>2020-10-11T09:47:17Z</time>
      </trkpt>
      <trkpt lat="46.77458" lon="0.42757">
        <ele>86.6</ele>
        <time>2020-10-11T09:47:23Z</time>
      </trkpt>
      <trkpt lat="46.77453" lon="0.42737">
        <ele>86</ele>
        <time>2020-10-11T09:47:26Z</time>
      </trkpt>
      <trkpt lat="46.7745" lon="0.42718">
        <ele>85.2</ele>
        <time>2020-10-11T09:47:29Z</time>
      </trkpt>
      <trkpt lat="46.77442" lon="0.42685">
        <ele>85</ele>
        <time>2020-10-11T09:47:34Z</time>
      </trkpt>
      <trkpt lat="46.77437" lon="0.42671">
        <ele>84.8</ele>
        <time>2020-10-11T09:47:36Z</time>
      </trkpt>
      <trkpt lat="46.77432" lon="0.42658">
        <ele>84.2</ele>
        <time>2020-10-11T09:47:38Z</time>
      </trkpt>
      <trkpt lat="46.77428" lon="0.42652">
        <ele>84</ele>
        <time>2020-10-11T09:47:39Z</time>
      </trkpt>
      <trkpt lat="46.77424" lon="0.42647">
        <ele>83.8</ele>
        <time>2020-10-11T09:47:40Z</time>
      </trkpt>
      <trkpt lat="46.77416" lon="0.42641">
        <ele>83.6</ele>
        <time>2020-10-11T09:47:42Z</time>
      </trkpt>
      <trkpt lat="46.77406" lon="0.42631">
        <ele>83.6</ele>
        <time>2020-10-11T09:47:45Z</time>
      </trkpt>
      <trkpt lat="46.77402" lon="0.42623">
        <ele>83.6</ele>
        <time>2020-10-11T09:47:47Z</time>
      </trkpt>
      <trkpt lat="46.77398" lon="0.42614">
        <ele>83.4</ele>
        <time>2020-10-11T09:47:49Z</time>
      </trkpt>
      <trkpt lat="46.77395" lon="0.42611">
        <ele>83.4</ele>
        <time>2020-10-11T09:47:50Z</time>
      </trkpt>
      <trkpt lat="46.77392" lon="0.42611">
        <ele>83.4</ele>
        <time>2020-10-11T09:47:51Z</time>
      </trkpt>
      <trkpt lat="46.77392" lon="0.42611">
        <ele>83.4</ele>
        <time>2020-10-11T09:47:52Z</time>
      </trkpt>
      <trkpt lat="46.77389" lon="0.42614">
        <ele>83.4</ele>
        <time>2020-10-11T09:47:54Z</time>
      </trkpt>
      <trkpt lat="46.77384" lon="0.42613">
        <ele>83.8</ele>
        <time>2020-10-11T09:47:56Z</time>
      </trkpt>
      <trkpt lat="46.77366" lon="0.42622">
        <ele>84.6</ele>
        <time>2020-10-11T09:48:01Z</time>
      </trkpt>
      <trkpt lat="46.77361" lon="0.42623">
        <ele>84.8</ele>
        <time>2020-10-11T09:48:02Z</time>
      </trkpt>
      <trkpt lat="46.77345" lon="0.4263">
        <ele>85</ele>
        <time>2020-10-11T09:48:06Z</time>
      </trkpt>
      <trkpt lat="46.77336" lon="0.42633">
        <ele>85.8</ele>
        <time>2020-10-11T09:48:08Z</time>
      </trkpt>
      <trkpt lat="46.77332" lon="0.42635">
        <ele>86.2</ele>
        <time>2020-10-11T09:48:09Z</time>
      </trkpt>
      <trkpt lat="46.77313" lon="0.42644">
        <ele>87.2</ele>
        <time>2020-10-11T09:48:14Z</time>
      </trkpt>
      <trkpt lat="46.77311" lon="0.42647">
        <ele>87.6</ele>
        <time>2020-10-11T09:48:15Z</time>
      </trkpt>
      <trkpt lat="46.77309" lon="0.42662">
        <ele>87.8</ele>
        <time>2020-10-11T09:48:18Z</time>
      </trkpt>
      <trkpt lat="46.77319" lon="0.42698">
        <ele>88</ele>
        <time>2020-10-11T09:48:24Z</time>
      </trkpt>
      <trkpt lat="46.77325" lon="0.42717">
        <ele>88.2</ele>
        <time>2020-10-11T09:48:27Z</time>
      </trkpt>
      <trkpt lat="46.77331" lon="0.42735">
        <ele>88.4</ele>
        <time>2020-10-11T09:48:30Z</time>
      </trkpt>
      <trkpt lat="46.77338" lon="0.42761">
        <ele>88.6</ele>
        <time>2020-10-11T09:48:34Z</time>
      </trkpt>
      <trkpt lat="46.77337" lon="0.42766">
        <ele>88.8</ele>
        <time>2020-10-11T09:48:35Z</time>
      </trkpt>
      <trkpt lat="46.77335" lon="0.4277">
        <ele>89</ele>
        <time>2020-10-11T09:48:36Z</time>
      </trkpt>
      <trkpt lat="46.77333" lon="0.42773">
        <ele>89.4</ele>
        <time>2020-10-11T09:48:37Z</time>
      </trkpt>
      <trkpt lat="46.77331" lon="0.42774">
        <ele>89.6</ele>
        <time>2020-10-11T09:48:38Z</time>
      </trkpt>
      <trkpt lat="46.77321" lon="0.42779">
        <ele>90.4</ele>
        <time>2020-10-11T09:48:42Z</time>
      </trkpt>
      <trkpt lat="46.77319" lon="0.42781">
        <ele>90.6</ele>
        <time>2020-10-11T09:48:43Z</time>
      </trkpt>
      <trkpt lat="46.77306" lon="0.42789">
        <ele>91.6</ele>
        <time>2020-10-11T09:48:49Z</time>
      </trkpt>
      <trkpt lat="46.77294" lon="0.42797">
        <ele>92.6</ele>
        <time>2020-10-11T09:48:55Z</time>
      </trkpt>
      <trkpt lat="46.77288" lon="0.428">
        <ele>93.8</ele>
        <time>2020-10-11T09:48:58Z</time>
      </trkpt>
      <trkpt lat="46.77281" lon="0.42803">
        <ele>95.2</ele>
        <time>2020-10-11T09:49:02Z</time>
      </trkpt>
      <trkpt lat="46.77278" lon="0.42806">
        <ele>95.8</ele>
        <time>2020-10-11T09:49:04Z</time>
      </trkpt>
      <trkpt lat="46.77275" lon="0.42809">
        <ele>96.4</ele>
        <time>2020-10-11T09:49:06Z</time>
      </trkpt>
      <trkpt lat="46.77272" lon="0.42811">
        <ele>97.2</ele>
        <time>2020-10-11T09:49:08Z</time>
      </trkpt>
      <trkpt lat="46.7727" lon="0.42811">
        <ele>97.4</ele>
        <time>2020-10-11T09:49:09Z</time>
      </trkpt>
      <trkpt lat="46.77268" lon="0.4281">
        <ele>97.8</ele>
        <time>2020-10-11T09:49:11Z</time>
      </trkpt>
      <trkpt lat="46.7726" lon="0.42798">
        <ele>98.4</ele>
        <time>2020-10-11T09:49:16Z</time>
      </trkpt>
      <trkpt lat="46.77253" lon="0.42776">
        <ele>98.6</ele>
        <time>2020-10-11T09:49:21Z</time>
      </trkpt>
      <trkpt lat="46.77243" lon="0.42741">
        <ele>98.4</ele>
        <time>2020-10-11T09:49:27Z</time>
      </trkpt>
      <trkpt lat="46.77231" lon="0.427">
        <ele>97.8</ele>
        <time>2020-10-11T09:49:34Z</time>
      </trkpt>
      <trkpt lat="46.77224" lon="0.42678">
        <ele>97.4</ele>
        <time>2020-10-11T09:49:38Z</time>
      </trkpt>
      <trkpt lat="46.77219" lon="0.42668">
        <ele>97.4</ele>
        <time>2020-10-11T09:49:40Z</time>
      </trkpt>
      <trkpt lat="46.77209" lon="0.42645">
        <ele>97.8</ele>
        <time>2020-10-11T09:49:45Z</time>
      </trkpt>
      <trkpt lat="46.77205" lon="0.42631">
        <ele>98</ele>
        <time>2020-10-11T09:49:48Z</time>
      </trkpt>
      <trkpt lat="46.77201" lon="0.42607">
        <ele>97.8</ele>
        <time>2020-10-11T09:49:54Z</time>
      </trkpt>
      <trkpt lat="46.77204" lon="0.42586">
        <ele>97.6</ele>
        <time>2020-10-11T09:49:57Z</time>
      </trkpt>
      <trkpt lat="46.77201" lon="0.42569">
        <ele>97</ele>
        <time>2020-10-11T09:50:00Z</time>
      </trkpt>
      <trkpt lat="46.77199" lon="0.42563">
        <ele>96.4</ele>
        <time>2020-10-11T09:50:02Z</time>
      </trkpt>
      <trkpt lat="46.77199" lon="0.42559">
        <ele>96</ele>
        <time>2020-10-11T09:50:04Z</time>
      </trkpt>
      <trkpt lat="46.77197" lon="0.42549">
        <ele>95.8</ele>
        <time>2020-10-11T09:50:10Z</time>
      </trkpt>
      <trkpt lat="46.77195" lon="0.42545">
        <ele>95.4</ele>
        <time>2020-10-11T09:50:17Z</time>
      </trkpt>
      <trkpt lat="46.77196" lon="0.42545">
        <ele>95.4</ele>
        <time>2020-10-11T09:50:41Z</time>
      </trkpt>
      <trkpt lat="46.77195" lon="0.42545">
        <ele>95.2</ele>
        <time>2020-10-11T09:51:06Z</time>
      </trkpt>
      <trkpt lat="46.77195" lon="0.42545">
        <ele>95</ele>
        <time>2020-10-11T09:51:30Z</time>
      </trkpt>
      <trkpt lat="46.77195" lon="0.42545">
        <ele>95</ele>
        <time>2020-10-11T09:51:33Z</time>
      </trkpt>
      <trkpt lat="46.77198" lon="0.42538">
        <ele>95</ele>
        <time>2020-10-11T09:51:40Z</time>
      </trkpt>
      <trkpt lat="46.77213" lon="0.42526">
        <ele>94.4</ele>
        <time>2020-10-11T09:51:45Z</time>
      </trkpt>
      <trkpt lat="46.77215" lon="0.42528">
        <ele>93.8</ele>
        <time>2020-10-11T09:51:46Z</time>
      </trkpt>
      <trkpt lat="46.77219" lon="0.42536">
        <ele>92.8</ele>
        <time>2020-10-11T09:51:49Z</time>
      </trkpt>
      <trkpt lat="46.77221" lon="0.42541">
        <ele>92.6</ele>
        <time>2020-10-11T09:51:51Z</time>
      </trkpt>
      <trkpt lat="46.77219" lon="0.42543">
        <ele>92.4</ele>
        <time>2020-10-11T09:51:53Z</time>
      </trkpt>
      <trkpt lat="46.77217" lon="0.42548">
        <ele>92.6</ele>
        <time>2020-10-11T09:51:55Z</time>
      </trkpt>
      <trkpt lat="46.77217" lon="0.42558">
        <ele>92.6</ele>
        <time>2020-10-11T09:51:57Z</time>
      </trkpt>
      <trkpt lat="46.77225" lon="0.42579">
        <ele>92.8</ele>
        <time>2020-10-11T09:52:02Z</time>
      </trkpt>
      <trkpt lat="46.77234" lon="0.42576">
        <ele>92.2</ele>
        <time>2020-10-11T09:52:05Z</time>
      </trkpt>
      <trkpt lat="46.7724" lon="0.42568">
        <ele>91.6</ele>
        <time>2020-10-11T09:52:07Z</time>
      </trkpt>
      <trkpt lat="46.77246" lon="0.42557">
        <ele>91.2</ele>
        <time>2020-10-11T09:52:09Z</time>
      </trkpt>
      <trkpt lat="46.7726" lon="0.42542">
        <ele>90.6</ele>
        <time>2020-10-11T09:52:12Z</time>
      </trkpt>
      <trkpt lat="46.77284" lon="0.42526">
        <ele>89.4</ele>
        <time>2020-10-11T09:52:16Z</time>
      </trkpt>
      <trkpt lat="46.77297" lon="0.42519">
        <ele>88.6</ele>
        <time>2020-10-11T09:52:18Z</time>
      </trkpt>
      <trkpt lat="46.77305" lon="0.42515">
        <ele>88</ele>
        <time>2020-10-11T09:52:19Z</time>
      </trkpt>
      <trkpt lat="46.77319" lon="0.42508">
        <ele>86.8</ele>
        <time>2020-10-11T09:52:21Z</time>
      </trkpt>
      <trkpt lat="46.77341" lon="0.425">
        <ele>85.6</ele>
        <time>2020-10-11T09:52:24Z</time>
      </trkpt>
      <trkpt lat="46.77348" lon="0.42497">
        <ele>85.4</ele>
        <time>2020-10-11T09:52:25Z</time>
      </trkpt>
      <trkpt lat="46.77357" lon="0.42492">
        <ele>84.6</ele>
        <time>2020-10-11T09:52:27Z</time>
      </trkpt>
      <trkpt lat="46.77361" lon="0.42489">
        <ele>84</ele>
        <time>2020-10-11T09:52:28Z</time>
      </trkpt>
      <trkpt lat="46.77367" lon="0.42487">
        <ele>83.4</ele>
        <time>2020-10-11T09:52:30Z</time>
      </trkpt>
      <trkpt lat="46.77374" lon="0.42485">
        <ele>83</ele>
        <time>2020-10-11T09:52:32Z</time>
      </trkpt>
      <trkpt lat="46.77378" lon="0.42483">
        <ele>82.8</ele>
        <time>2020-10-11T09:52:33Z</time>
      </trkpt>
      <trkpt lat="46.77385" lon="0.42481">
        <ele>82.4</ele>
        <time>2020-10-11T09:52:35Z</time>
      </trkpt>
      <trkpt lat="46.77388" lon="0.42484">
        <ele>82.2</ele>
        <time>2020-10-11T09:52:36Z</time>
      </trkpt>
      <trkpt lat="46.77398" lon="0.425">
        <ele>81.6</ele>
        <time>2020-10-11T09:52:41Z</time>
      </trkpt>
      <trkpt lat="46.774" lon="0.42514">
        <ele>81.8</ele>
        <time>2020-10-11T09:52:47Z</time>
      </trkpt>
      <trkpt lat="46.774" lon="0.42515">
        <ele>81.8</ele>
        <time>2020-10-11T09:52:49Z</time>
      </trkpt>
    </trkseg>
  </trk>
</gpx>